<?xml version='1.0' encoding='UTF-8'?><gpx version="1.1" creator="JPX - https://github.com/jenetics/jpx" xmlns="http://www.topografix.com/GPX/1/1"><trk><trkseg><trkpt lat="43.6746882" lon="12.6502694"><ele>231.99999999999997</ele><time>2026-05-03T07:57:31.791Z</time></trkpt><trkpt lat="43.6746191" lon="12.6502284"><ele>232.0</ele><time>2026-05-03T07:57:32.79Z</time></trkpt><trkpt lat="43.674534" lon="12.6501671"><ele>232.0</ele><time>2026-05-03T07:57:33.79Z</time></trkpt><trkpt lat="43.6744568" lon="12.6500882"><ele>232.0</ele><time>2026-05-03T07:57:34.789Z</time></trkpt><trkpt lat="43.6743769" lon="12.6500251"><ele>231.99999999999997</ele><time>2026-05-03T07:57:35.791Z</time></trkpt><trkpt lat="43.6743002" lon="12.6499702"><ele>232.0</ele><time>2026-05-03T07:57:36.79Z</time></trkpt><trkpt lat="43.6742244" lon="12.6499207"><ele>231.99999999999997</ele><time>2026-05-03T07:57:37.789Z</time></trkpt><trkpt lat="43.6741521" lon="12.6498747"><ele>232.0</ele><time>2026-05-03T07:57:38.789Z</time></trkpt><trkpt lat="43.6740782" lon="12.6498446"><ele>232.0</ele><time>2026-05-03T07:57:39.79Z</time></trkpt><trkpt lat="43.6740012" lon="12.6498539"><ele>232.0</ele><time>2026-05-03T07:57:40.789Z</time></trkpt><trkpt lat="43.673916" lon="12.6498991"><ele>231.99999999999997</ele><time>2026-05-03T07:57:41.79Z</time></trkpt><trkpt lat="43.6738376" lon="12.6499617"><ele>232.0</ele><time>2026-05-03T07:57:42.79Z</time></trkpt><trkpt lat="43.6738241" lon="12.650089"><ele>232.0</ele><time>2026-05-03T07:57:43.79Z</time></trkpt><trkpt lat="43.673764" lon="12.6501463"><ele>232.0</ele><time>2026-05-03T07:57:44.79Z</time></trkpt><trkpt lat="43.6736487" lon="12.6501713"><ele>232.0</ele><time>2026-05-03T07:57:46.79Z</time></trkpt><trkpt lat="43.6736537" lon="12.6500383"><ele>232.0</ele><time>2026-05-03T07:57:47.791Z</time></trkpt><trkpt lat="43.6736364" lon="12.6499297"><ele>232.0</ele><time>2026-05-03T07:57:48.789Z</time></trkpt><trkpt lat="43.6736227" lon="12.6497993"><ele>232.0</ele><time>2026-05-03T07:57:49.791Z</time></trkpt><trkpt lat="43.6736068" lon="12.649661"><ele>232.0</ele><time>2026-05-03T07:57:50.79Z</time></trkpt><trkpt lat="43.6735827" lon="12.6495188"><ele>232.0</ele><time>2026-05-03T07:57:51.79Z</time></trkpt><trkpt lat="43.6735601" lon="12.649377"><ele>232.0</ele><time>2026-05-03T07:57:52.79Z</time></trkpt><trkpt lat="43.6735344" lon="12.6492424"><ele>232.0</ele><time>2026-05-03T07:57:53.791Z</time></trkpt><trkpt lat="43.6735016" lon="12.6491106"><ele>230.0</ele><time>2026-05-03T07:57:54.79Z</time></trkpt><trkpt lat="43.6734751" lon="12.6489837"><ele>228.0</ele><time>2026-05-03T07:57:55.789Z</time></trkpt><trkpt lat="43.6734502" lon="12.6488603"><ele>226.0</ele><time>2026-05-03T07:57:56.791Z</time></trkpt><trkpt lat="43.6734413" lon="12.6487351"><ele>224.0</ele><time>2026-05-03T07:57:57.789Z</time></trkpt><trkpt lat="43.6734606" lon="12.6486171"><ele>222.0</ele><time>2026-05-03T07:57:58.791Z</time></trkpt><trkpt lat="43.673515" lon="12.6485014"><ele>220.66666666666666</ele><time>2026-05-03T07:57:59.79Z</time></trkpt><trkpt lat="43.67359" lon="12.6483903"><ele>219.33333333333331</ele><time>2026-05-03T07:58:00.789Z</time></trkpt><trkpt lat="43.6736513" lon="12.6482832"><ele>218.0</ele><time>2026-05-03T07:58:01.79Z</time></trkpt><trkpt lat="43.6737062" lon="12.648191"><ele>216.66666666666666</ele><time>2026-05-03T07:58:02.791Z</time></trkpt><trkpt lat="43.6737528" lon="12.6481134"><ele>215.33333333333331</ele><time>2026-05-03T07:58:03.79Z</time></trkpt><trkpt lat="43.673793" lon="12.6480446"><ele>214.0</ele><time>2026-05-03T07:58:04.789Z</time></trkpt><trkpt lat="43.6738392" lon="12.6479696"><ele>212.99999999999997</ele><time>2026-05-03T07:58:06.789Z</time></trkpt><trkpt lat="43.6738493" lon="12.6478829"><ele>212.0</ele><time>2026-05-03T07:58:18.789Z</time></trkpt><trkpt lat="43.6737641" lon="12.6478134"><ele>211.0</ele><time>2026-05-03T07:58:20.79Z</time></trkpt><trkpt lat="43.6736937" lon="12.6477914"><ele>210.0</ele><time>2026-05-03T07:58:21.789Z</time></trkpt><trkpt lat="43.6736151" lon="12.6477807"><ele>208.99999999999997</ele><time>2026-05-03T07:58:22.79Z</time></trkpt><trkpt lat="43.673525" lon="12.6477739"><ele>208.0</ele><time>2026-05-03T07:58:23.79Z</time></trkpt><trkpt lat="43.6734267" lon="12.6477617"><ele>207.0</ele><time>2026-05-03T07:58:24.79Z</time></trkpt><trkpt lat="43.6733238" lon="12.6477248"><ele>206.0</ele><time>2026-05-03T07:58:25.79Z</time></trkpt><trkpt lat="43.6732277" lon="12.6476374"><ele>205.0</ele><time>2026-05-03T07:58:26.789Z</time></trkpt><trkpt lat="43.6731576" lon="12.6474985"><ele>204.0</ele><time>2026-05-03T07:58:27.789Z</time></trkpt><trkpt lat="43.6731244" lon="12.6473249"><ele>204.0</ele><time>2026-05-03T07:58:28.79Z</time></trkpt><trkpt lat="43.673122" lon="12.6471375"><ele>204.0</ele><time>2026-05-03T07:58:29.79Z</time></trkpt><trkpt lat="43.6731275" lon="12.6469487"><ele>204.0</ele><time>2026-05-03T07:58:30.79Z</time></trkpt><trkpt lat="43.6731269" lon="12.6467691"><ele>204.0</ele><time>2026-05-03T07:58:31.789Z</time></trkpt><trkpt lat="43.673127" lon="12.6465959"><ele>203.39999999999998</ele><time>2026-05-03T07:58:32.789Z</time></trkpt><trkpt lat="43.6731254" lon="12.6464329"><ele>202.8</ele><time>2026-05-03T07:58:33.789Z</time></trkpt><trkpt lat="43.6731249" lon="12.6462839"><ele>202.2</ele><time>2026-05-03T07:58:34.79Z</time></trkpt><trkpt lat="43.6731211" lon="12.6461505"><ele>201.60000000000002</ele><time>2026-05-03T07:58:35.791Z</time></trkpt><trkpt lat="43.6731169" lon="12.6460273"><ele>201.0</ele><time>2026-05-03T07:58:36.789Z</time></trkpt><trkpt lat="43.6731164" lon="12.6458975"><ele>201.0</ele><time>2026-05-03T07:58:37.79Z</time></trkpt><trkpt lat="43.6731223" lon="12.6457658"><ele>201.0</ele><time>2026-05-03T07:58:38.79Z</time></trkpt><trkpt lat="43.6731295" lon="12.6456355"><ele>201.0</ele><time>2026-05-03T07:58:39.79Z</time></trkpt><trkpt lat="43.6731378" lon="12.6455064"><ele>201.0</ele><time>2026-05-03T07:58:40.79Z</time></trkpt><trkpt lat="43.6731529" lon="12.645381"><ele>201.0</ele><time>2026-05-03T07:58:41.79Z</time></trkpt><trkpt lat="43.6731705" lon="12.6452599"><ele>200.42857142857142</ele><time>2026-05-03T07:58:42.79Z</time></trkpt><trkpt lat="43.6731751" lon="12.6451443"><ele>199.85714285714286</ele><time>2026-05-03T07:58:43.79Z</time></trkpt><trkpt lat="43.6731614" lon="12.6450426"><ele>199.28571428571428</ele><time>2026-05-03T07:58:44.789Z</time></trkpt><trkpt lat="43.6731268" lon="12.6449623"><ele>198.71428571428572</ele><time>2026-05-03T07:58:45.79Z</time></trkpt><trkpt lat="43.6730702" lon="12.6449146"><ele>198.14285714285717</ele><time>2026-05-03T07:58:46.791Z</time></trkpt><trkpt lat="43.6730038" lon="12.6448875"><ele>197.57142857142858</ele><time>2026-05-03T07:58:47.79Z</time></trkpt><trkpt lat="43.6729282" lon="12.6448546"><ele>197.0</ele><time>2026-05-03T07:58:48.79Z</time></trkpt><trkpt lat="43.6728537" lon="12.6447983"><ele>197.0</ele><time>2026-05-03T07:58:49.79Z</time></trkpt><trkpt lat="43.6727729" lon="12.6447422"><ele>197.0</ele><time>2026-05-03T07:58:50.789Z</time></trkpt><trkpt lat="43.6726871" lon="12.6446825"><ele>197.0</ele><time>2026-05-03T07:58:51.791Z</time></trkpt><trkpt lat="43.6726" lon="12.644621"><ele>197.0</ele><time>2026-05-03T07:58:52.79Z</time></trkpt><trkpt lat="43.6725103" lon="12.6445551"><ele>197.0</ele><time>2026-05-03T07:58:53.79Z</time></trkpt><trkpt lat="43.6724172" lon="12.6444908"><ele>197.6</ele><time>2026-05-03T07:58:54.791Z</time></trkpt><trkpt lat="43.6723243" lon="12.6444254"><ele>198.2</ele><time>2026-05-03T07:58:55.789Z</time></trkpt><trkpt lat="43.6722282" lon="12.6443605"><ele>198.8</ele><time>2026-05-03T07:58:56.79Z</time></trkpt><trkpt lat="43.6721287" lon="12.644298"><ele>199.4</ele><time>2026-05-03T07:58:57.79Z</time></trkpt><trkpt lat="43.6720129" lon="12.6442488"><ele>200.0</ele><time>2026-05-03T07:58:58.789Z</time></trkpt><trkpt lat="43.6718754" lon="12.6442162"><ele>200.66666666666669</ele><time>2026-05-03T07:58:59.789Z</time></trkpt><trkpt lat="43.6717188" lon="12.6441838"><ele>201.33333333333331</ele><time>2026-05-03T07:59:00.789Z</time></trkpt><trkpt lat="43.6715623" lon="12.6441451"><ele>202.0</ele><time>2026-05-03T07:59:01.791Z</time></trkpt><trkpt lat="43.6714174" lon="12.644113"><ele>202.0</ele><time>2026-05-03T07:59:02.79Z</time></trkpt><trkpt lat="43.6712826" lon="12.64409"><ele>202.0</ele><time>2026-05-03T07:59:03.791Z</time></trkpt><trkpt lat="43.6711521" lon="12.6440671"><ele>202.0</ele><time>2026-05-03T07:59:04.79Z</time></trkpt><trkpt lat="43.6710224" lon="12.6440413"><ele>202.0</ele><time>2026-05-03T07:59:05.791Z</time></trkpt><trkpt lat="43.6708905" lon="12.6440143"><ele>202.75</ele><time>2026-05-03T07:59:06.79Z</time></trkpt><trkpt lat="43.6707618" lon="12.6439836"><ele>203.5</ele><time>2026-05-03T07:59:07.789Z</time></trkpt><trkpt lat="43.6706306" lon="12.6439562"><ele>204.25</ele><time>2026-05-03T07:59:08.791Z</time></trkpt><trkpt lat="43.6705017" lon="12.6439328"><ele>205.0</ele><time>2026-05-03T07:59:09.79Z</time></trkpt><trkpt lat="43.670389" lon="12.6439149"><ele>205.0</ele><time>2026-05-03T07:59:10.79Z</time></trkpt><trkpt lat="43.6702872" lon="12.6438991"><ele>205.0</ele><time>2026-05-03T07:59:11.789Z</time></trkpt><trkpt lat="43.6701871" lon="12.6438739"><ele>205.0</ele><time>2026-05-03T07:59:12.789Z</time></trkpt><trkpt lat="43.6700868" lon="12.6438535"><ele>205.0</ele><time>2026-05-03T07:59:13.79Z</time></trkpt><trkpt lat="43.6699824" lon="12.6438498"><ele>205.0</ele><time>2026-05-03T07:59:14.79Z</time></trkpt><trkpt lat="43.6698687" lon="12.6438625"><ele>205.25</ele><time>2026-05-03T07:59:15.789Z</time></trkpt><trkpt lat="43.6697508" lon="12.643887"><ele>205.5</ele><time>2026-05-03T07:59:16.79Z</time></trkpt><trkpt lat="43.6696241" lon="12.6439184"><ele>205.75</ele><time>2026-05-03T07:59:17.791Z</time></trkpt><trkpt lat="43.6694949" lon="12.6439593"><ele>206.0</ele><time>2026-05-03T07:59:18.79Z</time></trkpt><trkpt lat="43.669363" lon="12.6440071"><ele>206.25</ele><time>2026-05-03T07:59:19.79Z</time></trkpt><trkpt lat="43.6692244" lon="12.6440564"><ele>206.5</ele><time>2026-05-03T07:59:20.791Z</time></trkpt><trkpt lat="43.6690832" lon="12.6441023"><ele>206.75</ele><time>2026-05-03T07:59:21.79Z</time></trkpt><trkpt lat="43.6689384" lon="12.6441432"><ele>207.0</ele><time>2026-05-03T07:59:22.789Z</time></trkpt><trkpt lat="43.6687967" lon="12.6441917"><ele>207.0</ele><time>2026-05-03T07:59:23.79Z</time></trkpt><trkpt lat="43.6686609" lon="12.6442388"><ele>207.0</ele><time>2026-05-03T07:59:24.79Z</time></trkpt><trkpt lat="43.6685425" lon="12.644277"><ele>207.0</ele><time>2026-05-03T07:59:25.79Z</time></trkpt><trkpt lat="43.6684272" lon="12.6443139"><ele>207.0</ele><time>2026-05-03T07:59:26.789Z</time></trkpt><trkpt lat="43.6683215" lon="12.64435"><ele>207.0</ele><time>2026-05-03T07:59:27.789Z</time></trkpt><trkpt lat="43.6682316" lon="12.6443787"><ele>207.0</ele><time>2026-05-03T07:59:28.79Z</time></trkpt><trkpt lat="43.6681509" lon="12.6443863"><ele>207.0</ele><time>2026-05-03T07:59:29.791Z</time></trkpt><trkpt lat="43.6680828" lon="12.6443651"><ele>207.0</ele><time>2026-05-03T07:59:30.79Z</time></trkpt><trkpt lat="43.6680306" lon="12.6443043"><ele>207.0</ele><time>2026-05-03T07:59:31.79Z</time></trkpt><trkpt lat="43.6680034" lon="12.6442089"><ele>207.0</ele><time>2026-05-03T07:59:32.789Z</time></trkpt><trkpt lat="43.6679882" lon="12.6440924"><ele>207.0</ele><time>2026-05-03T07:59:33.79Z</time></trkpt><trkpt lat="43.6679588" lon="12.6439838"><ele>207.0</ele><time>2026-05-03T07:59:34.789Z</time></trkpt><trkpt lat="43.6679115" lon="12.6438929"><ele>207.0</ele><time>2026-05-03T07:59:35.791Z</time></trkpt><trkpt lat="43.6678458" lon="12.6438164"><ele>207.0</ele><time>2026-05-03T07:59:36.789Z</time></trkpt><trkpt lat="43.6677661" lon="12.6437436"><ele>207.0</ele><time>2026-05-03T07:59:37.79Z</time></trkpt><trkpt lat="43.667675" lon="12.6436736"><ele>206.39999999999998</ele><time>2026-05-03T07:59:38.79Z</time></trkpt><trkpt lat="43.6675866" lon="12.6436023"><ele>205.79999999999998</ele><time>2026-05-03T07:59:39.79Z</time></trkpt><trkpt lat="43.6675103" lon="12.6435209"><ele>205.2</ele><time>2026-05-03T07:59:40.791Z</time></trkpt><trkpt lat="43.6674297" lon="12.6434392"><ele>204.6</ele><time>2026-05-03T07:59:41.79Z</time></trkpt><trkpt lat="43.66735" lon="12.64337"><ele>204.0</ele><time>2026-05-03T07:59:42.79Z</time></trkpt><trkpt lat="43.6672674" lon="12.6433099"><ele>204.0</ele><time>2026-05-03T07:59:43.79Z</time></trkpt><trkpt lat="43.6671792" lon="12.6432601"><ele>204.0</ele><time>2026-05-03T07:59:44.791Z</time></trkpt><trkpt lat="43.6670921" lon="12.6432235"><ele>204.0</ele><time>2026-05-03T07:59:45.791Z</time></trkpt><trkpt lat="43.6670041" lon="12.6431828"><ele>204.0</ele><time>2026-05-03T07:59:46.791Z</time></trkpt><trkpt lat="43.6669153" lon="12.6431524"><ele>204.0</ele><time>2026-05-03T07:59:47.79Z</time></trkpt><trkpt lat="43.6668254" lon="12.6431281"><ele>205.39999999999998</ele><time>2026-05-03T07:59:48.79Z</time></trkpt><trkpt lat="43.666735" lon="12.6431129"><ele>206.8</ele><time>2026-05-03T07:59:49.79Z</time></trkpt><trkpt lat="43.6666401" lon="12.6431036"><ele>208.2</ele><time>2026-05-03T07:59:50.789Z</time></trkpt><trkpt lat="43.6665363" lon="12.6430965"><ele>209.60000000000002</ele><time>2026-05-03T07:59:51.791Z</time></trkpt><trkpt lat="43.6664133" lon="12.6430812"><ele>211.0</ele><time>2026-05-03T07:59:52.79Z</time></trkpt><trkpt lat="43.6663052" lon="12.6430451"><ele>211.0</ele><time>2026-05-03T07:59:53.791Z</time></trkpt><trkpt lat="43.6662049" lon="12.6429955"><ele>211.0</ele><time>2026-05-03T07:59:54.79Z</time></trkpt><trkpt lat="43.6661202" lon="12.6429493"><ele>211.0</ele><time>2026-05-03T07:59:55.789Z</time></trkpt><trkpt lat="43.6660391" lon="12.6428876"><ele>211.0</ele><time>2026-05-03T07:59:56.79Z</time></trkpt><trkpt lat="43.6659658" lon="12.642812"><ele>211.0</ele><time>2026-05-03T07:59:57.79Z</time></trkpt><trkpt lat="43.6658949" lon="12.6427356"><ele>213.49999999999997</ele><time>2026-05-03T07:59:58.791Z</time></trkpt><trkpt lat="43.6658283" lon="12.6426588"><ele>216.0</ele><time>2026-05-03T07:59:59.79Z</time></trkpt><trkpt lat="43.665767" lon="12.6425906"><ele>218.5</ele><time>2026-05-03T08:00:00.79Z</time></trkpt><trkpt lat="43.6657134" lon="12.6425251"><ele>221.0</ele><time>2026-05-03T08:00:01.79Z</time></trkpt><trkpt lat="43.6656543" lon="12.6424172"><ele>223.49999999999997</ele><time>2026-05-03T08:00:03.79Z</time></trkpt><trkpt lat="43.6655783" lon="12.6423899"><ele>226.0</ele><time>2026-05-03T08:00:05.791Z</time></trkpt><trkpt lat="43.6654934" lon="12.6424763"><ele>225.99999999999997</ele><time>2026-05-03T08:00:07.79Z</time></trkpt><trkpt lat="43.6654409" lon="12.6425379"><ele>226.0</ele><time>2026-05-03T08:00:08.791Z</time></trkpt><trkpt lat="43.6653822" lon="12.6426105"><ele>226.0</ele><time>2026-05-03T08:00:09.791Z</time></trkpt><trkpt lat="43.6653154" lon="12.6426757"><ele>226.0</ele><time>2026-05-03T08:00:10.79Z</time></trkpt><trkpt lat="43.6652529" lon="12.6427577"><ele>225.99999999999997</ele><time>2026-05-03T08:00:11.79Z</time></trkpt><trkpt lat="43.6652038" lon="12.6428376"><ele>226.0</ele><time>2026-05-03T08:00:12.79Z</time></trkpt><trkpt lat="43.6651516" lon="12.6428941"><ele>227.60000000000002</ele><time>2026-05-03T08:00:13.789Z</time></trkpt><trkpt lat="43.6650919" lon="12.6429224"><ele>229.20000000000002</ele><time>2026-05-03T08:00:14.79Z</time></trkpt><trkpt lat="43.6649992" lon="12.6428817"><ele>230.79999999999998</ele><time>2026-05-03T08:00:16.79Z</time></trkpt><trkpt lat="43.6649579" lon="12.6427605"><ele>232.39999999999998</ele><time>2026-05-03T08:00:18.79Z</time></trkpt><trkpt lat="43.6649387" lon="12.6426129"><ele>234.0</ele><time>2026-05-03T08:00:20.79Z</time></trkpt><trkpt lat="43.6649342" lon="12.64247"><ele>235.16666666666666</ele><time>2026-05-03T08:00:22.79Z</time></trkpt><trkpt lat="43.6649109" lon="12.6423513"><ele>236.33333333333331</ele><time>2026-05-03T08:00:24.79Z</time></trkpt><trkpt lat="43.6648891" lon="12.6422105"><ele>237.5</ele><time>2026-05-03T08:03:20.788Z</time></trkpt><trkpt lat="43.664881" lon="12.6421143"><ele>238.66666666666666</ele><time>2026-05-03T08:03:21.789Z</time></trkpt><trkpt lat="43.6648632" lon="12.6419934"><ele>239.83333333333331</ele><time>2026-05-03T08:03:22.789Z</time></trkpt><trkpt lat="43.6648299" lon="12.6418786"><ele>241.0</ele><time>2026-05-03T08:03:23.789Z</time></trkpt><trkpt lat="43.6647836" lon="12.6417715"><ele>240.99999999999997</ele><time>2026-05-03T08:03:24.789Z</time></trkpt><trkpt lat="43.6647256" lon="12.6416796"><ele>241.0</ele><time>2026-05-03T08:03:25.788Z</time></trkpt><trkpt lat="43.6646616" lon="12.6415936"><ele>241.0</ele><time>2026-05-03T08:03:26.789Z</time></trkpt><trkpt lat="43.6645927" lon="12.6415054"><ele>241.0</ele><time>2026-05-03T08:03:27.789Z</time></trkpt><trkpt lat="43.6645233" lon="12.6414315"><ele>240.99999999999997</ele><time>2026-05-03T08:03:28.789Z</time></trkpt><trkpt lat="43.6644596" lon="12.6413716"><ele>241.0</ele><time>2026-05-03T08:03:29.788Z</time></trkpt><trkpt lat="43.6643999" lon="12.6413109"><ele>244.49999999999997</ele><time>2026-05-03T08:03:30.788Z</time></trkpt><trkpt lat="43.6643194" lon="12.6411771"><ele>248.0</ele><time>2026-05-03T08:03:32.788Z</time></trkpt><trkpt lat="43.6642813" lon="12.641099"><ele>251.5</ele><time>2026-05-03T08:03:33.788Z</time></trkpt><trkpt lat="43.6642513" lon="12.6410013"><ele>255.0</ele><time>2026-05-03T08:03:34.79Z</time></trkpt><trkpt lat="43.6642294" lon="12.6408905"><ele>258.5</ele><time>2026-05-03T08:03:35.79Z</time></trkpt><trkpt lat="43.6642203" lon="12.6407703"><ele>262.0</ele><time>2026-05-03T08:03:36.789Z</time></trkpt><trkpt lat="43.6642298" lon="12.6406455"><ele>262.0</ele><time>2026-05-03T08:03:37.789Z</time></trkpt><trkpt lat="43.664232" lon="12.640512"><ele>262.0</ele><time>2026-05-03T08:03:38.789Z</time></trkpt><trkpt lat="43.6642312" lon="12.6403766"><ele>262.0</ele><time>2026-05-03T08:03:39.789Z</time></trkpt><trkpt lat="43.6642283" lon="12.6402412"><ele>262.0</ele><time>2026-05-03T08:03:40.788Z</time></trkpt><trkpt lat="43.6642236" lon="12.6401115"><ele>262.0</ele><time>2026-05-03T08:03:41.788Z</time></trkpt><trkpt lat="43.6642102" lon="12.6399943"><ele>262.0</ele><time>2026-05-03T08:03:42.79Z</time></trkpt><trkpt lat="43.6641804" lon="12.639885"><ele>262.0</ele><time>2026-05-03T08:03:43.788Z</time></trkpt><trkpt lat="43.6641415" lon="12.6397875"><ele>262.0</ele><time>2026-05-03T08:03:44.788Z</time></trkpt><trkpt lat="43.6640968" lon="12.6397056"><ele>262.0</ele><time>2026-05-03T08:03:45.789Z</time></trkpt><trkpt lat="43.664035" lon="12.6396347"><ele>262.0</ele><time>2026-05-03T08:03:46.789Z</time></trkpt><trkpt lat="43.6639701" lon="12.6395642"><ele>262.0</ele><time>2026-05-03T08:03:47.789Z</time></trkpt><trkpt lat="43.663886" lon="12.6394877"><ele>260.75</ele><time>2026-05-03T08:03:48.79Z</time></trkpt><trkpt lat="43.6637836" lon="12.6394047"><ele>259.5</ele><time>2026-05-03T08:03:49.789Z</time></trkpt><trkpt lat="43.6636693" lon="12.6393117"><ele>258.25</ele><time>2026-05-03T08:03:50.789Z</time></trkpt><trkpt lat="43.6635385" lon="12.6392056"><ele>257.0</ele><time>2026-05-03T08:03:51.788Z</time></trkpt><trkpt lat="43.6634113" lon="12.6391033"><ele>260.33333333333337</ele><time>2026-05-03T08:03:52.789Z</time></trkpt><trkpt lat="43.6633149" lon="12.6390228"><ele>263.6666666666667</ele><time>2026-05-03T08:03:53.79Z</time></trkpt><trkpt lat="43.6632345" lon="12.6389538"><ele>267.0</ele><time>2026-05-03T08:03:54.79Z</time></trkpt><trkpt lat="43.6631621" lon="12.638896"><ele>270.3333333333333</ele><time>2026-05-03T08:03:55.789Z</time></trkpt><trkpt lat="43.6631001" lon="12.6388461"><ele>273.66666666666663</ele><time>2026-05-03T08:03:56.789Z</time></trkpt><trkpt lat="43.6630429" lon="12.6388095"><ele>277.0</ele><time>2026-05-03T08:03:57.789Z</time></trkpt><trkpt lat="43.6629153" lon="12.6387915"><ele>277.0</ele><time>2026-05-03T08:03:59.789Z</time></trkpt><trkpt lat="43.6628331" lon="12.6387943"><ele>277.0</ele><time>2026-05-03T08:04:00.789Z</time></trkpt><trkpt lat="43.6627402" lon="12.6388055"><ele>277.0</ele><time>2026-05-03T08:04:01.79Z</time></trkpt><trkpt lat="43.6626468" lon="12.6388399"><ele>277.0</ele><time>2026-05-03T08:04:02.789Z</time></trkpt><trkpt lat="43.6625956" lon="12.638927"><ele>277.0</ele><time>2026-05-03T08:04:03.789Z</time></trkpt><trkpt lat="43.6625404" lon="12.6390354"><ele>277.0</ele><time>2026-05-03T08:04:04.788Z</time></trkpt><trkpt lat="43.662483" lon="12.6391628"><ele>277.4</ele><time>2026-05-03T08:04:05.789Z</time></trkpt><trkpt lat="43.6624147" lon="12.6392817"><ele>277.79999999999995</ele><time>2026-05-03T08:04:06.79Z</time></trkpt><trkpt lat="43.6623494" lon="12.6393821"><ele>278.2</ele><time>2026-05-03T08:04:07.79Z</time></trkpt><trkpt lat="43.6622793" lon="12.6394624"><ele>278.59999999999997</ele><time>2026-05-03T08:04:08.789Z</time></trkpt><trkpt lat="43.6622093" lon="12.6395332"><ele>279.0</ele><time>2026-05-03T08:04:09.789Z</time></trkpt><trkpt lat="43.6621253" lon="12.6396003"><ele>282.0</ele><time>2026-05-03T08:04:10.789Z</time></trkpt><trkpt lat="43.6620186" lon="12.6396818"><ele>285.0</ele><time>2026-05-03T08:04:11.789Z</time></trkpt><trkpt lat="43.6619021" lon="12.6397609"><ele>288.0</ele><time>2026-05-03T08:04:12.789Z</time></trkpt><trkpt lat="43.6617895" lon="12.6398282"><ele>291.0</ele><time>2026-05-03T08:04:13.789Z</time></trkpt><trkpt lat="43.6616881" lon="12.6398802"><ele>291.0</ele><time>2026-05-03T08:04:14.789Z</time></trkpt><trkpt lat="43.6615905" lon="12.6399268"><ele>291.0</ele><time>2026-05-03T08:04:15.789Z</time></trkpt><trkpt lat="43.661494" lon="12.639963"><ele>291.0</ele><time>2026-05-03T08:04:16.788Z</time></trkpt><trkpt lat="43.6614111" lon="12.639988"><ele>291.0</ele><time>2026-05-03T08:04:17.788Z</time></trkpt><trkpt lat="43.6613324" lon="12.6400116"><ele>291.0</ele><time>2026-05-03T08:04:18.789Z</time></trkpt><trkpt lat="43.6612625" lon="12.6400268"><ele>291.0</ele><time>2026-05-03T08:04:19.789Z</time></trkpt><trkpt lat="43.6611779" lon="12.6400448"><ele>289.1666666666667</ele><time>2026-05-03T08:04:20.788Z</time></trkpt><trkpt lat="43.6610938" lon="12.6400582"><ele>287.3333333333333</ele><time>2026-05-03T08:04:21.789Z</time></trkpt><trkpt lat="43.6610062" lon="12.6400731"><ele>285.5</ele><time>2026-05-03T08:04:22.789Z</time></trkpt><trkpt lat="43.6609122" lon="12.6400975"><ele>283.66666666666663</ele><time>2026-05-03T08:04:23.79Z</time></trkpt><trkpt lat="43.6608261" lon="12.6401189"><ele>281.8333333333333</ele><time>2026-05-03T08:04:24.788Z</time></trkpt><trkpt lat="43.6607428" lon="12.6401426"><ele>280.0</ele><time>2026-05-03T08:04:25.79Z</time></trkpt><trkpt lat="43.660664" lon="12.6401665"><ele>280.0</ele><time>2026-05-03T08:04:26.789Z</time></trkpt><trkpt lat="43.6605874" lon="12.6401903"><ele>280.0</ele><time>2026-05-03T08:04:27.789Z</time></trkpt><trkpt lat="43.6605046" lon="12.6402035"><ele>280.0</ele><time>2026-05-03T08:04:28.789Z</time></trkpt><trkpt lat="43.6604159" lon="12.6402175"><ele>280.0</ele><time>2026-05-03T08:04:29.788Z</time></trkpt><trkpt lat="43.6603219" lon="12.6402229"><ele>280.0</ele><time>2026-05-03T08:04:30.789Z</time></trkpt><trkpt lat="43.6602281" lon="12.640228"><ele>280.0</ele><time>2026-05-03T08:04:31.79Z</time></trkpt><trkpt lat="43.6601454" lon="12.6402463"><ele>279.8333333333333</ele><time>2026-05-03T08:04:32.79Z</time></trkpt><trkpt lat="43.6600678" lon="12.6402807"><ele>279.66666666666663</ele><time>2026-05-03T08:04:33.789Z</time></trkpt><trkpt lat="43.659996" lon="12.6403322"><ele>279.5</ele><time>2026-05-03T08:04:34.788Z</time></trkpt><trkpt lat="43.6599158" lon="12.6404043"><ele>279.3333333333333</ele><time>2026-05-03T08:04:35.789Z</time></trkpt><trkpt lat="43.6598426" lon="12.6404815"><ele>279.1666666666667</ele><time>2026-05-03T08:04:36.79Z</time></trkpt><trkpt lat="43.6597764" lon="12.6405704"><ele>279.0</ele><time>2026-05-03T08:04:37.789Z</time></trkpt><trkpt lat="43.6597133" lon="12.6406522"><ele>279.0</ele><time>2026-05-03T08:04:38.79Z</time></trkpt><trkpt lat="43.6596529" lon="12.6407339"><ele>279.0</ele><time>2026-05-03T08:04:39.788Z</time></trkpt><trkpt lat="43.6595919" lon="12.6407865"><ele>279.0</ele><time>2026-05-03T08:04:40.788Z</time></trkpt><trkpt lat="43.6595357" lon="12.640831"><ele>279.0</ele><time>2026-05-03T08:04:41.789Z</time></trkpt><trkpt lat="43.6594021" lon="12.6408051"><ele>279.0</ele><time>2026-05-03T08:04:43.79Z</time></trkpt><trkpt lat="43.6593165" lon="12.6406682"><ele>278.59999999999997</ele><time>2026-05-03T08:04:45.79Z</time></trkpt><trkpt lat="43.6593009" lon="12.6405701"><ele>278.2</ele><time>2026-05-03T08:04:46.789Z</time></trkpt><trkpt lat="43.6593" lon="12.6404578"><ele>277.79999999999995</ele><time>2026-05-03T08:04:47.788Z</time></trkpt><trkpt lat="43.6593057" lon="12.640325"><ele>277.4</ele><time>2026-05-03T08:04:48.789Z</time></trkpt><trkpt lat="43.6593114" lon="12.6401802"><ele>277.0</ele><time>2026-05-03T08:04:49.788Z</time></trkpt><trkpt lat="43.6593158" lon="12.6400116"><ele>277.0</ele><time>2026-05-03T08:04:50.789Z</time></trkpt><trkpt lat="43.6593244" lon="12.6398191"><ele>277.0</ele><time>2026-05-03T08:04:51.789Z</time></trkpt><trkpt lat="43.659337" lon="12.6396305"><ele>277.0</ele><time>2026-05-03T08:04:52.79Z</time></trkpt><trkpt lat="43.6593402" lon="12.6394734"><ele>277.0</ele><time>2026-05-03T08:04:53.789Z</time></trkpt><trkpt lat="43.6593405" lon="12.6393378"><ele>277.5</ele><time>2026-05-03T08:04:54.789Z</time></trkpt><trkpt lat="43.6593429" lon="12.6392235"><ele>278.0</ele><time>2026-05-03T08:04:55.79Z</time></trkpt><trkpt lat="43.65935" lon="12.6391257"><ele>278.5</ele><time>2026-05-03T08:04:56.788Z</time></trkpt><trkpt lat="43.6593414" lon="12.6390386"><ele>279.0</ele><time>2026-05-03T08:04:57.788Z</time></trkpt><trkpt lat="43.659266" lon="12.6389146"><ele>279.5</ele><time>2026-05-03T08:04:59.788Z</time></trkpt><trkpt lat="43.6592008" lon="12.6388913"><ele>280.0</ele><time>2026-05-03T08:05:00.788Z</time></trkpt><trkpt lat="43.6591297" lon="12.6389072"><ele>280.0</ele><time>2026-05-03T08:05:01.789Z</time></trkpt><trkpt lat="43.6590585" lon="12.6389654"><ele>280.0</ele><time>2026-05-03T08:05:02.789Z</time></trkpt><trkpt lat="43.6589864" lon="12.6390617"><ele>280.0</ele><time>2026-05-03T08:05:03.789Z</time></trkpt><trkpt lat="43.6589094" lon="12.6391763"><ele>280.0</ele><time>2026-05-03T08:05:04.788Z</time></trkpt><trkpt lat="43.6588344" lon="12.6393072"><ele>280.0</ele><time>2026-05-03T08:05:05.79Z</time></trkpt><trkpt lat="43.6587578" lon="12.6394431"><ele>279.25</ele><time>2026-05-03T08:05:06.788Z</time></trkpt><trkpt lat="43.6586817" lon="12.6395855"><ele>278.5</ele><time>2026-05-03T08:05:07.789Z</time></trkpt><trkpt lat="43.658605" lon="12.6397309"><ele>277.75</ele><time>2026-05-03T08:05:08.789Z</time></trkpt><trkpt lat="43.6585321" lon="12.6398746"><ele>277.0</ele><time>2026-05-03T08:05:09.789Z</time></trkpt><trkpt lat="43.6584714" lon="12.6399962"><ele>280.6</ele><time>2026-05-03T08:05:10.788Z</time></trkpt><trkpt lat="43.6584123" lon="12.6401082"><ele>284.2</ele><time>2026-05-03T08:05:11.788Z</time></trkpt><trkpt lat="43.6583483" lon="12.6402084"><ele>287.8</ele><time>2026-05-03T08:05:12.788Z</time></trkpt><trkpt lat="43.6582792" lon="12.6403001"><ele>291.4</ele><time>2026-05-03T08:05:13.79Z</time></trkpt><trkpt lat="43.6582028" lon="12.640397"><ele>295.0</ele><time>2026-05-03T08:05:14.789Z</time></trkpt><trkpt lat="43.6581082" lon="12.6405039"><ele>295.0</ele><time>2026-05-03T08:05:15.79Z</time></trkpt><trkpt lat="43.6580066" lon="12.6406108"><ele>295.0</ele><time>2026-05-03T08:05:16.789Z</time></trkpt><trkpt lat="43.6579137" lon="12.6407052"><ele>295.0</ele><time>2026-05-03T08:05:17.789Z</time></trkpt><trkpt lat="43.6578281" lon="12.640791"><ele>295.0</ele><time>2026-05-03T08:05:18.788Z</time></trkpt><trkpt lat="43.6577474" lon="12.6408701"><ele>295.0</ele><time>2026-05-03T08:05:19.788Z</time></trkpt><trkpt lat="43.6576697" lon="12.6409549"><ele>297.3333333333333</ele><time>2026-05-03T08:05:20.788Z</time></trkpt><trkpt lat="43.6575989" lon="12.6410415"><ele>299.66666666666663</ele><time>2026-05-03T08:05:21.788Z</time></trkpt><trkpt lat="43.6575285" lon="12.6411255"><ele>302.0</ele><time>2026-05-03T08:05:22.788Z</time></trkpt><trkpt lat="43.6574603" lon="12.6412005"><ele>304.3333333333333</ele><time>2026-05-03T08:05:23.787Z</time></trkpt><trkpt lat="43.6573952" lon="12.64124"><ele>306.6666666666667</ele><time>2026-05-03T08:05:24.788Z</time></trkpt><trkpt lat="43.6573281" lon="12.6412331"><ele>309.0</ele><time>2026-05-03T08:05:25.789Z</time></trkpt><trkpt lat="43.6572679" lon="12.6411847"><ele>309.3333333333333</ele><time>2026-05-03T08:05:26.788Z</time></trkpt><trkpt lat="43.6572044" lon="12.6411298"><ele>309.6666666666667</ele><time>2026-05-03T08:05:27.789Z</time></trkpt><trkpt lat="43.6571298" lon="12.6411006"><ele>310.0</ele><time>2026-05-03T08:05:28.789Z</time></trkpt><trkpt lat="43.6570573" lon="12.6410823"><ele>310.33333333333337</ele><time>2026-05-03T08:05:29.788Z</time></trkpt><trkpt lat="43.6569907" lon="12.6410756"><ele>310.6666666666667</ele><time>2026-05-03T08:05:30.788Z</time></trkpt><trkpt lat="43.656893" lon="12.6411145"><ele>311.0</ele><time>2026-05-03T08:05:32.789Z</time></trkpt><trkpt lat="43.6568462" lon="12.6411917"><ele>314.0</ele><time>2026-05-03T08:05:33.789Z</time></trkpt><trkpt lat="43.6567746" lon="12.6412683"><ele>317.0</ele><time>2026-05-03T08:05:34.788Z</time></trkpt><trkpt lat="43.656678" lon="12.6413338"><ele>320.0</ele><time>2026-05-03T08:05:35.789Z</time></trkpt><trkpt lat="43.6565795" lon="12.6413965"><ele>323.0</ele><time>2026-05-03T08:05:36.788Z</time></trkpt><trkpt lat="43.6564618" lon="12.64146"><ele>326.0</ele><time>2026-05-03T08:05:37.788Z</time></trkpt><trkpt lat="43.6563236" lon="12.6415061"><ele>326.0</ele><time>2026-05-03T08:05:38.787Z</time></trkpt><trkpt lat="43.6561685" lon="12.6415586"><ele>326.0</ele><time>2026-05-03T08:05:39.789Z</time></trkpt><trkpt lat="43.6560003" lon="12.6416073"><ele>326.0</ele><time>2026-05-03T08:05:40.787Z</time></trkpt><trkpt lat="43.6558597" lon="12.6416493"><ele>326.5</ele><time>2026-05-03T08:05:41.789Z</time></trkpt><trkpt lat="43.6557326" lon="12.6416878"><ele>327.0</ele><time>2026-05-03T08:05:42.788Z</time></trkpt><trkpt lat="43.6556162" lon="12.6417208"><ele>327.5</ele><time>2026-05-03T08:05:43.789Z</time></trkpt><trkpt lat="43.6555023" lon="12.6417544"><ele>328.0</ele><time>2026-05-03T08:05:44.789Z</time></trkpt><trkpt lat="43.6554011" lon="12.6417799"><ele>328.0</ele><time>2026-05-03T08:05:45.789Z</time></trkpt><trkpt lat="43.6553102" lon="12.6418003"><ele>328.0</ele><time>2026-05-03T08:05:46.787Z</time></trkpt><trkpt lat="43.6552236" lon="12.6418209"><ele>328.0</ele><time>2026-05-03T08:05:47.788Z</time></trkpt><trkpt lat="43.655144" lon="12.6418495"><ele>328.0</ele><time>2026-05-03T08:05:48.788Z</time></trkpt><trkpt lat="43.6550757" lon="12.6418931"><ele>328.0</ele><time>2026-05-03T08:05:49.789Z</time></trkpt><trkpt lat="43.6550149" lon="12.6419615"><ele>328.0</ele><time>2026-05-03T08:05:50.788Z</time></trkpt><trkpt lat="43.6549667" lon="12.6420545"><ele>330.0</ele><time>2026-05-03T08:05:51.787Z</time></trkpt><trkpt lat="43.654924" lon="12.6421739"><ele>332.0</ele><time>2026-05-03T08:05:52.788Z</time></trkpt><trkpt lat="43.65488" lon="12.6423112"><ele>334.0</ele><time>2026-05-03T08:05:53.788Z</time></trkpt><trkpt lat="43.6548336" lon="12.6424488"><ele>336.0</ele><time>2026-05-03T08:05:54.788Z</time></trkpt><trkpt lat="43.654792" lon="12.6425811"><ele>338.0</ele><time>2026-05-03T08:05:55.788Z</time></trkpt><trkpt lat="43.6547552" lon="12.6427011"><ele>338.1666666666667</ele><time>2026-05-03T08:05:56.788Z</time></trkpt><trkpt lat="43.6547227" lon="12.6428116"><ele>338.33333333333337</ele><time>2026-05-03T08:05:57.787Z</time></trkpt><trkpt lat="43.6546942" lon="12.6429098"><ele>338.5</ele><time>2026-05-03T08:05:58.788Z</time></trkpt><trkpt lat="43.6546664" lon="12.6429917"><ele>338.6666666666667</ele><time>2026-05-03T08:05:59.788Z</time></trkpt><trkpt lat="43.6545932" lon="12.6431081"><ele>338.8333333333333</ele><time>2026-05-03T08:06:01.787Z</time></trkpt><trkpt lat="43.6544918" lon="12.6431172"><ele>339.0</ele><time>2026-05-03T08:06:03.789Z</time></trkpt><trkpt lat="43.6543783" lon="12.6430534"><ele>342.3333333333333</ele><time>2026-05-03T08:06:05.787Z</time></trkpt><trkpt lat="43.6543126" lon="12.6430078"><ele>345.6666666666667</ele><time>2026-05-03T08:06:06.787Z</time></trkpt><trkpt lat="43.6542451" lon="12.6429597"><ele>349.0</ele><time>2026-05-03T08:06:07.789Z</time></trkpt><trkpt lat="43.6541726" lon="12.6429096"><ele>352.33333333333337</ele><time>2026-05-03T08:06:08.787Z</time></trkpt><trkpt lat="43.6541005" lon="12.6428675"><ele>355.6666666666667</ele><time>2026-05-03T08:06:09.788Z</time></trkpt><trkpt lat="43.654021" lon="12.6428349"><ele>359.0</ele><time>2026-05-03T08:06:10.788Z</time></trkpt><trkpt lat="43.6539409" lon="12.642805"><ele>357.83333333333337</ele><time>2026-05-03T08:06:11.788Z</time></trkpt><trkpt lat="43.6538669" lon="12.6427786"><ele>356.6666666666667</ele><time>2026-05-03T08:06:12.788Z</time></trkpt><trkpt lat="43.6537415" lon="12.6427243"><ele>355.5</ele><time>2026-05-03T08:06:14.788Z</time></trkpt><trkpt lat="43.6536737" lon="12.6426918"><ele>354.3333333333333</ele><time>2026-05-03T08:06:15.788Z</time></trkpt><trkpt lat="43.6535974" lon="12.6426611"><ele>353.16666666666663</ele><time>2026-05-03T08:06:16.788Z</time></trkpt><trkpt lat="43.6535117" lon="12.6426276"><ele>352.0</ele><time>2026-05-03T08:06:17.788Z</time></trkpt><trkpt lat="43.6534273" lon="12.6425928"><ele>354.8333333333333</ele><time>2026-05-03T08:06:18.788Z</time></trkpt><trkpt lat="43.6533421" lon="12.6425564"><ele>357.66666666666663</ele><time>2026-05-03T08:06:19.788Z</time></trkpt><trkpt lat="43.6532617" lon="12.6425212"><ele>360.5</ele><time>2026-05-03T08:06:20.788Z</time></trkpt><trkpt lat="43.6531843" lon="12.6424892"><ele>363.3333333333333</ele><time>2026-05-03T08:06:21.789Z</time></trkpt><trkpt lat="43.6531146" lon="12.6424539"><ele>366.1666666666667</ele><time>2026-05-03T08:06:22.787Z</time></trkpt><trkpt lat="43.6530527" lon="12.642418"><ele>369.0</ele><time>2026-05-03T08:06:23.788Z</time></trkpt><trkpt lat="43.6529611" lon="12.6423152"><ele>369.0</ele><time>2026-05-03T08:06:25.788Z</time></trkpt><trkpt lat="43.6529238" lon="12.6421563"><ele>369.0</ele><time>2026-05-03T08:06:27.787Z</time></trkpt><trkpt lat="43.6528903" lon="12.642038"><ele>369.0</ele><time>2026-05-03T08:06:29.788Z</time></trkpt><trkpt lat="43.6528224" lon="12.6420236"><ele>369.0</ele><time>2026-05-03T08:06:31.787Z</time></trkpt><trkpt lat="43.6527844" lon="12.6420966"><ele>369.0</ele><time>2026-05-03T08:06:33.787Z</time></trkpt><trkpt lat="43.6527462" lon="12.6422406"><ele>372.6</ele><time>2026-05-03T08:06:35.788Z</time></trkpt><trkpt lat="43.6527192" lon="12.6423461"><ele>376.2</ele><time>2026-05-03T08:06:36.788Z</time></trkpt><trkpt lat="43.6526893" lon="12.642466"><ele>379.8</ele><time>2026-05-03T08:06:37.787Z</time></trkpt><trkpt lat="43.6526652" lon="12.6425953"><ele>383.40000000000003</ele><time>2026-05-03T08:06:38.788Z</time></trkpt><trkpt lat="43.6526484" lon="12.6427299"><ele>387.0</ele><time>2026-05-03T08:06:39.788Z</time></trkpt><trkpt lat="43.6526231" lon="12.6428548"><ele>387.0</ele><time>2026-05-03T08:06:40.788Z</time></trkpt><trkpt lat="43.6525828" lon="12.6429817"><ele>387.0</ele><time>2026-05-03T08:06:41.788Z</time></trkpt><trkpt lat="43.6525372" lon="12.6431097"><ele>387.0</ele><time>2026-05-03T08:06:42.788Z</time></trkpt><trkpt lat="43.6524922" lon="12.6432295"><ele>387.0</ele><time>2026-05-03T08:06:43.787Z</time></trkpt><trkpt lat="43.6524525" lon="12.6433305"><ele>387.0</ele><time>2026-05-03T08:06:44.788Z</time></trkpt><trkpt lat="43.6524157" lon="12.6434254"><ele>387.0</ele><time>2026-05-03T08:06:45.788Z</time></trkpt><trkpt lat="43.6524028" lon="12.6435266"><ele>387.0</ele><time>2026-05-03T08:06:46.788Z</time></trkpt><trkpt lat="43.6524248" lon="12.6436286"><ele>387.0</ele><time>2026-05-03T08:06:47.788Z</time></trkpt><trkpt lat="43.652463" lon="12.643752"><ele>387.0</ele><time>2026-05-03T08:06:48.787Z</time></trkpt><trkpt lat="43.6524919" lon="12.6438559"><ele>387.0</ele><time>2026-05-03T08:06:49.788Z</time></trkpt><trkpt lat="43.6525031" lon="12.6439499"><ele>387.0</ele><time>2026-05-03T08:06:50.789Z</time></trkpt><trkpt lat="43.6524896" lon="12.6440389"><ele>386.8</ele><time>2026-05-03T08:06:51.789Z</time></trkpt><trkpt lat="43.6524575" lon="12.6441256"><ele>386.6</ele><time>2026-05-03T08:06:52.788Z</time></trkpt><trkpt lat="43.6524075" lon="12.6442044"><ele>386.40000000000003</ele><time>2026-05-03T08:06:53.788Z</time></trkpt><trkpt lat="43.6523389" lon="12.644275"><ele>386.20000000000005</ele><time>2026-05-03T08:06:54.787Z</time></trkpt><trkpt lat="43.6522537" lon="12.6443439"><ele>386.0</ele><time>2026-05-03T08:06:55.788Z</time></trkpt><trkpt lat="43.6521437" lon="12.644417"><ele>385.0</ele><time>2026-05-03T08:06:56.788Z</time></trkpt><trkpt lat="43.6520512" lon="12.6444927"><ele>384.0</ele><time>2026-05-03T08:06:57.788Z</time></trkpt><trkpt lat="43.6519747" lon="12.6445801"><ele>383.0</ele><time>2026-05-03T08:06:58.787Z</time></trkpt><trkpt lat="43.651887" lon="12.6446864"><ele>382.0</ele><time>2026-05-03T08:06:59.789Z</time></trkpt><trkpt lat="43.6517989" lon="12.644813"><ele>385.0</ele><time>2026-05-03T08:07:00.788Z</time></trkpt><trkpt lat="43.6517223" lon="12.644918"><ele>388.0</ele><time>2026-05-03T08:07:01.788Z</time></trkpt><trkpt lat="43.6516513" lon="12.6450091"><ele>391.0</ele><time>2026-05-03T08:07:02.789Z</time></trkpt><trkpt lat="43.6515838" lon="12.6450795"><ele>394.0</ele><time>2026-05-03T08:07:03.788Z</time></trkpt><trkpt lat="43.651507" lon="12.6451359"><ele>397.0</ele><time>2026-05-03T08:07:04.788Z</time></trkpt><trkpt lat="43.6514223" lon="12.6451958"><ele>397.00000000000006</ele><time>2026-05-03T08:07:05.787Z</time></trkpt><trkpt lat="43.6513413" lon="12.6452573"><ele>397.0</ele><time>2026-05-03T08:07:06.789Z</time></trkpt><trkpt lat="43.6512741" lon="12.6453237"><ele>397.0</ele><time>2026-05-03T08:07:07.788Z</time></trkpt><trkpt lat="43.6512195" lon="12.645401"><ele>397.0</ele><time>2026-05-03T08:07:08.787Z</time></trkpt><trkpt lat="43.651183" lon="12.6455057"><ele>397.00000000000006</ele><time>2026-05-03T08:07:09.787Z</time></trkpt><trkpt lat="43.6511468" lon="12.6456442"><ele>397.0</ele><time>2026-05-03T08:07:10.788Z</time></trkpt><trkpt lat="43.6511138" lon="12.6457805"><ele>397.6666666666667</ele><time>2026-05-03T08:07:11.787Z</time></trkpt><trkpt lat="43.6510877" lon="12.6458931"><ele>398.33333333333337</ele><time>2026-05-03T08:07:12.787Z</time></trkpt><trkpt lat="43.6510533" lon="12.6459788"><ele>399.0</ele><time>2026-05-03T08:07:13.789Z</time></trkpt><trkpt lat="43.6509899" lon="12.6461044"><ele>399.66666666666663</ele><time>2026-05-03T08:07:15.789Z</time></trkpt><trkpt lat="43.6509429" lon="12.6461907"><ele>400.3333333333333</ele><time>2026-05-03T08:07:17.787Z</time></trkpt><trkpt lat="43.6509572" lon="12.6462956"><ele>401.0</ele><time>2026-05-03T08:07:46.788Z</time></trkpt><trkpt lat="43.6510064" lon="12.6464005"><ele>401.0</ele><time>2026-05-03T08:07:48.789Z</time></trkpt><trkpt lat="43.6510843" lon="12.6465198"><ele>401.0</ele><time>2026-05-03T08:07:50.787Z</time></trkpt><trkpt lat="43.6511644" lon="12.646643"><ele>401.0</ele><time>2026-05-03T08:07:52.788Z</time></trkpt><trkpt lat="43.651241" lon="12.6467749"><ele>401.0</ele><time>2026-05-03T08:07:54.788Z</time></trkpt><trkpt lat="43.6512901" lon="12.6469208"><ele>403.0</ele><time>2026-05-03T08:07:56.788Z</time></trkpt><trkpt lat="43.6512542" lon="12.6470572"><ele>405.0</ele><time>2026-05-03T08:07:58.788Z</time></trkpt><trkpt lat="43.6512448" lon="12.64717"><ele>407.0</ele><time>2026-05-03T08:08:00.789Z</time></trkpt><trkpt lat="43.6512449" lon="12.6473126"><ele>409.0</ele><time>2026-05-03T08:08:02.788Z</time></trkpt><trkpt lat="43.6512374" lon="12.6474445"><ele>411.0</ele><time>2026-05-03T08:08:04.787Z</time></trkpt><trkpt lat="43.6512208" lon="12.6475695"><ele>411.0</ele><time>2026-05-03T08:08:06.788Z</time></trkpt><trkpt lat="43.6512074" lon="12.6477037"><ele>411.0</ele><time>2026-05-03T08:08:08.788Z</time></trkpt><trkpt lat="43.6511978" lon="12.6478091"><ele>411.0</ele><time>2026-05-03T08:08:10.787Z</time></trkpt><trkpt lat="43.6511725" lon="12.6479107"><ele>411.0</ele><time>2026-05-03T08:08:12.788Z</time></trkpt><trkpt lat="43.6511229" lon="12.6480186"><ele>411.0</ele><time>2026-05-03T08:08:14.787Z</time></trkpt><trkpt lat="43.6510583" lon="12.6481046"><ele>411.0</ele><time>2026-05-03T08:08:16.787Z</time></trkpt><trkpt lat="43.6509815" lon="12.6481848"><ele>412.6</ele><time>2026-05-03T08:08:18.788Z</time></trkpt><trkpt lat="43.6509095" lon="12.648255"><ele>414.20000000000005</ele><time>2026-05-03T08:08:20.787Z</time></trkpt><trkpt lat="43.6508295" lon="12.648335"><ele>415.79999999999995</ele><time>2026-05-03T08:08:22.787Z</time></trkpt><trkpt lat="43.6507476" lon="12.6484164"><ele>417.4</ele><time>2026-05-03T08:08:24.788Z</time></trkpt><trkpt lat="43.6506569" lon="12.6485166"><ele>419.0</ele><time>2026-05-03T08:08:26.787Z</time></trkpt><trkpt lat="43.6505813" lon="12.6486254"><ele>422.4</ele><time>2026-05-03T08:08:28.788Z</time></trkpt><trkpt lat="43.6505145" lon="12.6487472"><ele>425.79999999999995</ele><time>2026-05-03T08:08:30.787Z</time></trkpt><trkpt lat="43.6504642" lon="12.6488796"><ele>429.20000000000005</ele><time>2026-05-03T08:08:32.789Z</time></trkpt><trkpt lat="43.6504206" lon="12.6490151"><ele>432.6</ele><time>2026-05-03T08:08:34.787Z</time></trkpt><trkpt lat="43.650404" lon="12.6491836"><ele>436.0</ele><time>2026-05-03T08:08:36.788Z</time></trkpt><trkpt lat="43.6503787" lon="12.6493586"><ele>436.4</ele><time>2026-05-03T08:08:38.787Z</time></trkpt><trkpt lat="43.6503575" lon="12.6495267"><ele>436.8</ele><time>2026-05-03T08:08:40.788Z</time></trkpt><trkpt lat="43.6503655" lon="12.6496852"><ele>437.19999999999993</ele><time>2026-05-03T08:08:42.788Z</time></trkpt><trkpt lat="43.650435" lon="12.6497806"><ele>437.59999999999997</ele><time>2026-05-03T08:08:44.788Z</time></trkpt><trkpt lat="43.6505421" lon="12.6498006"><ele>438.0</ele><time>2026-05-03T08:08:46.787Z</time></trkpt><trkpt lat="43.6506069" lon="12.6497984"><ele>438.0</ele><time>2026-05-03T08:08:47.787Z</time></trkpt><trkpt lat="43.650688" lon="12.6498086"><ele>437.99999999999994</ele><time>2026-05-03T08:08:48.789Z</time></trkpt><trkpt lat="43.6507804" lon="12.6498218"><ele>437.99999999999994</ele><time>2026-05-03T08:08:49.788Z</time></trkpt><trkpt lat="43.6508913" lon="12.6498414"><ele>438.0</ele><time>2026-05-03T08:08:50.789Z</time></trkpt><trkpt lat="43.6509975" lon="12.6498739"><ele>438.0</ele><time>2026-05-03T08:08:51.788Z</time></trkpt><trkpt lat="43.6510925" lon="12.6499132"><ele>439.59999999999997</ele><time>2026-05-03T08:08:52.787Z</time></trkpt><trkpt lat="43.6511963" lon="12.649965"><ele>441.19999999999993</ele><time>2026-05-03T08:08:53.787Z</time></trkpt><trkpt lat="43.6512954" lon="12.6500258"><ele>442.8</ele><time>2026-05-03T08:08:54.788Z</time></trkpt><trkpt lat="43.6513929" lon="12.6500995"><ele>444.4</ele><time>2026-05-03T08:08:55.788Z</time></trkpt><trkpt lat="43.6514788" lon="12.6501706"><ele>446.0</ele><time>2026-05-03T08:08:56.788Z</time></trkpt><trkpt lat="43.6515628" lon="12.6502338"><ele>445.99999999999994</ele><time>2026-05-03T08:08:57.788Z</time></trkpt><trkpt lat="43.6516473" lon="12.6502968"><ele>446.0</ele><time>2026-05-03T08:08:58.788Z</time></trkpt><trkpt lat="43.651717" lon="12.6503592"><ele>446.0</ele><time>2026-05-03T08:08:59.788Z</time></trkpt><trkpt lat="43.6517813" lon="12.6504235"><ele>446.0</ele><time>2026-05-03T08:09:00.787Z</time></trkpt><trkpt lat="43.651841" lon="12.650492"><ele>445.99999999999994</ele><time>2026-05-03T08:09:01.787Z</time></trkpt><trkpt lat="43.6519049" lon="12.6505591"><ele>446.0</ele><time>2026-05-03T08:09:02.787Z</time></trkpt><trkpt lat="43.6519699" lon="12.6506198"><ele>445.99999999999994</ele><time>2026-05-03T08:09:03.787Z</time></trkpt><trkpt lat="43.652043" lon="12.6506746"><ele>446.0</ele><time>2026-05-03T08:09:04.788Z</time></trkpt><trkpt lat="43.6521084" lon="12.6507184"><ele>446.0</ele><time>2026-05-03T08:09:05.789Z</time></trkpt><trkpt lat="43.6521714" lon="12.6507566"><ele>446.0</ele><time>2026-05-03T08:09:06.789Z</time></trkpt><trkpt lat="43.6522688" lon="12.6508167"><ele>445.99999999999994</ele><time>2026-05-03T08:09:08.787Z</time></trkpt><trkpt lat="43.6523358" lon="12.650869"><ele>446.0</ele><time>2026-05-03T08:09:18.789Z</time></trkpt><trkpt lat="43.652353" lon="12.6509577"><ele>446.0</ele><time>2026-05-03T08:09:20.788Z</time></trkpt><trkpt lat="43.6523337" lon="12.6510436"><ele>446.0</ele><time>2026-05-03T08:09:21.788Z</time></trkpt><trkpt lat="43.6522964" lon="12.6511485"><ele>446.0</ele><time>2026-05-03T08:09:22.788Z</time></trkpt><trkpt lat="43.6522487" lon="12.6512675"><ele>446.0</ele><time>2026-05-03T08:09:23.787Z</time></trkpt><trkpt lat="43.6522015" lon="12.6514008"><ele>446.0</ele><time>2026-05-03T08:09:24.787Z</time></trkpt><trkpt lat="43.65215" lon="12.6515356"><ele>447.0</ele><time>2026-05-03T08:09:25.788Z</time></trkpt><trkpt lat="43.6520865" lon="12.6516761"><ele>448.0</ele><time>2026-05-03T08:09:26.787Z</time></trkpt><trkpt lat="43.6520112" lon="12.6518096"><ele>449.0</ele><time>2026-05-03T08:09:27.788Z</time></trkpt><trkpt lat="43.6519351" lon="12.6519452"><ele>450.0</ele><time>2026-05-03T08:09:28.788Z</time></trkpt><trkpt lat="43.6518584" lon="12.652071"><ele>450.0</ele><time>2026-05-03T08:09:29.788Z</time></trkpt><trkpt lat="43.6517845" lon="12.6521879"><ele>450.0</ele><time>2026-05-03T08:09:30.788Z</time></trkpt><trkpt lat="43.6517117" lon="12.6523091"><ele>450.0</ele><time>2026-05-03T08:09:31.788Z</time></trkpt><trkpt lat="43.6516457" lon="12.6524289"><ele>450.0</ele><time>2026-05-03T08:09:32.788Z</time></trkpt><trkpt lat="43.6515867" lon="12.6525469"><ele>450.0</ele><time>2026-05-03T08:09:33.788Z</time></trkpt><trkpt lat="43.6515379" lon="12.6526737"><ele>453.75</ele><time>2026-05-03T08:09:34.787Z</time></trkpt><trkpt lat="43.6514847" lon="12.6528102"><ele>457.5</ele><time>2026-05-03T08:09:35.789Z</time></trkpt><trkpt lat="43.6514407" lon="12.6529539"><ele>461.25</ele><time>2026-05-03T08:09:36.788Z</time></trkpt><trkpt lat="43.6513977" lon="12.6530987"><ele>465.0</ele><time>2026-05-03T08:09:37.788Z</time></trkpt><trkpt lat="43.6513559" lon="12.653244"><ele>465.0</ele><time>2026-05-03T08:09:38.788Z</time></trkpt><trkpt lat="43.6513122" lon="12.6533918"><ele>465.0</ele><time>2026-05-03T08:09:39.789Z</time></trkpt><trkpt lat="43.6512635" lon="12.6535366"><ele>465.0</ele><time>2026-05-03T08:09:40.787Z</time></trkpt><trkpt lat="43.6512128" lon="12.6536825"><ele>465.0</ele><time>2026-05-03T08:09:41.788Z</time></trkpt><trkpt lat="43.6511572" lon="12.6538287"><ele>459.0</ele><time>2026-05-03T08:09:42.787Z</time></trkpt><trkpt lat="43.6511043" lon="12.6539801"><ele>453.0</ele><time>2026-05-03T08:09:43.786Z</time></trkpt><trkpt lat="43.6510565" lon="12.6541355"><ele>447.0</ele><time>2026-05-03T08:09:44.787Z</time></trkpt><trkpt lat="43.6510098" lon="12.6542899"><ele>441.0</ele><time>2026-05-03T08:09:45.787Z</time></trkpt><trkpt lat="43.6509576" lon="12.6544429"><ele>443.25</ele><time>2026-05-03T08:09:46.787Z</time></trkpt><trkpt lat="43.6509011" lon="12.6545802"><ele>445.5</ele><time>2026-05-03T08:09:47.787Z</time></trkpt><trkpt lat="43.6508465" lon="12.65472"><ele>447.75</ele><time>2026-05-03T08:09:48.788Z</time></trkpt><trkpt lat="43.6507922" lon="12.6548634"><ele>450.0</ele><time>2026-05-03T08:09:49.787Z</time></trkpt><trkpt lat="43.6507324" lon="12.6549977"><ele>450.0</ele><time>2026-05-03T08:09:50.788Z</time></trkpt><trkpt lat="43.6506555" lon="12.6551163"><ele>450.0</ele><time>2026-05-03T08:09:51.787Z</time></trkpt><trkpt lat="43.6505695" lon="12.655229"><ele>450.0</ele><time>2026-05-03T08:09:52.788Z</time></trkpt><trkpt lat="43.6505006" lon="12.6553249"><ele>450.0</ele><time>2026-05-03T08:09:53.787Z</time></trkpt><trkpt lat="43.6504395" lon="12.6554111"><ele>450.0</ele><time>2026-05-03T08:09:54.788Z</time></trkpt><trkpt lat="43.6503986" lon="12.6555032"><ele>449.6666666666667</ele><time>2026-05-03T08:09:55.787Z</time></trkpt><trkpt lat="43.6503792" lon="12.6556087"><ele>449.33333333333337</ele><time>2026-05-03T08:09:56.787Z</time></trkpt><trkpt lat="43.6503741" lon="12.6557152"><ele>449.0</ele><time>2026-05-03T08:09:57.787Z</time></trkpt><trkpt lat="43.6503601" lon="12.6558057"><ele>448.6666666666667</ele><time>2026-05-03T08:09:58.787Z</time></trkpt><trkpt lat="43.6503211" lon="12.6558851"><ele>448.33333333333337</ele><time>2026-05-03T08:09:59.787Z</time></trkpt><trkpt lat="43.6501894" lon="12.6559587"><ele>448.0</ele><time>2026-05-03T08:10:01.786Z</time></trkpt><trkpt lat="43.650101" lon="12.655997"><ele>449.0</ele><time>2026-05-03T08:10:02.787Z</time></trkpt><trkpt lat="43.6500048" lon="12.6560471"><ele>449.99999999999994</ele><time>2026-05-03T08:10:03.788Z</time></trkpt><trkpt lat="43.649906" lon="12.6560954"><ele>450.99999999999994</ele><time>2026-05-03T08:10:04.788Z</time></trkpt><trkpt lat="43.6497974" lon="12.6561349"><ele>452.0</ele><time>2026-05-03T08:10:05.787Z</time></trkpt><trkpt lat="43.6496871" lon="12.656174"><ele>453.0</ele><time>2026-05-03T08:10:06.788Z</time></trkpt><trkpt lat="43.6495737" lon="12.6562085"><ele>459.0</ele><time>2026-05-03T08:10:07.786Z</time></trkpt><trkpt lat="43.6494564" lon="12.6562469"><ele>465.0</ele><time>2026-05-03T08:10:08.786Z</time></trkpt><trkpt lat="43.6493332" lon="12.6562753"><ele>471.0</ele><time>2026-05-03T08:10:09.787Z</time></trkpt><trkpt lat="43.6492106" lon="12.6562756"><ele>477.0</ele><time>2026-05-03T08:10:10.787Z</time></trkpt><trkpt lat="43.6490943" lon="12.6562706"><ele>477.0</ele><time>2026-05-03T08:10:11.786Z</time></trkpt><trkpt lat="43.6489903" lon="12.6562685"><ele>477.00000000000006</ele><time>2026-05-03T08:10:12.787Z</time></trkpt><trkpt lat="43.6488916" lon="12.6562766"><ele>477.00000000000006</ele><time>2026-05-03T08:10:13.787Z</time></trkpt><trkpt lat="43.6487931" lon="12.656308"><ele>477.0</ele><time>2026-05-03T08:10:14.788Z</time></trkpt><trkpt lat="43.6486924" lon="12.656365"><ele>477.0</ele><time>2026-05-03T08:10:15.786Z</time></trkpt><trkpt lat="43.6485842" lon="12.6564405"><ele>474.40000000000003</ele><time>2026-05-03T08:10:16.786Z</time></trkpt><trkpt lat="43.6484802" lon="12.6565316"><ele>471.80000000000007</ele><time>2026-05-03T08:10:17.787Z</time></trkpt><trkpt lat="43.6483872" lon="12.6566188"><ele>469.2</ele><time>2026-05-03T08:10:18.786Z</time></trkpt><trkpt lat="43.6483039" lon="12.6566988"><ele>466.6</ele><time>2026-05-03T08:10:19.787Z</time></trkpt><trkpt lat="43.6482217" lon="12.6567672"><ele>464.0</ele><time>2026-05-03T08:10:20.786Z</time></trkpt><trkpt lat="43.6481391" lon="12.6568137"><ele>464.0</ele><time>2026-05-03T08:10:21.787Z</time></trkpt><trkpt lat="43.6480584" lon="12.6568585"><ele>464.0</ele><time>2026-05-03T08:10:22.788Z</time></trkpt><trkpt lat="43.6479723" lon="12.6569262"><ele>464.0</ele><time>2026-05-03T08:10:23.787Z</time></trkpt><trkpt lat="43.6478884" lon="12.6569897"><ele>464.0</ele><time>2026-05-03T08:10:24.787Z</time></trkpt><trkpt lat="43.6478006" lon="12.6570451"><ele>464.0</ele><time>2026-05-03T08:10:25.786Z</time></trkpt><trkpt lat="43.64771" lon="12.6570955"><ele>466.3333333333333</ele><time>2026-05-03T08:10:26.787Z</time></trkpt><trkpt lat="43.6476194" lon="12.6571334"><ele>468.66666666666663</ele><time>2026-05-03T08:10:27.787Z</time></trkpt><trkpt lat="43.6475276" lon="12.6571534"><ele>471.0</ele><time>2026-05-03T08:10:28.786Z</time></trkpt><trkpt lat="43.6474399" lon="12.6571582"><ele>473.33333333333337</ele><time>2026-05-03T08:10:29.787Z</time></trkpt><trkpt lat="43.6473618" lon="12.6571423"><ele>475.6666666666667</ele><time>2026-05-03T08:10:30.787Z</time></trkpt><trkpt lat="43.6472934" lon="12.6571344"><ele>478.0</ele><time>2026-05-03T08:10:31.787Z</time></trkpt><trkpt lat="43.6472243" lon="12.6571521"><ele>478.00000000000006</ele><time>2026-05-03T08:10:32.787Z</time></trkpt><trkpt lat="43.6471551" lon="12.6572013"><ele>478.0</ele><time>2026-05-03T08:10:33.787Z</time></trkpt><trkpt lat="43.6470934" lon="12.65727"><ele>478.0</ele><time>2026-05-03T08:10:34.788Z</time></trkpt><trkpt lat="43.6470354" lon="12.6573507"><ele>478.0</ele><time>2026-05-03T08:10:35.787Z</time></trkpt><trkpt lat="43.6469762" lon="12.6574393"><ele>478.00000000000006</ele><time>2026-05-03T08:10:36.787Z</time></trkpt><trkpt lat="43.6469174" lon="12.6575345"><ele>478.0</ele><time>2026-05-03T08:10:37.787Z</time></trkpt><trkpt lat="43.6468609" lon="12.6576329"><ele>477.00000000000006</ele><time>2026-05-03T08:10:38.787Z</time></trkpt><trkpt lat="43.6468053" lon="12.6577258"><ele>476.0</ele><time>2026-05-03T08:10:39.788Z</time></trkpt><trkpt lat="43.6467543" lon="12.6578223"><ele>475.0</ele><time>2026-05-03T08:10:40.788Z</time></trkpt><trkpt lat="43.6467127" lon="12.6579285"><ele>474.0</ele><time>2026-05-03T08:10:41.788Z</time></trkpt><trkpt lat="43.6466885" lon="12.6580414"><ele>473.00000000000006</ele><time>2026-05-03T08:10:42.787Z</time></trkpt><trkpt lat="43.6466693" lon="12.6581644"><ele>472.0</ele><time>2026-05-03T08:10:43.786Z</time></trkpt><trkpt lat="43.6466399" lon="12.6582885"><ele>472.00000000000006</ele><time>2026-05-03T08:10:44.787Z</time></trkpt><trkpt lat="43.6465922" lon="12.6583962"><ele>472.0</ele><time>2026-05-03T08:10:45.787Z</time></trkpt><trkpt lat="43.6465408" lon="12.6585026"><ele>472.0</ele><time>2026-05-03T08:10:46.788Z</time></trkpt><trkpt lat="43.6464864" lon="12.6585948"><ele>472.0</ele><time>2026-05-03T08:10:47.788Z</time></trkpt><trkpt lat="43.6464268" lon="12.6586686"><ele>472.00000000000006</ele><time>2026-05-03T08:10:48.788Z</time></trkpt><trkpt lat="43.6463664" lon="12.6587317"><ele>472.0</ele><time>2026-05-03T08:10:49.788Z</time></trkpt><trkpt lat="43.646305" lon="12.6588028"><ele>472.1666666666667</ele><time>2026-05-03T08:10:50.786Z</time></trkpt><trkpt lat="43.6462398" lon="12.6588697"><ele>472.33333333333337</ele><time>2026-05-03T08:10:51.788Z</time></trkpt><trkpt lat="43.6461697" lon="12.6589277"><ele>472.5</ele><time>2026-05-03T08:10:52.786Z</time></trkpt><trkpt lat="43.6460916" lon="12.6589657"><ele>472.66666666666663</ele><time>2026-05-03T08:10:53.788Z</time></trkpt><trkpt lat="43.6460087" lon="12.658991"><ele>472.8333333333333</ele><time>2026-05-03T08:10:54.788Z</time></trkpt><trkpt lat="43.6459295" lon="12.6590269"><ele>473.0</ele><time>2026-05-03T08:10:55.786Z</time></trkpt><trkpt lat="43.6458534" lon="12.6590683"><ele>472.99999999999994</ele><time>2026-05-03T08:10:56.788Z</time></trkpt><trkpt lat="43.645785" lon="12.6591367"><ele>473.0</ele><time>2026-05-03T08:10:57.786Z</time></trkpt><trkpt lat="43.645725" lon="12.6592218"><ele>473.0</ele><time>2026-05-03T08:10:58.786Z</time></trkpt><trkpt lat="43.6456737" lon="12.6593143"><ele>473.0</ele><time>2026-05-03T08:10:59.786Z</time></trkpt><trkpt lat="43.6456276" lon="12.6594126"><ele>472.99999999999994</ele><time>2026-05-03T08:11:00.787Z</time></trkpt><trkpt lat="43.6455854" lon="12.6595169"><ele>473.0</ele><time>2026-05-03T08:11:01.787Z</time></trkpt><trkpt lat="43.6455467" lon="12.659625"><ele>473.66666666666663</ele><time>2026-05-03T08:11:02.786Z</time></trkpt><trkpt lat="43.645508" lon="12.6597344"><ele>474.3333333333333</ele><time>2026-05-03T08:11:03.787Z</time></trkpt><trkpt lat="43.6454664" lon="12.659844"><ele>475.0</ele><time>2026-05-03T08:11:04.787Z</time></trkpt><trkpt lat="43.6454239" lon="12.6599582"><ele>475.66666666666663</ele><time>2026-05-03T08:11:05.786Z</time></trkpt><trkpt lat="43.645381" lon="12.6600668"><ele>476.3333333333333</ele><time>2026-05-03T08:11:06.786Z</time></trkpt><trkpt lat="43.645333" lon="12.6601641"><ele>477.0</ele><time>2026-05-03T08:11:07.788Z</time></trkpt><trkpt lat="43.6452817" lon="12.6602451"><ele>477.0</ele><time>2026-05-03T08:11:08.786Z</time></trkpt><trkpt lat="43.6452225" lon="12.6603127"><ele>477.0</ele><time>2026-05-03T08:11:09.788Z</time></trkpt><trkpt lat="43.6451546" lon="12.6603638"><ele>477.0</ele><time>2026-05-03T08:11:10.786Z</time></trkpt><trkpt lat="43.6450766" lon="12.6603827"><ele>477.0</ele><time>2026-05-03T08:11:11.787Z</time></trkpt><trkpt lat="43.6450023" lon="12.6603521"><ele>477.0</ele><time>2026-05-03T08:11:12.786Z</time></trkpt><trkpt lat="43.6449372" lon="12.660285"><ele>477.0</ele><time>2026-05-03T08:11:13.786Z</time></trkpt><trkpt lat="43.6448966" lon="12.6601846"><ele>477.0</ele><time>2026-05-03T08:11:14.786Z</time></trkpt><trkpt lat="43.6448591" lon="12.6600628"><ele>477.00000000000006</ele><time>2026-05-03T08:11:15.787Z</time></trkpt><trkpt lat="43.6448228" lon="12.6599355"><ele>477.00000000000006</ele><time>2026-05-03T08:11:16.786Z</time></trkpt><trkpt lat="43.6447802" lon="12.6598134"><ele>477.0</ele><time>2026-05-03T08:11:17.786Z</time></trkpt><trkpt lat="43.6447357" lon="12.6597025"><ele>477.0</ele><time>2026-05-03T08:11:18.787Z</time></trkpt><trkpt lat="43.6446841" lon="12.6596093"><ele>477.0</ele><time>2026-05-03T08:11:19.788Z</time></trkpt><trkpt lat="43.6446244" lon="12.6595482"><ele>477.0</ele><time>2026-05-03T08:11:20.788Z</time></trkpt><trkpt lat="43.6445562" lon="12.6595196"><ele>477.0</ele><time>2026-05-03T08:11:21.786Z</time></trkpt><trkpt lat="43.6444725" lon="12.6595219"><ele>477.0</ele><time>2026-05-03T08:11:22.787Z</time></trkpt><trkpt lat="43.6443852" lon="12.6595586"><ele>477.0</ele><time>2026-05-03T08:11:23.787Z</time></trkpt><trkpt lat="43.6442956" lon="12.6596194"><ele>477.0</ele><time>2026-05-03T08:11:24.786Z</time></trkpt><trkpt lat="43.6442021" lon="12.6596971"><ele>477.8</ele><time>2026-05-03T08:11:25.787Z</time></trkpt><trkpt lat="43.6441083" lon="12.659789"><ele>478.6</ele><time>2026-05-03T08:11:26.787Z</time></trkpt><trkpt lat="43.6440129" lon="12.6598637"><ele>479.40000000000003</ele><time>2026-05-03T08:11:27.787Z</time></trkpt><trkpt lat="43.6439186" lon="12.6598847"><ele>480.20000000000005</ele><time>2026-05-03T08:11:28.787Z</time></trkpt><trkpt lat="43.6438333" lon="12.6598706"><ele>481.0</ele><time>2026-05-03T08:11:29.787Z</time></trkpt><trkpt lat="43.6437451" lon="12.6598264"><ele>481.0</ele><time>2026-05-03T08:11:30.787Z</time></trkpt><trkpt lat="43.6436544" lon="12.6597831"><ele>481.0</ele><time>2026-05-03T08:11:31.786Z</time></trkpt><trkpt lat="43.6435569" lon="12.6597649"><ele>481.0</ele><time>2026-05-03T08:11:32.788Z</time></trkpt><trkpt lat="43.6434711" lon="12.6597616"><ele>481.0</ele><time>2026-05-03T08:11:33.788Z</time></trkpt><trkpt lat="43.643386" lon="12.6597886"><ele>481.0</ele><time>2026-05-03T08:11:34.787Z</time></trkpt><trkpt lat="43.6432981" lon="12.6598271"><ele>481.4</ele><time>2026-05-03T08:11:35.787Z</time></trkpt><trkpt lat="43.6432076" lon="12.6598746"><ele>481.8</ele><time>2026-05-03T08:11:36.788Z</time></trkpt><trkpt lat="43.6431205" lon="12.6599204"><ele>482.19999999999993</ele><time>2026-05-03T08:11:37.786Z</time></trkpt><trkpt lat="43.6430348" lon="12.6599625"><ele>482.59999999999997</ele><time>2026-05-03T08:11:38.786Z</time></trkpt><trkpt lat="43.6429501" lon="12.6600175"><ele>483.0</ele><time>2026-05-03T08:11:39.787Z</time></trkpt><trkpt lat="43.6428686" lon="12.6600782"><ele>483.3333333333333</ele><time>2026-05-03T08:11:40.788Z</time></trkpt><trkpt lat="43.6427886" lon="12.6601432"><ele>483.66666666666663</ele><time>2026-05-03T08:11:41.787Z</time></trkpt><trkpt lat="43.6427101" lon="12.660201"><ele>484.0</ele><time>2026-05-03T08:11:42.787Z</time></trkpt><trkpt lat="43.6426372" lon="12.6602594"><ele>484.3333333333333</ele><time>2026-05-03T08:11:43.787Z</time></trkpt><trkpt lat="43.642563" lon="12.660303"><ele>484.66666666666663</ele><time>2026-05-03T08:11:44.787Z</time></trkpt><trkpt lat="43.6424823" lon="12.6603283"><ele>485.0</ele><time>2026-05-03T08:11:45.788Z</time></trkpt><trkpt lat="43.6423936" lon="12.660331"><ele>485.0</ele><time>2026-05-03T08:11:46.786Z</time></trkpt><trkpt lat="43.6422983" lon="12.6603275"><ele>485.0</ele><time>2026-05-03T08:11:47.787Z</time></trkpt><trkpt lat="43.642192" lon="12.6603107"><ele>485.0</ele><time>2026-05-03T08:11:48.787Z</time></trkpt><trkpt lat="43.642093" lon="12.6602946"><ele>485.0</ele><time>2026-05-03T08:11:49.786Z</time></trkpt><trkpt lat="43.6419981" lon="12.660273"><ele>485.0</ele><time>2026-05-03T08:11:50.787Z</time></trkpt><trkpt lat="43.6419021" lon="12.6602439"><ele>482.8333333333333</ele><time>2026-05-03T08:11:51.787Z</time></trkpt><trkpt lat="43.6418102" lon="12.6602125"><ele>480.66666666666663</ele><time>2026-05-03T08:11:52.788Z</time></trkpt><trkpt lat="43.6417266" lon="12.6601639"><ele>478.5</ele><time>2026-05-03T08:11:53.787Z</time></trkpt><trkpt lat="43.6416475" lon="12.6601208"><ele>476.33333333333337</ele><time>2026-05-03T08:11:54.787Z</time></trkpt><trkpt lat="43.6415735" lon="12.6600771"><ele>474.1666666666667</ele><time>2026-05-03T08:11:55.787Z</time></trkpt><trkpt lat="43.6415013" lon="12.6600374"><ele>472.0</ele><time>2026-05-03T08:11:56.787Z</time></trkpt><trkpt lat="43.6414321" lon="12.6600007"><ele>472.00000000000006</ele><time>2026-05-03T08:11:57.787Z</time></trkpt><trkpt lat="43.6413652" lon="12.6599653"><ele>472.0</ele><time>2026-05-03T08:11:58.787Z</time></trkpt><trkpt lat="43.6413025" lon="12.6599353"><ele>472.0</ele><time>2026-05-03T08:11:59.787Z</time></trkpt><trkpt lat="43.6411887" lon="12.6598958"><ele>472.0</ele><time>2026-05-03T08:12:01.786Z</time></trkpt><trkpt lat="43.6411097" lon="12.659879"><ele>472.00000000000006</ele><time>2026-05-03T08:12:23.787Z</time></trkpt><trkpt lat="43.6410105" lon="12.6598397"><ele>472.0</ele><time>2026-05-03T08:12:25.787Z</time></trkpt><trkpt lat="43.6409424" lon="12.6597946"><ele>471.1666666666667</ele><time>2026-05-03T08:12:26.787Z</time></trkpt><trkpt lat="43.6408726" lon="12.6597429"><ele>470.33333333333337</ele><time>2026-05-03T08:12:27.786Z</time></trkpt><trkpt lat="43.6407996" lon="12.6596791"><ele>469.5</ele><time>2026-05-03T08:12:28.787Z</time></trkpt><trkpt lat="43.6407315" lon="12.6596063"><ele>468.66666666666663</ele><time>2026-05-03T08:12:29.786Z</time></trkpt><trkpt lat="43.6406762" lon="12.6595223"><ele>467.8333333333333</ele><time>2026-05-03T08:12:30.788Z</time></trkpt><trkpt lat="43.64063" lon="12.6594239"><ele>467.0</ele><time>2026-05-03T08:12:31.786Z</time></trkpt><trkpt lat="43.6406033" lon="12.6593118"><ele>467.0</ele><time>2026-05-03T08:12:32.786Z</time></trkpt><trkpt lat="43.6405782" lon="12.65919"><ele>467.00000000000006</ele><time>2026-05-03T08:12:33.787Z</time></trkpt><trkpt lat="43.6405464" lon="12.6590703"><ele>467.00000000000006</ele><time>2026-05-03T08:12:34.786Z</time></trkpt><trkpt lat="43.6405161" lon="12.6589425"><ele>467.0</ele><time>2026-05-03T08:12:35.788Z</time></trkpt><trkpt lat="43.6404942" lon="12.6588017"><ele>467.0</ele><time>2026-05-03T08:12:36.788Z</time></trkpt><trkpt lat="43.6404773" lon="12.6586562"><ele>467.5</ele><time>2026-05-03T08:12:37.788Z</time></trkpt><trkpt lat="43.6404606" lon="12.6585034"><ele>468.0</ele><time>2026-05-03T08:12:38.786Z</time></trkpt><trkpt lat="43.6404426" lon="12.6583502"><ele>468.5</ele><time>2026-05-03T08:12:39.787Z</time></trkpt><trkpt lat="43.6404226" lon="12.658197"><ele>469.0</ele><time>2026-05-03T08:12:40.787Z</time></trkpt><trkpt lat="43.6404071" lon="12.6580422"><ele>469.0</ele><time>2026-05-03T08:12:41.787Z</time></trkpt><trkpt lat="43.6404011" lon="12.6578822"><ele>469.0</ele><time>2026-05-03T08:12:42.787Z</time></trkpt><trkpt lat="43.6404043" lon="12.6577208"><ele>469.0</ele><time>2026-05-03T08:12:43.787Z</time></trkpt><trkpt lat="43.6404124" lon="12.6575601"><ele>469.0</ele><time>2026-05-03T08:12:44.788Z</time></trkpt><trkpt lat="43.6404152" lon="12.6574002"><ele>470.2</ele><time>2026-05-03T08:12:45.788Z</time></trkpt><trkpt lat="43.6404123" lon="12.6572399"><ele>471.4</ele><time>2026-05-03T08:12:46.788Z</time></trkpt><trkpt lat="43.6404135" lon="12.6570806"><ele>472.6</ele><time>2026-05-03T08:12:47.787Z</time></trkpt><trkpt lat="43.6404152" lon="12.656937"><ele>473.8</ele><time>2026-05-03T08:12:48.787Z</time></trkpt><trkpt lat="43.6404289" lon="12.6568183"><ele>475.0</ele><time>2026-05-03T08:12:49.786Z</time></trkpt><trkpt lat="43.6404544" lon="12.6567124"><ele>476.6666666666667</ele><time>2026-05-03T08:12:50.787Z</time></trkpt><trkpt lat="43.6405045" lon="12.656624"><ele>478.33333333333337</ele><time>2026-05-03T08:12:51.788Z</time></trkpt><trkpt lat="43.6405713" lon="12.6565507"><ele>480.0</ele><time>2026-05-03T08:12:52.787Z</time></trkpt><trkpt lat="43.6406362" lon="12.6564954"><ele>481.66666666666663</ele><time>2026-05-03T08:12:53.786Z</time></trkpt><trkpt lat="43.6406854" lon="12.6564192"><ele>483.3333333333333</ele><time>2026-05-03T08:12:54.786Z</time></trkpt><trkpt lat="43.6407323" lon="12.656315"><ele>485.0</ele><time>2026-05-03T08:12:55.787Z</time></trkpt><trkpt lat="43.6407683" lon="12.6561913"><ele>487.4</ele><time>2026-05-03T08:12:56.787Z</time></trkpt><trkpt lat="43.6407899" lon="12.6560623"><ele>489.8</ele><time>2026-05-03T08:12:57.786Z</time></trkpt><trkpt lat="43.6407932" lon="12.6559347"><ele>492.20000000000005</ele><time>2026-05-03T08:12:58.787Z</time></trkpt><trkpt lat="43.6407774" lon="12.6557981"><ele>494.6</ele><time>2026-05-03T08:12:59.787Z</time></trkpt><trkpt lat="43.6407558" lon="12.6556563"><ele>497.0</ele><time>2026-05-03T08:13:00.786Z</time></trkpt><trkpt lat="43.6407496" lon="12.6555109"><ele>497.0</ele><time>2026-05-03T08:13:01.787Z</time></trkpt><trkpt lat="43.6407715" lon="12.6553677"><ele>497.0</ele><time>2026-05-03T08:13:02.788Z</time></trkpt><trkpt lat="43.6408135" lon="12.655223"><ele>497.0</ele><time>2026-05-03T08:13:03.788Z</time></trkpt><trkpt lat="43.6408502" lon="12.6550696"><ele>497.0</ele><time>2026-05-03T08:13:04.786Z</time></trkpt><trkpt lat="43.6408798" lon="12.654914"><ele>497.8</ele><time>2026-05-03T08:13:05.787Z</time></trkpt><trkpt lat="43.6409081" lon="12.6547566"><ele>498.6</ele><time>2026-05-03T08:13:06.787Z</time></trkpt><trkpt lat="43.6409392" lon="12.6546242"><ele>499.40000000000003</ele><time>2026-05-03T08:13:07.788Z</time></trkpt><trkpt lat="43.6409808" lon="12.6545148"><ele>500.20000000000005</ele><time>2026-05-03T08:13:08.787Z</time></trkpt><trkpt lat="43.6410237" lon="12.6544128"><ele>501.0</ele><time>2026-05-03T08:13:09.787Z</time></trkpt><trkpt lat="43.6410631" lon="12.6543165"><ele>501.20000000000005</ele><time>2026-05-03T08:13:10.787Z</time></trkpt><trkpt lat="43.641093" lon="12.6542352"><ele>501.40000000000003</ele><time>2026-05-03T08:13:11.787Z</time></trkpt><trkpt lat="43.6410987" lon="12.6540685"><ele>501.6</ele><time>2026-05-03T08:13:13.787Z</time></trkpt><trkpt lat="43.6410018" lon="12.6539652"><ele>501.8</ele><time>2026-05-03T08:13:15.788Z</time></trkpt><trkpt lat="43.6409267" lon="12.6539605"><ele>502.0</ele><time>2026-05-03T08:13:16.787Z</time></trkpt><trkpt lat="43.6408423" lon="12.6539818"><ele>502.0</ele><time>2026-05-03T08:13:17.788Z</time></trkpt><trkpt lat="43.6407503" lon="12.6540117"><ele>502.00000000000006</ele><time>2026-05-03T08:13:18.787Z</time></trkpt><trkpt lat="43.6406569" lon="12.6540404"><ele>502.00000000000006</ele><time>2026-05-03T08:13:19.787Z</time></trkpt><trkpt lat="43.6405647" lon="12.6540704"><ele>502.0</ele><time>2026-05-03T08:13:20.787Z</time></trkpt><trkpt lat="43.6404717" lon="12.6541009"><ele>502.0</ele><time>2026-05-03T08:13:21.787Z</time></trkpt><trkpt lat="43.6403805" lon="12.6541278"><ele>501.40000000000003</ele><time>2026-05-03T08:13:22.786Z</time></trkpt><trkpt lat="43.6402878" lon="12.6541502"><ele>500.80000000000007</ele><time>2026-05-03T08:13:23.787Z</time></trkpt><trkpt lat="43.6401957" lon="12.654174"><ele>500.2</ele><time>2026-05-03T08:13:24.787Z</time></trkpt><trkpt lat="43.640108" lon="12.6541876"><ele>499.6</ele><time>2026-05-03T08:13:25.786Z</time></trkpt><trkpt lat="43.6400082" lon="12.6541775"><ele>499.0</ele><time>2026-05-03T08:13:26.787Z</time></trkpt><trkpt lat="43.6399106" lon="12.6541471"><ele>499.0</ele><time>2026-05-03T08:13:27.788Z</time></trkpt><trkpt lat="43.6398162" lon="12.6541202"><ele>499.0</ele><time>2026-05-03T08:13:28.786Z</time></trkpt><trkpt lat="43.6397199" lon="12.6541154"><ele>499.0</ele><time>2026-05-03T08:13:29.787Z</time></trkpt><trkpt lat="43.6396209" lon="12.6541229"><ele>499.0</ele><time>2026-05-03T08:13:30.786Z</time></trkpt><trkpt lat="43.6395196" lon="12.6541416"><ele>499.0</ele><time>2026-05-03T08:13:31.787Z</time></trkpt><trkpt lat="43.6394137" lon="12.6541539"><ele>498.0</ele><time>2026-05-03T08:13:32.787Z</time></trkpt><trkpt lat="43.6393055" lon="12.6541615"><ele>497.0</ele><time>2026-05-03T08:13:33.788Z</time></trkpt><trkpt lat="43.6392002" lon="12.6541788"><ele>496.0</ele><time>2026-05-03T08:13:34.788Z</time></trkpt><trkpt lat="43.6390945" lon="12.6541992"><ele>495.0</ele><time>2026-05-03T08:13:35.786Z</time></trkpt><trkpt lat="43.6389894" lon="12.6542343"><ele>494.0</ele><time>2026-05-03T08:13:36.786Z</time></trkpt><trkpt lat="43.6388887" lon="12.6542838"><ele>494.0</ele><time>2026-05-03T08:13:37.788Z</time></trkpt><trkpt lat="43.638793" lon="12.6543212"><ele>494.0</ele><time>2026-05-03T08:13:38.787Z</time></trkpt><trkpt lat="43.6387018" lon="12.6543515"><ele>494.0</ele><time>2026-05-03T08:13:39.786Z</time></trkpt><trkpt lat="43.6386218" lon="12.6543948"><ele>494.0</ele><time>2026-05-03T08:13:40.787Z</time></trkpt><trkpt lat="43.6385499" lon="12.6544572"><ele>494.0</ele><time>2026-05-03T08:13:41.787Z</time></trkpt><trkpt lat="43.6384838" lon="12.6545495"><ele>496.49999999999994</ele><time>2026-05-03T08:13:42.787Z</time></trkpt><trkpt lat="43.6384157" lon="12.6546321"><ele>499.0</ele><time>2026-05-03T08:13:43.787Z</time></trkpt><trkpt lat="43.6383391" lon="12.6547011"><ele>501.5</ele><time>2026-05-03T08:13:44.786Z</time></trkpt><trkpt lat="43.6382626" lon="12.6547561"><ele>504.0</ele><time>2026-05-03T08:13:45.787Z</time></trkpt><trkpt lat="43.6381834" lon="12.6547979"><ele>506.49999999999994</ele><time>2026-05-03T08:13:46.786Z</time></trkpt><trkpt lat="43.6381041" lon="12.6548545"><ele>509.0</ele><time>2026-05-03T08:13:47.787Z</time></trkpt><trkpt lat="43.6380332" lon="12.6549224"><ele>508.99999999999994</ele><time>2026-05-03T08:13:48.786Z</time></trkpt><trkpt lat="43.6379635" lon="12.6549861"><ele>509.0</ele><time>2026-05-03T08:13:49.788Z</time></trkpt><trkpt lat="43.6378886" lon="12.6550446"><ele>509.0</ele><time>2026-05-03T08:13:50.788Z</time></trkpt><trkpt lat="43.6378059" lon="12.6550959"><ele>509.0</ele><time>2026-05-03T08:13:51.788Z</time></trkpt><trkpt lat="43.6377342" lon="12.6551563"><ele>508.99999999999994</ele><time>2026-05-03T08:13:52.787Z</time></trkpt><trkpt lat="43.6376655" lon="12.6552179"><ele>509.0</ele><time>2026-05-03T08:13:53.787Z</time></trkpt><trkpt lat="43.6375824" lon="12.6552682"><ele>507.8333333333333</ele><time>2026-05-03T08:13:54.788Z</time></trkpt><trkpt lat="43.6375007" lon="12.6553069"><ele>506.66666666666663</ele><time>2026-05-03T08:13:55.788Z</time></trkpt><trkpt lat="43.6374138" lon="12.6553033"><ele>505.5</ele><time>2026-05-03T08:13:56.787Z</time></trkpt><trkpt lat="43.6373281" lon="12.655283"><ele>504.33333333333337</ele><time>2026-05-03T08:13:57.787Z</time></trkpt><trkpt lat="43.6372389" lon="12.6552537"><ele>503.1666666666667</ele><time>2026-05-03T08:13:58.787Z</time></trkpt><trkpt lat="43.6371438" lon="12.6552322"><ele>502.0</ele><time>2026-05-03T08:13:59.787Z</time></trkpt><trkpt lat="43.6370471" lon="12.6552225"><ele>502.0</ele><time>2026-05-03T08:14:00.787Z</time></trkpt><trkpt lat="43.6369506" lon="12.6552316"><ele>502.00000000000006</ele><time>2026-05-03T08:14:01.787Z</time></trkpt><trkpt lat="43.6368539" lon="12.6552572"><ele>502.00000000000006</ele><time>2026-05-03T08:14:02.787Z</time></trkpt><trkpt lat="43.636756" lon="12.6552949"><ele>502.0</ele><time>2026-05-03T08:14:03.786Z</time></trkpt><trkpt lat="43.6366581" lon="12.6553409"><ele>502.0</ele><time>2026-05-03T08:14:04.787Z</time></trkpt><trkpt lat="43.6365596" lon="12.6553769"><ele>502.0</ele><time>2026-05-03T08:14:05.786Z</time></trkpt><trkpt lat="43.6364657" lon="12.6553782"><ele>502.00000000000006</ele><time>2026-05-03T08:14:06.787Z</time></trkpt><trkpt lat="43.6363735" lon="12.6553467"><ele>502.00000000000006</ele><time>2026-05-03T08:14:07.787Z</time></trkpt><trkpt lat="43.6362791" lon="12.6553002"><ele>502.0</ele><time>2026-05-03T08:14:08.786Z</time></trkpt><trkpt lat="43.6361815" lon="12.6552458"><ele>502.0</ele><time>2026-05-03T08:14:09.787Z</time></trkpt><trkpt lat="43.6360831" lon="12.6551921"><ele>503.6666666666667</ele><time>2026-05-03T08:14:10.787Z</time></trkpt><trkpt lat="43.6359911" lon="12.6551328"><ele>505.33333333333337</ele><time>2026-05-03T08:14:11.787Z</time></trkpt><trkpt lat="43.635912" lon="12.6550656"><ele>507.0</ele><time>2026-05-03T08:14:12.786Z</time></trkpt><trkpt lat="43.6358438" lon="12.6549937"><ele>508.66666666666663</ele><time>2026-05-03T08:14:13.786Z</time></trkpt><trkpt lat="43.6357817" lon="12.6549267"><ele>510.3333333333333</ele><time>2026-05-03T08:14:14.787Z</time></trkpt><trkpt lat="43.6357211" lon="12.6548657"><ele>512.0</ele><time>2026-05-03T08:14:15.786Z</time></trkpt><trkpt lat="43.6356601" lon="12.6548213"><ele>511.99999999999994</ele><time>2026-05-03T08:14:16.788Z</time></trkpt><trkpt lat="43.6355944" lon="12.6548088"><ele>512.0</ele><time>2026-05-03T08:14:17.787Z</time></trkpt><trkpt lat="43.6355242" lon="12.6548169"><ele>512.0</ele><time>2026-05-03T08:14:18.787Z</time></trkpt><trkpt lat="43.6354435" lon="12.6548361"><ele>512.0</ele><time>2026-05-03T08:14:19.787Z</time></trkpt><trkpt lat="43.6353555" lon="12.6548461"><ele>511.99999999999994</ele><time>2026-05-03T08:14:20.788Z</time></trkpt><trkpt lat="43.6352746" lon="12.6548453"><ele>512.0</ele><time>2026-05-03T08:14:21.786Z</time></trkpt><trkpt lat="43.6352015" lon="12.6548405"><ele>512.4</ele><time>2026-05-03T08:14:22.787Z</time></trkpt><trkpt lat="43.6351333" lon="12.6548359"><ele>512.8000000000001</ele><time>2026-05-03T08:14:23.788Z</time></trkpt><trkpt lat="43.6350213" lon="12.6548501"><ele>513.2</ele><time>2026-05-03T08:14:25.787Z</time></trkpt><trkpt lat="43.6349567" lon="12.6548636"><ele>513.6</ele><time>2026-05-03T08:14:56.787Z</time></trkpt><trkpt lat="43.6348426" lon="12.6547885"><ele>514.0</ele><time>2026-05-03T08:14:59.786Z</time></trkpt><trkpt lat="43.6347588" lon="12.6547583"><ele>514.0</ele><time>2026-05-03T08:15:00.786Z</time></trkpt><trkpt lat="43.634677" lon="12.6547369"><ele>514.0</ele><time>2026-05-03T08:15:01.785Z</time></trkpt><trkpt lat="43.6346001" lon="12.6547047"><ele>514.0</ele><time>2026-05-03T08:15:02.785Z</time></trkpt><trkpt lat="43.6345344" lon="12.6546588"><ele>514.0</ele><time>2026-05-03T08:15:03.786Z</time></trkpt><trkpt lat="43.6344854" lon="12.6545931"><ele>514.0</ele><time>2026-05-03T08:15:04.786Z</time></trkpt><trkpt lat="43.6344542" lon="12.6544421"><ele>514.0</ele><time>2026-05-03T08:15:06.785Z</time></trkpt><trkpt lat="43.634526" lon="12.6542998"><ele>514.5</ele><time>2026-05-03T08:15:08.785Z</time></trkpt><trkpt lat="43.6345889" lon="12.6542437"><ele>515.0</ele><time>2026-05-03T08:15:09.787Z</time></trkpt><trkpt lat="43.6346573" lon="12.6541737"><ele>515.5</ele><time>2026-05-03T08:15:10.786Z</time></trkpt><trkpt lat="43.6347272" lon="12.6540901"><ele>516.0</ele><time>2026-05-03T08:15:11.785Z</time></trkpt><trkpt lat="43.6347965" lon="12.6539947"><ele>516.5</ele><time>2026-05-03T08:15:12.786Z</time></trkpt><trkpt lat="43.6348588" lon="12.6538944"><ele>517.0</ele><time>2026-05-03T08:15:13.785Z</time></trkpt><trkpt lat="43.6349056" lon="12.6537794"><ele>517.0</ele><time>2026-05-03T08:15:14.786Z</time></trkpt><trkpt lat="43.6349308" lon="12.6536474"><ele>517.0</ele><time>2026-05-03T08:15:15.786Z</time></trkpt><trkpt lat="43.6349363" lon="12.6534909"><ele>517.0</ele><time>2026-05-03T08:15:16.785Z</time></trkpt><trkpt lat="43.6349215" lon="12.6533088"><ele>517.0</ele><time>2026-05-03T08:15:17.787Z</time></trkpt><trkpt lat="43.6348921" lon="12.6531026"><ele>514.75</ele><time>2026-05-03T08:15:18.785Z</time></trkpt><trkpt lat="43.6348559" lon="12.6528793"><ele>512.5</ele><time>2026-05-03T08:15:19.786Z</time></trkpt><trkpt lat="43.6348235" lon="12.6526946"><ele>510.25</ele><time>2026-05-03T08:15:20.785Z</time></trkpt><trkpt lat="43.6347888" lon="12.652538"><ele>508.0</ele><time>2026-05-03T08:15:21.786Z</time></trkpt><trkpt lat="43.6347452" lon="12.6523963"><ele>507.79999999999995</ele><time>2026-05-03T08:15:22.787Z</time></trkpt><trkpt lat="43.6346997" lon="12.6522603"><ele>507.59999999999997</ele><time>2026-05-03T08:15:23.785Z</time></trkpt><trkpt lat="43.6346618" lon="12.6521269"><ele>507.40000000000003</ele><time>2026-05-03T08:15:24.786Z</time></trkpt><trkpt lat="43.6346251" lon="12.6519858"><ele>507.20000000000005</ele><time>2026-05-03T08:15:25.785Z</time></trkpt><trkpt lat="43.6345891" lon="12.6518343"><ele>507.0</ele><time>2026-05-03T08:15:26.786Z</time></trkpt><trkpt lat="43.6345585" lon="12.651662"><ele>506.33333333333337</ele><time>2026-05-03T08:15:27.786Z</time></trkpt><trkpt lat="43.6345255" lon="12.6514489"><ele>505.6666666666667</ele><time>2026-05-03T08:15:28.786Z</time></trkpt><trkpt lat="43.6344869" lon="12.6511884"><ele>505.0</ele><time>2026-05-03T08:15:29.787Z</time></trkpt><trkpt lat="43.6344515" lon="12.6509515"><ele>505.0</ele><time>2026-05-03T08:15:30.786Z</time></trkpt><trkpt lat="43.6344148" lon="12.6507288"><ele>505.0</ele><time>2026-05-03T08:15:31.786Z</time></trkpt><trkpt lat="43.6343743" lon="12.6505212"><ele>505.0</ele><time>2026-05-03T08:15:32.786Z</time></trkpt><trkpt lat="43.6343355" lon="12.6503286"><ele>504.75</ele><time>2026-05-03T08:15:33.787Z</time></trkpt><trkpt lat="43.6343006" lon="12.6501475"><ele>504.5</ele><time>2026-05-03T08:15:34.786Z</time></trkpt><trkpt lat="43.6342669" lon="12.6499796"><ele>504.25</ele><time>2026-05-03T08:15:35.786Z</time></trkpt><trkpt lat="43.6342398" lon="12.6498167"><ele>504.0</ele><time>2026-05-03T08:15:36.786Z</time></trkpt><trkpt lat="43.6342156" lon="12.6496489"><ele>504.0</ele><time>2026-05-03T08:15:37.785Z</time></trkpt><trkpt lat="43.6342009" lon="12.6494659"><ele>504.0</ele><time>2026-05-03T08:15:38.785Z</time></trkpt><trkpt lat="43.6341977" lon="12.6492652"><ele>504.0</ele><time>2026-05-03T08:15:39.785Z</time></trkpt><trkpt lat="43.6341985" lon="12.6490449"><ele>504.0</ele><time>2026-05-03T08:15:40.786Z</time></trkpt><trkpt lat="43.6341903" lon="12.6488111"><ele>503.0</ele><time>2026-05-03T08:15:41.787Z</time></trkpt><trkpt lat="43.6341746" lon="12.6485314"><ele>502.0</ele><time>2026-05-03T08:15:42.786Z</time></trkpt><trkpt lat="43.6341606" lon="12.6482195"><ele>501.0</ele><time>2026-05-03T08:15:43.787Z</time></trkpt><trkpt lat="43.63415" lon="12.6479436"><ele>502.0</ele><time>2026-05-03T08:15:44.785Z</time></trkpt><trkpt lat="43.6341432" lon="12.6476913"><ele>503.0</ele><time>2026-05-03T08:15:45.785Z</time></trkpt><trkpt lat="43.634141" lon="12.6474733"><ele>504.0</ele><time>2026-05-03T08:15:46.786Z</time></trkpt><trkpt lat="43.6341413" lon="12.6472894"><ele>504.0</ele><time>2026-05-03T08:15:47.786Z</time></trkpt><trkpt lat="43.6341381" lon="12.6471257"><ele>504.0</ele><time>2026-05-03T08:15:48.786Z</time></trkpt><trkpt lat="43.6341312" lon="12.6469857"><ele>504.0</ele><time>2026-05-03T08:15:49.786Z</time></trkpt><trkpt lat="43.6341139" lon="12.6468606"><ele>504.0</ele><time>2026-05-03T08:15:50.786Z</time></trkpt><trkpt lat="43.6340789" lon="12.6467311"><ele>504.0</ele><time>2026-05-03T08:15:51.786Z</time></trkpt><trkpt lat="43.6340227" lon="12.6466005"><ele>504.0</ele><time>2026-05-03T08:15:52.785Z</time></trkpt><trkpt lat="43.6339521" lon="12.6464601"><ele>504.0</ele><time>2026-05-03T08:15:53.785Z</time></trkpt><trkpt lat="43.6338758" lon="12.646316"><ele>504.0</ele><time>2026-05-03T08:15:54.786Z</time></trkpt><trkpt lat="43.6338052" lon="12.6461768"><ele>504.0</ele><time>2026-05-03T08:15:55.787Z</time></trkpt><trkpt lat="43.6337422" lon="12.6460522"><ele>503.4</ele><time>2026-05-03T08:15:56.786Z</time></trkpt><trkpt lat="43.6336961" lon="12.645926"><ele>502.79999999999995</ele><time>2026-05-03T08:15:57.785Z</time></trkpt><trkpt lat="43.6336757" lon="12.6457934"><ele>502.20000000000005</ele><time>2026-05-03T08:15:58.785Z</time></trkpt><trkpt lat="43.6336782" lon="12.645643"><ele>501.6</ele><time>2026-05-03T08:15:59.786Z</time></trkpt><trkpt lat="43.6336927" lon="12.6454765"><ele>501.0</ele><time>2026-05-03T08:16:00.787Z</time></trkpt><trkpt lat="43.6337133" lon="12.6452945"><ele>499.75</ele><time>2026-05-03T08:16:01.786Z</time></trkpt><trkpt lat="43.6337359" lon="12.6451061"><ele>498.5</ele><time>2026-05-03T08:16:02.785Z</time></trkpt><trkpt lat="43.633759" lon="12.6449301"><ele>497.25</ele><time>2026-05-03T08:16:03.787Z</time></trkpt><trkpt lat="43.6337953" lon="12.6447612"><ele>496.0</ele><time>2026-05-03T08:16:04.786Z</time></trkpt><trkpt lat="43.6338526" lon="12.6446164"><ele>496.0</ele><time>2026-05-03T08:16:05.787Z</time></trkpt><trkpt lat="43.6339225" lon="12.6444827"><ele>496.0</ele><time>2026-05-03T08:16:06.785Z</time></trkpt><trkpt lat="43.6339953" lon="12.6443404"><ele>496.0</ele><time>2026-05-03T08:16:07.785Z</time></trkpt><trkpt lat="43.6340671" lon="12.6441935"><ele>496.0</ele><time>2026-05-03T08:16:08.786Z</time></trkpt><trkpt lat="43.6341342" lon="12.6440463"><ele>497.25</ele><time>2026-05-03T08:16:09.787Z</time></trkpt><trkpt lat="43.6341989" lon="12.643907"><ele>498.5</ele><time>2026-05-03T08:16:10.786Z</time></trkpt><trkpt lat="43.634254" lon="12.6437671"><ele>499.75</ele><time>2026-05-03T08:16:11.786Z</time></trkpt><trkpt lat="43.6343007" lon="12.6436232"><ele>501.0</ele><time>2026-05-03T08:16:12.786Z</time></trkpt><trkpt lat="43.6343459" lon="12.6434792"><ele>501.5</ele><time>2026-05-03T08:16:13.786Z</time></trkpt><trkpt lat="43.6343869" lon="12.6433346"><ele>502.0</ele><time>2026-05-03T08:16:14.785Z</time></trkpt><trkpt lat="43.6344193" lon="12.6431751"><ele>502.5</ele><time>2026-05-03T08:16:15.786Z</time></trkpt><trkpt lat="43.6344415" lon="12.6429847"><ele>503.0</ele><time>2026-05-03T08:16:16.785Z</time></trkpt><trkpt lat="43.6344615" lon="12.6427797"><ele>499.75</ele><time>2026-05-03T08:16:17.785Z</time></trkpt><trkpt lat="43.6344797" lon="12.6425962"><ele>496.5</ele><time>2026-05-03T08:16:18.786Z</time></trkpt><trkpt lat="43.6344953" lon="12.6424218"><ele>493.25</ele><time>2026-05-03T08:16:19.785Z</time></trkpt><trkpt lat="43.6345077" lon="12.6422704"><ele>490.0</ele><time>2026-05-03T08:16:20.786Z</time></trkpt><trkpt lat="43.6345227" lon="12.6421374"><ele>490.0</ele><time>2026-05-03T08:16:21.785Z</time></trkpt><trkpt lat="43.6345418" lon="12.6420171"><ele>490.0</ele><time>2026-05-03T08:16:22.786Z</time></trkpt><trkpt lat="43.6345724" lon="12.6419075"><ele>490.0</ele><time>2026-05-03T08:16:23.785Z</time></trkpt><trkpt lat="43.6346224" lon="12.6418062"><ele>490.0</ele><time>2026-05-03T08:16:24.787Z</time></trkpt><trkpt lat="43.6346926" lon="12.6417222"><ele>490.0</ele><time>2026-05-03T08:16:25.785Z</time></trkpt><trkpt lat="43.6347813" lon="12.6416563"><ele>489.75</ele><time>2026-05-03T08:16:26.787Z</time></trkpt><trkpt lat="43.6348869" lon="12.6416095"><ele>489.5</ele><time>2026-05-03T08:16:27.786Z</time></trkpt><trkpt lat="43.635002" lon="12.6415696"><ele>489.25</ele><time>2026-05-03T08:16:28.786Z</time></trkpt><trkpt lat="43.6351134" lon="12.6415374"><ele>489.0</ele><time>2026-05-03T08:16:29.786Z</time></trkpt><trkpt lat="43.6352218" lon="12.6415071"><ele>488.0</ele><time>2026-05-03T08:16:30.786Z</time></trkpt><trkpt lat="43.6353275" lon="12.641483"><ele>487.0</ele><time>2026-05-03T08:16:31.785Z</time></trkpt><trkpt lat="43.6354297" lon="12.6414544"><ele>486.0</ele><time>2026-05-03T08:16:32.786Z</time></trkpt><trkpt lat="43.6355276" lon="12.6414184"><ele>485.0</ele><time>2026-05-03T08:16:33.786Z</time></trkpt><trkpt lat="43.6356197" lon="12.64135"><ele>484.0</ele><time>2026-05-03T08:16:34.787Z</time></trkpt><trkpt lat="43.6357187" lon="12.6412789"><ele>484.0</ele><time>2026-05-03T08:16:35.786Z</time></trkpt><trkpt lat="43.6358114" lon="12.6411979"><ele>484.0</ele><time>2026-05-03T08:16:36.786Z</time></trkpt><trkpt lat="43.6358729" lon="12.6410722"><ele>484.0</ele><time>2026-05-03T08:16:37.786Z</time></trkpt><trkpt lat="43.6359621" lon="12.640989"><ele>484.0</ele><time>2026-05-03T08:16:38.786Z</time></trkpt><trkpt lat="43.6360464" lon="12.6409081"><ele>484.0</ele><time>2026-05-03T08:16:39.785Z</time></trkpt><trkpt lat="43.636138" lon="12.6408322"><ele>482.0</ele><time>2026-05-03T08:16:40.786Z</time></trkpt><trkpt lat="43.6362367" lon="12.6407646"><ele>480.0</ele><time>2026-05-03T08:16:41.785Z</time></trkpt><trkpt lat="43.6363474" lon="12.6407019"><ele>478.0</ele><time>2026-05-03T08:16:42.787Z</time></trkpt><trkpt lat="43.6364634" lon="12.640659"><ele>476.0</ele><time>2026-05-03T08:16:43.786Z</time></trkpt><trkpt lat="43.6365756" lon="12.6406291"><ele>476.0</ele><time>2026-05-03T08:16:44.787Z</time></trkpt><trkpt lat="43.6366945" lon="12.6406034"><ele>476.0</ele><time>2026-05-03T08:16:45.785Z</time></trkpt><trkpt lat="43.6368157" lon="12.6405817"><ele>476.0</ele><time>2026-05-03T08:16:46.786Z</time></trkpt><trkpt lat="43.6369266" lon="12.6405508"><ele>476.0</ele><time>2026-05-03T08:16:47.786Z</time></trkpt><trkpt lat="43.6370306" lon="12.6405038"><ele>474.0</ele><time>2026-05-03T08:16:48.786Z</time></trkpt><trkpt lat="43.6371279" lon="12.6404482"><ele>472.0</ele><time>2026-05-03T08:16:49.786Z</time></trkpt><trkpt lat="43.6372211" lon="12.6403864"><ele>470.0</ele><time>2026-05-03T08:16:50.785Z</time></trkpt><trkpt lat="43.6373089" lon="12.6403127"><ele>468.0</ele><time>2026-05-03T08:16:51.786Z</time></trkpt><trkpt lat="43.6373855" lon="12.6402329"><ele>466.0</ele><time>2026-05-03T08:16:52.785Z</time></trkpt><trkpt lat="43.6374524" lon="12.6401447"><ele>465.7142857142857</ele><time>2026-05-03T08:16:53.785Z</time></trkpt><trkpt lat="43.6375109" lon="12.6400644"><ele>465.42857142857144</ele><time>2026-05-03T08:16:54.787Z</time></trkpt><trkpt lat="43.6375603" lon="12.6399916"><ele>465.14285714285717</ele><time>2026-05-03T08:16:55.786Z</time></trkpt><trkpt lat="43.6376071" lon="12.6399261"><ele>464.8571428571429</ele><time>2026-05-03T08:16:56.787Z</time></trkpt><trkpt lat="43.637654" lon="12.6398599"><ele>464.57142857142856</ele><time>2026-05-03T08:16:57.787Z</time></trkpt><trkpt lat="43.637701" lon="12.6397833"><ele>464.28571428571433</ele><time>2026-05-03T08:16:58.787Z</time></trkpt><trkpt lat="43.6377534" lon="12.6396944"><ele>464.00000000000006</ele><time>2026-05-03T08:16:59.786Z</time></trkpt><trkpt lat="43.6378063" lon="12.6395974"><ele>464.2</ele><time>2026-05-03T08:17:00.787Z</time></trkpt><trkpt lat="43.6378574" lon="12.639495"><ele>464.4</ele><time>2026-05-03T08:17:01.785Z</time></trkpt><trkpt lat="43.637918" lon="12.6393949"><ele>464.6</ele><time>2026-05-03T08:17:02.786Z</time></trkpt><trkpt lat="43.637983" lon="12.6393044"><ele>464.8</ele><time>2026-05-03T08:17:03.787Z</time></trkpt><trkpt lat="43.6380506" lon="12.6392245"><ele>465.0</ele><time>2026-05-03T08:17:04.785Z</time></trkpt><trkpt lat="43.6381205" lon="12.6391572"><ele>465.0</ele><time>2026-05-03T08:17:05.787Z</time></trkpt><trkpt lat="43.6381912" lon="12.6390988"><ele>465.0</ele><time>2026-05-03T08:17:06.787Z</time></trkpt><trkpt lat="43.6382616" lon="12.6390444"><ele>465.0</ele><time>2026-05-03T08:17:07.786Z</time></trkpt><trkpt lat="43.6383336" lon="12.6389989"><ele>465.0</ele><time>2026-05-03T08:17:08.786Z</time></trkpt><trkpt lat="43.6384082" lon="12.6389579"><ele>465.0</ele><time>2026-05-03T08:17:09.786Z</time></trkpt><trkpt lat="43.638484" lon="12.6389161"><ele>465.0</ele><time>2026-05-03T08:17:10.785Z</time></trkpt><trkpt lat="43.6385643" lon="12.638882"><ele>465.0</ele><time>2026-05-03T08:17:11.787Z</time></trkpt><trkpt lat="43.6386499" lon="12.6388622"><ele>465.0</ele><time>2026-05-03T08:17:12.786Z</time></trkpt><trkpt lat="43.6387328" lon="12.6388391"><ele>465.0</ele><time>2026-05-03T08:17:13.786Z</time></trkpt><trkpt lat="43.6388215" lon="12.6388215"><ele>465.0</ele><time>2026-05-03T08:17:14.786Z</time></trkpt><trkpt lat="43.6389058" lon="12.6387922"><ele>465.0</ele><time>2026-05-03T08:17:15.787Z</time></trkpt><trkpt lat="43.6389894" lon="12.6387565"><ele>465.0</ele><time>2026-05-03T08:17:16.786Z</time></trkpt><trkpt lat="43.6390677" lon="12.6387003"><ele>461.4</ele><time>2026-05-03T08:17:17.785Z</time></trkpt><trkpt lat="43.6391477" lon="12.638623"><ele>457.8</ele><time>2026-05-03T08:17:18.785Z</time></trkpt><trkpt lat="43.6392266" lon="12.6385388"><ele>454.20000000000005</ele><time>2026-05-03T08:17:19.786Z</time></trkpt><trkpt lat="43.6393007" lon="12.6384491"><ele>450.6</ele><time>2026-05-03T08:17:20.785Z</time></trkpt><trkpt lat="43.6393728" lon="12.6383578"><ele>447.0</ele><time>2026-05-03T08:17:21.785Z</time></trkpt><trkpt lat="43.6394437" lon="12.6382691"><ele>447.6666666666667</ele><time>2026-05-03T08:17:22.787Z</time></trkpt><trkpt lat="43.6395119" lon="12.6381809"><ele>448.33333333333337</ele><time>2026-05-03T08:17:23.785Z</time></trkpt><trkpt lat="43.6395807" lon="12.6380943"><ele>449.0</ele><time>2026-05-03T08:17:24.786Z</time></trkpt><trkpt lat="43.6396533" lon="12.6380191"><ele>449.6666666666667</ele><time>2026-05-03T08:17:25.786Z</time></trkpt><trkpt lat="43.6397267" lon="12.6379614"><ele>450.33333333333337</ele><time>2026-05-03T08:17:26.786Z</time></trkpt><trkpt lat="43.6398089" lon="12.6379275"><ele>451.0</ele><time>2026-05-03T08:17:27.787Z</time></trkpt><trkpt lat="43.6398927" lon="12.6379075"><ele>451.00000000000006</ele><time>2026-05-03T08:17:28.786Z</time></trkpt><trkpt lat="43.6399762" lon="12.6378897"><ele>451.0</ele><time>2026-05-03T08:17:29.787Z</time></trkpt><trkpt lat="43.6400555" lon="12.6378656"><ele>451.0</ele><time>2026-05-03T08:17:30.786Z</time></trkpt><trkpt lat="43.6401356" lon="12.6378459"><ele>451.0</ele><time>2026-05-03T08:17:31.787Z</time></trkpt><trkpt lat="43.6402104" lon="12.6378234"><ele>451.00000000000006</ele><time>2026-05-03T08:17:32.787Z</time></trkpt><trkpt lat="43.6402822" lon="12.6378046"><ele>451.0</ele><time>2026-05-03T08:17:33.787Z</time></trkpt><trkpt lat="43.6404031" lon="12.6377985"><ele>446.83333333333337</ele><time>2026-05-03T08:17:35.785Z</time></trkpt><trkpt lat="43.6404841" lon="12.6377733"><ele>442.6666666666667</ele><time>2026-05-03T08:17:37.787Z</time></trkpt><trkpt lat="43.6405391" lon="12.6376887"><ele>438.5</ele><time>2026-05-03T08:17:40.787Z</time></trkpt><trkpt lat="43.6404904" lon="12.6376111"><ele>434.33333333333337</ele><time>2026-05-03T08:17:44.786Z</time></trkpt><trkpt lat="43.6404266" lon="12.637604"><ele>430.1666666666667</ele><time>2026-05-03T08:17:48.785Z</time></trkpt><trkpt lat="43.6403614" lon="12.6375909"><ele>426.0</ele><time>2026-05-03T08:17:52.786Z</time></trkpt><trkpt lat="43.6402698" lon="12.6375661"><ele>426.0</ele><time>2026-05-03T08:18:14.786Z</time></trkpt><trkpt lat="43.6401533" lon="12.6375595"><ele>426.0</ele><time>2026-05-03T08:18:16.786Z</time></trkpt><trkpt lat="43.6400849" lon="12.6375617"><ele>426.0</ele><time>2026-05-03T08:18:17.785Z</time></trkpt><trkpt lat="43.6400099" lon="12.6375679"><ele>426.0</ele><time>2026-05-03T08:18:18.786Z</time></trkpt><trkpt lat="43.6399283" lon="12.6375859"><ele>426.0</ele><time>2026-05-03T08:18:19.786Z</time></trkpt><trkpt lat="43.6398415" lon="12.6376114"><ele>426.0</ele><time>2026-05-03T08:18:20.785Z</time></trkpt><trkpt lat="43.6397501" lon="12.6376425"><ele>426.0</ele><time>2026-05-03T08:18:21.786Z</time></trkpt><trkpt lat="43.6396553" lon="12.6376834"><ele>426.0</ele><time>2026-05-03T08:18:22.785Z</time></trkpt><trkpt lat="43.6395553" lon="12.6377188"><ele>426.0</ele><time>2026-05-03T08:18:23.786Z</time></trkpt><trkpt lat="43.6394521" lon="12.6377517"><ele>426.0</ele><time>2026-05-03T08:18:24.786Z</time></trkpt><trkpt lat="43.6393489" lon="12.6377798"><ele>426.0</ele><time>2026-05-03T08:18:25.787Z</time></trkpt><trkpt lat="43.6392438" lon="12.637805"><ele>430.20000000000005</ele><time>2026-05-03T08:18:26.785Z</time></trkpt><trkpt lat="43.6391348" lon="12.6378234"><ele>434.40000000000003</ele><time>2026-05-03T08:18:27.785Z</time></trkpt><trkpt lat="43.6390239" lon="12.6378341"><ele>438.6</ele><time>2026-05-03T08:18:28.786Z</time></trkpt><trkpt lat="43.6389142" lon="12.6378386"><ele>442.8</ele><time>2026-05-03T08:18:29.786Z</time></trkpt><trkpt lat="43.6388102" lon="12.6378381"><ele>447.0</ele><time>2026-05-03T08:18:30.787Z</time></trkpt><trkpt lat="43.6387114" lon="12.6378306"><ele>446.3333333333333</ele><time>2026-05-03T08:18:31.786Z</time></trkpt><trkpt lat="43.6386226" lon="12.6378178"><ele>445.66666666666663</ele><time>2026-05-03T08:18:32.786Z</time></trkpt><trkpt lat="43.6385437" lon="12.6377794"><ele>445.0</ele><time>2026-05-03T08:18:33.786Z</time></trkpt><trkpt lat="43.6384892" lon="12.6377182"><ele>444.3333333333333</ele><time>2026-05-03T08:18:34.786Z</time></trkpt><trkpt lat="43.6384527" lon="12.6376466"><ele>443.66666666666663</ele><time>2026-05-03T08:18:35.786Z</time></trkpt><trkpt lat="43.6384102" lon="12.6375625"><ele>443.0</ele><time>2026-05-03T08:18:36.785Z</time></trkpt><trkpt lat="43.638355" lon="12.6374685"><ele>439.3333333333333</ele><time>2026-05-03T08:18:37.785Z</time></trkpt><trkpt lat="43.6382973" lon="12.6373828"><ele>435.66666666666663</ele><time>2026-05-03T08:18:38.787Z</time></trkpt><trkpt lat="43.6382314" lon="12.6373124"><ele>432.0</ele><time>2026-05-03T08:18:39.786Z</time></trkpt><trkpt lat="43.6381582" lon="12.6372552"><ele>428.33333333333337</ele><time>2026-05-03T08:18:40.787Z</time></trkpt><trkpt lat="43.6380783" lon="12.6372121"><ele>424.6666666666667</ele><time>2026-05-03T08:18:41.786Z</time></trkpt><trkpt lat="43.6379937" lon="12.6371787"><ele>421.0</ele><time>2026-05-03T08:18:42.785Z</time></trkpt><trkpt lat="43.6379064" lon="12.6371478"><ele>421.00000000000006</ele><time>2026-05-03T08:18:43.786Z</time></trkpt><trkpt lat="43.6378204" lon="12.6371164"><ele>421.0</ele><time>2026-05-03T08:18:44.786Z</time></trkpt><trkpt lat="43.6377391" lon="12.6370846"><ele>421.0</ele><time>2026-05-03T08:18:45.785Z</time></trkpt><trkpt lat="43.6376648" lon="12.6370547"><ele>421.0</ele><time>2026-05-03T08:18:46.787Z</time></trkpt><trkpt lat="43.6376003" lon="12.6370219"><ele>421.00000000000006</ele><time>2026-05-03T08:18:47.786Z</time></trkpt><trkpt lat="43.6375087" lon="12.6369275"><ele>421.0</ele><time>2026-05-03T08:18:49.786Z</time></trkpt><trkpt lat="43.6374966" lon="12.6367707"><ele>416.6666666666667</ele><time>2026-05-03T08:18:51.786Z</time></trkpt><trkpt lat="43.6375208" lon="12.6366715"><ele>412.33333333333337</ele><time>2026-05-03T08:18:52.786Z</time></trkpt><trkpt lat="43.6375542" lon="12.6365695"><ele>408.0</ele><time>2026-05-03T08:18:53.785Z</time></trkpt><trkpt lat="43.6375913" lon="12.6364648"><ele>403.66666666666663</ele><time>2026-05-03T08:18:54.785Z</time></trkpt><trkpt lat="43.6376323" lon="12.6363546"><ele>399.3333333333333</ele><time>2026-05-03T08:18:55.786Z</time></trkpt><trkpt lat="43.6376735" lon="12.636241"><ele>395.0</ele><time>2026-05-03T08:18:56.785Z</time></trkpt><trkpt lat="43.6377105" lon="12.6361335"><ele>394.16666666666663</ele><time>2026-05-03T08:18:57.785Z</time></trkpt><trkpt lat="43.637741" lon="12.636034"><ele>393.3333333333333</ele><time>2026-05-03T08:18:58.786Z</time></trkpt><trkpt lat="43.6377666" lon="12.6359479"><ele>392.5</ele><time>2026-05-03T08:18:59.786Z</time></trkpt><trkpt lat="43.6378054" lon="12.6358167"><ele>391.66666666666663</ele><time>2026-05-03T08:19:01.787Z</time></trkpt><trkpt lat="43.6378227" lon="12.6357208"><ele>390.8333333333333</ele><time>2026-05-03T08:19:04.785Z</time></trkpt><trkpt lat="43.6378488" lon="12.6355944"><ele>390.0</ele><time>2026-05-03T08:20:44.785Z</time></trkpt><trkpt lat="43.6378718" lon="12.6355096"><ele>390.0</ele><time>2026-05-03T08:20:45.784Z</time></trkpt><trkpt lat="43.6378989" lon="12.6353995"><ele>390.0</ele><time>2026-05-03T08:20:46.784Z</time></trkpt><trkpt lat="43.6379434" lon="12.6352425"><ele>390.0</ele><time>2026-05-03T08:20:47.785Z</time></trkpt><trkpt lat="43.6379972" lon="12.6350322"><ele>390.0</ele><time>2026-05-03T08:20:48.785Z</time></trkpt><trkpt lat="43.6380537" lon="12.6347799"><ele>386.0</ele><time>2026-05-03T08:20:49.786Z</time></trkpt><trkpt lat="43.6381164" lon="12.6345172"><ele>382.0</ele><time>2026-05-03T08:20:50.786Z</time></trkpt><trkpt lat="43.6381687" lon="12.6343034"><ele>378.0</ele><time>2026-05-03T08:20:51.785Z</time></trkpt><trkpt lat="43.6382111" lon="12.6341236"><ele>377.5</ele><time>2026-05-03T08:20:52.784Z</time></trkpt><trkpt lat="43.638241" lon="12.6339829"><ele>377.0</ele><time>2026-05-03T08:20:53.786Z</time></trkpt><trkpt lat="43.6382699" lon="12.6338793"><ele>376.5</ele><time>2026-05-03T08:20:54.786Z</time></trkpt><trkpt lat="43.6382963" lon="12.6337968"><ele>376.0</ele><time>2026-05-03T08:20:55.784Z</time></trkpt><trkpt lat="43.6383175" lon="12.6336948"><ele>375.5</ele><time>2026-05-03T08:20:56.785Z</time></trkpt><trkpt lat="43.6383311" lon="12.6335656"><ele>375.0</ele><time>2026-05-03T08:20:57.786Z</time></trkpt><trkpt lat="43.6383436" lon="12.6334111"><ele>374.6</ele><time>2026-05-03T08:20:58.786Z</time></trkpt><trkpt lat="43.6383575" lon="12.6332627"><ele>374.2</ele><time>2026-05-03T08:20:59.784Z</time></trkpt><trkpt lat="43.6383785" lon="12.6331241"><ele>373.79999999999995</ele><time>2026-05-03T08:21:00.785Z</time></trkpt><trkpt lat="43.638401" lon="12.6330011"><ele>373.4</ele><time>2026-05-03T08:21:01.785Z</time></trkpt><trkpt lat="43.6384172" lon="12.6328818"><ele>373.0</ele><time>2026-05-03T08:21:02.785Z</time></trkpt><trkpt lat="43.6384301" lon="12.6327651"><ele>372.4</ele><time>2026-05-03T08:21:03.785Z</time></trkpt><trkpt lat="43.6384373" lon="12.6326463"><ele>371.79999999999995</ele><time>2026-05-03T08:21:04.786Z</time></trkpt><trkpt lat="43.6384495" lon="12.6325204"><ele>371.2</ele><time>2026-05-03T08:21:05.786Z</time></trkpt><trkpt lat="43.6384672" lon="12.6323833"><ele>370.6</ele><time>2026-05-03T08:21:06.784Z</time></trkpt><trkpt lat="43.6384976" lon="12.6322315"><ele>370.0</ele><time>2026-05-03T08:21:07.786Z</time></trkpt><trkpt lat="43.6385326" lon="12.6320808"><ele>368.8</ele><time>2026-05-03T08:21:08.785Z</time></trkpt><trkpt lat="43.6385632" lon="12.6319296"><ele>367.6</ele><time>2026-05-03T08:21:09.784Z</time></trkpt><trkpt lat="43.6385916" lon="12.6317799"><ele>366.4</ele><time>2026-05-03T08:21:10.785Z</time></trkpt><trkpt lat="43.6386193" lon="12.6316322"><ele>365.2</ele><time>2026-05-03T08:21:11.785Z</time></trkpt><trkpt lat="43.6386482" lon="12.6314836"><ele>364.0</ele><time>2026-05-03T08:21:12.786Z</time></trkpt><trkpt lat="43.6386733" lon="12.6313344"><ele>362.5</ele><time>2026-05-03T08:21:13.784Z</time></trkpt><trkpt lat="43.6387015" lon="12.631186"><ele>361.0</ele><time>2026-05-03T08:21:14.785Z</time></trkpt><trkpt lat="43.6387302" lon="12.6310354"><ele>359.5</ele><time>2026-05-03T08:21:15.785Z</time></trkpt><trkpt lat="43.6387548" lon="12.6308706"><ele>358.0</ele><time>2026-05-03T08:21:16.784Z</time></trkpt><trkpt lat="43.6387782" lon="12.6307031"><ele>357.5</ele><time>2026-05-03T08:21:17.785Z</time></trkpt><trkpt lat="43.6387933" lon="12.6305328"><ele>357.0</ele><time>2026-05-03T08:21:18.785Z</time></trkpt><trkpt lat="43.6387982" lon="12.6303604"><ele>356.5</ele><time>2026-05-03T08:21:19.785Z</time></trkpt><trkpt lat="43.6387922" lon="12.6301882"><ele>356.0</ele><time>2026-05-03T08:21:20.785Z</time></trkpt><trkpt lat="43.6387788" lon="12.6300201"><ele>354.75</ele><time>2026-05-03T08:21:21.784Z</time></trkpt><trkpt lat="43.6387585" lon="12.6298586"><ele>353.5</ele><time>2026-05-03T08:21:22.785Z</time></trkpt><trkpt lat="43.6387325" lon="12.6297023"><ele>352.25</ele><time>2026-05-03T08:21:23.786Z</time></trkpt><trkpt lat="43.6387071" lon="12.6295471"><ele>351.0</ele><time>2026-05-03T08:21:24.785Z</time></trkpt><trkpt lat="43.6386761" lon="12.6293945"><ele>349.75</ele><time>2026-05-03T08:21:25.785Z</time></trkpt><trkpt lat="43.6386458" lon="12.6292418"><ele>348.5</ele><time>2026-05-03T08:21:26.785Z</time></trkpt><trkpt lat="43.6386236" lon="12.6290859"><ele>347.25</ele><time>2026-05-03T08:21:27.785Z</time></trkpt><trkpt lat="43.6386093" lon="12.6289279"><ele>346.0</ele><time>2026-05-03T08:21:28.784Z</time></trkpt><trkpt lat="43.6386046" lon="12.6287675"><ele>345.0</ele><time>2026-05-03T08:21:29.786Z</time></trkpt><trkpt lat="43.6386076" lon="12.6286013"><ele>344.0</ele><time>2026-05-03T08:21:30.786Z</time></trkpt><trkpt lat="43.6386178" lon="12.6284119"><ele>343.0</ele><time>2026-05-03T08:21:31.784Z</time></trkpt><trkpt lat="43.6386336" lon="12.6281924"><ele>342.0</ele><time>2026-05-03T08:21:32.784Z</time></trkpt><trkpt lat="43.6386436" lon="12.6279951"><ele>340.5</ele><time>2026-05-03T08:21:33.785Z</time></trkpt><trkpt lat="43.6386514" lon="12.6278092"><ele>339.0</ele><time>2026-05-03T08:21:34.784Z</time></trkpt><trkpt lat="43.6386592" lon="12.6276384"><ele>337.5</ele><time>2026-05-03T08:21:35.785Z</time></trkpt><trkpt lat="43.6386582" lon="12.6274829"><ele>336.0</ele><time>2026-05-03T08:21:36.784Z</time></trkpt><trkpt lat="43.6386437" lon="12.6273279"><ele>335.75</ele><time>2026-05-03T08:21:37.785Z</time></trkpt><trkpt lat="43.6386111" lon="12.6271711"><ele>335.5</ele><time>2026-05-03T08:21:38.785Z</time></trkpt><trkpt lat="43.6385562" lon="12.6270136"><ele>335.25</ele><time>2026-05-03T08:21:39.786Z</time></trkpt><trkpt lat="43.638489" lon="12.6268529"><ele>335.0</ele><time>2026-05-03T08:21:40.784Z</time></trkpt><trkpt lat="43.6384134" lon="12.626692"><ele>335.0</ele><time>2026-05-03T08:21:41.785Z</time></trkpt><trkpt lat="43.6383368" lon="12.626524"><ele>335.0</ele><time>2026-05-03T08:21:42.784Z</time></trkpt><trkpt lat="43.6382691" lon="12.6263463"><ele>335.0</ele><time>2026-05-03T08:21:43.786Z</time></trkpt><trkpt lat="43.6382087" lon="12.6261732"><ele>335.0</ele><time>2026-05-03T08:21:44.785Z</time></trkpt><trkpt lat="43.638152" lon="12.6260109"><ele>336.4</ele><time>2026-05-03T08:21:45.786Z</time></trkpt><trkpt lat="43.6380916" lon="12.6258683"><ele>337.8</ele><time>2026-05-03T08:21:46.786Z</time></trkpt><trkpt lat="43.6380405" lon="12.6257469"><ele>339.20000000000005</ele><time>2026-05-03T08:21:47.785Z</time></trkpt><trkpt lat="43.638001" lon="12.6256367"><ele>340.6</ele><time>2026-05-03T08:21:48.785Z</time></trkpt><trkpt lat="43.6379725" lon="12.625526"><ele>342.0</ele><time>2026-05-03T08:21:49.786Z</time></trkpt><trkpt lat="43.6379498" lon="12.6254166"><ele>343.3333333333333</ele><time>2026-05-03T08:21:50.785Z</time></trkpt><trkpt lat="43.6379336" lon="12.6253089"><ele>344.6666666666667</ele><time>2026-05-03T08:21:51.786Z</time></trkpt><trkpt lat="43.6379174" lon="12.6251935"><ele>346.0</ele><time>2026-05-03T08:21:52.786Z</time></trkpt><trkpt lat="43.6379061" lon="12.625073"><ele>347.33333333333337</ele><time>2026-05-03T08:21:53.785Z</time></trkpt><trkpt lat="43.6379066" lon="12.6249523"><ele>348.6666666666667</ele><time>2026-05-03T08:21:54.785Z</time></trkpt><trkpt lat="43.6379132" lon="12.6248278"><ele>350.0</ele><time>2026-05-03T08:21:55.785Z</time></trkpt><trkpt lat="43.6379232" lon="12.6247008"><ele>350.0</ele><time>2026-05-03T08:21:56.786Z</time></trkpt><trkpt lat="43.6379346" lon="12.6245678"><ele>350.0</ele><time>2026-05-03T08:21:57.785Z</time></trkpt><trkpt lat="43.6379448" lon="12.6244349"><ele>350.0</ele><time>2026-05-03T08:21:58.785Z</time></trkpt><trkpt lat="43.6379537" lon="12.6243033"><ele>350.0</ele><time>2026-05-03T08:21:59.784Z</time></trkpt><trkpt lat="43.6379579" lon="12.6241765"><ele>350.0</ele><time>2026-05-03T08:22:00.784Z</time></trkpt><trkpt lat="43.6379484" lon="12.6240561"><ele>349.1666666666667</ele><time>2026-05-03T08:22:01.784Z</time></trkpt><trkpt lat="43.6379299" lon="12.6239433"><ele>348.33333333333337</ele><time>2026-05-03T08:22:02.786Z</time></trkpt><trkpt lat="43.6379063" lon="12.623834"><ele>347.5</ele><time>2026-05-03T08:22:03.784Z</time></trkpt><trkpt lat="43.6378795" lon="12.623728"><ele>346.6666666666667</ele><time>2026-05-03T08:22:04.786Z</time></trkpt><trkpt lat="43.6378449" lon="12.6236292"><ele>345.8333333333333</ele><time>2026-05-03T08:22:05.784Z</time></trkpt><trkpt lat="43.6378069" lon="12.6235437"><ele>345.0</ele><time>2026-05-03T08:22:06.785Z</time></trkpt><trkpt lat="43.6377678" lon="12.6234692"><ele>343.6</ele><time>2026-05-03T08:22:07.786Z</time></trkpt><trkpt lat="43.6376994" lon="12.6233343"><ele>342.2</ele><time>2026-05-03T08:22:09.785Z</time></trkpt><trkpt lat="43.6376494" lon="12.6232217"><ele>340.79999999999995</ele><time>2026-05-03T08:22:11.785Z</time></trkpt><trkpt lat="43.6376136" lon="12.6231327"><ele>339.4</ele><time>2026-05-03T08:22:13.785Z</time></trkpt><trkpt lat="43.6375619" lon="12.6230231"><ele>338.0</ele><time>2026-05-03T08:22:16.786Z</time></trkpt><trkpt lat="43.6375135" lon="12.6229117"><ele>337.83333333333337</ele><time>2026-05-03T08:22:18.785Z</time></trkpt><trkpt lat="43.6374544" lon="12.622759"><ele>337.6666666666667</ele><time>2026-05-03T08:22:20.785Z</time></trkpt><trkpt lat="43.6374217" lon="12.6226691"><ele>337.5</ele><time>2026-05-03T08:22:21.786Z</time></trkpt><trkpt lat="43.63739" lon="12.6225718"><ele>337.3333333333333</ele><time>2026-05-03T08:22:22.785Z</time></trkpt><trkpt lat="43.6373608" lon="12.6224682"><ele>337.16666666666663</ele><time>2026-05-03T08:22:23.784Z</time></trkpt><trkpt lat="43.6373312" lon="12.6223554"><ele>337.0</ele><time>2026-05-03T08:22:24.785Z</time></trkpt><trkpt lat="43.6373092" lon="12.622233"><ele>337.0</ele><time>2026-05-03T08:22:25.784Z</time></trkpt><trkpt lat="43.6373039" lon="12.6220995"><ele>337.0</ele><time>2026-05-03T08:22:26.784Z</time></trkpt><trkpt lat="43.6373015" lon="12.621962"><ele>337.0</ele><time>2026-05-03T08:22:27.785Z</time></trkpt><trkpt lat="43.6372962" lon="12.6218274"><ele>337.0</ele><time>2026-05-03T08:22:28.784Z</time></trkpt><trkpt lat="43.637293" lon="12.6216896"><ele>337.0</ele><time>2026-05-03T08:22:29.785Z</time></trkpt><trkpt lat="43.6372968" lon="12.621556"><ele>336.6</ele><time>2026-05-03T08:22:30.786Z</time></trkpt><trkpt lat="43.637302" lon="12.6214235"><ele>336.20000000000005</ele><time>2026-05-03T08:22:31.786Z</time></trkpt><trkpt lat="43.6373065" lon="12.6212896"><ele>335.8</ele><time>2026-05-03T08:22:32.786Z</time></trkpt><trkpt lat="43.6373088" lon="12.6211584"><ele>335.4</ele><time>2026-05-03T08:22:33.784Z</time></trkpt><trkpt lat="43.6372994" lon="12.6210255"><ele>335.0</ele><time>2026-05-03T08:22:34.785Z</time></trkpt><trkpt lat="43.6372839" lon="12.6208955"><ele>335.0</ele><time>2026-05-03T08:22:35.785Z</time></trkpt><trkpt lat="43.6372588" lon="12.620764"><ele>335.0</ele><time>2026-05-03T08:22:36.785Z</time></trkpt><trkpt lat="43.6372252" lon="12.6206302"><ele>335.0</ele><time>2026-05-03T08:22:37.785Z</time></trkpt><trkpt lat="43.6371808" lon="12.6204989"><ele>335.0</ele><time>2026-05-03T08:22:38.785Z</time></trkpt><trkpt lat="43.637133" lon="12.6203708"><ele>335.0</ele><time>2026-05-03T08:22:39.784Z</time></trkpt><trkpt lat="43.6370798" lon="12.6202544"><ele>335.4</ele><time>2026-05-03T08:22:40.784Z</time></trkpt><trkpt lat="43.6370146" lon="12.6201492"><ele>335.8</ele><time>2026-05-03T08:22:41.785Z</time></trkpt><trkpt lat="43.6369423" lon="12.6200542"><ele>336.20000000000005</ele><time>2026-05-03T08:22:42.786Z</time></trkpt><trkpt lat="43.636856" lon="12.6199757"><ele>336.6</ele><time>2026-05-03T08:22:43.786Z</time></trkpt><trkpt lat="43.6367558" lon="12.6199033"><ele>337.0</ele><time>2026-05-03T08:22:44.785Z</time></trkpt><trkpt lat="43.6366363" lon="12.6198166"><ele>337.75</ele><time>2026-05-03T08:22:45.784Z</time></trkpt><trkpt lat="43.636516" lon="12.6197196"><ele>338.5</ele><time>2026-05-03T08:22:46.784Z</time></trkpt><trkpt lat="43.6364087" lon="12.6196228"><ele>339.25</ele><time>2026-05-03T08:22:47.785Z</time></trkpt><trkpt lat="43.6363073" lon="12.6195171"><ele>340.0</ele><time>2026-05-03T08:22:48.785Z</time></trkpt><trkpt lat="43.6362083" lon="12.6194047"><ele>341.0</ele><time>2026-05-03T08:22:49.786Z</time></trkpt><trkpt lat="43.6361211" lon="12.6192824"><ele>342.0</ele><time>2026-05-03T08:22:50.785Z</time></trkpt><trkpt lat="43.636041" lon="12.619163"><ele>343.0</ele><time>2026-05-03T08:22:51.784Z</time></trkpt><trkpt lat="43.635959" lon="12.6190455"><ele>344.0</ele><time>2026-05-03T08:22:52.785Z</time></trkpt><trkpt lat="43.6358683" lon="12.6189182"><ele>344.0</ele><time>2026-05-03T08:22:53.785Z</time></trkpt><trkpt lat="43.6357643" lon="12.6187799"><ele>344.0</ele><time>2026-05-03T08:22:54.785Z</time></trkpt><trkpt lat="43.6356472" lon="12.6186263"><ele>344.0</ele><time>2026-05-03T08:22:55.785Z</time></trkpt><trkpt lat="43.6355245" lon="12.618459"><ele>342.6666666666667</ele><time>2026-05-03T08:22:56.785Z</time></trkpt><trkpt lat="43.6353737" lon="12.6182648"><ele>341.3333333333333</ele><time>2026-05-03T08:22:57.785Z</time></trkpt><trkpt lat="43.6352006" lon="12.6180501"><ele>340.0</ele><time>2026-05-03T08:22:58.785Z</time></trkpt><trkpt lat="43.6350457" lon="12.6178631"><ele>337.3333333333333</ele><time>2026-05-03T08:22:59.786Z</time></trkpt><trkpt lat="43.6349045" lon="12.6176972"><ele>334.6666666666667</ele><time>2026-05-03T08:23:00.785Z</time></trkpt><trkpt lat="43.6347791" lon="12.6175523"><ele>332.0</ele><time>2026-05-03T08:23:01.785Z</time></trkpt><trkpt lat="43.63467" lon="12.6174298"><ele>332.0</ele><time>2026-05-03T08:23:02.785Z</time></trkpt><trkpt lat="43.6345669" lon="12.6173174"><ele>332.0</ele><time>2026-05-03T08:23:03.785Z</time></trkpt><trkpt lat="43.6344614" lon="12.6171995"><ele>332.0</ele><time>2026-05-03T08:23:04.784Z</time></trkpt><trkpt lat="43.6343522" lon="12.6170682"><ele>332.0</ele><time>2026-05-03T08:23:05.784Z</time></trkpt><trkpt lat="43.634245" lon="12.6169199"><ele>332.25</ele><time>2026-05-03T08:23:06.786Z</time></trkpt><trkpt lat="43.6341462" lon="12.6167638"><ele>332.5</ele><time>2026-05-03T08:23:07.785Z</time></trkpt><trkpt lat="43.6340646" lon="12.6166007"><ele>332.75</ele><time>2026-05-03T08:23:08.785Z</time></trkpt><trkpt lat="43.633999" lon="12.6164281"><ele>333.0</ele><time>2026-05-03T08:23:09.784Z</time></trkpt><trkpt lat="43.6339434" lon="12.616251"><ele>331.25</ele><time>2026-05-03T08:23:10.785Z</time></trkpt><trkpt lat="43.6338868" lon="12.6160809"><ele>329.5</ele><time>2026-05-03T08:23:11.785Z</time></trkpt><trkpt lat="43.6338234" lon="12.6159119"><ele>327.75</ele><time>2026-05-03T08:23:12.784Z</time></trkpt><trkpt lat="43.6337563" lon="12.6157504"><ele>326.0</ele><time>2026-05-03T08:23:13.784Z</time></trkpt><trkpt lat="43.6336923" lon="12.6156114"><ele>328.6</ele><time>2026-05-03T08:23:14.786Z</time></trkpt><trkpt lat="43.6336323" lon="12.6154874"><ele>331.20000000000005</ele><time>2026-05-03T08:23:15.785Z</time></trkpt><trkpt lat="43.6335711" lon="12.6153674"><ele>333.79999999999995</ele><time>2026-05-03T08:23:16.784Z</time></trkpt><trkpt lat="43.6335096" lon="12.6152663"><ele>336.4</ele><time>2026-05-03T08:23:17.785Z</time></trkpt><trkpt lat="43.6334427" lon="12.6151868"><ele>339.0</ele><time>2026-05-03T08:23:18.785Z</time></trkpt><trkpt lat="43.633367" lon="12.6151311"><ele>339.0</ele><time>2026-05-03T08:23:19.784Z</time></trkpt><trkpt lat="43.6332874" lon="12.6151043"><ele>339.0</ele><time>2026-05-03T08:23:20.786Z</time></trkpt><trkpt lat="43.6332053" lon="12.6150984"><ele>339.0</ele><time>2026-05-03T08:23:21.785Z</time></trkpt><trkpt lat="43.6331262" lon="12.6150903"><ele>339.0</ele><time>2026-05-03T08:23:22.785Z</time></trkpt><trkpt lat="43.6330644" lon="12.6150459"><ele>339.0</ele><time>2026-05-03T08:23:23.784Z</time></trkpt><trkpt lat="43.6330129" lon="12.6149701"><ele>339.0</ele><time>2026-05-03T08:23:24.786Z</time></trkpt><trkpt lat="43.6329757" lon="12.614858"><ele>339.0</ele><time>2026-05-03T08:23:25.786Z</time></trkpt><trkpt lat="43.6329428" lon="12.6147152"><ele>339.0</ele><time>2026-05-03T08:23:26.784Z</time></trkpt><trkpt lat="43.6329171" lon="12.6145815"><ele>339.0</ele><time>2026-05-03T08:23:27.784Z</time></trkpt><trkpt lat="43.6328799" lon="12.6144641"><ele>339.0</ele><time>2026-05-03T08:23:28.784Z</time></trkpt><trkpt lat="43.6328207" lon="12.6143523"><ele>339.0</ele><time>2026-05-03T08:23:29.786Z</time></trkpt><trkpt lat="43.6327528" lon="12.6142567"><ele>341.2</ele><time>2026-05-03T08:23:30.784Z</time></trkpt><trkpt lat="43.6326855" lon="12.6141625"><ele>343.4</ele><time>2026-05-03T08:23:31.785Z</time></trkpt><trkpt lat="43.6326129" lon="12.6140645"><ele>345.6</ele><time>2026-05-03T08:23:32.785Z</time></trkpt><trkpt lat="43.632538" lon="12.6139607"><ele>347.8</ele><time>2026-05-03T08:23:33.785Z</time></trkpt><trkpt lat="43.6324639" lon="12.6138472"><ele>350.0</ele><time>2026-05-03T08:23:34.786Z</time></trkpt><trkpt lat="43.6323892" lon="12.6137262"><ele>348.6</ele><time>2026-05-03T08:23:35.784Z</time></trkpt><trkpt lat="43.6323169" lon="12.6136027"><ele>347.2</ele><time>2026-05-03T08:23:36.786Z</time></trkpt><trkpt lat="43.6322488" lon="12.6134751"><ele>345.79999999999995</ele><time>2026-05-03T08:23:37.785Z</time></trkpt><trkpt lat="43.6321864" lon="12.6133481"><ele>344.4</ele><time>2026-05-03T08:23:38.784Z</time></trkpt><trkpt lat="43.6321301" lon="12.6132203"><ele>343.0</ele><time>2026-05-03T08:23:39.784Z</time></trkpt><trkpt lat="43.6320782" lon="12.613094"><ele>343.0</ele><time>2026-05-03T08:23:40.785Z</time></trkpt><trkpt lat="43.6320337" lon="12.6129663"><ele>343.0</ele><time>2026-05-03T08:23:41.784Z</time></trkpt><trkpt lat="43.6319867" lon="12.6128464"><ele>343.0</ele><time>2026-05-03T08:23:42.784Z</time></trkpt><trkpt lat="43.6319326" lon="12.6127258"><ele>343.0</ele><time>2026-05-03T08:23:43.784Z</time></trkpt><trkpt lat="43.6318748" lon="12.6126035"><ele>343.0</ele><time>2026-05-03T08:23:44.785Z</time></trkpt><trkpt lat="43.6318149" lon="12.6124678"><ele>346.75</ele><time>2026-05-03T08:23:45.784Z</time></trkpt><trkpt lat="43.6317642" lon="12.6123264"><ele>350.5</ele><time>2026-05-03T08:23:46.785Z</time></trkpt><trkpt lat="43.6317143" lon="12.6121779"><ele>354.25</ele><time>2026-05-03T08:23:47.785Z</time></trkpt><trkpt lat="43.6316607" lon="12.6120213"><ele>358.0</ele><time>2026-05-03T08:23:48.784Z</time></trkpt><trkpt lat="43.6316069" lon="12.6118664"><ele>358.0</ele><time>2026-05-03T08:23:49.786Z</time></trkpt><trkpt lat="43.6315568" lon="12.6117082"><ele>358.0</ele><time>2026-05-03T08:23:50.785Z</time></trkpt><trkpt lat="43.631505" lon="12.6115558"><ele>358.0</ele><time>2026-05-03T08:23:51.785Z</time></trkpt><trkpt lat="43.6314518" lon="12.6114053"><ele>358.0</ele><time>2026-05-03T08:23:52.786Z</time></trkpt><trkpt lat="43.6313997" lon="12.6112573"><ele>359.59999999999997</ele><time>2026-05-03T08:23:53.785Z</time></trkpt><trkpt lat="43.631346" lon="12.6111157"><ele>361.2</ele><time>2026-05-03T08:23:54.784Z</time></trkpt><trkpt lat="43.6312918" lon="12.6109798"><ele>362.8</ele><time>2026-05-03T08:23:55.785Z</time></trkpt><trkpt lat="43.6312368" lon="12.6108471"><ele>364.4</ele><time>2026-05-03T08:23:56.784Z</time></trkpt><trkpt lat="43.6311834" lon="12.6107222"><ele>366.0</ele><time>2026-05-03T08:23:57.784Z</time></trkpt><trkpt lat="43.631137" lon="12.6106109"><ele>366.5</ele><time>2026-05-03T08:23:58.785Z</time></trkpt><trkpt lat="43.631101" lon="12.6105147"><ele>367.0</ele><time>2026-05-03T08:23:59.785Z</time></trkpt><trkpt lat="43.6310759" lon="12.6104346"><ele>367.5</ele><time>2026-05-03T08:24:00.785Z</time></trkpt><trkpt lat="43.6310487" lon="12.6103451"><ele>368.0</ele><time>2026-05-03T08:24:02.785Z</time></trkpt><trkpt lat="43.6309925" lon="12.610265"><ele>368.5</ele><time>2026-05-03T08:24:10.786Z</time></trkpt><trkpt lat="43.6308532" lon="12.6102536"><ele>369.0</ele><time>2026-05-03T08:24:12.785Z</time></trkpt><trkpt lat="43.6307598" lon="12.6102652"><ele>369.0</ele><time>2026-05-03T08:24:13.785Z</time></trkpt><trkpt lat="43.6306612" lon="12.6102848"><ele>369.0</ele><time>2026-05-03T08:24:14.785Z</time></trkpt><trkpt lat="43.6305618" lon="12.6103233"><ele>369.0</ele><time>2026-05-03T08:24:15.785Z</time></trkpt><trkpt lat="43.6304504" lon="12.6103824"><ele>369.0</ele><time>2026-05-03T08:24:16.784Z</time></trkpt><trkpt lat="43.6303339" lon="12.6104423"><ele>369.0</ele><time>2026-05-03T08:24:17.785Z</time></trkpt><trkpt lat="43.6302374" lon="12.6104919"><ele>371.0</ele><time>2026-05-03T08:24:18.784Z</time></trkpt><trkpt lat="43.6301527" lon="12.6105337"><ele>373.0</ele><time>2026-05-03T08:24:19.785Z</time></trkpt><trkpt lat="43.6300814" lon="12.6105651"><ele>375.0</ele><time>2026-05-03T08:24:20.785Z</time></trkpt><trkpt lat="43.6300205" lon="12.6105908"><ele>377.0</ele><time>2026-05-03T08:24:21.786Z</time></trkpt><trkpt lat="43.6299299" lon="12.61063"><ele>379.0</ele><time>2026-05-03T08:24:23.785Z</time></trkpt><trkpt lat="43.6298596" lon="12.6106654"><ele>381.0</ele><time>2026-05-03T08:24:25.784Z</time></trkpt><trkpt lat="43.6297437" lon="12.6107228"><ele>381.0</ele><time>2026-05-03T08:24:27.783Z</time></trkpt><trkpt lat="43.6296616" lon="12.6107595"><ele>381.0</ele><time>2026-05-03T08:24:28.784Z</time></trkpt><trkpt lat="43.6295819" lon="12.61079"><ele>381.0</ele><time>2026-05-03T08:24:29.784Z</time></trkpt><trkpt lat="43.6295152" lon="12.6108095"><ele>381.0</ele><time>2026-05-03T08:24:30.784Z</time></trkpt><trkpt lat="43.6294535" lon="12.6108638"><ele>381.0</ele><time>2026-05-03T08:24:32.784Z</time></trkpt><trkpt lat="43.6295454" lon="12.610853"><ele>381.0</ele><time>2026-05-03T08:24:36.783Z</time></trkpt><trkpt lat="43.6296383" lon="12.6107957"><ele>381.0</ele><time>2026-05-03T08:24:38.783Z</time></trkpt><trkpt lat="43.6297586" lon="12.6107427"><ele>381.0</ele><time>2026-05-03T08:24:40.785Z</time></trkpt><trkpt lat="43.6298236" lon="12.6107102"><ele>381.0</ele><time>2026-05-03T08:24:41.785Z</time></trkpt><trkpt lat="43.629895" lon="12.6106772"><ele>381.0</ele><time>2026-05-03T08:24:42.784Z</time></trkpt><trkpt lat="43.6299733" lon="12.6106368"><ele>381.0</ele><time>2026-05-03T08:24:43.783Z</time></trkpt><trkpt lat="43.6300655" lon="12.6105904"><ele>381.0</ele><time>2026-05-03T08:24:44.783Z</time></trkpt><trkpt lat="43.6301643" lon="12.6105438"><ele>381.0</ele><time>2026-05-03T08:24:45.785Z</time></trkpt><trkpt lat="43.6302886" lon="12.6104778"><ele>381.0</ele><time>2026-05-03T08:24:46.784Z</time></trkpt><trkpt lat="43.6303959" lon="12.610423"><ele>381.0</ele><time>2026-05-03T08:24:47.784Z</time></trkpt><trkpt lat="43.6304948" lon="12.6103722"><ele>379.4</ele><time>2026-05-03T08:24:48.783Z</time></trkpt><trkpt lat="43.6305875" lon="12.61033"><ele>377.8</ele><time>2026-05-03T08:24:49.784Z</time></trkpt><trkpt lat="43.6306742" lon="12.6103"><ele>376.2</ele><time>2026-05-03T08:24:50.784Z</time></trkpt><trkpt lat="43.6307562" lon="12.6102878"><ele>374.59999999999997</ele><time>2026-05-03T08:24:51.784Z</time></trkpt><trkpt lat="43.6308293" lon="12.6102852"><ele>373.0</ele><time>2026-05-03T08:24:52.784Z</time></trkpt><trkpt lat="43.6309431" lon="12.6102864"><ele>372.3333333333333</ele><time>2026-05-03T08:24:54.783Z</time></trkpt><trkpt lat="43.6309795" lon="12.6102034"><ele>371.66666666666663</ele><time>2026-05-03T08:24:56.785Z</time></trkpt><trkpt lat="43.6309137" lon="12.6101311"><ele>371.0</ele><time>2026-05-03T08:24:58.784Z</time></trkpt><trkpt lat="43.6308431" lon="12.6101076"><ele>370.3333333333333</ele><time>2026-05-03T08:24:59.785Z</time></trkpt><trkpt lat="43.6307632" lon="12.6100846"><ele>369.6666666666667</ele><time>2026-05-03T08:25:00.784Z</time></trkpt><trkpt lat="43.6306777" lon="12.6100414"><ele>369.0</ele><time>2026-05-03T08:25:01.783Z</time></trkpt><trkpt lat="43.6305989" lon="12.6099813"><ele>369.0</ele><time>2026-05-03T08:25:02.784Z</time></trkpt><trkpt lat="43.6305349" lon="12.6098937"><ele>369.0</ele><time>2026-05-03T08:25:03.783Z</time></trkpt><trkpt lat="43.630482" lon="12.609792"><ele>369.0</ele><time>2026-05-03T08:25:04.785Z</time></trkpt><trkpt lat="43.6304311" lon="12.6096828"><ele>369.0</ele><time>2026-05-03T08:25:05.785Z</time></trkpt><trkpt lat="43.6303749" lon="12.609577"><ele>369.0</ele><time>2026-05-03T08:25:06.784Z</time></trkpt><trkpt lat="43.630321" lon="12.6094718"><ele>367.5</ele><time>2026-05-03T08:25:07.783Z</time></trkpt><trkpt lat="43.630264" lon="12.6093734"><ele>366.0</ele><time>2026-05-03T08:25:08.784Z</time></trkpt><trkpt lat="43.6302073" lon="12.6092812"><ele>364.5</ele><time>2026-05-03T08:25:09.783Z</time></trkpt><trkpt lat="43.6301504" lon="12.6091957"><ele>363.0</ele><time>2026-05-03T08:25:10.783Z</time></trkpt><trkpt lat="43.6300955" lon="12.6091121"><ele>361.5</ele><time>2026-05-03T08:25:11.784Z</time></trkpt><trkpt lat="43.6300501" lon="12.6090272"><ele>360.0</ele><time>2026-05-03T08:25:12.784Z</time></trkpt><trkpt lat="43.6300173" lon="12.6089401"><ele>360.0</ele><time>2026-05-03T08:25:13.783Z</time></trkpt><trkpt lat="43.6300019" lon="12.6088405"><ele>360.0</ele><time>2026-05-03T08:25:14.784Z</time></trkpt><trkpt lat="43.6300128" lon="12.608732"><ele>360.0</ele><time>2026-05-03T08:25:15.784Z</time></trkpt><trkpt lat="43.6300488" lon="12.6086205"><ele>360.0</ele><time>2026-05-03T08:25:16.785Z</time></trkpt><trkpt lat="43.6301026" lon="12.6085141"><ele>360.0</ele><time>2026-05-03T08:25:17.784Z</time></trkpt><trkpt lat="43.6301591" lon="12.6084127"><ele>360.0</ele><time>2026-05-03T08:25:18.785Z</time></trkpt><trkpt lat="43.630216" lon="12.6083164"><ele>357.4</ele><time>2026-05-03T08:25:19.785Z</time></trkpt><trkpt lat="43.6302698" lon="12.6082223"><ele>354.8</ele><time>2026-05-03T08:25:20.784Z</time></trkpt><trkpt lat="43.6303175" lon="12.6081324"><ele>352.20000000000005</ele><time>2026-05-03T08:25:21.784Z</time></trkpt><trkpt lat="43.6303633" lon="12.608057"><ele>349.6</ele><time>2026-05-03T08:25:22.785Z</time></trkpt><trkpt lat="43.6304312" lon="12.6079705"><ele>347.0</ele><time>2026-05-03T08:25:24.784Z</time></trkpt><trkpt lat="43.6305312" lon="12.6078755"><ele>345.8</ele><time>2026-05-03T08:25:26.784Z</time></trkpt><trkpt lat="43.6305989" lon="12.6078232"><ele>344.6</ele><time>2026-05-03T08:25:27.785Z</time></trkpt><trkpt lat="43.6306785" lon="12.6077638"><ele>343.40000000000003</ele><time>2026-05-03T08:25:28.785Z</time></trkpt><trkpt lat="43.6307665" lon="12.6076994"><ele>342.20000000000005</ele><time>2026-05-03T08:25:29.783Z</time></trkpt><trkpt lat="43.6308573" lon="12.6076335"><ele>341.0</ele><time>2026-05-03T08:25:30.784Z</time></trkpt><trkpt lat="43.6309407" lon="12.6075626"><ele>341.0</ele><time>2026-05-03T08:25:31.783Z</time></trkpt><trkpt lat="43.6310156" lon="12.6074726"><ele>341.0</ele><time>2026-05-03T08:25:32.784Z</time></trkpt><trkpt lat="43.6310784" lon="12.6073563"><ele>341.0</ele><time>2026-05-03T08:25:33.785Z</time></trkpt><trkpt lat="43.6311368" lon="12.6072147"><ele>341.0</ele><time>2026-05-03T08:25:34.783Z</time></trkpt><trkpt lat="43.6311945" lon="12.60706"><ele>341.0</ele><time>2026-05-03T08:25:35.784Z</time></trkpt><trkpt lat="43.6312477" lon="12.6069109"><ele>337.4</ele><time>2026-05-03T08:25:36.784Z</time></trkpt><trkpt lat="43.6312992" lon="12.6067662"><ele>333.8</ele><time>2026-05-03T08:25:37.784Z</time></trkpt><trkpt lat="43.6313484" lon="12.6066335"><ele>330.2</ele><time>2026-05-03T08:25:38.784Z</time></trkpt><trkpt lat="43.6313928" lon="12.6065125"><ele>326.59999999999997</ele><time>2026-05-03T08:25:39.784Z</time></trkpt><trkpt lat="43.6314339" lon="12.6064035"><ele>323.0</ele><time>2026-05-03T08:25:40.784Z</time></trkpt><trkpt lat="43.6314683" lon="12.6063117"><ele>323.0</ele><time>2026-05-03T08:25:41.784Z</time></trkpt><trkpt lat="43.6315006" lon="12.6062298"><ele>323.0</ele><time>2026-05-03T08:25:42.784Z</time></trkpt><trkpt lat="43.63155" lon="12.6061086"><ele>323.0</ele><time>2026-05-03T08:25:44.784Z</time></trkpt><trkpt lat="43.6315601" lon="12.6060219"><ele>323.0</ele><time>2026-05-03T08:25:47.784Z</time></trkpt><trkpt lat="43.6315" lon="12.6059316"><ele>323.0</ele><time>2026-05-03T08:25:50.784Z</time></trkpt><trkpt lat="43.6314247" lon="12.6059016"><ele>323.0</ele><time>2026-05-03T08:25:52.784Z</time></trkpt><trkpt lat="43.6313518" lon="12.6058801"><ele>322.59999999999997</ele><time>2026-05-03T08:25:54.784Z</time></trkpt><trkpt lat="43.631269" lon="12.6058487"><ele>322.2</ele><time>2026-05-03T08:25:56.784Z</time></trkpt><trkpt lat="43.6311669" lon="12.6058195"><ele>321.8</ele><time>2026-05-03T08:25:58.784Z</time></trkpt><trkpt lat="43.6310569" lon="12.6057774"><ele>321.4</ele><time>2026-05-03T08:26:00.784Z</time></trkpt><trkpt lat="43.6309403" lon="12.6057316"><ele>321.0</ele><time>2026-05-03T08:26:02.783Z</time></trkpt><trkpt lat="43.6308189" lon="12.6056867"><ele>320.99999999999994</ele><time>2026-05-03T08:26:04.785Z</time></trkpt><trkpt lat="43.6307577" lon="12.6056613"><ele>321.0</ele><time>2026-05-03T08:26:05.784Z</time></trkpt><trkpt lat="43.6306941" lon="12.6056357"><ele>321.0</ele><time>2026-05-03T08:26:06.784Z</time></trkpt><trkpt lat="43.6306302" lon="12.6056094"><ele>321.0</ele><time>2026-05-03T08:26:07.785Z</time></trkpt><trkpt lat="43.6305619" lon="12.6055778"><ele>321.0</ele><time>2026-05-03T08:26:08.783Z</time></trkpt><trkpt lat="43.6304928" lon="12.6055392"><ele>320.99999999999994</ele><time>2026-05-03T08:26:09.784Z</time></trkpt><trkpt lat="43.6304167" lon="12.6054981"><ele>321.0</ele><time>2026-05-03T08:26:10.785Z</time></trkpt><trkpt lat="43.630324" lon="12.6054653"><ele>322.0</ele><time>2026-05-03T08:26:11.783Z</time></trkpt><trkpt lat="43.6302193" lon="12.6054348"><ele>323.0</ele><time>2026-05-03T08:26:12.785Z</time></trkpt><trkpt lat="43.6300923" lon="12.6054047"><ele>324.0</ele><time>2026-05-03T08:26:13.785Z</time></trkpt><trkpt lat="43.6299447" lon="12.6053686"><ele>325.0</ele><time>2026-05-03T08:26:14.785Z</time></trkpt><trkpt lat="43.6298201" lon="12.6053317"><ele>324.2</ele><time>2026-05-03T08:26:15.784Z</time></trkpt><trkpt lat="43.6297114" lon="12.6052991"><ele>323.4</ele><time>2026-05-03T08:26:16.784Z</time></trkpt><trkpt lat="43.6296199" lon="12.6052711"><ele>322.6</ele><time>2026-05-03T08:26:17.784Z</time></trkpt><trkpt lat="43.6295481" lon="12.605256"><ele>321.8</ele><time>2026-05-03T08:26:18.784Z</time></trkpt><trkpt lat="43.6294379" lon="12.6052453"><ele>321.0</ele><time>2026-05-03T08:26:20.784Z</time></trkpt><trkpt lat="43.6293726" lon="12.6052346"><ele>321.0</ele><time>2026-05-03T08:26:22.784Z</time></trkpt><trkpt lat="43.6293079" lon="12.6052333"><ele>321.0</ele><time>2026-05-03T08:26:26.785Z</time></trkpt><trkpt lat="43.6292539" lon="12.6053104"><ele>321.0</ele><time>2026-05-03T08:26:28.783Z</time></trkpt><trkpt lat="43.6292122" lon="12.6053853"><ele>321.0</ele><time>2026-05-03T08:26:29.784Z</time></trkpt><trkpt lat="43.6291666" lon="12.6054977"><ele>321.0</ele><time>2026-05-03T08:26:30.784Z</time></trkpt><trkpt lat="43.6291209" lon="12.6056143"><ele>321.0</ele><time>2026-05-03T08:26:31.783Z</time></trkpt><trkpt lat="43.6290678" lon="12.6057391"><ele>322.4</ele><time>2026-05-03T08:26:32.784Z</time></trkpt><trkpt lat="43.6290149" lon="12.6058645"><ele>323.8</ele><time>2026-05-03T08:26:33.785Z</time></trkpt><trkpt lat="43.6289639" lon="12.6059796"><ele>325.2</ele><time>2026-05-03T08:26:34.784Z</time></trkpt><trkpt lat="43.6289184" lon="12.6060774"><ele>326.59999999999997</ele><time>2026-05-03T08:26:35.785Z</time></trkpt><trkpt lat="43.6288753" lon="12.6061733"><ele>328.0</ele><time>2026-05-03T08:26:36.784Z</time></trkpt><trkpt lat="43.6288318" lon="12.6062705"><ele>328.66666666666663</ele><time>2026-05-03T08:26:37.785Z</time></trkpt><trkpt lat="43.6287936" lon="12.6063542"><ele>329.3333333333333</ele><time>2026-05-03T08:26:38.784Z</time></trkpt><trkpt lat="43.6287035" lon="12.6064326"><ele>330.0</ele><time>2026-05-03T08:26:40.783Z</time></trkpt><trkpt lat="43.6285952" lon="12.6063931"><ele>330.6666666666667</ele><time>2026-05-03T08:26:42.783Z</time></trkpt><trkpt lat="43.6285338" lon="12.6063415"><ele>331.33333333333337</ele><time>2026-05-03T08:26:43.784Z</time></trkpt><trkpt lat="43.6284719" lon="12.6062695"><ele>332.0</ele><time>2026-05-03T08:26:44.785Z</time></trkpt><trkpt lat="43.6284017" lon="12.6061914"><ele>331.40000000000003</ele><time>2026-05-03T08:26:45.785Z</time></trkpt><trkpt lat="43.6283325" lon="12.6060963"><ele>330.8</ele><time>2026-05-03T08:26:46.785Z</time></trkpt><trkpt lat="43.6282635" lon="12.6059923"><ele>330.2</ele><time>2026-05-03T08:26:47.783Z</time></trkpt><trkpt lat="43.6281954" lon="12.6058855"><ele>329.6</ele><time>2026-05-03T08:26:48.783Z</time></trkpt><trkpt lat="43.6281268" lon="12.6057752"><ele>329.0</ele><time>2026-05-03T08:26:49.785Z</time></trkpt><trkpt lat="43.6280601" lon="12.6056685"><ele>329.0</ele><time>2026-05-03T08:26:50.784Z</time></trkpt><trkpt lat="43.6280023" lon="12.6055616"><ele>329.0</ele><time>2026-05-03T08:26:51.784Z</time></trkpt><trkpt lat="43.6279581" lon="12.6054629"><ele>329.0</ele><time>2026-05-03T08:26:52.783Z</time></trkpt><trkpt lat="43.627929" lon="12.6053596"><ele>329.0</ele><time>2026-05-03T08:26:53.784Z</time></trkpt><trkpt lat="43.6279177" lon="12.6052495"><ele>329.0</ele><time>2026-05-03T08:26:54.783Z</time></trkpt><trkpt lat="43.6279268" lon="12.6051304"><ele>329.0</ele><time>2026-05-03T08:26:55.784Z</time></trkpt><trkpt lat="43.6279533" lon="12.6049919"><ele>330.25</ele><time>2026-05-03T08:26:56.784Z</time></trkpt><trkpt lat="43.6279832" lon="12.6048344"><ele>331.5</ele><time>2026-05-03T08:26:57.784Z</time></trkpt><trkpt lat="43.6280046" lon="12.6046675"><ele>332.75</ele><time>2026-05-03T08:26:58.785Z</time></trkpt><trkpt lat="43.628013" lon="12.6044945"><ele>334.0</ele><time>2026-05-03T08:26:59.783Z</time></trkpt><trkpt lat="43.628004" lon="12.6043174"><ele>334.0</ele><time>2026-05-03T08:27:00.783Z</time></trkpt><trkpt lat="43.6279793" lon="12.6041405"><ele>334.0</ele><time>2026-05-03T08:27:01.784Z</time></trkpt><trkpt lat="43.6279388" lon="12.6039599"><ele>334.0</ele><time>2026-05-03T08:27:02.784Z</time></trkpt><trkpt lat="43.6278852" lon="12.6037797"><ele>334.0</ele><time>2026-05-03T08:27:03.783Z</time></trkpt><trkpt lat="43.6278192" lon="12.6036207"><ele>336.75</ele><time>2026-05-03T08:27:04.784Z</time></trkpt><trkpt lat="43.6277419" lon="12.6034769"><ele>339.5</ele><time>2026-05-03T08:27:05.785Z</time></trkpt><trkpt lat="43.6276642" lon="12.6033527"><ele>342.25</ele><time>2026-05-03T08:27:06.785Z</time></trkpt><trkpt lat="43.6275836" lon="12.6032491"><ele>345.0</ele><time>2026-05-03T08:27:07.784Z</time></trkpt><trkpt lat="43.6274917" lon="12.6031799"><ele>345.0</ele><time>2026-05-03T08:27:08.784Z</time></trkpt><trkpt lat="43.6273823" lon="12.6031399"><ele>345.0</ele><time>2026-05-03T08:27:09.784Z</time></trkpt><trkpt lat="43.6272525" lon="12.6031115"><ele>345.0</ele><time>2026-05-03T08:27:10.785Z</time></trkpt><trkpt lat="43.6271226" lon="12.6030768"><ele>345.0</ele><time>2026-05-03T08:27:11.784Z</time></trkpt><trkpt lat="43.6270032" lon="12.6030373"><ele>345.25</ele><time>2026-05-03T08:27:12.783Z</time></trkpt><trkpt lat="43.6268861" lon="12.6029841"><ele>345.5</ele><time>2026-05-03T08:27:13.785Z</time></trkpt><trkpt lat="43.6267616" lon="12.6029116"><ele>345.75</ele><time>2026-05-03T08:27:14.784Z</time></trkpt><trkpt lat="43.6266489" lon="12.6028393"><ele>346.0</ele><time>2026-05-03T08:27:15.784Z</time></trkpt><trkpt lat="43.6265551" lon="12.6027674"><ele>347.8</ele><time>2026-05-03T08:27:16.783Z</time></trkpt><trkpt lat="43.6264753" lon="12.602682"><ele>349.6</ele><time>2026-05-03T08:27:17.785Z</time></trkpt><trkpt lat="43.6264049" lon="12.6025815"><ele>351.4</ele><time>2026-05-03T08:27:18.784Z</time></trkpt><trkpt lat="43.6263346" lon="12.6024831"><ele>353.2</ele><time>2026-05-03T08:27:19.783Z</time></trkpt><trkpt lat="43.6262525" lon="12.6024065"><ele>355.0</ele><time>2026-05-03T08:27:20.784Z</time></trkpt><trkpt lat="43.6261633" lon="12.6023408"><ele>355.16666666666663</ele><time>2026-05-03T08:27:21.784Z</time></trkpt><trkpt lat="43.6260851" lon="12.6022818"><ele>355.3333333333333</ele><time>2026-05-03T08:27:22.784Z</time></trkpt><trkpt lat="43.6260184" lon="12.6022304"><ele>355.5</ele><time>2026-05-03T08:27:23.784Z</time></trkpt><trkpt lat="43.6259487" lon="12.6021781"><ele>355.6666666666667</ele><time>2026-05-03T08:27:24.783Z</time></trkpt><trkpt lat="43.6258789" lon="12.6021233"><ele>355.83333333333337</ele><time>2026-05-03T08:27:25.784Z</time></trkpt><trkpt lat="43.6258133" lon="12.6020688"><ele>356.0</ele><time>2026-05-03T08:27:26.785Z</time></trkpt><trkpt lat="43.6257513" lon="12.6020053"><ele>356.6666666666667</ele><time>2026-05-03T08:27:27.784Z</time></trkpt><trkpt lat="43.6256966" lon="12.6019256"><ele>357.33333333333337</ele><time>2026-05-03T08:27:28.784Z</time></trkpt><trkpt lat="43.6256506" lon="12.6018344"><ele>358.0</ele><time>2026-05-03T08:27:29.784Z</time></trkpt><trkpt lat="43.6256146" lon="12.6017356"><ele>358.6666666666667</ele><time>2026-05-03T08:27:30.784Z</time></trkpt><trkpt lat="43.6255815" lon="12.6016363"><ele>359.3333333333333</ele><time>2026-05-03T08:27:31.783Z</time></trkpt><trkpt lat="43.6255507" lon="12.6015386"><ele>360.0</ele><time>2026-05-03T08:27:32.783Z</time></trkpt><trkpt lat="43.6255203" lon="12.6014454"><ele>360.0</ele><time>2026-05-03T08:27:33.784Z</time></trkpt><trkpt lat="43.6254927" lon="12.6013585"><ele>360.0</ele><time>2026-05-03T08:27:34.785Z</time></trkpt><trkpt lat="43.6254549" lon="12.6012148"><ele>360.0</ele><time>2026-05-03T08:27:36.784Z</time></trkpt><trkpt lat="43.6253801" lon="12.6011381"><ele>360.0</ele><time>2026-05-03T08:27:38.784Z</time></trkpt><trkpt lat="43.6252412" lon="12.6011162"><ele>360.0</ele><time>2026-05-03T08:27:40.783Z</time></trkpt><trkpt lat="43.6251517" lon="12.6011191"><ele>360.2857142857143</ele><time>2026-05-03T08:27:41.784Z</time></trkpt><trkpt lat="43.6250745" lon="12.6011101"><ele>360.5714285714286</ele><time>2026-05-03T08:27:42.784Z</time></trkpt><trkpt lat="43.6250033" lon="12.6010866"><ele>360.8571428571429</ele><time>2026-05-03T08:27:43.783Z</time></trkpt><trkpt lat="43.6249458" lon="12.6010362"><ele>361.1428571428571</ele><time>2026-05-03T08:27:44.784Z</time></trkpt><trkpt lat="43.6249028" lon="12.6009663"><ele>361.42857142857144</ele><time>2026-05-03T08:27:45.783Z</time></trkpt><trkpt lat="43.6248728" lon="12.6008801"><ele>361.7142857142857</ele><time>2026-05-03T08:27:46.783Z</time></trkpt><trkpt lat="43.6248551" lon="12.6007664"><ele>362.0</ele><time>2026-05-03T08:27:47.783Z</time></trkpt><trkpt lat="43.6248477" lon="12.6006397"><ele>362.0</ele><time>2026-05-03T08:27:48.784Z</time></trkpt><trkpt lat="43.62484" lon="12.6005057"><ele>362.0</ele><time>2026-05-03T08:27:49.784Z</time></trkpt><trkpt lat="43.6248232" lon="12.6003585"><ele>362.0</ele><time>2026-05-03T08:27:50.783Z</time></trkpt><trkpt lat="43.6247969" lon="12.6001954"><ele>362.0</ele><time>2026-05-03T08:27:51.784Z</time></trkpt><trkpt lat="43.6247782" lon="12.6000561"><ele>362.0</ele><time>2026-05-03T08:27:52.784Z</time></trkpt><trkpt lat="43.6247554" lon="12.599925"><ele>361.40000000000003</ele><time>2026-05-03T08:27:53.783Z</time></trkpt><trkpt lat="43.6247214" lon="12.5997926"><ele>360.8</ele><time>2026-05-03T08:27:54.785Z</time></trkpt><trkpt lat="43.6246753" lon="12.5996628"><ele>360.2</ele><time>2026-05-03T08:27:55.785Z</time></trkpt><trkpt lat="43.6246179" lon="12.5995326"><ele>359.6</ele><time>2026-05-03T08:27:56.783Z</time></trkpt><trkpt lat="43.6245548" lon="12.5993974"><ele>359.0</ele><time>2026-05-03T08:27:57.783Z</time></trkpt><trkpt lat="43.624491" lon="12.5992527"><ele>362.75</ele><time>2026-05-03T08:27:58.785Z</time></trkpt><trkpt lat="43.6244246" lon="12.5991073"><ele>366.5</ele><time>2026-05-03T08:27:59.783Z</time></trkpt><trkpt lat="43.6243548" lon="12.5989676"><ele>370.25</ele><time>2026-05-03T08:28:00.785Z</time></trkpt><trkpt lat="43.6242813" lon="12.5988389"><ele>374.0</ele><time>2026-05-03T08:28:01.784Z</time></trkpt><trkpt lat="43.624215" lon="12.5987287"><ele>373.33333333333337</ele><time>2026-05-03T08:28:02.784Z</time></trkpt><trkpt lat="43.6241567" lon="12.5986283"><ele>372.6666666666667</ele><time>2026-05-03T08:28:03.785Z</time></trkpt><trkpt lat="43.6241088" lon="12.5985324"><ele>372.0</ele><time>2026-05-03T08:28:04.784Z</time></trkpt><trkpt lat="43.6240694" lon="12.5984339"><ele>371.3333333333333</ele><time>2026-05-03T08:28:05.784Z</time></trkpt><trkpt lat="43.6240408" lon="12.5983234"><ele>370.66666666666663</ele><time>2026-05-03T08:28:06.784Z</time></trkpt><trkpt lat="43.6240276" lon="12.5981992"><ele>370.0</ele><time>2026-05-03T08:28:07.784Z</time></trkpt><trkpt lat="43.6240293" lon="12.5980564"><ele>370.0</ele><time>2026-05-03T08:28:08.784Z</time></trkpt><trkpt lat="43.6240419" lon="12.5979267"><ele>370.0</ele><time>2026-05-03T08:28:09.785Z</time></trkpt><trkpt lat="43.6240616" lon="12.5978084"><ele>370.0</ele><time>2026-05-03T08:28:10.785Z</time></trkpt><trkpt lat="43.6240817" lon="12.5976997"><ele>370.0</ele><time>2026-05-03T08:28:11.784Z</time></trkpt><trkpt lat="43.6241012" lon="12.5976004"><ele>370.0</ele><time>2026-05-03T08:28:12.784Z</time></trkpt><trkpt lat="43.6241175" lon="12.5975106"><ele>370.0</ele><time>2026-05-03T08:28:13.785Z</time></trkpt><trkpt lat="43.6241327" lon="12.5974257"><ele>368.4</ele><time>2026-05-03T08:28:14.785Z</time></trkpt><trkpt lat="43.6241153" lon="12.5972687"><ele>366.8</ele><time>2026-05-03T08:28:16.784Z</time></trkpt><trkpt lat="43.6240501" lon="12.5971634"><ele>365.20000000000005</ele><time>2026-05-03T08:28:18.784Z</time></trkpt><trkpt lat="43.6239722" lon="12.5971233"><ele>363.6</ele><time>2026-05-03T08:28:20.784Z</time></trkpt><trkpt lat="43.6238795" lon="12.5971316"><ele>362.0</ele><time>2026-05-03T08:28:22.784Z</time></trkpt><trkpt lat="43.6237836" lon="12.5971818"><ele>362.0</ele><time>2026-05-03T08:28:24.784Z</time></trkpt><trkpt lat="43.6237181" lon="12.5972631"><ele>362.0</ele><time>2026-05-03T08:28:26.783Z</time></trkpt><trkpt lat="43.6236741" lon="12.5973326"><ele>362.0</ele><time>2026-05-03T08:28:28.783Z</time></trkpt><trkpt lat="43.6236035" lon="12.5974273"><ele>362.0</ele><time>2026-05-03T08:28:30.784Z</time></trkpt><trkpt lat="43.6235506" lon="12.5975042"><ele>362.0</ele><time>2026-05-03T08:28:31.783Z</time></trkpt><trkpt lat="43.6234782" lon="12.5976011"><ele>362.0</ele><time>2026-05-03T08:28:32.783Z</time></trkpt><trkpt lat="43.6233864" lon="12.5977109"><ele>363.75</ele><time>2026-05-03T08:28:33.783Z</time></trkpt><trkpt lat="43.6232887" lon="12.5978177"><ele>365.5</ele><time>2026-05-03T08:28:34.783Z</time></trkpt><trkpt lat="43.6231897" lon="12.5979209"><ele>367.25</ele><time>2026-05-03T08:28:35.784Z</time></trkpt><trkpt lat="43.6230903" lon="12.5980175"><ele>369.0</ele><time>2026-05-03T08:28:36.785Z</time></trkpt><trkpt lat="43.6229827" lon="12.5980818"><ele>372.75</ele><time>2026-05-03T08:28:37.785Z</time></trkpt><trkpt lat="43.6228552" lon="12.5981285"><ele>376.5</ele><time>2026-05-03T08:28:38.785Z</time></trkpt><trkpt lat="43.6227258" lon="12.5981855"><ele>380.25</ele><time>2026-05-03T08:28:39.783Z</time></trkpt><trkpt lat="43.6226183" lon="12.5982254"><ele>384.0</ele><time>2026-05-03T08:28:40.784Z</time></trkpt><trkpt lat="43.6225221" lon="12.5982575"><ele>384.1666666666667</ele><time>2026-05-03T08:28:41.784Z</time></trkpt><trkpt lat="43.6224393" lon="12.5982641"><ele>384.33333333333337</ele><time>2026-05-03T08:28:42.784Z</time></trkpt><trkpt lat="43.6223584" lon="12.5982382"><ele>384.5</ele><time>2026-05-03T08:28:43.783Z</time></trkpt><trkpt lat="43.6222846" lon="12.5981869"><ele>384.6666666666667</ele><time>2026-05-03T08:28:44.783Z</time></trkpt><trkpt lat="43.6222156" lon="12.5981064"><ele>384.83333333333337</ele><time>2026-05-03T08:28:45.783Z</time></trkpt><trkpt lat="43.6221408" lon="12.5979952"><ele>385.0</ele><time>2026-05-03T08:28:46.784Z</time></trkpt><trkpt lat="43.6220614" lon="12.5978564"><ele>385.0</ele><time>2026-05-03T08:28:47.783Z</time></trkpt><trkpt lat="43.6219859" lon="12.5976984"><ele>385.0</ele><time>2026-05-03T08:28:48.784Z</time></trkpt><trkpt lat="43.6219135" lon="12.5975253"><ele>385.0</ele><time>2026-05-03T08:28:49.783Z</time></trkpt><trkpt lat="43.6218372" lon="12.5973501"><ele>385.0</ele><time>2026-05-03T08:28:50.784Z</time></trkpt><trkpt lat="43.6217764" lon="12.5972233"><ele>385.0</ele><time>2026-05-03T08:28:51.784Z</time></trkpt><trkpt lat="43.6217148" lon="12.5971151"><ele>385.0</ele><time>2026-05-03T08:28:52.784Z</time></trkpt><trkpt lat="43.6216453" lon="12.5970224"><ele>385.0</ele><time>2026-05-03T08:28:53.784Z</time></trkpt><trkpt lat="43.6215656" lon="12.5969297"><ele>385.0</ele><time>2026-05-03T08:28:54.785Z</time></trkpt><trkpt lat="43.6214743" lon="12.5968312"><ele>385.0</ele><time>2026-05-03T08:28:55.784Z</time></trkpt><trkpt lat="43.6213653" lon="12.5967162"><ele>384.75</ele><time>2026-05-03T08:28:56.783Z</time></trkpt><trkpt lat="43.621263" lon="12.5965893"><ele>384.5</ele><time>2026-05-03T08:28:57.784Z</time></trkpt><trkpt lat="43.621184" lon="12.5964657"><ele>384.25</ele><time>2026-05-03T08:28:58.783Z</time></trkpt><trkpt lat="43.6211104" lon="12.5963557"><ele>384.0</ele><time>2026-05-03T08:28:59.784Z</time></trkpt><trkpt lat="43.6210451" lon="12.5962578"><ele>384.0</ele><time>2026-05-03T08:29:00.784Z</time></trkpt><trkpt lat="43.6209839" lon="12.5961747"><ele>384.0</ele><time>2026-05-03T08:29:01.784Z</time></trkpt><trkpt lat="43.6209171" lon="12.5961044"><ele>384.0</ele><time>2026-05-03T08:29:02.783Z</time></trkpt><trkpt lat="43.6208408" lon="12.5960403"><ele>384.0</ele><time>2026-05-03T08:29:03.784Z</time></trkpt><trkpt lat="43.6207566" lon="12.5959975"><ele>384.0</ele><time>2026-05-03T08:29:04.782Z</time></trkpt><trkpt lat="43.6206666" lon="12.5959771"><ele>384.0</ele><time>2026-05-03T08:29:05.782Z</time></trkpt><trkpt lat="43.6205509" lon="12.595973"><ele>384.0</ele><time>2026-05-03T08:29:06.783Z</time></trkpt><trkpt lat="43.6204186" lon="12.5959778"><ele>384.0</ele><time>2026-05-03T08:29:07.783Z</time></trkpt><trkpt lat="43.6203044" lon="12.5959675"><ele>384.0</ele><time>2026-05-03T08:29:08.783Z</time></trkpt><trkpt lat="43.6201992" lon="12.595947"><ele>384.0</ele><time>2026-05-03T08:29:09.783Z</time></trkpt><trkpt lat="43.6201101" lon="12.5959269"><ele>384.0</ele><time>2026-05-03T08:29:10.783Z</time></trkpt><trkpt lat="43.6200361" lon="12.5959097"><ele>384.5</ele><time>2026-05-03T08:29:11.783Z</time></trkpt><trkpt lat="43.6199462" lon="12.5958773"><ele>385.0</ele><time>2026-05-03T08:29:13.782Z</time></trkpt><trkpt lat="43.6198886" lon="12.5957797"><ele>385.5</ele><time>2026-05-03T08:29:16.783Z</time></trkpt><trkpt lat="43.619854" lon="12.5956814"><ele>386.0</ele><time>2026-05-03T08:29:19.782Z</time></trkpt><trkpt lat="43.6198122" lon="12.595599"><ele>386.5</ele><time>2026-05-03T08:29:22.782Z</time></trkpt><trkpt lat="43.6197866" lon="12.5955092"><ele>387.0</ele><time>2026-05-03T08:29:24.783Z</time></trkpt><trkpt lat="43.6197623" lon="12.5954184"><ele>387.6666666666667</ele><time>2026-05-03T08:29:26.784Z</time></trkpt><trkpt lat="43.6197284" lon="12.5952805"><ele>388.33333333333337</ele><time>2026-05-03T08:29:28.783Z</time></trkpt><trkpt lat="43.6196976" lon="12.5951927"><ele>389.0</ele><time>2026-05-03T08:29:29.783Z</time></trkpt><trkpt lat="43.6196699" lon="12.5950865"><ele>389.6666666666667</ele><time>2026-05-03T08:29:30.784Z</time></trkpt><trkpt lat="43.6196494" lon="12.5949821"><ele>390.33333333333337</ele><time>2026-05-03T08:29:31.783Z</time></trkpt><trkpt lat="43.6196214" lon="12.5948683"><ele>391.0</ele><time>2026-05-03T08:29:32.784Z</time></trkpt><trkpt lat="43.6195961" lon="12.5947424"><ele>391.0</ele><time>2026-05-03T08:29:33.783Z</time></trkpt><trkpt lat="43.6195779" lon="12.5946091"><ele>391.0</ele><time>2026-05-03T08:29:34.784Z</time></trkpt><trkpt lat="43.6195723" lon="12.5944851"><ele>391.0</ele><time>2026-05-03T08:29:35.783Z</time></trkpt><trkpt lat="43.6195788" lon="12.5943595"><ele>391.0</ele><time>2026-05-03T08:29:36.783Z</time></trkpt><trkpt lat="43.6195968" lon="12.5942244"><ele>391.0</ele><time>2026-05-03T08:29:37.782Z</time></trkpt><trkpt lat="43.6196142" lon="12.59408"><ele>391.0</ele><time>2026-05-03T08:29:38.782Z</time></trkpt><trkpt lat="43.6196254" lon="12.5939213"><ele>391.0</ele><time>2026-05-03T08:29:39.782Z</time></trkpt><trkpt lat="43.6196333" lon="12.5937782"><ele>391.0</ele><time>2026-05-03T08:29:40.783Z</time></trkpt><trkpt lat="43.6196452" lon="12.5936431"><ele>391.0</ele><time>2026-05-03T08:29:41.783Z</time></trkpt><trkpt lat="43.6196525" lon="12.5935226"><ele>391.0</ele><time>2026-05-03T08:29:42.783Z</time></trkpt><trkpt lat="43.6196584" lon="12.5934026"><ele>391.0</ele><time>2026-05-03T08:29:43.782Z</time></trkpt><trkpt lat="43.6196419" lon="12.5932719"><ele>391.0</ele><time>2026-05-03T08:29:44.784Z</time></trkpt><trkpt lat="43.619603" lon="12.5931385"><ele>391.0</ele><time>2026-05-03T08:29:45.784Z</time></trkpt><trkpt lat="43.6195404" lon="12.5929743"><ele>391.0</ele><time>2026-05-03T08:29:46.782Z</time></trkpt><trkpt lat="43.6194982" lon="12.5927976"><ele>393.4</ele><time>2026-05-03T08:29:47.783Z</time></trkpt><trkpt lat="43.6194643" lon="12.592648"><ele>395.8</ele><time>2026-05-03T08:29:48.783Z</time></trkpt><trkpt lat="43.6194371" lon="12.5925211"><ele>398.2</ele><time>2026-05-03T08:29:49.783Z</time></trkpt><trkpt lat="43.6194277" lon="12.5924184"><ele>400.59999999999997</ele><time>2026-05-03T08:29:50.784Z</time></trkpt><trkpt lat="43.6194387" lon="12.592311"><ele>403.0</ele><time>2026-05-03T08:29:51.782Z</time></trkpt><trkpt lat="43.6194793" lon="12.5922014"><ele>400.59999999999997</ele><time>2026-05-03T08:29:52.784Z</time></trkpt><trkpt lat="43.6195478" lon="12.5920862"><ele>398.2</ele><time>2026-05-03T08:29:53.784Z</time></trkpt><trkpt lat="43.6196166" lon="12.5919612"><ele>395.8</ele><time>2026-05-03T08:29:54.783Z</time></trkpt><trkpt lat="43.6196844" lon="12.591854"><ele>393.4</ele><time>2026-05-03T08:29:55.783Z</time></trkpt><trkpt lat="43.6197544" lon="12.5917595"><ele>391.0</ele><time>2026-05-03T08:29:56.783Z</time></trkpt><trkpt lat="43.6198098" lon="12.5916809"><ele>391.0</ele><time>2026-05-03T08:29:57.784Z</time></trkpt><trkpt lat="43.6198525" lon="12.5916088"><ele>391.0</ele><time>2026-05-03T08:29:58.782Z</time></trkpt><trkpt lat="43.6198526" lon="12.5914558"><ele>391.0</ele><time>2026-05-03T08:30:00.783Z</time></trkpt><trkpt lat="43.6197355" lon="12.591392"><ele>391.0</ele><time>2026-05-03T08:30:02.784Z</time></trkpt><trkpt lat="43.6196459" lon="12.5913942"><ele>391.0</ele><time>2026-05-03T08:30:03.783Z</time></trkpt><trkpt lat="43.6195552" lon="12.5914191"><ele>391.0</ele><time>2026-05-03T08:30:04.783Z</time></trkpt><trkpt lat="43.6194707" lon="12.5914382"><ele>391.0</ele><time>2026-05-03T08:30:05.782Z</time></trkpt><trkpt lat="43.6193884" lon="12.5914407"><ele>391.0</ele><time>2026-05-03T08:30:06.784Z</time></trkpt><trkpt lat="43.6193044" lon="12.5914134"><ele>391.0</ele><time>2026-05-03T08:30:07.782Z</time></trkpt><trkpt lat="43.6192199" lon="12.5913401"><ele>391.0</ele><time>2026-05-03T08:30:08.783Z</time></trkpt><trkpt lat="43.619145" lon="12.5912196"><ele>389.25</ele><time>2026-05-03T08:30:09.783Z</time></trkpt><trkpt lat="43.6190728" lon="12.5910498"><ele>387.5</ele><time>2026-05-03T08:30:10.783Z</time></trkpt><trkpt lat="43.6190035" lon="12.5908814"><ele>385.75</ele><time>2026-05-03T08:30:11.784Z</time></trkpt><trkpt lat="43.618956" lon="12.5907252"><ele>384.0</ele><time>2026-05-03T08:30:12.783Z</time></trkpt><trkpt lat="43.6189358" lon="12.5905778"><ele>384.0</ele><time>2026-05-03T08:30:13.782Z</time></trkpt><trkpt lat="43.6189504" lon="12.590417"><ele>384.0</ele><time>2026-05-03T08:30:14.783Z</time></trkpt><trkpt lat="43.6189842" lon="12.5902536"><ele>384.0</ele><time>2026-05-03T08:30:15.783Z</time></trkpt><trkpt lat="43.6190443" lon="12.5900548"><ele>384.0</ele><time>2026-05-03T08:30:16.783Z</time></trkpt><trkpt lat="43.6191225" lon="12.5898833"><ele>385.6</ele><time>2026-05-03T08:30:17.782Z</time></trkpt><trkpt lat="43.6191836" lon="12.5897351"><ele>387.2</ele><time>2026-05-03T08:30:18.783Z</time></trkpt><trkpt lat="43.6192253" lon="12.5896294"><ele>388.8</ele><time>2026-05-03T08:30:19.784Z</time></trkpt><trkpt lat="43.6192847" lon="12.5894908"><ele>390.40000000000003</ele><time>2026-05-03T08:30:20.783Z</time></trkpt><trkpt lat="43.6193521" lon="12.5893772"><ele>392.0</ele><time>2026-05-03T08:30:21.784Z</time></trkpt><trkpt lat="43.6194252" lon="12.5892821"><ele>394.5</ele><time>2026-05-03T08:30:22.783Z</time></trkpt><trkpt lat="43.6195268" lon="12.5892172"><ele>397.0</ele><time>2026-05-03T08:30:23.783Z</time></trkpt><trkpt lat="43.619653" lon="12.5891504"><ele>399.5</ele><time>2026-05-03T08:30:24.783Z</time></trkpt><trkpt lat="43.6198025" lon="12.5890918"><ele>402.0</ele><time>2026-05-03T08:30:25.782Z</time></trkpt><trkpt lat="43.6199637" lon="12.5890548"><ele>402.0</ele><time>2026-05-03T08:30:26.783Z</time></trkpt><trkpt lat="43.6201082" lon="12.5890275"><ele>402.0</ele><time>2026-05-03T08:30:27.783Z</time></trkpt><trkpt lat="43.6202391" lon="12.589001"><ele>402.0</ele><time>2026-05-03T08:30:28.783Z</time></trkpt><trkpt lat="43.620347" lon="12.5889823"><ele>402.0</ele><time>2026-05-03T08:30:29.783Z</time></trkpt><trkpt lat="43.6204439" lon="12.5889681"><ele>402.6666666666667</ele><time>2026-05-03T08:30:30.784Z</time></trkpt><trkpt lat="43.6205266" lon="12.5889569"><ele>403.33333333333337</ele><time>2026-05-03T08:30:31.783Z</time></trkpt><trkpt lat="43.620593" lon="12.5889318"><ele>404.0</ele><time>2026-05-03T08:30:32.783Z</time></trkpt><trkpt lat="43.6206618" lon="12.5888078"><ele>404.6666666666667</ele><time>2026-05-03T08:30:34.783Z</time></trkpt><trkpt lat="43.6206576" lon="12.5887153"><ele>405.33333333333337</ele><time>2026-05-03T08:30:35.782Z</time></trkpt><trkpt lat="43.6206278" lon="12.5886141"><ele>406.0</ele><time>2026-05-03T08:30:36.783Z</time></trkpt><trkpt lat="43.6205786" lon="12.5885115"><ele>407.4</ele><time>2026-05-03T08:30:37.783Z</time></trkpt><trkpt lat="43.6205224" lon="12.5884037"><ele>408.8</ele><time>2026-05-03T08:30:38.783Z</time></trkpt><trkpt lat="43.6204597" lon="12.5882896"><ele>410.2</ele><time>2026-05-03T08:30:39.783Z</time></trkpt><trkpt lat="43.6203882" lon="12.5881722"><ele>411.59999999999997</ele><time>2026-05-03T08:30:40.783Z</time></trkpt><trkpt lat="43.6203119" lon="12.5880589"><ele>413.0</ele><time>2026-05-03T08:30:41.784Z</time></trkpt><trkpt lat="43.6202314" lon="12.5879514"><ele>413.59999999999997</ele><time>2026-05-03T08:30:42.784Z</time></trkpt><trkpt lat="43.6201543" lon="12.5878501"><ele>414.2</ele><time>2026-05-03T08:30:43.783Z</time></trkpt><trkpt lat="43.6200837" lon="12.5877525"><ele>414.8</ele><time>2026-05-03T08:30:44.782Z</time></trkpt><trkpt lat="43.6200198" lon="12.5876542"><ele>415.4</ele><time>2026-05-03T08:30:45.784Z</time></trkpt><trkpt lat="43.6199574" lon="12.5875603"><ele>416.0</ele><time>2026-05-03T08:30:46.782Z</time></trkpt><trkpt lat="43.6198971" lon="12.5874813"><ele>416.8</ele><time>2026-05-03T08:30:47.783Z</time></trkpt><trkpt lat="43.6198403" lon="12.5873978"><ele>417.6</ele><time>2026-05-03T08:30:48.783Z</time></trkpt><trkpt lat="43.6197778" lon="12.5873022"><ele>418.4</ele><time>2026-05-03T08:30:49.784Z</time></trkpt><trkpt lat="43.6197058" lon="12.5871904"><ele>419.2</ele><time>2026-05-03T08:30:50.783Z</time></trkpt><trkpt lat="43.6196508" lon="12.5870663"><ele>420.0</ele><time>2026-05-03T08:30:51.784Z</time></trkpt><trkpt lat="43.6196003" lon="12.5869495"><ele>418.2</ele><time>2026-05-03T08:30:52.782Z</time></trkpt><trkpt lat="43.6195527" lon="12.5868401"><ele>416.4</ele><time>2026-05-03T08:30:53.782Z</time></trkpt><trkpt lat="43.6195044" lon="12.5867253"><ele>414.6</ele><time>2026-05-03T08:30:54.782Z</time></trkpt><trkpt lat="43.6194558" lon="12.5866058"><ele>412.8</ele><time>2026-05-03T08:30:55.782Z</time></trkpt><trkpt lat="43.6194028" lon="12.586479"><ele>411.0</ele><time>2026-05-03T08:30:56.783Z</time></trkpt><trkpt lat="43.6193493" lon="12.5863393"><ele>413.20000000000005</ele><time>2026-05-03T08:30:57.784Z</time></trkpt><trkpt lat="43.6193015" lon="12.5862058"><ele>415.40000000000003</ele><time>2026-05-03T08:30:58.783Z</time></trkpt><trkpt lat="43.6192586" lon="12.5860747"><ele>417.6</ele><time>2026-05-03T08:30:59.783Z</time></trkpt><trkpt lat="43.6192118" lon="12.5859465"><ele>419.8</ele><time>2026-05-03T08:31:00.782Z</time></trkpt><trkpt lat="43.6191684" lon="12.5858192"><ele>422.0</ele><time>2026-05-03T08:31:01.782Z</time></trkpt><trkpt lat="43.6191321" lon="12.5856975"><ele>421.99999999999994</ele><time>2026-05-03T08:31:02.783Z</time></trkpt><trkpt lat="43.6191006" lon="12.5855913"><ele>422.0</ele><time>2026-05-03T08:31:03.783Z</time></trkpt><trkpt lat="43.6190814" lon="12.5854931"><ele>422.0</ele><time>2026-05-03T08:31:04.782Z</time></trkpt><trkpt lat="43.6190799" lon="12.5853917"><ele>422.0</ele><time>2026-05-03T08:31:05.782Z</time></trkpt><trkpt lat="43.6191131" lon="12.5852886"><ele>421.99999999999994</ele><time>2026-05-03T08:31:06.783Z</time></trkpt><trkpt lat="43.6191714" lon="12.5851862"><ele>422.0</ele><time>2026-05-03T08:31:07.783Z</time></trkpt><trkpt lat="43.6192447" lon="12.5850624"><ele>419.6</ele><time>2026-05-03T08:31:08.782Z</time></trkpt><trkpt lat="43.6193234" lon="12.5849476"><ele>417.20000000000005</ele><time>2026-05-03T08:31:09.783Z</time></trkpt><trkpt lat="43.6194014" lon="12.5848379"><ele>414.8</ele><time>2026-05-03T08:31:10.783Z</time></trkpt><trkpt lat="43.6194755" lon="12.5847305"><ele>412.4</ele><time>2026-05-03T08:31:11.783Z</time></trkpt><trkpt lat="43.6195402" lon="12.5846366"><ele>410.0</ele><time>2026-05-03T08:31:12.782Z</time></trkpt><trkpt lat="43.619585" lon="12.5845668"><ele>409.0</ele><time>2026-05-03T08:31:13.783Z</time></trkpt><trkpt lat="43.6196455" lon="12.5844844"><ele>408.0</ele><time>2026-05-03T08:31:15.783Z</time></trkpt><trkpt lat="43.61969" lon="12.5843934"><ele>407.0</ele><time>2026-05-03T08:31:42.783Z</time></trkpt><trkpt lat="43.6196729" lon="12.5841897"><ele>406.0</ele><time>2026-05-03T08:31:44.783Z</time></trkpt><trkpt lat="43.6196585" lon="12.5840531"><ele>405.0</ele><time>2026-05-03T08:31:45.783Z</time></trkpt><trkpt lat="43.6196248" lon="12.5838881"><ele>405.0</ele><time>2026-05-03T08:31:46.784Z</time></trkpt><trkpt lat="43.6195661" lon="12.583712"><ele>405.0</ele><time>2026-05-03T08:31:47.783Z</time></trkpt><trkpt lat="43.6195049" lon="12.5835274"><ele>405.0</ele><time>2026-05-03T08:31:48.782Z</time></trkpt><trkpt lat="43.6194556" lon="12.5833627"><ele>405.0</ele><time>2026-05-03T08:31:49.783Z</time></trkpt><trkpt lat="43.619415" lon="12.5831943"><ele>402.33333333333337</ele><time>2026-05-03T08:31:50.782Z</time></trkpt><trkpt lat="43.6193849" lon="12.5830088"><ele>399.6666666666667</ele><time>2026-05-03T08:31:51.782Z</time></trkpt><trkpt lat="43.6193763" lon="12.5827657"><ele>397.0</ele><time>2026-05-03T08:31:52.783Z</time></trkpt><trkpt lat="43.6193624" lon="12.5825554"><ele>395.6</ele><time>2026-05-03T08:31:53.782Z</time></trkpt><trkpt lat="43.6193559" lon="12.5823682"><ele>394.20000000000005</ele><time>2026-05-03T08:31:54.782Z</time></trkpt><trkpt lat="43.6193593" lon="12.5822235"><ele>392.8</ele><time>2026-05-03T08:31:55.783Z</time></trkpt><trkpt lat="43.6193569" lon="12.5820999"><ele>391.4</ele><time>2026-05-03T08:31:56.782Z</time></trkpt><trkpt lat="43.6193541" lon="12.5819944"><ele>390.0</ele><time>2026-05-03T08:31:57.782Z</time></trkpt><trkpt lat="43.6193379" lon="12.5819052"><ele>390.0</ele><time>2026-05-03T08:31:58.782Z</time></trkpt><trkpt lat="43.6192994" lon="12.5818344"><ele>390.0</ele><time>2026-05-03T08:31:59.783Z</time></trkpt><trkpt lat="43.6192335" lon="12.5817998"><ele>390.0</ele><time>2026-05-03T08:32:00.783Z</time></trkpt><trkpt lat="43.6191588" lon="12.5818154"><ele>390.0</ele><time>2026-05-03T08:32:01.783Z</time></trkpt><trkpt lat="43.619094" lon="12.5818782"><ele>390.0</ele><time>2026-05-03T08:32:02.782Z</time></trkpt><trkpt lat="43.6190438" lon="12.5819727"><ele>390.0</ele><time>2026-05-03T08:32:03.782Z</time></trkpt><trkpt lat="43.6190102" lon="12.5820772"><ele>390.0</ele><time>2026-05-03T08:32:04.783Z</time></trkpt><trkpt lat="43.6189376" lon="12.5821708"><ele>390.0</ele><time>2026-05-03T08:32:06.783Z</time></trkpt><trkpt lat="43.6188453" lon="12.5820849"><ele>390.0</ele><time>2026-05-03T08:32:08.782Z</time></trkpt><trkpt lat="43.6188183" lon="12.5819763"><ele>390.0</ele><time>2026-05-03T08:32:09.782Z</time></trkpt><trkpt lat="43.6188092" lon="12.5818496"><ele>390.0</ele><time>2026-05-03T08:32:10.782Z</time></trkpt><trkpt lat="43.6188308" lon="12.5817335"><ele>387.4</ele><time>2026-05-03T08:32:11.783Z</time></trkpt><trkpt lat="43.6188683" lon="12.5816245"><ele>384.8</ele><time>2026-05-03T08:32:12.783Z</time></trkpt><trkpt lat="43.6189069" lon="12.5815427"><ele>382.20000000000005</ele><time>2026-05-03T08:32:13.783Z</time></trkpt><trkpt lat="43.6189371" lon="12.581396"><ele>379.6</ele><time>2026-05-03T08:32:15.783Z</time></trkpt><trkpt lat="43.6188343" lon="12.5813273"><ele>377.0</ele><time>2026-05-03T08:32:17.783Z</time></trkpt><trkpt lat="43.6187524" lon="12.581335"><ele>377.0</ele><time>2026-05-03T08:32:18.783Z</time></trkpt><trkpt lat="43.6186536" lon="12.5813417"><ele>377.0</ele><time>2026-05-03T08:32:19.783Z</time></trkpt><trkpt lat="43.6185498" lon="12.5813372"><ele>377.0</ele><time>2026-05-03T08:32:20.783Z</time></trkpt><trkpt lat="43.6184397" lon="12.5813279"><ele>377.0</ele><time>2026-05-03T08:32:21.783Z</time></trkpt><trkpt lat="43.6183229" lon="12.5813154"><ele>377.0</ele><time>2026-05-03T08:32:22.784Z</time></trkpt><trkpt lat="43.6182008" lon="12.5813036"><ele>373.0</ele><time>2026-05-03T08:32:23.784Z</time></trkpt><trkpt lat="43.6180734" lon="12.5812943"><ele>369.0</ele><time>2026-05-03T08:32:24.783Z</time></trkpt><trkpt lat="43.6179431" lon="12.581284"><ele>365.0</ele><time>2026-05-03T08:32:25.783Z</time></trkpt><trkpt lat="43.6178135" lon="12.5812697"><ele>361.0</ele><time>2026-05-03T08:32:26.783Z</time></trkpt><trkpt lat="43.6176848" lon="12.5812706"><ele>358.0</ele><time>2026-05-03T08:32:27.784Z</time></trkpt><trkpt lat="43.6175591" lon="12.5812929"><ele>355.0</ele><time>2026-05-03T08:32:28.784Z</time></trkpt><trkpt lat="43.6174348" lon="12.5813088"><ele>352.0</ele><time>2026-05-03T08:32:29.783Z</time></trkpt><trkpt lat="43.6173088" lon="12.5813304"><ele>349.0</ele><time>2026-05-03T08:32:30.783Z</time></trkpt><trkpt lat="43.6171808" lon="12.5813678"><ele>349.0</ele><time>2026-05-03T08:32:31.784Z</time></trkpt><trkpt lat="43.6170545" lon="12.5814117"><ele>349.0</ele><time>2026-05-03T08:32:32.783Z</time></trkpt><trkpt lat="43.6169338" lon="12.5814617"><ele>349.0</ele><time>2026-05-03T08:32:33.783Z</time></trkpt><trkpt lat="43.6168176" lon="12.5815186"><ele>349.0</ele><time>2026-05-03T08:32:34.783Z</time></trkpt><trkpt lat="43.6167106" lon="12.5815686"><ele>347.0</ele><time>2026-05-03T08:32:35.783Z</time></trkpt><trkpt lat="43.6166165" lon="12.5816109"><ele>345.0</ele><time>2026-05-03T08:32:36.783Z</time></trkpt><trkpt lat="43.6165261" lon="12.5816495"><ele>343.0</ele><time>2026-05-03T08:32:37.784Z</time></trkpt><trkpt lat="43.6164403" lon="12.5816713"><ele>341.0</ele><time>2026-05-03T08:32:38.783Z</time></trkpt><trkpt lat="43.6163496" lon="12.5816492"><ele>339.0</ele><time>2026-05-03T08:32:39.783Z</time></trkpt><trkpt lat="43.6162629" lon="12.5815917"><ele>339.0</ele><time>2026-05-03T08:32:40.782Z</time></trkpt><trkpt lat="43.6161814" lon="12.5815232"><ele>339.0</ele><time>2026-05-03T08:32:41.782Z</time></trkpt><trkpt lat="43.6160953" lon="12.5814772"><ele>339.0</ele><time>2026-05-03T08:32:42.783Z</time></trkpt><trkpt lat="43.6160028" lon="12.5814646"><ele>339.0</ele><time>2026-05-03T08:32:43.783Z</time></trkpt><trkpt lat="43.6158993" lon="12.5814614"><ele>339.0</ele><time>2026-05-03T08:32:44.783Z</time></trkpt><trkpt lat="43.6157889" lon="12.5814416"><ele>335.75</ele><time>2026-05-03T08:32:45.783Z</time></trkpt><trkpt lat="43.6156848" lon="12.581381"><ele>332.5</ele><time>2026-05-03T08:32:46.783Z</time></trkpt><trkpt lat="43.6155894" lon="12.5812905"><ele>329.25</ele><time>2026-05-03T08:32:47.783Z</time></trkpt><trkpt lat="43.615496" lon="12.5811778"><ele>326.0</ele><time>2026-05-03T08:32:48.782Z</time></trkpt><trkpt lat="43.615408" lon="12.5810583"><ele>324.5</ele><time>2026-05-03T08:32:49.783Z</time></trkpt><trkpt lat="43.6153263" lon="12.5809348"><ele>323.0</ele><time>2026-05-03T08:32:50.782Z</time></trkpt><trkpt lat="43.6152648" lon="12.5807833"><ele>321.5</ele><time>2026-05-03T08:32:51.783Z</time></trkpt><trkpt lat="43.6152034" lon="12.5806397"><ele>320.0</ele><time>2026-05-03T08:32:52.782Z</time></trkpt><trkpt lat="43.6151473" lon="12.5805066"><ele>318.4</ele><time>2026-05-03T08:32:53.783Z</time></trkpt><trkpt lat="43.6150968" lon="12.5803869"><ele>316.8</ele><time>2026-05-03T08:32:54.782Z</time></trkpt><trkpt lat="43.6150355" lon="12.5802919"><ele>315.2</ele><time>2026-05-03T08:32:55.783Z</time></trkpt><trkpt lat="43.6149589" lon="12.5802213"><ele>313.6</ele><time>2026-05-03T08:32:56.782Z</time></trkpt><trkpt lat="43.6148548" lon="12.5801772"><ele>312.0</ele><time>2026-05-03T08:32:57.782Z</time></trkpt><trkpt lat="43.6147492" lon="12.5801428"><ele>310.8</ele><time>2026-05-03T08:32:58.783Z</time></trkpt><trkpt lat="43.6146579" lon="12.5800758"><ele>309.6</ele><time>2026-05-03T08:32:59.782Z</time></trkpt><trkpt lat="43.6145836" lon="12.5799746"><ele>308.40000000000003</ele><time>2026-05-03T08:33:00.784Z</time></trkpt><trkpt lat="43.6145205" lon="12.57986"><ele>307.2</ele><time>2026-05-03T08:33:01.783Z</time></trkpt><trkpt lat="43.6144572" lon="12.5797518"><ele>306.0</ele><time>2026-05-03T08:33:02.783Z</time></trkpt><trkpt lat="43.6144082" lon="12.5796504"><ele>305.0</ele><time>2026-05-03T08:33:03.782Z</time></trkpt><trkpt lat="43.6143549" lon="12.5795641"><ele>304.0</ele><time>2026-05-03T08:33:04.783Z</time></trkpt><trkpt lat="43.6142862" lon="12.5795153"><ele>303.0</ele><time>2026-05-03T08:33:05.782Z</time></trkpt><trkpt lat="43.6142232" lon="12.5794643"><ele>302.0</ele><time>2026-05-03T08:33:06.784Z</time></trkpt><trkpt lat="43.6141219" lon="12.5794673"><ele>301.0</ele><time>2026-05-03T08:33:07.782Z</time></trkpt><trkpt lat="43.6140313" lon="12.5794571"><ele>300.0</ele><time>2026-05-03T08:33:08.783Z</time></trkpt><trkpt lat="43.6139337" lon="12.5794609"><ele>300.0</ele><time>2026-05-03T08:33:09.783Z</time></trkpt><trkpt lat="43.6138314" lon="12.5794797"><ele>300.0</ele><time>2026-05-03T08:33:10.784Z</time></trkpt><trkpt lat="43.6137316" lon="12.5795282"><ele>300.0</ele><time>2026-05-03T08:33:11.783Z</time></trkpt><trkpt lat="43.6136393" lon="12.5795979"><ele>300.0</ele><time>2026-05-03T08:33:12.783Z</time></trkpt><trkpt lat="43.6135573" lon="12.5796786"><ele>300.0</ele><time>2026-05-03T08:33:13.783Z</time></trkpt><trkpt lat="43.6134749" lon="12.5797505"><ele>326.0</ele><time>2026-05-03T08:33:14.783Z</time></trkpt><trkpt lat="43.6158993" lon="12.5814614"><ele>326.0</ele><time>2026-05-03T08:32:44.783Z</time></trkpt><trkpt lat="43.6157889" lon="12.5814416"><ele>326.0</ele><time>2026-05-03T08:32:45.783Z</time></trkpt><trkpt lat="43.6156848" lon="12.581381"><ele>326.0</ele><time>2026-05-03T08:32:46.783Z</time></trkpt><trkpt lat="43.6155894" lon="12.5812905"><ele>326.0</ele><time>2026-05-03T08:32:47.783Z</time></trkpt><trkpt lat="43.615496" lon="12.5811778"><ele>324.5</ele><time>2026-05-03T08:32:48.782Z</time></trkpt><trkpt lat="43.615408" lon="12.5810583"><ele>323.0</ele><time>2026-05-03T08:32:49.783Z</time></trkpt><trkpt lat="43.6153263" lon="12.5809348"><ele>321.5</ele><time>2026-05-03T08:32:50.782Z</time></trkpt><trkpt lat="43.6152648" lon="12.5807833"><ele>320.0</ele><time>2026-05-03T08:32:51.783Z</time></trkpt><trkpt lat="43.6152034" lon="12.5806397"><ele>318.4</ele><time>2026-05-03T08:32:52.782Z</time></trkpt><trkpt lat="43.6151473" lon="12.5805066"><ele>316.8</ele><time>2026-05-03T08:32:53.783Z</time></trkpt><trkpt lat="43.6150968" lon="12.5803869"><ele>315.2</ele><time>2026-05-03T08:32:54.782Z</time></trkpt><trkpt lat="43.6150355" lon="12.5802919"><ele>313.6</ele><time>2026-05-03T08:32:55.783Z</time></trkpt><trkpt lat="43.6149589" lon="12.5802213"><ele>312.0</ele><time>2026-05-03T08:32:56.782Z</time></trkpt><trkpt lat="43.6148548" lon="12.5801772"><ele>310.8</ele><time>2026-05-03T08:32:57.782Z</time></trkpt><trkpt lat="43.6147492" lon="12.5801428"><ele>309.6</ele><time>2026-05-03T08:32:58.783Z</time></trkpt><trkpt lat="43.6146579" lon="12.5800758"><ele>308.40000000000003</ele><time>2026-05-03T08:32:59.782Z</time></trkpt><trkpt lat="43.6145836" lon="12.5799746"><ele>307.2</ele><time>2026-05-03T08:33:00.784Z</time></trkpt><trkpt lat="43.6145205" lon="12.57986"><ele>306.0</ele><time>2026-05-03T08:33:01.783Z</time></trkpt><trkpt lat="43.6144572" lon="12.5797518"><ele>305.0</ele><time>2026-05-03T08:33:02.783Z</time></trkpt><trkpt lat="43.6144082" lon="12.5796504"><ele>304.0</ele><time>2026-05-03T08:33:03.782Z</time></trkpt><trkpt lat="43.6143549" lon="12.5795641"><ele>303.0</ele><time>2026-05-03T08:33:04.783Z</time></trkpt><trkpt lat="43.6142862" lon="12.5795153"><ele>302.0</ele><time>2026-05-03T08:33:05.782Z</time></trkpt><trkpt lat="43.6142232" lon="12.5794643"><ele>301.0</ele><time>2026-05-03T08:33:06.784Z</time></trkpt><trkpt lat="43.6141219" lon="12.5794673"><ele>300.0</ele><time>2026-05-03T08:33:07.782Z</time></trkpt><trkpt lat="43.6140313" lon="12.5794571"><ele>300.0</ele><time>2026-05-03T08:33:08.783Z</time></trkpt><trkpt lat="43.6139337" lon="12.5794609"><ele>300.0</ele><time>2026-05-03T08:33:09.783Z</time></trkpt><trkpt lat="43.6138314" lon="12.5794797"><ele>300.0</ele><time>2026-05-03T08:33:10.784Z</time></trkpt><trkpt lat="43.6137316" lon="12.5795282"><ele>300.0</ele><time>2026-05-03T08:33:11.783Z</time></trkpt><trkpt lat="43.6136393" lon="12.5795979"><ele>300.0</ele><time>2026-05-03T08:33:12.783Z</time></trkpt><trkpt lat="43.6135573" lon="12.5796786"><ele>299.4</ele><time>2026-05-03T08:33:13.783Z</time></trkpt><trkpt lat="43.6134749" lon="12.5797505"><ele>298.8</ele><time>2026-05-03T08:33:14.783Z</time></trkpt><trkpt lat="43.6133902" lon="12.5797938"><ele>298.2</ele><time>2026-05-03T08:33:15.782Z</time></trkpt><trkpt lat="43.6132967" lon="12.5798114"><ele>297.6</ele><time>2026-05-03T08:33:16.782Z</time></trkpt><trkpt lat="43.6131991" lon="12.5798246"><ele>297.0</ele><time>2026-05-03T08:33:17.783Z</time></trkpt><trkpt lat="43.6131027" lon="12.5798355"><ele>297.0</ele><time>2026-05-03T08:33:18.783Z</time></trkpt><trkpt lat="43.6130015" lon="12.5798497"><ele>297.0</ele><time>2026-05-03T08:33:19.784Z</time></trkpt><trkpt lat="43.6128908" lon="12.5798467"><ele>297.0</ele><time>2026-05-03T08:33:20.782Z</time></trkpt><trkpt lat="43.6127744" lon="12.5798291"><ele>297.0</ele><time>2026-05-03T08:33:21.782Z</time></trkpt><trkpt lat="43.6126478" lon="12.579801"><ele>294.5</ele><time>2026-05-03T08:33:22.782Z</time></trkpt><trkpt lat="43.612516" lon="12.5797498"><ele>292.0</ele><time>2026-05-03T08:33:23.782Z</time></trkpt><trkpt lat="43.6123828" lon="12.579692"><ele>289.5</ele><time>2026-05-03T08:33:24.782Z</time></trkpt><trkpt lat="43.6122443" lon="12.579638"><ele>287.0</ele><time>2026-05-03T08:33:25.783Z</time></trkpt><trkpt lat="43.6121066" lon="12.5795881"><ele>285.0</ele><time>2026-05-03T08:33:26.783Z</time></trkpt><trkpt lat="43.6119786" lon="12.579533"><ele>283.0</ele><time>2026-05-03T08:33:27.784Z</time></trkpt><trkpt lat="43.6118566" lon="12.5794649"><ele>281.0</ele><time>2026-05-03T08:33:28.784Z</time></trkpt><trkpt lat="43.6117457" lon="12.579385"><ele>279.0</ele><time>2026-05-03T08:33:29.783Z</time></trkpt><trkpt lat="43.6116385" lon="12.5793099"><ele>278.59999999999997</ele><time>2026-05-03T08:33:30.784Z</time></trkpt><trkpt lat="43.6115309" lon="12.5792565"><ele>278.2</ele><time>2026-05-03T08:33:31.782Z</time></trkpt><trkpt lat="43.6114245" lon="12.5792184"><ele>277.79999999999995</ele><time>2026-05-03T08:33:32.783Z</time></trkpt><trkpt lat="43.6113198" lon="12.5791955"><ele>277.4</ele><time>2026-05-03T08:33:33.783Z</time></trkpt><trkpt lat="43.6112196" lon="12.5792002"><ele>277.0</ele><time>2026-05-03T08:33:34.784Z</time></trkpt><trkpt lat="43.6111276" lon="12.5792422"><ele>275.5</ele><time>2026-05-03T08:33:35.783Z</time></trkpt><trkpt lat="43.6110384" lon="12.5793209"><ele>274.0</ele><time>2026-05-03T08:33:36.783Z</time></trkpt><trkpt lat="43.6109599" lon="12.5794349"><ele>272.5</ele><time>2026-05-03T08:33:37.784Z</time></trkpt><trkpt lat="43.6108756" lon="12.579584"><ele>271.0</ele><time>2026-05-03T08:33:38.783Z</time></trkpt><trkpt lat="43.6107992" lon="12.5797083"><ele>271.0</ele><time>2026-05-03T08:33:39.783Z</time></trkpt><trkpt lat="43.610746" lon="12.5797916"><ele>271.0</ele><time>2026-05-03T08:33:40.783Z</time></trkpt><trkpt lat="43.6106994" lon="12.5798591"><ele>271.0</ele><time>2026-05-03T08:33:42.783Z</time></trkpt><trkpt lat="43.6107609" lon="12.5799116"><ele>271.0</ele><time>2026-05-03T08:33:50.782Z</time></trkpt><trkpt lat="43.6107899" lon="12.5798135"><ele>271.0</ele><time>2026-05-03T08:33:52.782Z</time></trkpt><trkpt lat="43.6108353" lon="12.5796463"><ele>271.0</ele><time>2026-05-03T08:33:54.782Z</time></trkpt><trkpt lat="43.6108923" lon="12.5795374"><ele>272.2</ele><time>2026-05-03T08:33:55.782Z</time></trkpt><trkpt lat="43.610971" lon="12.5794049"><ele>273.40000000000003</ele><time>2026-05-03T08:33:56.781Z</time></trkpt><trkpt lat="43.6110526" lon="12.5793011"><ele>274.6</ele><time>2026-05-03T08:33:57.782Z</time></trkpt><trkpt lat="43.6111275" lon="12.5792355"><ele>275.8</ele><time>2026-05-03T08:33:58.783Z</time></trkpt><trkpt lat="43.61119" lon="12.5791969"><ele>277.0</ele><time>2026-05-03T08:33:59.782Z</time></trkpt><trkpt lat="43.6113138" lon="12.5791359"><ele>277.0</ele><time>2026-05-03T08:34:01.782Z</time></trkpt><trkpt lat="43.6113947" lon="12.5791291"><ele>277.0</ele><time>2026-05-03T08:34:02.783Z</time></trkpt><trkpt lat="43.6114916" lon="12.5791367"><ele>277.0</ele><time>2026-05-03T08:34:03.782Z</time></trkpt><trkpt lat="43.61159" lon="12.5791312"><ele>277.0</ele><time>2026-05-03T08:34:04.782Z</time></trkpt><trkpt lat="43.6116824" lon="12.5791154"><ele>277.0</ele><time>2026-05-03T08:34:05.781Z</time></trkpt><trkpt lat="43.6117702" lon="12.5790889"><ele>277.0</ele><time>2026-05-03T08:34:06.781Z</time></trkpt><trkpt lat="43.611857" lon="12.5790592"><ele>277.0</ele><time>2026-05-03T08:34:07.781Z</time></trkpt><trkpt lat="43.6119406" lon="12.5790225"><ele>277.0</ele><time>2026-05-03T08:34:08.782Z</time></trkpt><trkpt lat="43.6120101" lon="12.5789836"><ele>277.0</ele><time>2026-05-03T08:34:09.781Z</time></trkpt><trkpt lat="43.6120661" lon="12.5789358"><ele>277.0</ele><time>2026-05-03T08:34:10.781Z</time></trkpt><trkpt lat="43.6121308" lon="12.578811"><ele>277.0</ele><time>2026-05-03T08:34:12.783Z</time></trkpt><trkpt lat="43.6121475" lon="12.578723"><ele>280.66666666666663</ele><time>2026-05-03T08:34:13.782Z</time></trkpt><trkpt lat="43.61216" lon="12.5786285"><ele>284.3333333333333</ele><time>2026-05-03T08:34:14.782Z</time></trkpt><trkpt lat="43.6121635" lon="12.5785163"><ele>288.0</ele><time>2026-05-03T08:34:15.781Z</time></trkpt><trkpt lat="43.6121597" lon="12.5784024"><ele>291.6666666666667</ele><time>2026-05-03T08:34:16.781Z</time></trkpt><trkpt lat="43.612164" lon="12.5782873"><ele>295.33333333333337</ele><time>2026-05-03T08:34:17.783Z</time></trkpt><trkpt lat="43.61216" lon="12.578162"><ele>299.0</ele><time>2026-05-03T08:34:18.782Z</time></trkpt><trkpt lat="43.6121561" lon="12.5780316"><ele>299.0</ele><time>2026-05-03T08:34:19.782Z</time></trkpt><trkpt lat="43.6121471" lon="12.5778976"><ele>299.0</ele><time>2026-05-03T08:34:20.783Z</time></trkpt><trkpt lat="43.6121487" lon="12.5777627"><ele>299.0</ele><time>2026-05-03T08:34:21.783Z</time></trkpt><trkpt lat="43.6121386" lon="12.577615"><ele>299.0</ele><time>2026-05-03T08:34:22.781Z</time></trkpt><trkpt lat="43.6121181" lon="12.5774598"><ele>299.0</ele><time>2026-05-03T08:34:23.781Z</time></trkpt><trkpt lat="43.6120976" lon="12.5773172"><ele>300.8</ele><time>2026-05-03T08:34:24.782Z</time></trkpt><trkpt lat="43.6120835" lon="12.5771723"><ele>302.59999999999997</ele><time>2026-05-03T08:34:25.783Z</time></trkpt><trkpt lat="43.6120711" lon="12.577023"><ele>304.4</ele><time>2026-05-03T08:34:26.782Z</time></trkpt><trkpt lat="43.6120633" lon="12.5768715"><ele>306.2</ele><time>2026-05-03T08:34:27.782Z</time></trkpt><trkpt lat="43.6120573" lon="12.5767349"><ele>308.0</ele><time>2026-05-03T08:34:28.782Z</time></trkpt><trkpt lat="43.6120522" lon="12.5766043"><ele>308.6</ele><time>2026-05-03T08:34:29.781Z</time></trkpt><trkpt lat="43.6120204" lon="12.5764796"><ele>309.20000000000005</ele><time>2026-05-03T08:34:30.782Z</time></trkpt><trkpt lat="43.6119735" lon="12.5763471"><ele>309.8</ele><time>2026-05-03T08:34:31.782Z</time></trkpt><trkpt lat="43.6119174" lon="12.5762083"><ele>310.40000000000003</ele><time>2026-05-03T08:34:32.782Z</time></trkpt><trkpt lat="43.6118841" lon="12.576075"><ele>311.0</ele><time>2026-05-03T08:34:33.782Z</time></trkpt><trkpt lat="43.611855" lon="12.5759342"><ele>305.40000000000003</ele><time>2026-05-03T08:34:34.782Z</time></trkpt><trkpt lat="43.6118215" lon="12.5757901"><ele>299.8</ele><time>2026-05-03T08:34:35.783Z</time></trkpt><trkpt lat="43.6117873" lon="12.5756449"><ele>294.20000000000005</ele><time>2026-05-03T08:34:36.781Z</time></trkpt><trkpt lat="43.6117562" lon="12.5755095"><ele>288.6</ele><time>2026-05-03T08:34:37.782Z</time></trkpt><trkpt lat="43.6117249" lon="12.5753906"><ele>283.0</ele><time>2026-05-03T08:34:38.782Z</time></trkpt><trkpt lat="43.6117045" lon="12.5752757"><ele>283.0</ele><time>2026-05-03T08:34:39.782Z</time></trkpt><trkpt lat="43.611697" lon="12.5751676"><ele>283.0</ele><time>2026-05-03T08:34:40.782Z</time></trkpt><trkpt lat="43.6117057" lon="12.5750558"><ele>283.0</ele><time>2026-05-03T08:34:41.782Z</time></trkpt><trkpt lat="43.6117247" lon="12.57495"><ele>283.0</ele><time>2026-05-03T08:34:42.781Z</time></trkpt><trkpt lat="43.6117296" lon="12.5748401"><ele>283.0</ele><time>2026-05-03T08:34:43.783Z</time></trkpt><trkpt lat="43.6117074" lon="12.5747337"><ele>283.0</ele><time>2026-05-03T08:34:44.783Z</time></trkpt><trkpt lat="43.6116589" lon="12.574641"><ele>283.0</ele><time>2026-05-03T08:34:45.782Z</time></trkpt><trkpt lat="43.6115919" lon="12.5745549"><ele>283.0</ele><time>2026-05-03T08:34:46.781Z</time></trkpt><trkpt lat="43.6115212" lon="12.5744546"><ele>283.0</ele><time>2026-05-03T08:34:47.783Z</time></trkpt><trkpt lat="43.6114576" lon="12.5743463"><ele>283.0</ele><time>2026-05-03T08:34:48.781Z</time></trkpt><trkpt lat="43.6113947" lon="12.5742344"><ele>283.0</ele><time>2026-05-03T08:34:49.781Z</time></trkpt><trkpt lat="43.611333" lon="12.5741245"><ele>282.6</ele><time>2026-05-03T08:34:50.782Z</time></trkpt><trkpt lat="43.6112681" lon="12.5740162"><ele>282.20000000000005</ele><time>2026-05-03T08:34:51.781Z</time></trkpt><trkpt lat="43.6112039" lon="12.5739077"><ele>281.8</ele><time>2026-05-03T08:34:52.782Z</time></trkpt><trkpt lat="43.6111411" lon="12.573806"><ele>281.40000000000003</ele><time>2026-05-03T08:34:53.782Z</time></trkpt><trkpt lat="43.6110828" lon="12.5737079"><ele>281.0</ele><time>2026-05-03T08:34:54.782Z</time></trkpt><trkpt lat="43.6110397" lon="12.5736066"><ele>281.0</ele><time>2026-05-03T08:34:55.781Z</time></trkpt><trkpt lat="43.6110089" lon="12.573486"><ele>281.0</ele><time>2026-05-03T08:34:56.781Z</time></trkpt><trkpt lat="43.61098" lon="12.5733468"><ele>281.0</ele><time>2026-05-03T08:34:57.781Z</time></trkpt><trkpt lat="43.6109293" lon="12.5732057"><ele>281.0</ele><time>2026-05-03T08:34:58.782Z</time></trkpt><trkpt lat="43.6108742" lon="12.573097"><ele>281.0</ele><time>2026-05-03T08:34:59.782Z</time></trkpt><trkpt lat="43.6108336" lon="12.5729948"><ele>281.0</ele><time>2026-05-03T08:35:00.782Z</time></trkpt><trkpt lat="43.6108092" lon="12.5728985"><ele>281.0</ele><time>2026-05-03T08:35:01.781Z</time></trkpt><trkpt lat="43.6108037" lon="12.5727863"><ele>281.0</ele><time>2026-05-03T08:35:02.781Z</time></trkpt><trkpt lat="43.6108111" lon="12.5726544"><ele>281.0</ele><time>2026-05-03T08:35:03.782Z</time></trkpt><trkpt lat="43.6108263" lon="12.5725121"><ele>281.0</ele><time>2026-05-03T08:35:04.781Z</time></trkpt><trkpt lat="43.6108433" lon="12.5723646"><ele>282.25</ele><time>2026-05-03T08:35:05.783Z</time></trkpt><trkpt lat="43.6108627" lon="12.5722105"><ele>283.5</ele><time>2026-05-03T08:35:06.782Z</time></trkpt><trkpt lat="43.6108867" lon="12.572052"><ele>284.75</ele><time>2026-05-03T08:35:07.781Z</time></trkpt><trkpt lat="43.6109152" lon="12.5718893"><ele>286.0</ele><time>2026-05-03T08:35:08.781Z</time></trkpt><trkpt lat="43.6109428" lon="12.5717254"><ele>286.25</ele><time>2026-05-03T08:35:09.781Z</time></trkpt><trkpt lat="43.6109683" lon="12.5715731"><ele>286.5</ele><time>2026-05-03T08:35:10.781Z</time></trkpt><trkpt lat="43.6109851" lon="12.5714243"><ele>286.75</ele><time>2026-05-03T08:35:11.782Z</time></trkpt><trkpt lat="43.6109936" lon="12.5712627"><ele>287.0</ele><time>2026-05-03T08:35:12.782Z</time></trkpt><trkpt lat="43.6109986" lon="12.5711067"><ele>288.5</ele><time>2026-05-03T08:35:13.782Z</time></trkpt><trkpt lat="43.6110029" lon="12.5709487"><ele>290.0</ele><time>2026-05-03T08:35:14.782Z</time></trkpt><trkpt lat="43.6110094" lon="12.5707863"><ele>291.5</ele><time>2026-05-03T08:35:15.781Z</time></trkpt><trkpt lat="43.6110166" lon="12.5706228"><ele>293.0</ele><time>2026-05-03T08:35:16.783Z</time></trkpt><trkpt lat="43.6110269" lon="12.5704664"><ele>292.4</ele><time>2026-05-03T08:35:17.781Z</time></trkpt><trkpt lat="43.6110357" lon="12.5703231"><ele>291.8</ele><time>2026-05-03T08:35:18.782Z</time></trkpt><trkpt lat="43.6110494" lon="12.5701911"><ele>291.2</ele><time>2026-05-03T08:35:19.782Z</time></trkpt><trkpt lat="43.6110679" lon="12.5700643"><ele>290.6</ele><time>2026-05-03T08:35:20.782Z</time></trkpt><trkpt lat="43.6110882" lon="12.569936"><ele>290.0</ele><time>2026-05-03T08:35:21.782Z</time></trkpt><trkpt lat="43.6111145" lon="12.5698052"><ele>290.0</ele><time>2026-05-03T08:35:22.782Z</time></trkpt><trkpt lat="43.6111437" lon="12.5696733"><ele>290.0</ele><time>2026-05-03T08:35:23.783Z</time></trkpt><trkpt lat="43.6111687" lon="12.5695486"><ele>290.0</ele><time>2026-05-03T08:35:24.781Z</time></trkpt><trkpt lat="43.6111863" lon="12.5694309"><ele>290.0</ele><time>2026-05-03T08:35:25.782Z</time></trkpt><trkpt lat="43.6111955" lon="12.569319"><ele>290.0</ele><time>2026-05-03T08:35:26.782Z</time></trkpt><trkpt lat="43.6112037" lon="12.5692189"><ele>290.0</ele><time>2026-05-03T08:35:27.782Z</time></trkpt><trkpt lat="43.6112144" lon="12.5691302"><ele>291.8571428571429</ele><time>2026-05-03T08:35:28.782Z</time></trkpt><trkpt lat="43.6112357" lon="12.5690449"><ele>293.7142857142857</ele><time>2026-05-03T08:35:29.782Z</time></trkpt><trkpt lat="43.6112584" lon="12.5689565"><ele>295.57142857142856</ele><time>2026-05-03T08:35:30.782Z</time></trkpt><trkpt lat="43.6112884" lon="12.5688635"><ele>297.42857142857144</ele><time>2026-05-03T08:35:31.782Z</time></trkpt><trkpt lat="43.6113231" lon="12.5687692"><ele>299.2857142857143</ele><time>2026-05-03T08:35:32.781Z</time></trkpt><trkpt lat="43.6113649" lon="12.5686724"><ele>301.14285714285717</ele><time>2026-05-03T08:35:33.781Z</time></trkpt><trkpt lat="43.6114154" lon="12.5685834"><ele>303.0</ele><time>2026-05-03T08:35:34.782Z</time></trkpt><trkpt lat="43.6114714" lon="12.5684999"><ele>303.0</ele><time>2026-05-03T08:35:35.783Z</time></trkpt><trkpt lat="43.6115286" lon="12.5684181"><ele>303.0</ele><time>2026-05-03T08:35:36.782Z</time></trkpt><trkpt lat="43.6115893" lon="12.5683378"><ele>303.0</ele><time>2026-05-03T08:35:37.782Z</time></trkpt><trkpt lat="43.6116559" lon="12.568261"><ele>303.0</ele><time>2026-05-03T08:35:38.782Z</time></trkpt><trkpt lat="43.6117268" lon="12.5681947"><ele>303.0</ele><time>2026-05-03T08:35:39.782Z</time></trkpt><trkpt lat="43.6117996" lon="12.5681215"><ele>303.0</ele><time>2026-05-03T08:35:40.781Z</time></trkpt><trkpt lat="43.6118732" lon="12.568051"><ele>303.0</ele><time>2026-05-03T08:35:41.782Z</time></trkpt><trkpt lat="43.6119392" lon="12.5679674"><ele>303.0</ele><time>2026-05-03T08:35:42.782Z</time></trkpt><trkpt lat="43.6119996" lon="12.5678915"><ele>303.0</ele><time>2026-05-03T08:35:43.782Z</time></trkpt><trkpt lat="43.6120677" lon="12.5678131"><ele>303.0</ele><time>2026-05-03T08:35:44.782Z</time></trkpt><trkpt lat="43.6121308" lon="12.5677414"><ele>303.0</ele><time>2026-05-03T08:35:45.782Z</time></trkpt><trkpt lat="43.6121929" lon="12.5676664"><ele>303.0</ele><time>2026-05-03T08:35:46.782Z</time></trkpt><trkpt lat="43.6122392" lon="12.5675798"><ele>303.8</ele><time>2026-05-03T08:35:47.783Z</time></trkpt><trkpt lat="43.6122851" lon="12.5674789"><ele>304.6</ele><time>2026-05-03T08:35:48.782Z</time></trkpt><trkpt lat="43.6123243" lon="12.5673536"><ele>305.4</ele><time>2026-05-03T08:35:49.781Z</time></trkpt><trkpt lat="43.6123631" lon="12.5672303"><ele>306.2</ele><time>2026-05-03T08:35:50.781Z</time></trkpt><trkpt lat="43.6124064" lon="12.5671147"><ele>307.0</ele><time>2026-05-03T08:35:51.781Z</time></trkpt><trkpt lat="43.6124574" lon="12.5670022"><ele>305.0</ele><time>2026-05-03T08:35:52.782Z</time></trkpt><trkpt lat="43.6125126" lon="12.5668925"><ele>303.0</ele><time>2026-05-03T08:35:53.783Z</time></trkpt><trkpt lat="43.6125749" lon="12.5667927"><ele>301.0</ele><time>2026-05-03T08:35:54.782Z</time></trkpt><trkpt lat="43.6126299" lon="12.566686"><ele>299.0</ele><time>2026-05-03T08:35:55.783Z</time></trkpt><trkpt lat="43.6126748" lon="12.5665672"><ele>297.0</ele><time>2026-05-03T08:35:56.781Z</time></trkpt><trkpt lat="43.6127115" lon="12.5664373"><ele>297.0</ele><time>2026-05-03T08:35:57.781Z</time></trkpt><trkpt lat="43.6127387" lon="12.5662927"><ele>297.0</ele><time>2026-05-03T08:35:58.781Z</time></trkpt><trkpt lat="43.6127514" lon="12.5661388"><ele>297.0</ele><time>2026-05-03T08:35:59.782Z</time></trkpt><trkpt lat="43.6127527" lon="12.5659729"><ele>297.0</ele><time>2026-05-03T08:36:00.782Z</time></trkpt><trkpt lat="43.6127527" lon="12.5658094"><ele>297.2</ele><time>2026-05-03T08:36:01.782Z</time></trkpt><trkpt lat="43.6127555" lon="12.5656589"><ele>297.4</ele><time>2026-05-03T08:36:02.781Z</time></trkpt><trkpt lat="43.6127623" lon="12.5655132"><ele>297.6</ele><time>2026-05-03T08:36:03.781Z</time></trkpt><trkpt lat="43.6127805" lon="12.5653669"><ele>297.8</ele><time>2026-05-03T08:36:04.781Z</time></trkpt><trkpt lat="43.612812" lon="12.5652101"><ele>298.0</ele><time>2026-05-03T08:36:05.782Z</time></trkpt><trkpt lat="43.6128451" lon="12.5650627"><ele>300.0</ele><time>2026-05-03T08:36:06.781Z</time></trkpt><trkpt lat="43.6128743" lon="12.5649308"><ele>302.0</ele><time>2026-05-03T08:36:07.782Z</time></trkpt><trkpt lat="43.6129085" lon="12.5648024"><ele>304.0</ele><time>2026-05-03T08:36:08.783Z</time></trkpt><trkpt lat="43.6129585" lon="12.5646714"><ele>306.0</ele><time>2026-05-03T08:36:09.782Z</time></trkpt><trkpt lat="43.6130198" lon="12.5645402"><ele>308.0</ele><time>2026-05-03T08:36:10.782Z</time></trkpt><trkpt lat="43.613083" lon="12.5644108"><ele>308.0</ele><time>2026-05-03T08:36:11.782Z</time></trkpt><trkpt lat="43.613143" lon="12.5642948"><ele>308.0</ele><time>2026-05-03T08:36:12.782Z</time></trkpt><trkpt lat="43.6132029" lon="12.5641811"><ele>308.0</ele><time>2026-05-03T08:36:13.781Z</time></trkpt><trkpt lat="43.61327" lon="12.5640844"><ele>308.0</ele><time>2026-05-03T08:36:14.782Z</time></trkpt><trkpt lat="43.6133418" lon="12.5640024"><ele>308.0</ele><time>2026-05-03T08:36:15.781Z</time></trkpt><trkpt lat="43.6134118" lon="12.5639412"><ele>308.0</ele><time>2026-05-03T08:36:16.781Z</time></trkpt><trkpt lat="43.6134765" lon="12.5638935"><ele>308.0</ele><time>2026-05-03T08:36:17.782Z</time></trkpt><trkpt lat="43.6135633" lon="12.5638005"><ele>308.0</ele><time>2026-05-03T08:36:19.781Z</time></trkpt><trkpt lat="43.6135714" lon="12.563684"><ele>308.0</ele><time>2026-05-03T08:36:22.781Z</time></trkpt><trkpt lat="43.61356" lon="12.5635557"><ele>308.0</ele><time>2026-05-03T08:36:24.781Z</time></trkpt><trkpt lat="43.6135343" lon="12.5634747"><ele>308.0</ele><time>2026-05-03T08:36:25.781Z</time></trkpt><trkpt lat="43.613429" lon="12.5634041"><ele>306.6666666666667</ele><time>2026-05-03T08:36:27.783Z</time></trkpt><trkpt lat="43.6133633" lon="12.5634119"><ele>305.33333333333337</ele><time>2026-05-03T08:36:28.783Z</time></trkpt><trkpt lat="43.613283" lon="12.563415"><ele>304.0</ele><time>2026-05-03T08:36:29.783Z</time></trkpt><trkpt lat="43.6131947" lon="12.5634294"><ele>302.6666666666667</ele><time>2026-05-03T08:36:30.782Z</time></trkpt><trkpt lat="43.6130911" lon="12.5634517"><ele>301.3333333333333</ele><time>2026-05-03T08:36:31.782Z</time></trkpt><trkpt lat="43.6129889" lon="12.563479"><ele>300.0</ele><time>2026-05-03T08:36:32.781Z</time></trkpt><trkpt lat="43.6128942" lon="12.5635119"><ele>298.8333333333333</ele><time>2026-05-03T08:36:33.781Z</time></trkpt><trkpt lat="43.6128047" lon="12.5635523"><ele>297.6666666666667</ele><time>2026-05-03T08:36:34.782Z</time></trkpt><trkpt lat="43.6127197" lon="12.5635868"><ele>296.5</ele><time>2026-05-03T08:36:35.782Z</time></trkpt><trkpt lat="43.6126372" lon="12.5636167"><ele>295.33333333333337</ele><time>2026-05-03T08:36:36.781Z</time></trkpt><trkpt lat="43.6125557" lon="12.5636374"><ele>294.1666666666667</ele><time>2026-05-03T08:36:37.782Z</time></trkpt><trkpt lat="43.6124779" lon="12.5636511"><ele>293.0</ele><time>2026-05-03T08:36:38.782Z</time></trkpt><trkpt lat="43.6124018" lon="12.563658"><ele>293.0</ele><time>2026-05-03T08:36:39.782Z</time></trkpt><trkpt lat="43.6123227" lon="12.563654"><ele>293.0</ele><time>2026-05-03T08:36:40.782Z</time></trkpt><trkpt lat="43.6122515" lon="12.5636406"><ele>293.0</ele><time>2026-05-03T08:36:41.782Z</time></trkpt><trkpt lat="43.6121709" lon="12.5636213"><ele>293.0</ele><time>2026-05-03T08:36:42.782Z</time></trkpt><trkpt lat="43.6120868" lon="12.5635934"><ele>293.0</ele><time>2026-05-03T08:36:43.781Z</time></trkpt><trkpt lat="43.6119924" lon="12.5635595"><ele>293.0</ele><time>2026-05-03T08:36:44.782Z</time></trkpt><trkpt lat="43.6119018" lon="12.5635242"><ele>292.5</ele><time>2026-05-03T08:36:45.782Z</time></trkpt><trkpt lat="43.6118194" lon="12.5634814"><ele>292.0</ele><time>2026-05-03T08:36:46.782Z</time></trkpt><trkpt lat="43.6117461" lon="12.5634321"><ele>291.5</ele><time>2026-05-03T08:36:47.783Z</time></trkpt><trkpt lat="43.6116799" lon="12.5633814"><ele>291.0</ele><time>2026-05-03T08:36:48.781Z</time></trkpt><trkpt lat="43.611613" lon="12.5633281"><ele>290.5</ele><time>2026-05-03T08:36:49.782Z</time></trkpt><trkpt lat="43.6115428" lon="12.5632628"><ele>290.0</ele><time>2026-05-03T08:36:50.782Z</time></trkpt><trkpt lat="43.6114658" lon="12.5631843"><ele>290.0</ele><time>2026-05-03T08:36:51.783Z</time></trkpt><trkpt lat="43.6113812" lon="12.5630975"><ele>290.0</ele><time>2026-05-03T08:36:52.782Z</time></trkpt><trkpt lat="43.6112942" lon="12.563004"><ele>290.0</ele><time>2026-05-03T08:36:53.783Z</time></trkpt><trkpt lat="43.6112155" lon="12.5629193"><ele>290.0</ele><time>2026-05-03T08:36:54.782Z</time></trkpt><trkpt lat="43.611137" lon="12.5628478"><ele>290.0</ele><time>2026-05-03T08:36:55.782Z</time></trkpt><trkpt lat="43.6110646" lon="12.5627759"><ele>288.83333333333337</ele><time>2026-05-03T08:36:56.782Z</time></trkpt><trkpt lat="43.6109986" lon="12.5627039"><ele>287.6666666666667</ele><time>2026-05-03T08:36:57.782Z</time></trkpt><trkpt lat="43.6109392" lon="12.5626307"><ele>286.5</ele><time>2026-05-03T08:36:58.781Z</time></trkpt><trkpt lat="43.6108846" lon="12.5625542"><ele>285.3333333333333</ele><time>2026-05-03T08:36:59.783Z</time></trkpt><trkpt lat="43.6108334" lon="12.5624793"><ele>284.16666666666663</ele><time>2026-05-03T08:37:00.782Z</time></trkpt><trkpt lat="43.6107877" lon="12.5624011"><ele>283.0</ele><time>2026-05-03T08:37:01.781Z</time></trkpt><trkpt lat="43.6107443" lon="12.5623218"><ele>283.0</ele><time>2026-05-03T08:37:02.783Z</time></trkpt><trkpt lat="43.6107041" lon="12.5622374"><ele>283.0</ele><time>2026-05-03T08:37:03.781Z</time></trkpt><trkpt lat="43.6106715" lon="12.5621472"><ele>283.0</ele><time>2026-05-03T08:37:04.783Z</time></trkpt><trkpt lat="43.6106457" lon="12.5620503"><ele>283.0</ele><time>2026-05-03T08:37:05.782Z</time></trkpt><trkpt lat="43.6106259" lon="12.5619481"><ele>283.0</ele><time>2026-05-03T08:37:06.782Z</time></trkpt><trkpt lat="43.6106136" lon="12.5618425"><ele>283.0</ele><time>2026-05-03T08:37:07.782Z</time></trkpt><trkpt lat="43.6106094" lon="12.5617496"><ele>283.0</ele><time>2026-05-03T08:37:08.783Z</time></trkpt><trkpt lat="43.6106331" lon="12.5616536"><ele>283.0</ele><time>2026-05-03T08:37:10.783Z</time></trkpt><trkpt lat="43.6106993" lon="12.5616142"><ele>283.0</ele><time>2026-05-03T08:37:13.783Z</time></trkpt><trkpt lat="43.6107772" lon="12.5615333"><ele>283.0</ele><time>2026-05-03T08:37:16.782Z</time></trkpt><trkpt lat="43.6108529" lon="12.5614821"><ele>283.0</ele><time>2026-05-03T08:37:18.782Z</time></trkpt><trkpt lat="43.6109743" lon="12.5613824"><ele>283.0</ele><time>2026-05-03T08:37:20.781Z</time></trkpt><trkpt lat="43.6110564" lon="12.5613144"><ele>283.0</ele><time>2026-05-03T08:37:21.781Z</time></trkpt><trkpt lat="43.6111417" lon="12.561242"><ele>283.0</ele><time>2026-05-03T08:37:22.782Z</time></trkpt><trkpt lat="43.6112373" lon="12.5611614"><ele>283.0</ele><time>2026-05-03T08:37:23.782Z</time></trkpt><trkpt lat="43.6113373" lon="12.5610836"><ele>283.0</ele><time>2026-05-03T08:37:24.781Z</time></trkpt><trkpt lat="43.6114302" lon="12.561024"><ele>283.0</ele><time>2026-05-03T08:37:25.782Z</time></trkpt><trkpt lat="43.6115121" lon="12.5609957"><ele>286.0</ele><time>2026-05-03T08:37:26.781Z</time></trkpt><trkpt lat="43.6115874" lon="12.560986"><ele>289.0</ele><time>2026-05-03T08:37:27.781Z</time></trkpt><trkpt lat="43.6116673" lon="12.5609831"><ele>292.0</ele><time>2026-05-03T08:37:28.782Z</time></trkpt><trkpt lat="43.6117517" lon="12.5609777"><ele>295.0</ele><time>2026-05-03T08:37:29.782Z</time></trkpt><trkpt lat="43.6118436" lon="12.5609744"><ele>298.0</ele><time>2026-05-03T08:37:30.782Z</time></trkpt><trkpt lat="43.6119429" lon="12.5609714"><ele>301.0</ele><time>2026-05-03T08:37:31.783Z</time></trkpt><trkpt lat="43.6120498" lon="12.5609588"><ele>301.0</ele><time>2026-05-03T08:37:32.782Z</time></trkpt><trkpt lat="43.6121617" lon="12.560941"><ele>301.0</ele><time>2026-05-03T08:37:33.782Z</time></trkpt><trkpt lat="43.6122619" lon="12.560913"><ele>301.0</ele><time>2026-05-03T08:37:34.782Z</time></trkpt><trkpt lat="43.6123563" lon="12.560877"><ele>301.0</ele><time>2026-05-03T08:37:35.781Z</time></trkpt><trkpt lat="43.6124503" lon="12.5608348"><ele>301.0</ele><time>2026-05-03T08:37:36.783Z</time></trkpt><trkpt lat="43.6125345" lon="12.5607952"><ele>301.0</ele><time>2026-05-03T08:37:37.783Z</time></trkpt><trkpt lat="43.6126123" lon="12.5607769"><ele>301.0</ele><time>2026-05-03T08:37:38.782Z</time></trkpt><trkpt lat="43.612679" lon="12.5607999"><ele>301.0</ele><time>2026-05-03T08:37:39.782Z</time></trkpt><trkpt lat="43.6127339" lon="12.5608547"><ele>301.0</ele><time>2026-05-03T08:37:40.781Z</time></trkpt><trkpt lat="43.6127713" lon="12.560936"><ele>301.0</ele><time>2026-05-03T08:37:41.782Z</time></trkpt><trkpt lat="43.6127933" lon="12.5610376"><ele>301.0</ele><time>2026-05-03T08:37:42.783Z</time></trkpt><trkpt lat="43.6128135" lon="12.5611511"><ele>301.0</ele><time>2026-05-03T08:37:43.781Z</time></trkpt><trkpt lat="43.6128513" lon="12.5612315"><ele>302.66666666666663</ele><time>2026-05-03T08:37:44.782Z</time></trkpt><trkpt lat="43.6129066" lon="12.5612885"><ele>304.3333333333333</ele><time>2026-05-03T08:37:45.782Z</time></trkpt><trkpt lat="43.6129741" lon="12.5613101"><ele>306.0</ele><time>2026-05-03T08:37:46.782Z</time></trkpt><trkpt lat="43.6130568" lon="12.5613062"><ele>307.6666666666667</ele><time>2026-05-03T08:37:47.782Z</time></trkpt><trkpt lat="43.6131516" lon="12.5612764"><ele>309.33333333333337</ele><time>2026-05-03T08:37:48.782Z</time></trkpt><trkpt lat="43.6132562" lon="12.5612179"><ele>311.0</ele><time>2026-05-03T08:37:49.782Z</time></trkpt><trkpt lat="43.6133799" lon="12.5611383"><ele>311.0</ele><time>2026-05-03T08:37:50.782Z</time></trkpt><trkpt lat="43.6135236" lon="12.5610528"><ele>311.0</ele><time>2026-05-03T08:37:51.781Z</time></trkpt><trkpt lat="43.6136871" lon="12.5609708"><ele>311.0</ele><time>2026-05-03T08:37:52.781Z</time></trkpt><trkpt lat="43.6138673" lon="12.56089"><ele>315.33333333333337</ele><time>2026-05-03T08:37:53.782Z</time></trkpt><trkpt lat="43.6140637" lon="12.5608144"><ele>319.6666666666667</ele><time>2026-05-03T08:37:54.781Z</time></trkpt><trkpt lat="43.6142588" lon="12.5607567"><ele>324.0</ele><time>2026-05-03T08:37:55.782Z</time></trkpt><trkpt lat="43.6144219" lon="12.5607119"><ele>326.25</ele><time>2026-05-03T08:37:56.781Z</time></trkpt><trkpt lat="43.6145648" lon="12.5606746"><ele>328.5</ele><time>2026-05-03T08:37:57.781Z</time></trkpt><trkpt lat="43.614689" lon="12.5606435"><ele>330.75</ele><time>2026-05-03T08:37:58.78Z</time></trkpt><trkpt lat="43.6148048" lon="12.5606096"><ele>333.0</ele><time>2026-05-03T08:37:59.781Z</time></trkpt><trkpt lat="43.6149117" lon="12.5605822"><ele>333.0</ele><time>2026-05-03T08:38:00.781Z</time></trkpt><trkpt lat="43.6150159" lon="12.5605489"><ele>333.0</ele><time>2026-05-03T08:38:01.78Z</time></trkpt><trkpt lat="43.6151203" lon="12.5604926"><ele>333.0</ele><time>2026-05-03T08:38:02.781Z</time></trkpt><trkpt lat="43.6152249" lon="12.5604038"><ele>333.0</ele><time>2026-05-03T08:38:03.781Z</time></trkpt><trkpt lat="43.6153245" lon="12.5602814"><ele>336.5</ele><time>2026-05-03T08:38:04.78Z</time></trkpt><trkpt lat="43.6154066" lon="12.5601362"><ele>340.0</ele><time>2026-05-03T08:38:05.782Z</time></trkpt><trkpt lat="43.6154776" lon="12.5599662"><ele>343.5</ele><time>2026-05-03T08:38:06.782Z</time></trkpt><trkpt lat="43.6155442" lon="12.5597743"><ele>347.0</ele><time>2026-05-03T08:38:07.782Z</time></trkpt><trkpt lat="43.615602" lon="12.5595653"><ele>349.33333333333337</ele><time>2026-05-03T08:38:08.781Z</time></trkpt><trkpt lat="43.6156565" lon="12.5593429"><ele>351.6666666666667</ele><time>2026-05-03T08:38:09.781Z</time></trkpt><trkpt lat="43.6157094" lon="12.5591288"><ele>354.0</ele><time>2026-05-03T08:38:10.78Z</time></trkpt><trkpt lat="43.6157531" lon="12.5589532"><ele>354.0</ele><time>2026-05-03T08:38:11.78Z</time></trkpt><trkpt lat="43.6157888" lon="12.5587858"><ele>354.0</ele><time>2026-05-03T08:38:12.781Z</time></trkpt><trkpt lat="43.6158203" lon="12.558627"><ele>354.0</ele><time>2026-05-03T08:38:13.78Z</time></trkpt><trkpt lat="43.6158519" lon="12.5584892"><ele>354.0</ele><time>2026-05-03T08:38:14.781Z</time></trkpt><trkpt lat="43.6158878" lon="12.558375"><ele>354.0</ele><time>2026-05-03T08:38:15.78Z</time></trkpt><trkpt lat="43.6159373" lon="12.5582798"><ele>353.5</ele><time>2026-05-03T08:38:16.78Z</time></trkpt><trkpt lat="43.6160136" lon="12.5581877"><ele>353.0</ele><time>2026-05-03T08:38:17.781Z</time></trkpt><trkpt lat="43.6160984" lon="12.5580874"><ele>352.5</ele><time>2026-05-03T08:38:18.78Z</time></trkpt><trkpt lat="43.6161785" lon="12.5579589"><ele>352.0</ele><time>2026-05-03T08:38:19.782Z</time></trkpt><trkpt lat="43.6162567" lon="12.5578079"><ele>355.3333333333333</ele><time>2026-05-03T08:38:20.781Z</time></trkpt><trkpt lat="43.6163453" lon="12.5576429"><ele>358.6666666666667</ele><time>2026-05-03T08:38:21.78Z</time></trkpt><trkpt lat="43.6164441" lon="12.5574738"><ele>362.0</ele><time>2026-05-03T08:38:22.78Z</time></trkpt><trkpt lat="43.6165522" lon="12.5573045"><ele>362.0</ele><time>2026-05-03T08:38:23.78Z</time></trkpt><trkpt lat="43.6166652" lon="12.5571464"><ele>362.0</ele><time>2026-05-03T08:38:24.781Z</time></trkpt><trkpt lat="43.6167651" lon="12.5570189"><ele>362.0</ele><time>2026-05-03T08:38:25.781Z</time></trkpt><trkpt lat="43.616866" lon="12.55692"><ele>362.0</ele><time>2026-05-03T08:38:26.781Z</time></trkpt><trkpt lat="43.6169807" lon="12.5568607"><ele>364.25</ele><time>2026-05-03T08:38:27.781Z</time></trkpt><trkpt lat="43.6171222" lon="12.5568351"><ele>366.5</ele><time>2026-05-03T08:38:28.781Z</time></trkpt><trkpt lat="43.617259" lon="12.5568425"><ele>368.75</ele><time>2026-05-03T08:38:29.781Z</time></trkpt><trkpt lat="43.6173737" lon="12.5568691"><ele>371.0</ele><time>2026-05-03T08:38:30.782Z</time></trkpt><trkpt lat="43.6174866" lon="12.5569086"><ele>371.0</ele><time>2026-05-03T08:38:31.782Z</time></trkpt><trkpt lat="43.6175794" lon="12.5569453"><ele>371.0</ele><time>2026-05-03T08:38:32.781Z</time></trkpt><trkpt lat="43.6176615" lon="12.5569559"><ele>371.0</ele><time>2026-05-03T08:38:33.782Z</time></trkpt><trkpt lat="43.6177376" lon="12.5569295"><ele>371.0</ele><time>2026-05-03T08:38:34.781Z</time></trkpt><trkpt lat="43.6178068" lon="12.5568672"><ele>371.0</ele><time>2026-05-03T08:38:35.781Z</time></trkpt><trkpt lat="43.6178788" lon="12.5567732"><ele>371.0</ele><time>2026-05-03T08:38:36.781Z</time></trkpt><trkpt lat="43.6179564" lon="12.5566714"><ele>370.20000000000005</ele><time>2026-05-03T08:38:37.782Z</time></trkpt><trkpt lat="43.6180129" lon="12.5565805"><ele>369.40000000000003</ele><time>2026-05-03T08:38:38.781Z</time></trkpt><trkpt lat="43.6180556" lon="12.5564682"><ele>368.6</ele><time>2026-05-03T08:38:39.781Z</time></trkpt><trkpt lat="43.6180944" lon="12.5563331"><ele>367.8</ele><time>2026-05-03T08:38:40.782Z</time></trkpt><trkpt lat="43.6181434" lon="12.5561824"><ele>367.0</ele><time>2026-05-03T08:38:41.782Z</time></trkpt><trkpt lat="43.6182107" lon="12.556022"><ele>367.0</ele><time>2026-05-03T08:38:42.78Z</time></trkpt><trkpt lat="43.6183003" lon="12.5558526"><ele>367.0</ele><time>2026-05-03T08:38:43.782Z</time></trkpt><trkpt lat="43.6184049" lon="12.5556683"><ele>367.0</ele><time>2026-05-03T08:38:44.781Z</time></trkpt><trkpt lat="43.6185149" lon="12.5554809"><ele>367.5</ele><time>2026-05-03T08:38:45.781Z</time></trkpt><trkpt lat="43.6186017" lon="12.5553366"><ele>368.0</ele><time>2026-05-03T08:38:46.781Z</time></trkpt><trkpt lat="43.6186831" lon="12.5552141"><ele>368.5</ele><time>2026-05-03T08:38:47.781Z</time></trkpt><trkpt lat="43.6187675" lon="12.5551206"><ele>369.0</ele><time>2026-05-03T08:38:48.781Z</time></trkpt><trkpt lat="43.6188496" lon="12.5550508"><ele>368.3333333333333</ele><time>2026-05-03T08:38:49.782Z</time></trkpt><trkpt lat="43.618923" lon="12.5549827"><ele>367.6666666666667</ele><time>2026-05-03T08:38:50.781Z</time></trkpt><trkpt lat="43.6189902" lon="12.5549117"><ele>367.0</ele><time>2026-05-03T08:38:51.781Z</time></trkpt><trkpt lat="43.6190556" lon="12.554844"><ele>366.33333333333337</ele><time>2026-05-03T08:38:52.781Z</time></trkpt><trkpt lat="43.6191178" lon="12.5547633"><ele>365.6666666666667</ele><time>2026-05-03T08:38:53.782Z</time></trkpt><trkpt lat="43.6191662" lon="12.5546804"><ele>365.0</ele><time>2026-05-03T08:38:54.781Z</time></trkpt><trkpt lat="43.6192185" lon="12.5545444"><ele>365.28571428571433</ele><time>2026-05-03T08:38:56.781Z</time></trkpt><trkpt lat="43.6192432" lon="12.5544636"><ele>365.57142857142856</ele><time>2026-05-03T08:38:58.78Z</time></trkpt><trkpt lat="43.6192154" lon="12.5543771"><ele>365.8571428571429</ele><time>2026-05-03T08:43:54.78Z</time></trkpt><trkpt lat="43.6191816" lon="12.5542762"><ele>366.14285714285717</ele><time>2026-05-03T08:43:56.78Z</time></trkpt><trkpt lat="43.6191537" lon="12.554192"><ele>366.42857142857144</ele><time>2026-05-03T08:43:57.779Z</time></trkpt><trkpt lat="43.6191329" lon="12.5540899"><ele>366.7142857142857</ele><time>2026-05-03T08:43:58.78Z</time></trkpt><trkpt lat="43.6191146" lon="12.5539767"><ele>367.0</ele><time>2026-05-03T08:43:59.781Z</time></trkpt><trkpt lat="43.6190919" lon="12.5538617"><ele>367.0</ele><time>2026-05-03T08:44:00.78Z</time></trkpt><trkpt lat="43.6190455" lon="12.5537479"><ele>367.0</ele><time>2026-05-03T08:44:01.779Z</time></trkpt><trkpt lat="43.6189632" lon="12.5536344"><ele>367.0</ele><time>2026-05-03T08:44:02.78Z</time></trkpt><trkpt lat="43.618879" lon="12.5535383"><ele>367.0</ele><time>2026-05-03T08:44:03.781Z</time></trkpt><trkpt lat="43.6187933" lon="12.5534571"><ele>367.0</ele><time>2026-05-03T08:44:04.78Z</time></trkpt><trkpt lat="43.6186973" lon="12.5533963"><ele>364.75</ele><time>2026-05-03T08:44:05.78Z</time></trkpt><trkpt lat="43.6185893" lon="12.5533312"><ele>362.5</ele><time>2026-05-03T08:44:06.78Z</time></trkpt><trkpt lat="43.6184784" lon="12.553258"><ele>360.25</ele><time>2026-05-03T08:44:07.779Z</time></trkpt><trkpt lat="43.6183774" lon="12.5531768"><ele>358.0</ele><time>2026-05-03T08:44:08.779Z</time></trkpt><trkpt lat="43.6182667" lon="12.5531091"><ele>358.0</ele><time>2026-05-03T08:44:09.779Z</time></trkpt><trkpt lat="43.6181454" lon="12.5530504"><ele>358.0</ele><time>2026-05-03T08:44:10.779Z</time></trkpt><trkpt lat="43.618024" lon="12.5530052"><ele>358.0</ele><time>2026-05-03T08:44:11.78Z</time></trkpt><trkpt lat="43.6179062" lon="12.5529799"><ele>358.0</ele><time>2026-05-03T08:44:12.78Z</time></trkpt><trkpt lat="43.6177946" lon="12.55297"><ele>357.5</ele><time>2026-05-03T08:44:13.779Z</time></trkpt><trkpt lat="43.6176938" lon="12.5529587"><ele>357.0</ele><time>2026-05-03T08:44:14.781Z</time></trkpt><trkpt lat="43.6176021" lon="12.5529403"><ele>356.5</ele><time>2026-05-03T08:44:15.78Z</time></trkpt><trkpt lat="43.6175242" lon="12.5529041"><ele>356.0</ele><time>2026-05-03T08:44:16.78Z</time></trkpt><trkpt lat="43.6174717" lon="12.552836"><ele>355.5</ele><time>2026-05-03T08:44:17.781Z</time></trkpt><trkpt lat="43.6174422" lon="12.552749"><ele>355.0</ele><time>2026-05-03T08:44:18.78Z</time></trkpt><trkpt lat="43.6174281" lon="12.5526275"><ele>353.75</ele><time>2026-05-03T08:44:19.78Z</time></trkpt><trkpt lat="43.6174132" lon="12.5524622"><ele>352.5</ele><time>2026-05-03T08:44:20.78Z</time></trkpt><trkpt lat="43.6173928" lon="12.5522697"><ele>351.25</ele><time>2026-05-03T08:44:21.781Z</time></trkpt><trkpt lat="43.617374" lon="12.5520628"><ele>350.0</ele><time>2026-05-03T08:44:22.78Z</time></trkpt><trkpt lat="43.6173535" lon="12.5518752"><ele>349.6</ele><time>2026-05-03T08:44:23.78Z</time></trkpt><trkpt lat="43.617337" lon="12.5517056"><ele>349.2</ele><time>2026-05-03T08:44:24.781Z</time></trkpt><trkpt lat="43.617321" lon="12.5515567"><ele>348.79999999999995</ele><time>2026-05-03T08:44:25.78Z</time></trkpt><trkpt lat="43.6172985" lon="12.5514264"><ele>348.4</ele><time>2026-05-03T08:44:26.779Z</time></trkpt><trkpt lat="43.617261" lon="12.5512973"><ele>348.0</ele><time>2026-05-03T08:44:27.78Z</time></trkpt><trkpt lat="43.6172179" lon="12.5511584"><ele>349.25</ele><time>2026-05-03T08:44:28.78Z</time></trkpt><trkpt lat="43.6171768" lon="12.5509912"><ele>350.5</ele><time>2026-05-03T08:44:29.78Z</time></trkpt><trkpt lat="43.6171325" lon="12.5508282"><ele>351.75</ele><time>2026-05-03T08:44:30.779Z</time></trkpt><trkpt lat="43.6170926" lon="12.5506749"><ele>353.0</ele><time>2026-05-03T08:44:31.78Z</time></trkpt><trkpt lat="43.6170653" lon="12.550524"><ele>353.0</ele><time>2026-05-03T08:44:32.78Z</time></trkpt><trkpt lat="43.6170546" lon="12.5503873"><ele>353.0</ele><time>2026-05-03T08:44:33.781Z</time></trkpt><trkpt lat="43.6170534" lon="12.5502465"><ele>353.0</ele><time>2026-05-03T08:44:34.78Z</time></trkpt><trkpt lat="43.6170487" lon="12.550105"><ele>353.0</ele><time>2026-05-03T08:44:35.781Z</time></trkpt><trkpt lat="43.6170502" lon="12.549955"><ele>353.0</ele><time>2026-05-03T08:44:36.781Z</time></trkpt><trkpt lat="43.6170713" lon="12.5498033"><ele>356.5</ele><time>2026-05-03T08:44:37.78Z</time></trkpt><trkpt lat="43.6170786" lon="12.5496312"><ele>360.0</ele><time>2026-05-03T08:44:38.78Z</time></trkpt><trkpt lat="43.6170847" lon="12.5494565"><ele>363.5</ele><time>2026-05-03T08:44:39.78Z</time></trkpt><trkpt lat="43.6170943" lon="12.5492804"><ele>367.0</ele><time>2026-05-03T08:44:40.78Z</time></trkpt><trkpt lat="43.6171027" lon="12.5490947"><ele>369.0</ele><time>2026-05-03T08:44:41.78Z</time></trkpt><trkpt lat="43.6171165" lon="12.5488973"><ele>371.0</ele><time>2026-05-03T08:44:42.779Z</time></trkpt><trkpt lat="43.6171281" lon="12.5487152"><ele>373.0</ele><time>2026-05-03T08:44:43.779Z</time></trkpt><trkpt lat="43.617125" lon="12.5485352"><ele>375.0</ele><time>2026-05-03T08:44:44.78Z</time></trkpt><trkpt lat="43.6171161" lon="12.5483533"><ele>376.8</ele><time>2026-05-03T08:44:45.78Z</time></trkpt><trkpt lat="43.617101" lon="12.5481863"><ele>378.6</ele><time>2026-05-03T08:44:46.779Z</time></trkpt><trkpt lat="43.6170776" lon="12.5480228"><ele>380.4</ele><time>2026-05-03T08:44:47.781Z</time></trkpt><trkpt lat="43.6170457" lon="12.5478766"><ele>382.2</ele><time>2026-05-03T08:44:48.781Z</time></trkpt><trkpt lat="43.6170111" lon="12.547759"><ele>384.0</ele><time>2026-05-03T08:44:49.779Z</time></trkpt><trkpt lat="43.6169865" lon="12.5476537"><ele>384.0</ele><time>2026-05-03T08:44:50.78Z</time></trkpt><trkpt lat="43.6169751" lon="12.5475615"><ele>384.0</ele><time>2026-05-03T08:44:51.779Z</time></trkpt><trkpt lat="43.6170052" lon="12.5474614"><ele>384.0</ele><time>2026-05-03T08:44:53.779Z</time></trkpt><trkpt lat="43.6170707" lon="12.547469"><ele>384.0</ele><time>2026-05-03T08:44:55.78Z</time></trkpt><trkpt lat="43.6171469" lon="12.5475396"><ele>384.0</ele><time>2026-05-03T08:44:57.779Z</time></trkpt><trkpt lat="43.6172368" lon="12.5476247"><ele>384.0</ele><time>2026-05-03T08:44:59.78Z</time></trkpt><trkpt lat="43.6173395" lon="12.547683"><ele>386.4</ele><time>2026-05-03T08:45:01.78Z</time></trkpt><trkpt lat="43.6174486" lon="12.5477009"><ele>388.79999999999995</ele><time>2026-05-03T08:45:03.778Z</time></trkpt><trkpt lat="43.6175397" lon="12.547696"><ele>391.20000000000005</ele><time>2026-05-03T08:45:05.779Z</time></trkpt><trkpt lat="43.617627" lon="12.5477149"><ele>393.6</ele><time>2026-05-03T08:45:07.779Z</time></trkpt><trkpt lat="43.6176996" lon="12.5477902"><ele>396.0</ele><time>2026-05-03T08:45:38.779Z</time></trkpt><trkpt lat="43.6177804" lon="12.5478157"><ele>394.6666666666667</ele><time>2026-05-03T08:45:40.779Z</time></trkpt><trkpt lat="43.6178438" lon="12.5478012"><ele>393.33333333333337</ele><time>2026-05-03T08:45:41.78Z</time></trkpt><trkpt lat="43.6179339" lon="12.5476874"><ele>392.0</ele><time>2026-05-03T08:45:43.78Z</time></trkpt><trkpt lat="43.6179673" lon="12.5476077"><ele>390.6666666666667</ele><time>2026-05-03T08:45:44.78Z</time></trkpt><trkpt lat="43.6179908" lon="12.5475153"><ele>389.33333333333337</ele><time>2026-05-03T08:45:45.778Z</time></trkpt><trkpt lat="43.6180122" lon="12.5474128"><ele>388.0</ele><time>2026-05-03T08:45:46.778Z</time></trkpt><trkpt lat="43.6180437" lon="12.5472952"><ele>388.0</ele><time>2026-05-03T08:45:47.78Z</time></trkpt><trkpt lat="43.6180737" lon="12.5471817"><ele>388.0</ele><time>2026-05-03T08:45:48.779Z</time></trkpt><trkpt lat="43.6181228" lon="12.5470717"><ele>388.0</ele><time>2026-05-03T08:45:49.778Z</time></trkpt><trkpt lat="43.6181896" lon="12.5469485"><ele>388.0</ele><time>2026-05-03T08:45:50.779Z</time></trkpt><trkpt lat="43.6182668" lon="12.546828"><ele>388.0</ele><time>2026-05-03T08:45:51.78Z</time></trkpt><trkpt lat="43.6183592" lon="12.5467049"><ele>389.5</ele><time>2026-05-03T08:45:52.78Z</time></trkpt><trkpt lat="43.6184606" lon="12.5465725"><ele>391.0</ele><time>2026-05-03T08:45:53.779Z</time></trkpt><trkpt lat="43.6185632" lon="12.5464405"><ele>392.5</ele><time>2026-05-03T08:45:54.778Z</time></trkpt><trkpt lat="43.6186645" lon="12.5463163"><ele>394.0</ele><time>2026-05-03T08:45:55.78Z</time></trkpt><trkpt lat="43.6187707" lon="12.5462017"><ele>399.25</ele><time>2026-05-03T08:45:56.78Z</time></trkpt><trkpt lat="43.6188817" lon="12.5460944"><ele>404.5</ele><time>2026-05-03T08:45:57.779Z</time></trkpt><trkpt lat="43.6190006" lon="12.5459867"><ele>409.75</ele><time>2026-05-03T08:45:58.779Z</time></trkpt><trkpt lat="43.6191242" lon="12.5458824"><ele>415.0</ele><time>2026-05-03T08:45:59.779Z</time></trkpt><trkpt lat="43.6192362" lon="12.5457913"><ele>415.0</ele><time>2026-05-03T08:46:00.779Z</time></trkpt><trkpt lat="43.6193499" lon="12.5456985"><ele>415.0</ele><time>2026-05-03T08:46:01.778Z</time></trkpt><trkpt lat="43.6194627" lon="12.5456179"><ele>415.0</ele><time>2026-05-03T08:46:02.778Z</time></trkpt><trkpt lat="43.6195806" lon="12.5455498"><ele>415.0</ele><time>2026-05-03T08:46:03.779Z</time></trkpt><trkpt lat="43.6197072" lon="12.5454975"><ele>413.8</ele><time>2026-05-03T08:46:04.779Z</time></trkpt><trkpt lat="43.6198197" lon="12.5454587"><ele>412.6</ele><time>2026-05-03T08:46:05.778Z</time></trkpt><trkpt lat="43.6199247" lon="12.5454356"><ele>411.4</ele><time>2026-05-03T08:46:06.779Z</time></trkpt><trkpt lat="43.6200277" lon="12.5454359"><ele>410.2</ele><time>2026-05-03T08:46:07.779Z</time></trkpt><trkpt lat="43.6201261" lon="12.5454724"><ele>409.0</ele><time>2026-05-03T08:46:08.779Z</time></trkpt><trkpt lat="43.6202311" lon="12.5455519"><ele>409.6666666666667</ele><time>2026-05-03T08:46:09.779Z</time></trkpt><trkpt lat="43.6203435" lon="12.5456696"><ele>410.33333333333337</ele><time>2026-05-03T08:46:10.779Z</time></trkpt><trkpt lat="43.6204658" lon="12.545806"><ele>411.0</ele><time>2026-05-03T08:46:11.779Z</time></trkpt><trkpt lat="43.6205901" lon="12.5459408"><ele>411.0</ele><time>2026-05-03T08:46:12.779Z</time></trkpt><trkpt lat="43.6207119" lon="12.546069"><ele>411.0</ele><time>2026-05-03T08:46:13.779Z</time></trkpt><trkpt lat="43.6208225" lon="12.5461863"><ele>411.0</ele><time>2026-05-03T08:46:14.779Z</time></trkpt><trkpt lat="43.6209209" lon="12.5462895"><ele>411.0</ele><time>2026-05-03T08:46:15.779Z</time></trkpt><trkpt lat="43.62101" lon="12.5463725"><ele>410.1666666666667</ele><time>2026-05-03T08:46:16.779Z</time></trkpt><trkpt lat="43.621096" lon="12.5464261"><ele>409.33333333333337</ele><time>2026-05-03T08:46:17.78Z</time></trkpt><trkpt lat="43.6211805" lon="12.5464461"><ele>408.5</ele><time>2026-05-03T08:46:18.778Z</time></trkpt><trkpt lat="43.6212585" lon="12.5464309"><ele>407.6666666666667</ele><time>2026-05-03T08:46:19.779Z</time></trkpt><trkpt lat="43.6213304" lon="12.5463799"><ele>406.83333333333337</ele><time>2026-05-03T08:46:20.779Z</time></trkpt><trkpt lat="43.6214029" lon="12.5462967"><ele>406.0</ele><time>2026-05-03T08:46:21.779Z</time></trkpt><trkpt lat="43.6214869" lon="12.5461987"><ele>409.5</ele><time>2026-05-03T08:46:22.779Z</time></trkpt><trkpt lat="43.6215777" lon="12.5460914"><ele>413.0</ele><time>2026-05-03T08:46:23.779Z</time></trkpt><trkpt lat="43.6216698" lon="12.5459863"><ele>416.5</ele><time>2026-05-03T08:46:24.779Z</time></trkpt><trkpt lat="43.621768" lon="12.5458966"><ele>420.0</ele><time>2026-05-03T08:46:25.779Z</time></trkpt><trkpt lat="43.6218819" lon="12.5458236"><ele>423.25</ele><time>2026-05-03T08:46:26.778Z</time></trkpt><trkpt lat="43.6220079" lon="12.5457511"><ele>426.5</ele><time>2026-05-03T08:46:27.778Z</time></trkpt><trkpt lat="43.6221315" lon="12.5456744"><ele>429.75</ele><time>2026-05-03T08:46:28.778Z</time></trkpt><trkpt lat="43.6222397" lon="12.5455861"><ele>433.0</ele><time>2026-05-03T08:46:29.779Z</time></trkpt><trkpt lat="43.6223448" lon="12.545477"><ele>435.6666666666667</ele><time>2026-05-03T08:46:30.779Z</time></trkpt><trkpt lat="43.6224316" lon="12.5453351"><ele>438.33333333333337</ele><time>2026-05-03T08:46:31.778Z</time></trkpt><trkpt lat="43.6225199" lon="12.5451622"><ele>441.0</ele><time>2026-05-03T08:46:32.779Z</time></trkpt><trkpt lat="43.6226129" lon="12.5449727"><ele>441.0</ele><time>2026-05-03T08:46:33.779Z</time></trkpt><trkpt lat="43.6227054" lon="12.5447747"><ele>441.0</ele><time>2026-05-03T08:46:34.778Z</time></trkpt><trkpt lat="43.6227983" lon="12.5445684"><ele>441.0</ele><time>2026-05-03T08:46:35.778Z</time></trkpt><trkpt lat="43.6228856" lon="12.5443724"><ele>445.33333333333337</ele><time>2026-05-03T08:46:36.779Z</time></trkpt><trkpt lat="43.6229712" lon="12.5441851"><ele>449.6666666666667</ele><time>2026-05-03T08:46:37.778Z</time></trkpt><trkpt lat="43.623053" lon="12.5440093"><ele>454.0</ele><time>2026-05-03T08:46:38.779Z</time></trkpt><trkpt lat="43.6231309" lon="12.5438451"><ele>455.0</ele><time>2026-05-03T08:46:39.779Z</time></trkpt><trkpt lat="43.6232013" lon="12.5436877"><ele>456.0</ele><time>2026-05-03T08:46:40.778Z</time></trkpt><trkpt lat="43.6232658" lon="12.5435392"><ele>457.0</ele><time>2026-05-03T08:46:41.78Z</time></trkpt><trkpt lat="43.6233267" lon="12.5434018"><ele>458.0</ele><time>2026-05-03T08:46:42.778Z</time></trkpt><trkpt lat="43.6233887" lon="12.5432698"><ele>458.0</ele><time>2026-05-03T08:46:43.78Z</time></trkpt><trkpt lat="43.6234449" lon="12.5431434"><ele>457.99999999999994</ele><time>2026-05-03T08:46:44.779Z</time></trkpt><trkpt lat="43.623494" lon="12.5430174"><ele>457.99999999999994</ele><time>2026-05-03T08:46:45.779Z</time></trkpt><trkpt lat="43.6235317" lon="12.5428992"><ele>458.0</ele><time>2026-05-03T08:46:46.779Z</time></trkpt><trkpt lat="43.6235634" lon="12.5427901"><ele>458.0</ele><time>2026-05-03T08:46:47.779Z</time></trkpt><trkpt lat="43.6235944" lon="12.5426916"><ele>458.16666666666663</ele><time>2026-05-03T08:46:48.78Z</time></trkpt><trkpt lat="43.6236275" lon="12.5426091"><ele>458.3333333333333</ele><time>2026-05-03T08:46:49.779Z</time></trkpt><trkpt lat="43.6237316" lon="12.542534"><ele>458.5</ele><time>2026-05-03T08:46:51.779Z</time></trkpt><trkpt lat="43.6237954" lon="12.5425332"><ele>458.66666666666663</ele><time>2026-05-03T08:46:52.779Z</time></trkpt><trkpt lat="43.6238739" lon="12.5425394"><ele>458.8333333333333</ele><time>2026-05-03T08:46:53.779Z</time></trkpt><trkpt lat="43.6239596" lon="12.5425309"><ele>459.0</ele><time>2026-05-03T08:46:54.778Z</time></trkpt><trkpt lat="43.6240503" lon="12.5424981"><ele>458.4</ele><time>2026-05-03T08:46:55.778Z</time></trkpt><trkpt lat="43.6241424" lon="12.5424448"><ele>457.79999999999995</ele><time>2026-05-03T08:46:56.778Z</time></trkpt><trkpt lat="43.6242328" lon="12.542375"><ele>457.20000000000005</ele><time>2026-05-03T08:46:57.779Z</time></trkpt><trkpt lat="43.6243142" lon="12.5422859"><ele>456.6</ele><time>2026-05-03T08:46:58.78Z</time></trkpt><trkpt lat="43.6243911" lon="12.5421843"><ele>456.0</ele><time>2026-05-03T08:46:59.779Z</time></trkpt><trkpt lat="43.6244709" lon="12.542085"><ele>453.20000000000005</ele><time>2026-05-03T08:47:00.78Z</time></trkpt><trkpt lat="43.6245514" lon="12.5419803"><ele>450.40000000000003</ele><time>2026-05-03T08:47:01.778Z</time></trkpt><trkpt lat="43.6246304" lon="12.5418725"><ele>447.6</ele><time>2026-05-03T08:47:02.779Z</time></trkpt><trkpt lat="43.6247093" lon="12.5417656"><ele>444.8</ele><time>2026-05-03T08:47:03.778Z</time></trkpt><trkpt lat="43.6247863" lon="12.541655"><ele>442.0</ele><time>2026-05-03T08:47:04.78Z</time></trkpt><trkpt lat="43.6248584" lon="12.541543"><ele>442.0</ele><time>2026-05-03T08:47:05.779Z</time></trkpt><trkpt lat="43.6249233" lon="12.5414257"><ele>442.00000000000006</ele><time>2026-05-03T08:47:06.778Z</time></trkpt><trkpt lat="43.6249815" lon="12.5413008"><ele>442.00000000000006</ele><time>2026-05-03T08:47:07.779Z</time></trkpt><trkpt lat="43.6250424" lon="12.541178"><ele>442.0</ele><time>2026-05-03T08:47:08.779Z</time></trkpt><trkpt lat="43.6250951" lon="12.5410611"><ele>442.0</ele><time>2026-05-03T08:47:09.779Z</time></trkpt><trkpt lat="43.6251445" lon="12.5409546"><ele>440.00000000000006</ele><time>2026-05-03T08:47:10.779Z</time></trkpt><trkpt lat="43.6251849" lon="12.5408493"><ele>438.0</ele><time>2026-05-03T08:47:11.779Z</time></trkpt><trkpt lat="43.6252208" lon="12.5407429"><ele>436.0</ele><time>2026-05-03T08:47:12.778Z</time></trkpt><trkpt lat="43.625246" lon="12.5406441"><ele>434.0</ele><time>2026-05-03T08:47:13.779Z</time></trkpt><trkpt lat="43.6252749" lon="12.540551"><ele>432.00000000000006</ele><time>2026-05-03T08:47:14.78Z</time></trkpt><trkpt lat="43.6253151" lon="12.5404714"><ele>430.0</ele><time>2026-05-03T08:47:15.779Z</time></trkpt><trkpt lat="43.6253689" lon="12.5404018"><ele>426.1666666666667</ele><time>2026-05-03T08:47:16.779Z</time></trkpt><trkpt lat="43.6254318" lon="12.5403555"><ele>422.33333333333337</ele><time>2026-05-03T08:47:17.78Z</time></trkpt><trkpt lat="43.6254981" lon="12.5403084"><ele>418.5</ele><time>2026-05-03T08:47:18.78Z</time></trkpt><trkpt lat="43.6255713" lon="12.5402581"><ele>414.66666666666663</ele><time>2026-05-03T08:47:19.779Z</time></trkpt><trkpt lat="43.6256447" lon="12.5401988"><ele>410.8333333333333</ele><time>2026-05-03T08:47:20.779Z</time></trkpt><trkpt lat="43.6257184" lon="12.5401263"><ele>407.0</ele><time>2026-05-03T08:47:21.779Z</time></trkpt><trkpt lat="43.6257928" lon="12.5400439"><ele>407.0</ele><time>2026-05-03T08:47:22.778Z</time></trkpt><trkpt lat="43.6258684" lon="12.5399567"><ele>407.0</ele><time>2026-05-03T08:47:23.779Z</time></trkpt><trkpt lat="43.6259441" lon="12.539861"><ele>407.0</ele><time>2026-05-03T08:47:24.78Z</time></trkpt><trkpt lat="43.6260217" lon="12.5397663"><ele>407.0</ele><time>2026-05-03T08:47:25.778Z</time></trkpt><trkpt lat="43.6261004" lon="12.539674"><ele>407.0</ele><time>2026-05-03T08:47:26.778Z</time></trkpt><trkpt lat="43.626178" lon="12.5395772"><ele>404.6</ele><time>2026-05-03T08:47:27.778Z</time></trkpt><trkpt lat="43.6262498" lon="12.5394804"><ele>402.20000000000005</ele><time>2026-05-03T08:47:28.78Z</time></trkpt><trkpt lat="43.6263197" lon="12.5393832"><ele>399.8</ele><time>2026-05-03T08:47:29.78Z</time></trkpt><trkpt lat="43.6263948" lon="12.5393009"><ele>397.4</ele><time>2026-05-03T08:47:30.78Z</time></trkpt><trkpt lat="43.6264717" lon="12.5392266"><ele>395.0</ele><time>2026-05-03T08:47:31.78Z</time></trkpt><trkpt lat="43.6265523" lon="12.5391569"><ele>394.99999999999994</ele><time>2026-05-03T08:47:32.779Z</time></trkpt><trkpt lat="43.6266349" lon="12.539095"><ele>395.0</ele><time>2026-05-03T08:47:33.779Z</time></trkpt><trkpt lat="43.62671" lon="12.5390359"><ele>395.0</ele><time>2026-05-03T08:47:34.778Z</time></trkpt><trkpt lat="43.6267795" lon="12.5389794"><ele>395.0</ele><time>2026-05-03T08:47:35.779Z</time></trkpt><trkpt lat="43.6268417" lon="12.5389182"><ele>394.99999999999994</ele><time>2026-05-03T08:47:36.778Z</time></trkpt><trkpt lat="43.6268953" lon="12.5388379"><ele>395.0</ele><time>2026-05-03T08:47:37.779Z</time></trkpt><trkpt lat="43.6269401" lon="12.5387403"><ele>392.6</ele><time>2026-05-03T08:47:38.779Z</time></trkpt><trkpt lat="43.6269781" lon="12.5386279"><ele>390.2</ele><time>2026-05-03T08:47:39.779Z</time></trkpt><trkpt lat="43.6270149" lon="12.5385023"><ele>387.79999999999995</ele><time>2026-05-03T08:47:40.779Z</time></trkpt><trkpt lat="43.6270527" lon="12.5383679"><ele>385.4</ele><time>2026-05-03T08:47:41.779Z</time></trkpt><trkpt lat="43.6270936" lon="12.5382292"><ele>383.0</ele><time>2026-05-03T08:47:42.78Z</time></trkpt><trkpt lat="43.6271395" lon="12.5380905"><ele>383.0</ele><time>2026-05-03T08:47:43.778Z</time></trkpt><trkpt lat="43.6271845" lon="12.5379565"><ele>383.0</ele><time>2026-05-03T08:47:44.778Z</time></trkpt><trkpt lat="43.6272321" lon="12.5378237"><ele>383.0</ele><time>2026-05-03T08:47:45.778Z</time></trkpt><trkpt lat="43.6272839" lon="12.5376944"><ele>383.0</ele><time>2026-05-03T08:47:46.779Z</time></trkpt><trkpt lat="43.6273392" lon="12.5375711"><ele>383.0</ele><time>2026-05-03T08:47:47.779Z</time></trkpt><trkpt lat="43.6273963" lon="12.5374512"><ele>383.2</ele><time>2026-05-03T08:47:48.779Z</time></trkpt><trkpt lat="43.627453" lon="12.5373355"><ele>383.4</ele><time>2026-05-03T08:47:49.779Z</time></trkpt><trkpt lat="43.6275105" lon="12.5372225"><ele>383.59999999999997</ele><time>2026-05-03T08:47:50.779Z</time></trkpt><trkpt lat="43.6275653" lon="12.5371144"><ele>383.79999999999995</ele><time>2026-05-03T08:47:51.778Z</time></trkpt><trkpt lat="43.6276231" lon="12.5370108"><ele>384.0</ele><time>2026-05-03T08:47:52.778Z</time></trkpt><trkpt lat="43.6276783" lon="12.5369121"><ele>383.0</ele><time>2026-05-03T08:47:53.779Z</time></trkpt><trkpt lat="43.6277297" lon="12.5368153"><ele>382.0</ele><time>2026-05-03T08:47:54.78Z</time></trkpt><trkpt lat="43.6277725" lon="12.5367153"><ele>381.0</ele><time>2026-05-03T08:47:55.779Z</time></trkpt><trkpt lat="43.6278173" lon="12.536615"><ele>380.0</ele><time>2026-05-03T08:47:56.778Z</time></trkpt><trkpt lat="43.6278656" lon="12.5365149"><ele>379.0</ele><time>2026-05-03T08:47:57.779Z</time></trkpt><trkpt lat="43.6279194" lon="12.53642"><ele>378.0</ele><time>2026-05-03T08:47:58.78Z</time></trkpt><trkpt lat="43.6279758" lon="12.5363274"><ele>378.0</ele><time>2026-05-03T08:47:59.779Z</time></trkpt><trkpt lat="43.6280362" lon="12.5362409"><ele>378.0</ele><time>2026-05-03T08:48:00.779Z</time></trkpt><trkpt lat="43.6280933" lon="12.5361523"><ele>378.0</ele><time>2026-05-03T08:48:01.78Z</time></trkpt><trkpt lat="43.628155" lon="12.5360633"><ele>378.0</ele><time>2026-05-03T08:48:02.778Z</time></trkpt><trkpt lat="43.6282179" lon="12.5359766"><ele>378.0</ele><time>2026-05-03T08:48:03.779Z</time></trkpt><trkpt lat="43.6282851" lon="12.5358913"><ele>378.0</ele><time>2026-05-03T08:48:04.78Z</time></trkpt><trkpt lat="43.6283483" lon="12.5358162"><ele>375.5</ele><time>2026-05-03T08:48:05.78Z</time></trkpt><trkpt lat="43.6284098" lon="12.5357557"><ele>373.0</ele><time>2026-05-03T08:48:06.779Z</time></trkpt><trkpt lat="43.6284698" lon="12.5356978"><ele>370.5</ele><time>2026-05-03T08:48:07.779Z</time></trkpt><trkpt lat="43.6285261" lon="12.535656"><ele>368.0</ele><time>2026-05-03T08:48:08.78Z</time></trkpt><trkpt lat="43.6286066" lon="12.5355997"><ele>365.5</ele><time>2026-05-03T08:48:10.78Z</time></trkpt><trkpt lat="43.6286518" lon="12.5355306"><ele>363.0</ele><time>2026-05-03T08:48:42.778Z</time></trkpt><trkpt lat="43.6285961" lon="12.5354405"><ele>362.6666666666667</ele><time>2026-05-03T08:48:58.778Z</time></trkpt><trkpt lat="43.6285171" lon="12.5353377"><ele>362.3333333333333</ele><time>2026-05-03T08:49:00.778Z</time></trkpt><trkpt lat="43.6284638" lon="12.5352833"><ele>362.0</ele><time>2026-05-03T08:49:01.778Z</time></trkpt><trkpt lat="43.6284037" lon="12.5352159"><ele>361.66666666666663</ele><time>2026-05-03T08:49:02.777Z</time></trkpt><trkpt lat="43.6283463" lon="12.5351491"><ele>361.3333333333333</ele><time>2026-05-03T08:49:03.777Z</time></trkpt><trkpt lat="43.6282904" lon="12.5350762"><ele>361.0</ele><time>2026-05-03T08:49:04.778Z</time></trkpt><trkpt lat="43.6282336" lon="12.5350042"><ele>361.0</ele><time>2026-05-03T08:49:05.778Z</time></trkpt><trkpt lat="43.6281756" lon="12.5349252"><ele>361.0</ele><time>2026-05-03T08:49:06.778Z</time></trkpt><trkpt lat="43.6281192" lon="12.5348453"><ele>361.0</ele><time>2026-05-03T08:49:07.778Z</time></trkpt><trkpt lat="43.628062" lon="12.5347608"><ele>361.0</ele><time>2026-05-03T08:49:08.779Z</time></trkpt><trkpt lat="43.6280083" lon="12.5346743"><ele>361.0</ele><time>2026-05-03T08:49:09.777Z</time></trkpt><trkpt lat="43.627965" lon="12.5345876"><ele>361.0</ele><time>2026-05-03T08:49:10.777Z</time></trkpt><trkpt lat="43.6279418" lon="12.5344992"><ele>362.5</ele><time>2026-05-03T08:49:11.778Z</time></trkpt><trkpt lat="43.627945" lon="12.5344072"><ele>364.0</ele><time>2026-05-03T08:49:12.777Z</time></trkpt><trkpt lat="43.6279777" lon="12.5343295"><ele>365.5</ele><time>2026-05-03T08:49:13.778Z</time></trkpt><trkpt lat="43.6280417" lon="12.534268"><ele>367.0</ele><time>2026-05-03T08:49:14.778Z</time></trkpt><trkpt lat="43.6281199" lon="12.5342112"><ele>368.5</ele><time>2026-05-03T08:49:15.778Z</time></trkpt><trkpt lat="43.6281967" lon="12.5341365"><ele>370.0</ele><time>2026-05-03T08:49:16.778Z</time></trkpt><trkpt lat="43.6282616" lon="12.5340373"><ele>370.0</ele><time>2026-05-03T08:49:17.777Z</time></trkpt><trkpt lat="43.6283156" lon="12.5339242"><ele>370.0</ele><time>2026-05-03T08:49:18.778Z</time></trkpt><trkpt lat="43.6283577" lon="12.5337989"><ele>370.0</ele><time>2026-05-03T08:49:19.778Z</time></trkpt><trkpt lat="43.6284012" lon="12.5336681"><ele>370.0</ele><time>2026-05-03T08:49:20.778Z</time></trkpt><trkpt lat="43.6284747" lon="12.5335483"><ele>370.0</ele><time>2026-05-03T08:49:21.778Z</time></trkpt><trkpt lat="43.6285856" lon="12.5334391"><ele>377.0</ele><time>2026-05-03T08:49:22.778Z</time></trkpt><trkpt lat="43.6287283" lon="12.5333494"><ele>384.0</ele><time>2026-05-03T08:49:23.778Z</time></trkpt><trkpt lat="43.6288946" lon="12.5332688"><ele>391.0</ele><time>2026-05-03T08:49:24.777Z</time></trkpt><trkpt lat="43.6290301" lon="12.5332022"><ele>391.0</ele><time>2026-05-03T08:49:25.778Z</time></trkpt><trkpt lat="43.6291484" lon="12.5331508"><ele>391.0</ele><time>2026-05-03T08:49:26.778Z</time></trkpt><trkpt lat="43.6292444" lon="12.5331117"><ele>391.0</ele><time>2026-05-03T08:49:27.778Z</time></trkpt><trkpt lat="43.6293151" lon="12.5330811"><ele>391.0</ele><time>2026-05-03T08:49:28.779Z</time></trkpt><trkpt lat="43.6293771" lon="12.5330171"><ele>391.0</ele><time>2026-05-03T08:49:30.778Z</time></trkpt><trkpt lat="43.6294499" lon="12.5329151"><ele>389.6</ele><time>2026-05-03T08:49:33.777Z</time></trkpt><trkpt lat="43.629538" lon="12.5327764"><ele>388.20000000000005</ele><time>2026-05-03T08:49:35.778Z</time></trkpt><trkpt lat="43.6295602" lon="12.5326583"><ele>386.79999999999995</ele><time>2026-05-03T08:49:36.778Z</time></trkpt><trkpt lat="43.6295677" lon="12.5325197"><ele>385.4</ele><time>2026-05-03T08:49:37.777Z</time></trkpt><trkpt lat="43.6295593" lon="12.5323709"><ele>384.0</ele><time>2026-05-03T08:49:38.778Z</time></trkpt><trkpt lat="43.6295187" lon="12.5322324"><ele>383.4</ele><time>2026-05-03T08:49:39.778Z</time></trkpt><trkpt lat="43.6294712" lon="12.532111"><ele>382.79999999999995</ele><time>2026-05-03T08:49:40.778Z</time></trkpt><trkpt lat="43.6294109" lon="12.532019"><ele>382.20000000000005</ele><time>2026-05-03T08:49:41.777Z</time></trkpt><trkpt lat="43.6293275" lon="12.5319398"><ele>381.6</ele><time>2026-05-03T08:49:42.778Z</time></trkpt><trkpt lat="43.6292294" lon="12.5318599"><ele>381.0</ele><time>2026-05-03T08:49:43.778Z</time></trkpt><trkpt lat="43.6291327" lon="12.5317636"><ele>381.0</ele><time>2026-05-03T08:49:44.778Z</time></trkpt><trkpt lat="43.6290431" lon="12.5316406"><ele>381.0</ele><time>2026-05-03T08:49:45.778Z</time></trkpt><trkpt lat="43.6289691" lon="12.5314962"><ele>381.0</ele><time>2026-05-03T08:49:46.779Z</time></trkpt><trkpt lat="43.6289072" lon="12.5313305"><ele>381.0</ele><time>2026-05-03T08:49:47.778Z</time></trkpt><trkpt lat="43.6288544" lon="12.5311481"><ele>375.6666666666667</ele><time>2026-05-03T08:49:48.779Z</time></trkpt><trkpt lat="43.6287981" lon="12.5309454"><ele>370.33333333333337</ele><time>2026-05-03T08:49:49.778Z</time></trkpt><trkpt lat="43.628746" lon="12.5307505"><ele>365.0</ele><time>2026-05-03T08:49:50.777Z</time></trkpt><trkpt lat="43.628695" lon="12.5305636"><ele>365.0</ele><time>2026-05-03T08:49:51.778Z</time></trkpt><trkpt lat="43.6286476" lon="12.5303882"><ele>365.0</ele><time>2026-05-03T08:49:52.778Z</time></trkpt><trkpt lat="43.6285891" lon="12.5302072"><ele>365.0</ele><time>2026-05-03T08:49:53.778Z</time></trkpt><trkpt lat="43.6285417" lon="12.5300626"><ele>365.0</ele><time>2026-05-03T08:49:54.778Z</time></trkpt><trkpt lat="43.6284939" lon="12.5299099"><ele>367.0</ele><time>2026-05-03T08:49:55.778Z</time></trkpt><trkpt lat="43.6284546" lon="12.5297779"><ele>369.0</ele><time>2026-05-03T08:49:56.777Z</time></trkpt><trkpt lat="43.6284227" lon="12.5296522"><ele>371.0</ele><time>2026-05-03T08:49:57.778Z</time></trkpt><trkpt lat="43.6284144" lon="12.5295297"><ele>373.0</ele><time>2026-05-03T08:49:58.778Z</time></trkpt><trkpt lat="43.6284194" lon="12.5293971"><ele>375.0</ele><time>2026-05-03T08:49:59.778Z</time></trkpt><trkpt lat="43.6284329" lon="12.5292569"><ele>375.0</ele><time>2026-05-03T08:50:00.779Z</time></trkpt><trkpt lat="43.6284505" lon="12.5291075"><ele>375.0</ele><time>2026-05-03T08:50:01.778Z</time></trkpt><trkpt lat="43.6284662" lon="12.5289537"><ele>375.0</ele><time>2026-05-03T08:50:02.778Z</time></trkpt><trkpt lat="43.6284774" lon="12.528809"><ele>375.0</ele><time>2026-05-03T08:50:03.778Z</time></trkpt><trkpt lat="43.6284769" lon="12.5286836"><ele>375.0</ele><time>2026-05-03T08:50:04.778Z</time></trkpt><trkpt lat="43.6284521" lon="12.5285584"><ele>376.0</ele><time>2026-05-03T08:50:05.777Z</time></trkpt><trkpt lat="43.6284019" lon="12.5284557"><ele>377.0</ele><time>2026-05-03T08:50:06.778Z</time></trkpt><trkpt lat="43.6283248" lon="12.5283721"><ele>378.0</ele><time>2026-05-03T08:50:07.778Z</time></trkpt><trkpt lat="43.6282325" lon="12.5283049"><ele>379.0</ele><time>2026-05-03T08:50:08.778Z</time></trkpt><trkpt lat="43.6281353" lon="12.5282549"><ele>380.0</ele><time>2026-05-03T08:50:09.778Z</time></trkpt><trkpt lat="43.6280432" lon="12.5282173"><ele>380.0</ele><time>2026-05-03T08:50:10.778Z</time></trkpt><trkpt lat="43.6279615" lon="12.5281702"><ele>380.0</ele><time>2026-05-03T08:50:11.777Z</time></trkpt><trkpt lat="43.6279009" lon="12.5281152"><ele>380.0</ele><time>2026-05-03T08:50:12.777Z</time></trkpt><trkpt lat="43.6278506" lon="12.528046"><ele>380.0</ele><time>2026-05-03T08:50:13.778Z</time></trkpt><trkpt lat="43.6278101" lon="12.5279611"><ele>380.0</ele><time>2026-05-03T08:50:14.778Z</time></trkpt><trkpt lat="43.6277893" lon="12.5278501"><ele>380.0</ele><time>2026-05-03T08:50:15.777Z</time></trkpt><trkpt lat="43.6277826" lon="12.5277153"><ele>379.75</ele><time>2026-05-03T08:50:16.778Z</time></trkpt><trkpt lat="43.6277892" lon="12.5275617"><ele>379.5</ele><time>2026-05-03T08:50:17.778Z</time></trkpt><trkpt lat="43.6278008" lon="12.52739"><ele>379.25</ele><time>2026-05-03T08:50:18.778Z</time></trkpt><trkpt lat="43.627814" lon="12.5272141"><ele>379.0</ele><time>2026-05-03T08:50:19.777Z</time></trkpt><trkpt lat="43.627828" lon="12.5270364"><ele>381.4</ele><time>2026-05-03T08:50:20.778Z</time></trkpt><trkpt lat="43.6278437" lon="12.5268723"><ele>383.79999999999995</ele><time>2026-05-03T08:50:21.778Z</time></trkpt><trkpt lat="43.6278572" lon="12.526731"><ele>386.20000000000005</ele><time>2026-05-03T08:50:22.777Z</time></trkpt><trkpt lat="43.6278686" lon="12.5266055"><ele>388.6</ele><time>2026-05-03T08:50:23.779Z</time></trkpt><trkpt lat="43.6278881" lon="12.5264933"><ele>391.0</ele><time>2026-05-03T08:50:24.778Z</time></trkpt><trkpt lat="43.6279235" lon="12.526391"><ele>391.0</ele><time>2026-05-03T08:50:25.778Z</time></trkpt><trkpt lat="43.6279771" lon="12.5263301"><ele>391.0</ele><time>2026-05-03T08:50:26.778Z</time></trkpt><trkpt lat="43.6280558" lon="12.526286"><ele>391.0</ele><time>2026-05-03T08:50:27.777Z</time></trkpt><trkpt lat="43.628161" lon="12.5262432"><ele>391.0</ele><time>2026-05-03T08:50:28.779Z</time></trkpt><trkpt lat="43.6282813" lon="12.5261957"><ele>391.0</ele><time>2026-05-03T08:50:29.779Z</time></trkpt><trkpt lat="43.6283861" lon="12.5261503"><ele>392.33333333333337</ele><time>2026-05-03T08:50:30.778Z</time></trkpt><trkpt lat="43.6284733" lon="12.5261071"><ele>393.6666666666667</ele><time>2026-05-03T08:50:31.778Z</time></trkpt><trkpt lat="43.6285437" lon="12.5260588"><ele>395.0</ele><time>2026-05-03T08:50:32.779Z</time></trkpt><trkpt lat="43.6285899" lon="12.5259894"><ele>396.33333333333337</ele><time>2026-05-03T08:50:33.777Z</time></trkpt><trkpt lat="43.6286155" lon="12.5258969"><ele>397.6666666666667</ele><time>2026-05-03T08:50:34.778Z</time></trkpt><trkpt lat="43.6286143" lon="12.5257987"><ele>399.0</ele><time>2026-05-03T08:50:35.778Z</time></trkpt><trkpt lat="43.6285949" lon="12.525698"><ele>399.0</ele><time>2026-05-03T08:50:36.779Z</time></trkpt><trkpt lat="43.6285403" lon="12.5256087"><ele>399.0</ele><time>2026-05-03T08:50:37.779Z</time></trkpt><trkpt lat="43.6284705" lon="12.5255541"><ele>399.0</ele><time>2026-05-03T08:50:38.777Z</time></trkpt><trkpt lat="43.6283835" lon="12.5255165"><ele>399.0</ele><time>2026-05-03T08:50:39.778Z</time></trkpt><trkpt lat="43.62829" lon="12.5254784"><ele>399.0</ele><time>2026-05-03T08:50:40.778Z</time></trkpt><trkpt lat="43.6282166" lon="12.5254343"><ele>399.0</ele><time>2026-05-03T08:50:41.779Z</time></trkpt><trkpt lat="43.6281587" lon="12.5253943"><ele>399.8333333333333</ele><time>2026-05-03T08:50:42.777Z</time></trkpt><trkpt lat="43.6280734" lon="12.5253503"><ele>400.66666666666663</ele><time>2026-05-03T08:50:44.778Z</time></trkpt><trkpt lat="43.6280035" lon="12.5253332"><ele>401.5</ele><time>2026-05-03T08:51:11.777Z</time></trkpt><trkpt lat="43.6278884" lon="12.5253203"><ele>402.3333333333333</ele><time>2026-05-03T08:51:13.778Z</time></trkpt><trkpt lat="43.6278255" lon="12.5253044"><ele>403.16666666666663</ele><time>2026-05-03T08:51:14.778Z</time></trkpt><trkpt lat="43.627759" lon="12.5252808"><ele>404.0</ele><time>2026-05-03T08:51:15.778Z</time></trkpt><trkpt lat="43.6276847" lon="12.52526"><ele>403.99999999999994</ele><time>2026-05-03T08:51:16.779Z</time></trkpt><trkpt lat="43.6276042" lon="12.5252501"><ele>404.0</ele><time>2026-05-03T08:51:17.778Z</time></trkpt><trkpt lat="43.6275188" lon="12.5252475"><ele>404.0</ele><time>2026-05-03T08:51:18.779Z</time></trkpt><trkpt lat="43.6274289" lon="12.5252532"><ele>404.0</ele><time>2026-05-03T08:51:19.779Z</time></trkpt><trkpt lat="43.6273393" lon="12.5252623"><ele>403.99999999999994</ele><time>2026-05-03T08:51:20.778Z</time></trkpt><trkpt lat="43.6272513" lon="12.525273"><ele>404.0</ele><time>2026-05-03T08:51:21.777Z</time></trkpt><trkpt lat="43.6271633" lon="12.5252791"><ele>403.99999999999994</ele><time>2026-05-03T08:51:22.777Z</time></trkpt><trkpt lat="43.6270724" lon="12.5252867"><ele>404.0</ele><time>2026-05-03T08:51:23.778Z</time></trkpt><trkpt lat="43.6269849" lon="12.5252943"><ele>404.0</ele><time>2026-05-03T08:51:24.777Z</time></trkpt><trkpt lat="43.6268997" lon="12.5253047"><ele>404.0</ele><time>2026-05-03T08:51:25.778Z</time></trkpt><trkpt lat="43.6268184" lon="12.5253121"><ele>403.99999999999994</ele><time>2026-05-03T08:51:26.778Z</time></trkpt><trkpt lat="43.6267322" lon="12.5253088"><ele>404.0</ele><time>2026-05-03T08:51:27.777Z</time></trkpt><trkpt lat="43.6266501" lon="12.525303"><ele>403.99999999999994</ele><time>2026-05-03T08:51:28.778Z</time></trkpt><trkpt lat="43.6265719" lon="12.5252965"><ele>404.0</ele><time>2026-05-03T08:51:29.778Z</time></trkpt><trkpt lat="43.6264974" lon="12.5252883"><ele>404.0</ele><time>2026-05-03T08:51:30.778Z</time></trkpt><trkpt lat="43.6264161" lon="12.5252747"><ele>404.0</ele><time>2026-05-03T08:51:31.779Z</time></trkpt><trkpt lat="43.6263329" lon="12.5252625"><ele>403.99999999999994</ele><time>2026-05-03T08:51:32.778Z</time></trkpt><trkpt lat="43.6262514" lon="12.5252475"><ele>404.0</ele><time>2026-05-03T08:51:33.777Z</time></trkpt><trkpt lat="43.6261681" lon="12.5252366"><ele>402.99999999999994</ele><time>2026-05-03T08:51:34.778Z</time></trkpt><trkpt lat="43.6260871" lon="12.5252121"><ele>402.0</ele><time>2026-05-03T08:51:35.779Z</time></trkpt><trkpt lat="43.6260082" lon="12.5251779"><ele>401.0</ele><time>2026-05-03T08:51:36.777Z</time></trkpt><trkpt lat="43.6259304" lon="12.5251355"><ele>400.0</ele><time>2026-05-03T08:51:37.778Z</time></trkpt><trkpt lat="43.6258504" lon="12.5250842"><ele>398.99999999999994</ele><time>2026-05-03T08:51:38.777Z</time></trkpt><trkpt lat="43.6257696" lon="12.5250257"><ele>398.0</ele><time>2026-05-03T08:51:39.778Z</time></trkpt><trkpt lat="43.6256893" lon="12.524965"><ele>397.99999999999994</ele><time>2026-05-03T08:51:40.778Z</time></trkpt><trkpt lat="43.625608" lon="12.5249055"><ele>398.0</ele><time>2026-05-03T08:51:41.779Z</time></trkpt><trkpt lat="43.6255306" lon="12.5248486"><ele>398.0</ele><time>2026-05-03T08:51:42.778Z</time></trkpt><trkpt lat="43.6254579" lon="12.5248074"><ele>398.0</ele><time>2026-05-03T08:51:43.779Z</time></trkpt><trkpt lat="43.6253778" lon="12.5247753"><ele>397.99999999999994</ele><time>2026-05-03T08:51:44.779Z</time></trkpt><trkpt lat="43.6252935" lon="12.5247508"><ele>398.0</ele><time>2026-05-03T08:51:45.778Z</time></trkpt><trkpt lat="43.6252056" lon="12.5247266"><ele>398.49999999999994</ele><time>2026-05-03T08:51:46.779Z</time></trkpt><trkpt lat="43.6251249" lon="12.5246854"><ele>399.0</ele><time>2026-05-03T08:51:47.778Z</time></trkpt><trkpt lat="43.6250452" lon="12.5246302"><ele>399.5</ele><time>2026-05-03T08:51:48.777Z</time></trkpt><trkpt lat="43.6249638" lon="12.5245763"><ele>400.0</ele><time>2026-05-03T08:51:49.777Z</time></trkpt><trkpt lat="43.6248819" lon="12.5245226"><ele>400.49999999999994</ele><time>2026-05-03T08:51:50.778Z</time></trkpt><trkpt lat="43.6248021" lon="12.524477"><ele>401.0</ele><time>2026-05-03T08:51:51.778Z</time></trkpt><trkpt lat="43.6247199" lon="12.5244345"><ele>402.99999999999994</ele><time>2026-05-03T08:51:52.778Z</time></trkpt><trkpt lat="43.6246361" lon="12.524397"><ele>405.0</ele><time>2026-05-03T08:51:53.779Z</time></trkpt><trkpt lat="43.6245538" lon="12.5243649"><ele>407.0</ele><time>2026-05-03T08:51:54.778Z</time></trkpt><trkpt lat="43.6244755" lon="12.5243412"><ele>409.0</ele><time>2026-05-03T08:51:55.778Z</time></trkpt><trkpt lat="43.6244002" lon="12.5243057"><ele>410.99999999999994</ele><time>2026-05-03T08:51:56.778Z</time></trkpt><trkpt lat="43.624329" lon="12.5242511"><ele>413.0</ele><time>2026-05-03T08:51:57.778Z</time></trkpt><trkpt lat="43.6242591" lon="12.5241873"><ele>412.99999999999994</ele><time>2026-05-03T08:51:58.778Z</time></trkpt><trkpt lat="43.6241883" lon="12.5241253"><ele>413.0</ele><time>2026-05-03T08:51:59.777Z</time></trkpt><trkpt lat="43.6241274" lon="12.5240563"><ele>413.0</ele><time>2026-05-03T08:52:00.778Z</time></trkpt><trkpt lat="43.624076" lon="12.5239804"><ele>413.0</ele><time>2026-05-03T08:52:01.778Z</time></trkpt><trkpt lat="43.6240319" lon="12.5238997"><ele>412.99999999999994</ele><time>2026-05-03T08:52:02.778Z</time></trkpt><trkpt lat="43.6239874" lon="12.5238188"><ele>413.0</ele><time>2026-05-03T08:52:03.777Z</time></trkpt><trkpt lat="43.6239414" lon="12.5237337"><ele>413.49999999999994</ele><time>2026-05-03T08:52:04.778Z</time></trkpt><trkpt lat="43.6238919" lon="12.5236477"><ele>414.0</ele><time>2026-05-03T08:52:05.778Z</time></trkpt><trkpt lat="43.6238341" lon="12.5235704"><ele>414.5</ele><time>2026-05-03T08:52:06.778Z</time></trkpt><trkpt lat="43.6237775" lon="12.5234987"><ele>415.0</ele><time>2026-05-03T08:52:07.778Z</time></trkpt><trkpt lat="43.6237186" lon="12.5234324"><ele>415.49999999999994</ele><time>2026-05-03T08:52:08.778Z</time></trkpt><trkpt lat="43.6236575" lon="12.5233736"><ele>416.0</ele><time>2026-05-03T08:52:09.779Z</time></trkpt><trkpt lat="43.6235898" lon="12.5233236"><ele>415.99999999999994</ele><time>2026-05-03T08:52:10.779Z</time></trkpt><trkpt lat="43.6235176" lon="12.5232865"><ele>416.0</ele><time>2026-05-03T08:52:11.779Z</time></trkpt><trkpt lat="43.6234411" lon="12.5232596"><ele>416.0</ele><time>2026-05-03T08:52:12.778Z</time></trkpt><trkpt lat="43.623361" lon="12.5232414"><ele>416.0</ele><time>2026-05-03T08:52:13.779Z</time></trkpt><trkpt lat="43.623277" lon="12.5232296"><ele>415.99999999999994</ele><time>2026-05-03T08:52:14.777Z</time></trkpt><trkpt lat="43.6231878" lon="12.5232177"><ele>416.0</ele><time>2026-05-03T08:52:15.778Z</time></trkpt><trkpt lat="43.6231012" lon="12.5232096"><ele>415.99999999999994</ele><time>2026-05-03T08:52:16.777Z</time></trkpt><trkpt lat="43.6230122" lon="12.523201"><ele>416.0</ele><time>2026-05-03T08:52:17.777Z</time></trkpt><trkpt lat="43.6229254" lon="12.5231932"><ele>416.0</ele><time>2026-05-03T08:52:18.778Z</time></trkpt><trkpt lat="43.6228389" lon="12.5231898"><ele>416.0</ele><time>2026-05-03T08:52:19.776Z</time></trkpt><trkpt lat="43.6227527" lon="12.5231948"><ele>415.99999999999994</ele><time>2026-05-03T08:52:20.776Z</time></trkpt><trkpt lat="43.6226654" lon="12.5232065"><ele>416.0</ele><time>2026-05-03T08:52:21.778Z</time></trkpt><trkpt lat="43.6225773" lon="12.5232182"><ele>415.16666666666663</ele><time>2026-05-03T08:52:22.777Z</time></trkpt><trkpt lat="43.6224908" lon="12.5232242"><ele>414.3333333333333</ele><time>2026-05-03T08:52:23.777Z</time></trkpt><trkpt lat="43.6224073" lon="12.5232184"><ele>413.5</ele><time>2026-05-03T08:52:24.776Z</time></trkpt><trkpt lat="43.6223304" lon="12.5231957"><ele>412.66666666666663</ele><time>2026-05-03T08:52:25.777Z</time></trkpt><trkpt lat="43.6222532" lon="12.5231678"><ele>411.8333333333333</ele><time>2026-05-03T08:52:26.777Z</time></trkpt><trkpt lat="43.6221875" lon="12.52312"><ele>411.0</ele><time>2026-05-03T08:52:27.777Z</time></trkpt><trkpt lat="43.6221298" lon="12.5230617"><ele>411.0</ele><time>2026-05-03T08:52:28.778Z</time></trkpt><trkpt lat="43.6220838" lon="12.5229887"><ele>411.0</ele><time>2026-05-03T08:52:29.778Z</time></trkpt><trkpt lat="43.62204" lon="12.5229126"><ele>411.0</ele><time>2026-05-03T08:52:30.777Z</time></trkpt><trkpt lat="43.6219969" lon="12.5228352"><ele>411.0</ele><time>2026-05-03T08:52:31.777Z</time></trkpt><trkpt lat="43.6219568" lon="12.5227533"><ele>411.0</ele><time>2026-05-03T08:52:32.776Z</time></trkpt><trkpt lat="43.6219147" lon="12.5226722"><ele>411.0</ele><time>2026-05-03T08:52:33.778Z</time></trkpt><trkpt lat="43.6218739" lon="12.5225893"><ele>411.0</ele><time>2026-05-03T08:52:34.777Z</time></trkpt><trkpt lat="43.6218356" lon="12.5225056"><ele>412.42857142857144</ele><time>2026-05-03T08:52:35.778Z</time></trkpt><trkpt lat="43.6218018" lon="12.5224163"><ele>413.85714285714283</ele><time>2026-05-03T08:52:36.776Z</time></trkpt><trkpt lat="43.6217706" lon="12.5223273"><ele>415.28571428571433</ele><time>2026-05-03T08:52:37.777Z</time></trkpt><trkpt lat="43.6217501" lon="12.5222335"><ele>416.7142857142857</ele><time>2026-05-03T08:52:38.778Z</time></trkpt><trkpt lat="43.6217336" lon="12.5221394"><ele>418.14285714285717</ele><time>2026-05-03T08:52:39.777Z</time></trkpt><trkpt lat="43.6217121" lon="12.5220475"><ele>419.5714285714286</ele><time>2026-05-03T08:52:40.777Z</time></trkpt><trkpt lat="43.6216783" lon="12.5219679"><ele>421.0</ele><time>2026-05-03T08:52:41.777Z</time></trkpt><trkpt lat="43.6215849" lon="12.521849"><ele>422.14285714285717</ele><time>2026-05-03T08:52:43.776Z</time></trkpt><trkpt lat="43.6215375" lon="12.5217869"><ele>423.2857142857143</ele><time>2026-05-03T08:52:44.776Z</time></trkpt><trkpt lat="43.6214925" lon="12.5217225"><ele>424.42857142857144</ele><time>2026-05-03T08:52:45.777Z</time></trkpt><trkpt lat="43.6214475" lon="12.5216556"><ele>425.57142857142856</ele><time>2026-05-03T08:52:46.777Z</time></trkpt><trkpt lat="43.6214064" lon="12.5215858"><ele>426.7142857142857</ele><time>2026-05-03T08:52:47.777Z</time></trkpt><trkpt lat="43.6213658" lon="12.521514"><ele>427.8571428571429</ele><time>2026-05-03T08:52:48.777Z</time></trkpt><trkpt lat="43.6213265" lon="12.5214418"><ele>429.0</ele><time>2026-05-03T08:52:49.776Z</time></trkpt><trkpt lat="43.6212834" lon="12.5213711"><ele>429.0</ele><time>2026-05-03T08:52:50.777Z</time></trkpt><trkpt lat="43.6212438" lon="12.5213003"><ele>429.0</ele><time>2026-05-03T08:52:51.776Z</time></trkpt><trkpt lat="43.6212062" lon="12.5212294"><ele>429.0</ele><time>2026-05-03T08:52:52.776Z</time></trkpt><trkpt lat="43.6211672" lon="12.5211578"><ele>429.0</ele><time>2026-05-03T08:52:53.777Z</time></trkpt><trkpt lat="43.6211322" lon="12.5210813"><ele>429.0</ele><time>2026-05-03T08:52:54.777Z</time></trkpt><trkpt lat="43.6211025" lon="12.5210005"><ele>429.0</ele><time>2026-05-03T08:52:55.777Z</time></trkpt><trkpt lat="43.6210762" lon="12.5209181"><ele>429.0</ele><time>2026-05-03T08:52:56.777Z</time></trkpt><trkpt lat="43.6210407" lon="12.5207962"><ele>429.57142857142856</ele><time>2026-05-03T08:52:58.777Z</time></trkpt><trkpt lat="43.6209904" lon="12.5207201"><ele>430.14285714285717</ele><time>2026-05-03T08:53:00.777Z</time></trkpt><trkpt lat="43.6209287" lon="12.5206264"><ele>430.71428571428567</ele><time>2026-05-03T08:53:03.777Z</time></trkpt><trkpt lat="43.6208823" lon="12.520561"><ele>431.2857142857143</ele><time>2026-05-03T08:53:05.778Z</time></trkpt><trkpt lat="43.6208299" lon="12.5204903"><ele>431.85714285714283</ele><time>2026-05-03T08:53:07.776Z</time></trkpt><trkpt lat="43.6207752" lon="12.5204278"><ele>432.4285714285714</ele><time>2026-05-03T08:53:09.777Z</time></trkpt><trkpt lat="43.6207365" lon="12.5203568"><ele>433.0</ele><time>2026-05-03T08:53:12.776Z</time></trkpt><trkpt lat="43.6207074" lon="12.520223"><ele>435.2</ele><time>2026-05-03T08:53:52.777Z</time></trkpt><trkpt lat="43.620679" lon="12.52013"><ele>437.4</ele><time>2026-05-03T08:53:53.776Z</time></trkpt><trkpt lat="43.6206353" lon="12.5200157"><ele>439.59999999999997</ele><time>2026-05-03T08:53:54.777Z</time></trkpt><trkpt lat="43.6205849" lon="12.5198879"><ele>441.79999999999995</ele><time>2026-05-03T08:53:55.777Z</time></trkpt><trkpt lat="43.6205467" lon="12.5197879"><ele>444.0</ele><time>2026-05-03T08:53:56.777Z</time></trkpt><trkpt lat="43.6204647" lon="12.5196817"><ele>444.0</ele><time>2026-05-03T08:53:58.776Z</time></trkpt><trkpt lat="43.6203824" lon="12.5195783"><ele>444.0</ele><time>2026-05-03T08:54:00.776Z</time></trkpt><trkpt lat="43.6203061" lon="12.5195107"><ele>444.0</ele><time>2026-05-03T08:54:02.777Z</time></trkpt><trkpt lat="43.6203765" lon="12.5195706"><ele>444.0</ele><time>2026-05-03T08:54:19.777Z</time></trkpt><trkpt lat="43.6204374" lon="12.5196451"><ele>444.0</ele><time>2026-05-03T08:54:21.778Z</time></trkpt><trkpt lat="43.6205113" lon="12.5197191"><ele>444.0</ele><time>2026-05-03T08:54:23.777Z</time></trkpt><trkpt lat="43.6205534" lon="12.5198104"><ele>444.0</ele><time>2026-05-03T08:54:25.777Z</time></trkpt><trkpt lat="43.6205957" lon="12.5199065"><ele>444.0</ele><time>2026-05-03T08:54:27.777Z</time></trkpt><trkpt lat="43.6206572" lon="12.5200519"><ele>444.0</ele><time>2026-05-03T08:54:29.777Z</time></trkpt><trkpt lat="43.620691" lon="12.5201437"><ele>444.0</ele><time>2026-05-03T08:54:30.777Z</time></trkpt><trkpt lat="43.6207356" lon="12.5202849"><ele>444.0</ele><time>2026-05-03T08:54:32.777Z</time></trkpt><trkpt lat="43.6207649" lon="12.5203696"><ele>444.0</ele><time>2026-05-03T08:54:50.777Z</time></trkpt><trkpt lat="43.6208148" lon="12.5204549"><ele>444.0</ele><time>2026-05-03T08:55:04.776Z</time></trkpt><trkpt lat="43.6208992" lon="12.5205889"><ele>444.0</ele><time>2026-05-03T08:55:06.777Z</time></trkpt><trkpt lat="43.6209603" lon="12.520684"><ele>444.0</ele><time>2026-05-03T08:55:07.776Z</time></trkpt><trkpt lat="43.6210183" lon="12.5207871"><ele>442.1666666666667</ele><time>2026-05-03T08:55:08.778Z</time></trkpt><trkpt lat="43.6210617" lon="12.5208921"><ele>440.33333333333337</ele><time>2026-05-03T08:55:09.777Z</time></trkpt><trkpt lat="43.6210973" lon="12.5209987"><ele>438.5</ele><time>2026-05-03T08:55:10.778Z</time></trkpt><trkpt lat="43.6211363" lon="12.5210966"><ele>436.6666666666667</ele><time>2026-05-03T08:55:11.777Z</time></trkpt><trkpt lat="43.6211788" lon="12.5211821"><ele>434.83333333333337</ele><time>2026-05-03T08:55:12.777Z</time></trkpt><trkpt lat="43.6212237" lon="12.5212677"><ele>433.0</ele><time>2026-05-03T08:55:13.777Z</time></trkpt><trkpt lat="43.6212755" lon="12.5213643"><ele>432.33333333333337</ele><time>2026-05-03T08:55:14.777Z</time></trkpt><trkpt lat="43.6213274" lon="12.5214516"><ele>431.6666666666667</ele><time>2026-05-03T08:55:15.777Z</time></trkpt><trkpt lat="43.6213771" lon="12.5215368"><ele>431.0</ele><time>2026-05-03T08:55:16.777Z</time></trkpt><trkpt lat="43.6214251" lon="12.5216193"><ele>430.33333333333337</ele><time>2026-05-03T08:55:17.777Z</time></trkpt><trkpt lat="43.6214729" lon="12.5216979"><ele>429.6666666666667</ele><time>2026-05-03T08:55:18.777Z</time></trkpt><trkpt lat="43.6215287" lon="12.5217749"><ele>429.0</ele><time>2026-05-03T08:55:19.777Z</time></trkpt><trkpt lat="43.6215887" lon="12.5218492"><ele>429.0</ele><time>2026-05-03T08:55:20.777Z</time></trkpt><trkpt lat="43.6216474" lon="12.5219196"><ele>429.0</ele><time>2026-05-03T08:55:21.776Z</time></trkpt><trkpt lat="43.6216961" lon="12.5219993"><ele>429.0</ele><time>2026-05-03T08:55:22.776Z</time></trkpt><trkpt lat="43.6217241" lon="12.5221073"><ele>429.0</ele><time>2026-05-03T08:55:23.777Z</time></trkpt><trkpt lat="43.6217502" lon="12.5222433"><ele>429.0</ele><time>2026-05-03T08:55:24.776Z</time></trkpt><trkpt lat="43.6217836" lon="12.5223635"><ele>429.0</ele><time>2026-05-03T08:55:25.777Z</time></trkpt><trkpt lat="43.6218266" lon="12.5224732"><ele>428.8333333333333</ele><time>2026-05-03T08:55:26.778Z</time></trkpt><trkpt lat="43.6218725" lon="12.5225733"><ele>428.66666666666663</ele><time>2026-05-03T08:55:27.778Z</time></trkpt><trkpt lat="43.6219225" lon="12.5226756"><ele>428.5</ele><time>2026-05-03T08:55:28.777Z</time></trkpt><trkpt lat="43.6219746" lon="12.522778"><ele>428.3333333333333</ele><time>2026-05-03T08:55:29.776Z</time></trkpt><trkpt lat="43.6220287" lon="12.5228789"><ele>428.16666666666663</ele><time>2026-05-03T08:55:30.778Z</time></trkpt><trkpt lat="43.6220835" lon="12.522973"><ele>428.0</ele><time>2026-05-03T08:55:31.777Z</time></trkpt><trkpt lat="43.6221406" lon="12.5230568"><ele>425.16666666666663</ele><time>2026-05-03T08:55:32.777Z</time></trkpt><trkpt lat="43.622202" lon="12.5231248"><ele>422.3333333333333</ele><time>2026-05-03T08:55:33.777Z</time></trkpt><trkpt lat="43.622274" lon="12.5231687"><ele>419.5</ele><time>2026-05-03T08:55:34.777Z</time></trkpt><trkpt lat="43.622363" lon="12.5232021"><ele>416.66666666666663</ele><time>2026-05-03T08:55:35.777Z</time></trkpt><trkpt lat="43.6224577" lon="12.5232202"><ele>413.8333333333333</ele><time>2026-05-03T08:55:36.777Z</time></trkpt><trkpt lat="43.6225507" lon="12.5232183"><ele>411.0</ele><time>2026-05-03T08:55:37.777Z</time></trkpt><trkpt lat="43.6226665" lon="12.5232012"><ele>411.0</ele><time>2026-05-03T08:55:38.778Z</time></trkpt><trkpt lat="43.6227905" lon="12.5231928"><ele>411.0</ele><time>2026-05-03T08:55:39.777Z</time></trkpt><trkpt lat="43.6228972" lon="12.5231939"><ele>411.0</ele><time>2026-05-03T08:55:40.777Z</time></trkpt><trkpt lat="43.6230053" lon="12.5232009"><ele>411.0</ele><time>2026-05-03T08:55:41.777Z</time></trkpt><trkpt lat="43.6231171" lon="12.5232122"><ele>412.0</ele><time>2026-05-03T08:55:42.776Z</time></trkpt><trkpt lat="43.6232279" lon="12.5232217"><ele>413.0</ele><time>2026-05-03T08:55:43.777Z</time></trkpt><trkpt lat="43.6233294" lon="12.5232389"><ele>414.0</ele><time>2026-05-03T08:55:44.777Z</time></trkpt><trkpt lat="43.6234245" lon="12.5232567"><ele>415.0</ele><time>2026-05-03T08:55:45.776Z</time></trkpt><trkpt lat="43.6235127" lon="12.5232853"><ele>416.0</ele><time>2026-05-03T08:55:46.777Z</time></trkpt><trkpt lat="43.6235914" lon="12.5233255"><ele>415.4</ele><time>2026-05-03T08:55:47.777Z</time></trkpt><trkpt lat="43.6236718" lon="12.5233879"><ele>414.8</ele><time>2026-05-03T08:55:48.777Z</time></trkpt><trkpt lat="43.6237554" lon="12.5234753"><ele>414.2</ele><time>2026-05-03T08:55:49.778Z</time></trkpt><trkpt lat="43.6238366" lon="12.5235823"><ele>413.59999999999997</ele><time>2026-05-03T08:55:50.777Z</time></trkpt><trkpt lat="43.6239139" lon="12.5237043"><ele>413.0</ele><time>2026-05-03T08:55:51.776Z</time></trkpt><trkpt lat="43.6239834" lon="12.5238236"><ele>413.0</ele><time>2026-05-03T08:55:52.777Z</time></trkpt><trkpt lat="43.6240457" lon="12.5239309"><ele>413.0</ele><time>2026-05-03T08:55:53.777Z</time></trkpt><trkpt lat="43.6241097" lon="12.5240278"><ele>413.0</ele><time>2026-05-03T08:55:54.776Z</time></trkpt><trkpt lat="43.6241829" lon="12.5241195"><ele>413.0</ele><time>2026-05-03T08:55:55.777Z</time></trkpt><trkpt lat="43.6242679" lon="12.5242024"><ele>413.0</ele><time>2026-05-03T08:55:56.776Z</time></trkpt><trkpt lat="43.6243644" lon="12.5242783"><ele>413.0</ele><time>2026-05-03T08:55:57.777Z</time></trkpt><trkpt lat="43.6244496" lon="12.5243315"><ele>413.0</ele><time>2026-05-03T08:55:58.778Z</time></trkpt><trkpt lat="43.6245541" lon="12.524366"><ele>413.0</ele><time>2026-05-03T08:55:59.778Z</time></trkpt><trkpt lat="43.6246708" lon="12.5244128"><ele>413.0</ele><time>2026-05-03T08:56:00.777Z</time></trkpt><trkpt lat="43.624794" lon="12.5244728"><ele>415.75</ele><time>2026-05-03T08:56:01.777Z</time></trkpt><trkpt lat="43.6249175" lon="12.5245482"><ele>418.5</ele><time>2026-05-03T08:56:02.777Z</time></trkpt><trkpt lat="43.6250249" lon="12.5246191"><ele>421.25</ele><time>2026-05-03T08:56:03.776Z</time></trkpt><trkpt lat="43.6251184" lon="12.5246784"><ele>424.0</ele><time>2026-05-03T08:56:04.777Z</time></trkpt><trkpt lat="43.6252078" lon="12.5247265"><ele>419.4</ele><time>2026-05-03T08:56:05.777Z</time></trkpt><trkpt lat="43.6252966" lon="12.5247561"><ele>414.79999999999995</ele><time>2026-05-03T08:56:06.776Z</time></trkpt><trkpt lat="43.6253841" lon="12.5247786"><ele>410.20000000000005</ele><time>2026-05-03T08:56:07.778Z</time></trkpt><trkpt lat="43.6254673" lon="12.5248162"><ele>405.6</ele><time>2026-05-03T08:56:08.777Z</time></trkpt><trkpt lat="43.6255541" lon="12.5248699"><ele>401.0</ele><time>2026-05-03T08:56:09.778Z</time></trkpt><trkpt lat="43.6256628" lon="12.5249462"><ele>400.25</ele><time>2026-05-03T08:56:10.777Z</time></trkpt><trkpt lat="43.625791" lon="12.5250405"><ele>399.5</ele><time>2026-05-03T08:56:11.775Z</time></trkpt><trkpt lat="43.6258969" lon="12.5251138"><ele>398.75</ele><time>2026-05-03T08:56:12.775Z</time></trkpt><trkpt lat="43.6259989" lon="12.5251699"><ele>398.0</ele><time>2026-05-03T08:56:13.776Z</time></trkpt><trkpt lat="43.6260918" lon="12.5252094"><ele>399.2</ele><time>2026-05-03T08:56:14.776Z</time></trkpt><trkpt lat="43.6261841" lon="12.5252316"><ele>400.4</ele><time>2026-05-03T08:56:15.776Z</time></trkpt><trkpt lat="43.6262868" lon="12.5252498"><ele>401.59999999999997</ele><time>2026-05-03T08:56:16.775Z</time></trkpt><trkpt lat="43.6263939" lon="12.5252701"><ele>402.79999999999995</ele><time>2026-05-03T08:56:17.776Z</time></trkpt><trkpt lat="43.626501" lon="12.5252852"><ele>404.0</ele><time>2026-05-03T08:56:18.776Z</time></trkpt><trkpt lat="43.6266223" lon="12.5252973"><ele>404.0</ele><time>2026-05-03T08:56:19.777Z</time></trkpt><trkpt lat="43.6267635" lon="12.5253056"><ele>404.0</ele><time>2026-05-03T08:56:20.775Z</time></trkpt><trkpt lat="43.6269211" lon="12.5253027"><ele>404.0</ele><time>2026-05-03T08:56:21.776Z</time></trkpt><trkpt lat="43.6270912" lon="12.5252911"><ele>404.0</ele><time>2026-05-03T08:56:22.777Z</time></trkpt><trkpt lat="43.6272287" lon="12.5252802"><ele>404.0</ele><time>2026-05-03T08:56:23.775Z</time></trkpt><trkpt lat="43.6273475" lon="12.5252678"><ele>404.0</ele><time>2026-05-03T08:56:24.775Z</time></trkpt><trkpt lat="43.627454" lon="12.5252568"><ele>404.0</ele><time>2026-05-03T08:56:25.777Z</time></trkpt><trkpt lat="43.6275574" lon="12.5252566"><ele>404.0</ele><time>2026-05-03T08:56:26.777Z</time></trkpt><trkpt lat="43.6276761" lon="12.5252703"><ele>404.0</ele><time>2026-05-03T08:56:27.777Z</time></trkpt><trkpt lat="43.6277827" lon="12.525295"><ele>404.0</ele><time>2026-05-03T08:56:28.777Z</time></trkpt><trkpt lat="43.6278768" lon="12.5253212"><ele>404.0</ele><time>2026-05-03T08:56:29.777Z</time></trkpt><trkpt lat="43.6279512" lon="12.5253432"><ele>404.0</ele><time>2026-05-03T08:56:30.775Z</time></trkpt><trkpt lat="43.628044" lon="12.5253588"><ele>405.79999999999995</ele><time>2026-05-03T08:56:32.776Z</time></trkpt><trkpt lat="43.6280757" lon="12.5252835"><ele>407.59999999999997</ele><time>2026-05-03T08:57:28.775Z</time></trkpt><trkpt lat="43.628063" lon="12.5251406"><ele>409.4</ele><time>2026-05-03T08:57:30.776Z</time></trkpt><trkpt lat="43.6280571" lon="12.5250192"><ele>411.2</ele><time>2026-05-03T08:57:31.777Z</time></trkpt><trkpt lat="43.6280479" lon="12.5248877"><ele>413.0</ele><time>2026-05-03T08:57:32.777Z</time></trkpt><trkpt lat="43.6280319" lon="12.5247422"><ele>413.0</ele><time>2026-05-03T08:57:33.777Z</time></trkpt><trkpt lat="43.6279954" lon="12.5245962"><ele>413.0</ele><time>2026-05-03T08:57:34.777Z</time></trkpt><trkpt lat="43.627938" lon="12.5244672"><ele>413.0</ele><time>2026-05-03T08:57:35.776Z</time></trkpt><trkpt lat="43.6278588" lon="12.5243521"><ele>413.0</ele><time>2026-05-03T08:57:36.777Z</time></trkpt><trkpt lat="43.6277619" lon="12.5242459"><ele>414.4</ele><time>2026-05-03T08:57:37.777Z</time></trkpt><trkpt lat="43.6276645" lon="12.5241584"><ele>415.79999999999995</ele><time>2026-05-03T08:57:38.776Z</time></trkpt><trkpt lat="43.627582" lon="12.524087"><ele>417.2</ele><time>2026-05-03T08:57:39.777Z</time></trkpt><trkpt lat="43.6275032" lon="12.5240286"><ele>418.6</ele><time>2026-05-03T08:57:40.776Z</time></trkpt><trkpt lat="43.6274212" lon="12.5239847"><ele>420.0</ele><time>2026-05-03T08:57:41.776Z</time></trkpt><trkpt lat="43.6273397" lon="12.523955"><ele>420.0</ele><time>2026-05-03T08:57:42.776Z</time></trkpt><trkpt lat="43.6272579" lon="12.5239349"><ele>420.0</ele><time>2026-05-03T08:57:43.776Z</time></trkpt><trkpt lat="43.6271614" lon="12.5239309"><ele>420.0</ele><time>2026-05-03T08:57:44.776Z</time></trkpt><trkpt lat="43.627067" lon="12.5239276"><ele>420.0</ele><time>2026-05-03T08:57:45.777Z</time></trkpt><trkpt lat="43.6269726" lon="12.5239215"><ele>420.0</ele><time>2026-05-03T08:57:46.776Z</time></trkpt><trkpt lat="43.6268824" lon="12.5238999"><ele>420.5</ele><time>2026-05-03T08:57:47.776Z</time></trkpt><trkpt lat="43.6267931" lon="12.523857"><ele>421.0</ele><time>2026-05-03T08:57:48.776Z</time></trkpt><trkpt lat="43.6267094" lon="12.5237947"><ele>421.5</ele><time>2026-05-03T08:57:49.776Z</time></trkpt><trkpt lat="43.6266316" lon="12.5237322"><ele>422.0</ele><time>2026-05-03T08:57:50.776Z</time></trkpt><trkpt lat="43.6265644" lon="12.5236824"><ele>422.5</ele><time>2026-05-03T08:57:51.776Z</time></trkpt><trkpt lat="43.6265068" lon="12.5236447"><ele>423.0</ele><time>2026-05-03T08:57:52.775Z</time></trkpt><trkpt lat="43.6264314" lon="12.5235441"><ele>427.79999999999995</ele><time>2026-05-03T08:57:54.776Z</time></trkpt><trkpt lat="43.6264526" lon="12.5234059"><ele>432.6</ele><time>2026-05-03T08:57:56.776Z</time></trkpt><trkpt lat="43.6265615" lon="12.523328"><ele>437.40000000000003</ele><time>2026-05-03T08:57:58.776Z</time></trkpt><trkpt lat="43.6266356" lon="12.5233227"><ele>442.20000000000005</ele><time>2026-05-03T08:57:59.776Z</time></trkpt><trkpt lat="43.6267128" lon="12.5233447"><ele>447.0</ele><time>2026-05-03T08:58:00.777Z</time></trkpt><trkpt lat="43.6267887" lon="12.5233748"><ele>447.0</ele><time>2026-05-03T08:58:01.777Z</time></trkpt><trkpt lat="43.6268636" lon="12.5234105"><ele>447.0</ele><time>2026-05-03T08:58:02.776Z</time></trkpt><trkpt lat="43.6269398" lon="12.5234403"><ele>447.0</ele><time>2026-05-03T08:58:03.777Z</time></trkpt><trkpt lat="43.6270091" lon="12.5234509"><ele>447.0</ele><time>2026-05-03T08:58:04.776Z</time></trkpt><trkpt lat="43.6271213" lon="12.5234478"><ele>447.0</ele><time>2026-05-03T08:58:06.776Z</time></trkpt><trkpt lat="43.6271978" lon="12.523447"><ele>447.0</ele><time>2026-05-03T08:58:08.777Z</time></trkpt><trkpt lat="43.6272578" lon="12.5234138"><ele>447.6666666666667</ele><time>2026-05-03T08:58:20.776Z</time></trkpt><trkpt lat="43.6273272" lon="12.5233464"><ele>448.33333333333337</ele><time>2026-05-03T08:58:23.776Z</time></trkpt><trkpt lat="43.6273894" lon="12.5233307"><ele>449.0</ele><time>2026-05-03T08:58:25.775Z</time></trkpt><trkpt lat="43.627475" lon="12.5233776"><ele>449.6666666666667</ele><time>2026-05-03T08:58:28.776Z</time></trkpt><trkpt lat="43.6275533" lon="12.5234424"><ele>450.33333333333337</ele><time>2026-05-03T08:58:30.776Z</time></trkpt><trkpt lat="43.6276477" lon="12.5235124"><ele>451.0</ele><time>2026-05-03T08:58:32.776Z</time></trkpt><trkpt lat="43.6277401" lon="12.5235584"><ele>449.50000000000006</ele><time>2026-05-03T08:58:34.776Z</time></trkpt><trkpt lat="43.6278524" lon="12.5235575"><ele>448.0</ele><time>2026-05-03T08:58:36.776Z</time></trkpt><trkpt lat="43.6279279" lon="12.5235498"><ele>446.5</ele><time>2026-05-03T08:58:37.775Z</time></trkpt><trkpt lat="43.6280074" lon="12.5235404"><ele>445.0</ele><time>2026-05-03T08:58:38.776Z</time></trkpt><trkpt lat="43.6280838" lon="12.5235345"><ele>443.50000000000006</ele><time>2026-05-03T08:58:39.776Z</time></trkpt><trkpt lat="43.6281767" lon="12.5235131"><ele>442.0</ele><time>2026-05-03T08:58:40.777Z</time></trkpt><trkpt lat="43.6282704" lon="12.5235036"><ele>442.00000000000006</ele><time>2026-05-03T08:58:41.776Z</time></trkpt><trkpt lat="43.6283579" lon="12.5235045"><ele>442.0</ele><time>2026-05-03T08:58:42.776Z</time></trkpt><trkpt lat="43.6284508" lon="12.5235204"><ele>442.0</ele><time>2026-05-03T08:58:43.777Z</time></trkpt><trkpt lat="43.6285364" lon="12.5235533"><ele>442.0</ele><time>2026-05-03T08:58:44.776Z</time></trkpt><trkpt lat="43.6286089" lon="12.5235952"><ele>442.00000000000006</ele><time>2026-05-03T08:58:45.776Z</time></trkpt><trkpt lat="43.6286645" lon="12.5236611"><ele>442.0</ele><time>2026-05-03T08:58:46.776Z</time></trkpt><trkpt lat="43.6286966" lon="12.5237588"><ele>437.40000000000003</ele><time>2026-05-03T08:58:47.775Z</time></trkpt><trkpt lat="43.6287163" lon="12.5238788"><ele>432.80000000000007</ele><time>2026-05-03T08:58:48.776Z</time></trkpt><trkpt lat="43.628727" lon="12.5240076"><ele>428.2</ele><time>2026-05-03T08:58:49.776Z</time></trkpt><trkpt lat="43.6287341" lon="12.5241362"><ele>423.6</ele><time>2026-05-03T08:58:50.776Z</time></trkpt><trkpt lat="43.6287402" lon="12.524267"><ele>419.0</ele><time>2026-05-03T08:58:51.775Z</time></trkpt><trkpt lat="43.6287533" lon="12.524383"><ele>418.99999999999994</ele><time>2026-05-03T08:58:52.775Z</time></trkpt><trkpt lat="43.6287705" lon="12.5244809"><ele>419.0</ele><time>2026-05-03T08:58:53.777Z</time></trkpt><trkpt lat="43.6287977" lon="12.5245607"><ele>419.0</ele><time>2026-05-03T08:58:54.776Z</time></trkpt><trkpt lat="43.6288889" lon="12.5246614"><ele>419.0</ele><time>2026-05-03T08:58:56.775Z</time></trkpt><trkpt lat="43.6289513" lon="12.5246874"><ele>418.99999999999994</ele><time>2026-05-03T08:58:57.776Z</time></trkpt><trkpt lat="43.6290198" lon="12.5247093"><ele>419.0</ele><time>2026-05-03T08:58:58.775Z</time></trkpt><trkpt lat="43.6290879" lon="12.5247412"><ele>418.57142857142856</ele><time>2026-05-03T08:58:59.776Z</time></trkpt><trkpt lat="43.629143" lon="12.5247977"><ele>418.1428571428571</ele><time>2026-05-03T08:59:00.776Z</time></trkpt><trkpt lat="43.6291926" lon="12.5248623"><ele>417.71428571428567</ele><time>2026-05-03T08:59:01.776Z</time></trkpt><trkpt lat="43.6292289" lon="12.5249466"><ele>417.2857142857143</ele><time>2026-05-03T08:59:02.776Z</time></trkpt><trkpt lat="43.6292528" lon="12.5250477"><ele>416.8571428571429</ele><time>2026-05-03T08:59:03.775Z</time></trkpt><trkpt lat="43.6292767" lon="12.5251386"><ele>416.4285714285714</ele><time>2026-05-03T08:59:04.777Z</time></trkpt><trkpt lat="43.6292975" lon="12.5252246"><ele>416.0</ele><time>2026-05-03T08:59:05.775Z</time></trkpt><trkpt lat="43.6293535" lon="12.5253319"><ele>415.99999999999994</ele><time>2026-05-03T08:59:07.776Z</time></trkpt><trkpt lat="43.629439" lon="12.5253068"><ele>416.0</ele><time>2026-05-03T08:59:10.777Z</time></trkpt><trkpt lat="43.6294933" lon="12.5252499"><ele>416.0</ele><time>2026-05-03T08:59:13.777Z</time></trkpt><trkpt lat="43.6295329" lon="12.5251581"><ele>416.0</ele><time>2026-05-03T08:59:17.777Z</time></trkpt><trkpt lat="43.6295768" lon="12.5250405"><ele>415.99999999999994</ele><time>2026-05-03T08:59:20.777Z</time></trkpt><trkpt lat="43.6296187" lon="12.5249316"><ele>416.0</ele><time>2026-05-03T08:59:22.776Z</time></trkpt><trkpt lat="43.6296653" lon="12.5248084"><ele>412.25</ele><time>2026-05-03T08:59:24.776Z</time></trkpt><trkpt lat="43.6297111" lon="12.5246727"><ele>408.5</ele><time>2026-05-03T08:59:26.775Z</time></trkpt><trkpt lat="43.6297632" lon="12.5245291"><ele>404.75</ele><time>2026-05-03T08:59:28.776Z</time></trkpt><trkpt lat="43.6298158" lon="12.5243841"><ele>401.0</ele><time>2026-05-03T08:59:30.776Z</time></trkpt><trkpt lat="43.6298705" lon="12.5242312"><ele>400.4</ele><time>2026-05-03T08:59:32.777Z</time></trkpt><trkpt lat="43.6299046" lon="12.5241144"><ele>399.8</ele><time>2026-05-03T08:59:33.777Z</time></trkpt><trkpt lat="43.6299484" lon="12.5239867"><ele>399.2</ele><time>2026-05-03T08:59:34.776Z</time></trkpt><trkpt lat="43.6299872" lon="12.5238736"><ele>398.59999999999997</ele><time>2026-05-03T08:59:35.776Z</time></trkpt><trkpt lat="43.6300242" lon="12.523766"><ele>398.0</ele><time>2026-05-03T08:59:36.777Z</time></trkpt><trkpt lat="43.630056" lon="12.5236649"><ele>397.1428571428571</ele><time>2026-05-03T08:59:37.776Z</time></trkpt><trkpt lat="43.6300854" lon="12.5235721"><ele>396.2857142857143</ele><time>2026-05-03T08:59:38.777Z</time></trkpt><trkpt lat="43.6301082" lon="12.5234822"><ele>395.42857142857144</ele><time>2026-05-03T08:59:39.776Z</time></trkpt><trkpt lat="43.6301282" lon="12.5233927"><ele>394.57142857142856</ele><time>2026-05-03T08:59:40.776Z</time></trkpt><trkpt lat="43.6301409" lon="12.5233056"><ele>393.7142857142857</ele><time>2026-05-03T08:59:41.775Z</time></trkpt><trkpt lat="43.6301473" lon="12.5232184"><ele>392.85714285714283</ele><time>2026-05-03T08:59:42.777Z</time></trkpt><trkpt lat="43.6301527" lon="12.523119"><ele>392.0</ele><time>2026-05-03T08:59:43.777Z</time></trkpt><trkpt lat="43.6301467" lon="12.5230128"><ele>392.16666666666663</ele><time>2026-05-03T08:59:44.775Z</time></trkpt><trkpt lat="43.6301337" lon="12.5228954"><ele>392.3333333333333</ele><time>2026-05-03T08:59:45.774Z</time></trkpt><trkpt lat="43.6301185" lon="12.5227826"><ele>392.5</ele><time>2026-05-03T08:59:46.775Z</time></trkpt><trkpt lat="43.6301053" lon="12.522669"><ele>392.66666666666663</ele><time>2026-05-03T08:59:47.774Z</time></trkpt><trkpt lat="43.6301051" lon="12.5225596"><ele>392.8333333333333</ele><time>2026-05-03T08:59:48.775Z</time></trkpt><trkpt lat="43.6301237" lon="12.5224602"><ele>393.0</ele><time>2026-05-03T08:59:49.776Z</time></trkpt><trkpt lat="43.6301594" lon="12.5223695"><ele>393.00000000000006</ele><time>2026-05-03T08:59:50.775Z</time></trkpt><trkpt lat="43.630205" lon="12.5222898"><ele>393.0</ele><time>2026-05-03T08:59:51.775Z</time></trkpt><trkpt lat="43.6302517" lon="12.5222091"><ele>393.0</ele><time>2026-05-03T08:59:52.775Z</time></trkpt><trkpt lat="43.630295" lon="12.5221216"><ele>393.0</ele><time>2026-05-03T08:59:53.776Z</time></trkpt><trkpt lat="43.630338" lon="12.5220354"><ele>393.0</ele><time>2026-05-03T08:59:54.776Z</time></trkpt><trkpt lat="43.630377" lon="12.5219531"><ele>393.00000000000006</ele><time>2026-05-03T08:59:55.776Z</time></trkpt><trkpt lat="43.630403" lon="12.5218687"><ele>393.0</ele><time>2026-05-03T08:59:56.775Z</time></trkpt><trkpt lat="43.6304384" lon="12.5217059"><ele>394.5</ele><time>2026-05-03T08:59:58.776Z</time></trkpt><trkpt lat="43.6305035" lon="12.5216394"><ele>396.0</ele><time>2026-05-03T09:00:00.775Z</time></trkpt><trkpt lat="43.6305635" lon="12.5217068"><ele>397.5</ele><time>2026-05-03T09:00:02.775Z</time></trkpt><trkpt lat="43.6306302" lon="12.5218198"><ele>399.0</ele><time>2026-05-03T09:00:04.775Z</time></trkpt><trkpt lat="43.6307086" lon="12.52191"><ele>400.5</ele><time>2026-05-03T09:00:06.775Z</time></trkpt><trkpt lat="43.6307834" lon="12.5219395"><ele>402.0</ele><time>2026-05-03T09:00:32.775Z</time></trkpt><trkpt lat="43.6308906" lon="12.5219723"><ele>402.0</ele><time>2026-05-03T09:00:34.775Z</time></trkpt><trkpt lat="43.6309604" lon="12.5219885"><ele>402.0</ele><time>2026-05-03T09:00:35.775Z</time></trkpt><trkpt lat="43.6310494" lon="12.522026"><ele>402.0</ele><time>2026-05-03T09:00:37.775Z</time></trkpt><trkpt lat="43.6311148" lon="12.5220853"><ele>402.0</ele><time>2026-05-03T09:00:39.775Z</time></trkpt><trkpt lat="43.6311814" lon="12.5221609"><ele>402.0</ele><time>2026-05-03T09:00:41.776Z</time></trkpt><trkpt lat="43.6312255" lon="12.5222763"><ele>402.0</ele><time>2026-05-03T09:00:43.775Z</time></trkpt><trkpt lat="43.6312235" lon="12.5224213"><ele>401.3333333333333</ele><time>2026-05-03T09:00:45.774Z</time></trkpt><trkpt lat="43.6312027" lon="12.5225048"><ele>400.66666666666663</ele><time>2026-05-03T09:00:46.774Z</time></trkpt><trkpt lat="43.6311737" lon="12.5225899"><ele>400.0</ele><time>2026-05-03T09:00:47.775Z</time></trkpt><trkpt lat="43.6311428" lon="12.5226739"><ele>399.3333333333333</ele><time>2026-05-03T09:00:48.774Z</time></trkpt><trkpt lat="43.631112" lon="12.5227515"><ele>398.66666666666663</ele><time>2026-05-03T09:00:49.775Z</time></trkpt><trkpt lat="43.6310898" lon="12.5228806"><ele>398.0</ele><time>2026-05-03T09:00:51.776Z</time></trkpt><trkpt lat="43.6310956" lon="12.5230113"><ele>397.59999999999997</ele><time>2026-05-03T09:00:53.774Z</time></trkpt><trkpt lat="43.6311187" lon="12.5231458"><ele>397.2</ele><time>2026-05-03T09:00:55.775Z</time></trkpt><trkpt lat="43.6311518" lon="12.5232771"><ele>396.8</ele><time>2026-05-03T09:00:57.775Z</time></trkpt><trkpt lat="43.6311958" lon="12.5233988"><ele>396.4</ele><time>2026-05-03T09:00:59.774Z</time></trkpt><trkpt lat="43.6312392" lon="12.5235012"><ele>396.0</ele><time>2026-05-03T09:01:01.775Z</time></trkpt><trkpt lat="43.6312836" lon="12.5236002"><ele>401.3333333333333</ele><time>2026-05-03T09:01:03.775Z</time></trkpt><trkpt lat="43.6313299" lon="12.5237095"><ele>406.66666666666663</ele><time>2026-05-03T09:01:05.774Z</time></trkpt><trkpt lat="43.6313862" lon="12.523856"><ele>412.0</ele><time>2026-05-03T09:01:07.774Z</time></trkpt><trkpt lat="43.631417" lon="12.5239338"><ele>417.3333333333333</ele><time>2026-05-03T09:01:08.775Z</time></trkpt><trkpt lat="43.6314474" lon="12.5240132"><ele>422.66666666666663</ele><time>2026-05-03T09:01:09.775Z</time></trkpt><trkpt lat="43.631477" lon="12.5241039"><ele>428.0</ele><time>2026-05-03T09:01:10.775Z</time></trkpt><trkpt lat="43.6315353" lon="12.5242542"><ele>427.99999999999994</ele><time>2026-05-03T09:01:12.775Z</time></trkpt><trkpt lat="43.6315899" lon="12.5243809"><ele>428.0</ele><time>2026-05-03T09:01:14.774Z</time></trkpt><trkpt lat="43.631649" lon="12.524457"><ele>428.0</ele><time>2026-05-03T09:01:16.776Z</time></trkpt><trkpt lat="43.6317139" lon="12.5244929"><ele>428.0</ele><time>2026-05-03T09:01:18.776Z</time></trkpt><trkpt lat="43.6318015" lon="12.5245221"><ele>427.99999999999994</ele><time>2026-05-03T09:01:20.774Z</time></trkpt><trkpt lat="43.6318763" lon="12.5245428"><ele>428.0</ele><time>2026-05-03T09:01:22.775Z</time></trkpt><trkpt lat="43.6319398" lon="12.5245552"><ele>427.59999999999997</ele><time>2026-05-03T09:02:57.776Z</time></trkpt><trkpt lat="43.632029" lon="12.5245729"><ele>427.19999999999993</ele><time>2026-05-03T09:02:59.776Z</time></trkpt><trkpt lat="43.63214" lon="12.5245729"><ele>426.8</ele><time>2026-05-03T09:03:01.775Z</time></trkpt><trkpt lat="43.6322602" lon="12.5245421"><ele>426.4</ele><time>2026-05-03T09:03:03.774Z</time></trkpt><trkpt lat="43.6323769" lon="12.5245125"><ele>426.0</ele><time>2026-05-03T09:03:05.776Z</time></trkpt><trkpt lat="43.6324754" lon="12.5244915"><ele>426.0</ele><time>2026-05-03T09:03:07.775Z</time></trkpt><trkpt lat="43.6325751" lon="12.524547"><ele>426.0</ele><time>2026-05-03T09:03:09.775Z</time></trkpt><trkpt lat="43.6326578" lon="12.5246164"><ele>426.0</ele><time>2026-05-03T09:03:11.776Z</time></trkpt><trkpt lat="43.6327419" lon="12.5246315"><ele>426.0</ele><time>2026-05-03T09:03:13.775Z</time></trkpt><trkpt lat="43.6328366" lon="12.5246307"><ele>426.0</ele><time>2026-05-03T09:03:15.775Z</time></trkpt><trkpt lat="43.6329066" lon="12.5245721"><ele>429.1428571428571</ele><time>2026-05-03T09:03:50.773Z</time></trkpt><trkpt lat="43.632982" lon="12.5245078"><ele>432.2857142857143</ele><time>2026-05-03T09:03:52.774Z</time></trkpt><trkpt lat="43.633055" lon="12.5244478"><ele>435.42857142857144</ele><time>2026-05-03T09:03:54.774Z</time></trkpt><trkpt lat="43.6331186" lon="12.5243862"><ele>438.57142857142856</ele><time>2026-05-03T09:03:56.775Z</time></trkpt><trkpt lat="43.6331692" lon="12.5243344"><ele>441.7142857142857</ele><time>2026-05-03T09:03:58.773Z</time></trkpt><trkpt lat="43.633112" lon="12.5243721"><ele>444.85714285714283</ele><time>2026-05-03T09:04:35.774Z</time></trkpt><trkpt lat="43.6330561" lon="12.5244218"><ele>448.0</ele><time>2026-05-03T09:05:02.774Z</time></trkpt><trkpt lat="43.6329641" lon="12.5245018"><ele>448.33333333333337</ele><time>2026-05-03T09:05:04.774Z</time></trkpt><trkpt lat="43.6328842" lon="12.5245685"><ele>448.6666666666667</ele><time>2026-05-03T09:05:06.773Z</time></trkpt><trkpt lat="43.6327899" lon="12.5246047"><ele>449.0</ele><time>2026-05-03T09:05:09.774Z</time></trkpt><trkpt lat="43.6327146" lon="12.5246139"><ele>449.33333333333337</ele><time>2026-05-03T09:05:11.773Z</time></trkpt><trkpt lat="43.6326436" lon="12.5245998"><ele>449.6666666666667</ele><time>2026-05-03T09:05:13.775Z</time></trkpt><trkpt lat="43.6325823" lon="12.5245349"><ele>450.0</ele><time>2026-05-03T09:05:15.775Z</time></trkpt><trkpt lat="43.6325178" lon="12.5244797"><ele>450.0</ele><time>2026-05-03T09:05:17.774Z</time></trkpt><trkpt lat="43.6324394" lon="12.5244771"><ele>450.0</ele><time>2026-05-03T09:05:19.773Z</time></trkpt><trkpt lat="43.6323752" lon="12.5244972"><ele>450.0</ele><time>2026-05-03T09:05:21.773Z</time></trkpt><trkpt lat="43.6323045" lon="12.5245193"><ele>450.0</ele><time>2026-05-03T09:05:23.774Z</time></trkpt><trkpt lat="43.6322306" lon="12.5245423"><ele>450.0</ele><time>2026-05-03T09:05:25.774Z</time></trkpt><trkpt lat="43.6321516" lon="12.5245686"><ele>450.0</ele><time>2026-05-03T09:05:27.774Z</time></trkpt><trkpt lat="43.6320686" lon="12.5245727"><ele>445.6</ele><time>2026-05-03T09:05:29.773Z</time></trkpt><trkpt lat="43.6319888" lon="12.524571"><ele>441.2</ele><time>2026-05-03T09:05:31.774Z</time></trkpt><trkpt lat="43.6318926" lon="12.5245455"><ele>436.79999999999995</ele><time>2026-05-03T09:05:33.774Z</time></trkpt><trkpt lat="43.6318017" lon="12.5245152"><ele>432.4</ele><time>2026-05-03T09:05:35.774Z</time></trkpt><trkpt lat="43.6317108" lon="12.5244831"><ele>428.0</ele><time>2026-05-03T09:05:37.774Z</time></trkpt><trkpt lat="43.6316342" lon="12.524432"><ele>427.99999999999994</ele><time>2026-05-03T09:05:39.773Z</time></trkpt><trkpt lat="43.6315848" lon="12.5243452"><ele>428.0</ele><time>2026-05-03T09:05:41.774Z</time></trkpt><trkpt lat="43.6315428" lon="12.5242402"><ele>428.0</ele><time>2026-05-03T09:05:43.774Z</time></trkpt><trkpt lat="43.6315006" lon="12.5241416"><ele>428.0</ele><time>2026-05-03T09:05:45.774Z</time></trkpt><trkpt lat="43.631463" lon="12.5240378"><ele>427.99999999999994</ele><time>2026-05-03T09:05:48.775Z</time></trkpt><trkpt lat="43.6314327" lon="12.5239524"><ele>428.0</ele><time>2026-05-03T09:05:52.774Z</time></trkpt><trkpt lat="43.6314014" lon="12.523867"><ele>428.0</ele><time>2026-05-03T09:06:22.774Z</time></trkpt><trkpt lat="43.6313748" lon="12.5237674"><ele>427.99999999999994</ele><time>2026-05-03T09:06:24.774Z</time></trkpt><trkpt lat="43.6313145" lon="12.5236645"><ele>427.99999999999994</ele><time>2026-05-03T09:06:26.774Z</time></trkpt><trkpt lat="43.6312618" lon="12.5235528"><ele>428.0</ele><time>2026-05-03T09:06:28.774Z</time></trkpt><trkpt lat="43.6312195" lon="12.5234431"><ele>428.0</ele><time>2026-05-03T09:06:30.774Z</time></trkpt><trkpt lat="43.6311767" lon="12.5233316"><ele>431.0</ele><time>2026-05-03T09:06:32.774Z</time></trkpt><trkpt lat="43.6311443" lon="12.5232098"><ele>433.99999999999994</ele><time>2026-05-03T09:06:34.773Z</time></trkpt><trkpt lat="43.6311196" lon="12.5230913"><ele>436.99999999999994</ele><time>2026-05-03T09:06:36.774Z</time></trkpt><trkpt lat="43.6310959" lon="12.522965"><ele>440.0</ele><time>2026-05-03T09:06:38.773Z</time></trkpt><trkpt lat="43.6310859" lon="12.5228276"><ele>443.0</ele><time>2026-05-03T09:06:40.774Z</time></trkpt><trkpt lat="43.6311254" lon="12.5227008"><ele>441.59999999999997</ele><time>2026-05-03T09:06:42.772Z</time></trkpt><trkpt lat="43.6311787" lon="12.5225767"><ele>440.19999999999993</ele><time>2026-05-03T09:06:44.773Z</time></trkpt><trkpt lat="43.6312255" lon="12.5224345"><ele>438.8</ele><time>2026-05-03T09:06:46.774Z</time></trkpt><trkpt lat="43.6312268" lon="12.5222881"><ele>437.4</ele><time>2026-05-03T09:06:48.774Z</time></trkpt><trkpt lat="43.6311875" lon="12.5221768"><ele>436.0</ele><time>2026-05-03T09:06:50.773Z</time></trkpt><trkpt lat="43.6311254" lon="12.5220999"><ele>429.20000000000005</ele><time>2026-05-03T09:06:52.773Z</time></trkpt><trkpt lat="43.6310541" lon="12.5220313"><ele>422.40000000000003</ele><time>2026-05-03T09:06:54.774Z</time></trkpt><trkpt lat="43.6309724" lon="12.5219985"><ele>415.6</ele><time>2026-05-03T09:06:56.774Z</time></trkpt><trkpt lat="43.6308619" lon="12.5219777"><ele>408.8</ele><time>2026-05-03T09:06:58.774Z</time></trkpt><trkpt lat="43.6307494" lon="12.5219378"><ele>402.0</ele><time>2026-05-03T09:07:00.774Z</time></trkpt><trkpt lat="43.6306493" lon="12.5218568"><ele>402.0</ele><time>2026-05-03T09:07:02.773Z</time></trkpt><trkpt lat="43.6305869" lon="12.5217713"><ele>402.0</ele><time>2026-05-03T09:07:04.774Z</time></trkpt><trkpt lat="43.6305446" lon="12.5216823"><ele>402.0</ele><time>2026-05-03T09:07:06.774Z</time></trkpt><trkpt lat="43.6304907" lon="12.5216322"><ele>402.0</ele><time>2026-05-03T09:07:08.773Z</time></trkpt><trkpt lat="43.6304256" lon="12.5216777"><ele>402.0</ele><time>2026-05-03T09:07:44.773Z</time></trkpt><trkpt lat="43.6304007" lon="12.5217601"><ele>402.0</ele><time>2026-05-03T09:07:47.772Z</time></trkpt><trkpt lat="43.6303787" lon="12.5218713"><ele>402.0</ele><time>2026-05-03T09:07:50.773Z</time></trkpt><trkpt lat="43.6303555" lon="12.5219588"><ele>402.0</ele><time>2026-05-03T09:07:52.773Z</time></trkpt><trkpt lat="43.6303143" lon="12.5220433"><ele>402.0</ele><time>2026-05-03T09:07:54.773Z</time></trkpt><trkpt lat="43.6302734" lon="12.5221373"><ele>402.0</ele><time>2026-05-03T09:07:56.773Z</time></trkpt><trkpt lat="43.6301996" lon="12.5222744"><ele>402.0</ele><time>2026-05-03T09:07:58.773Z</time></trkpt><trkpt lat="43.6301516" lon="12.5223613"><ele>402.0</ele><time>2026-05-03T09:07:59.773Z</time></trkpt><trkpt lat="43.6301132" lon="12.5224482"><ele>400.20000000000005</ele><time>2026-05-03T09:08:00.773Z</time></trkpt><trkpt lat="43.6300961" lon="12.5225396"><ele>398.4</ele><time>2026-05-03T09:08:01.772Z</time></trkpt><trkpt lat="43.6301104" lon="12.5227308"><ele>396.6</ele><time>2026-05-03T09:08:03.772Z</time></trkpt><trkpt lat="43.6301303" lon="12.5228565"><ele>394.79999999999995</ele><time>2026-05-03T09:08:04.774Z</time></trkpt><trkpt lat="43.6301455" lon="12.5229876"><ele>393.0</ele><time>2026-05-03T09:08:05.773Z</time></trkpt><trkpt lat="43.6301494" lon="12.5231201"><ele>392.79999999999995</ele><time>2026-05-03T09:08:06.773Z</time></trkpt><trkpt lat="43.6301394" lon="12.523257"><ele>392.6</ele><time>2026-05-03T09:08:07.773Z</time></trkpt><trkpt lat="43.6301188" lon="12.5233967"><ele>392.4</ele><time>2026-05-03T09:08:08.772Z</time></trkpt><trkpt lat="43.6300892" lon="12.5235383"><ele>392.20000000000005</ele><time>2026-05-03T09:08:09.774Z</time></trkpt><trkpt lat="43.6300467" lon="12.523679"><ele>392.0</ele><time>2026-05-03T09:08:10.772Z</time></trkpt><trkpt lat="43.6299988" lon="12.5238192"><ele>393.5</ele><time>2026-05-03T09:08:11.773Z</time></trkpt><trkpt lat="43.629943" lon="12.5239864"><ele>395.0</ele><time>2026-05-03T09:08:12.773Z</time></trkpt><trkpt lat="43.6298825" lon="12.5241734"><ele>396.5</ele><time>2026-05-03T09:08:13.773Z</time></trkpt><trkpt lat="43.6298212" lon="12.5243568"><ele>398.0</ele><time>2026-05-03T09:08:14.772Z</time></trkpt><trkpt lat="43.6297681" lon="12.524503"><ele>398.49999999999994</ele><time>2026-05-03T09:08:15.772Z</time></trkpt><trkpt lat="43.6297238" lon="12.5246311"><ele>399.0</ele><time>2026-05-03T09:08:16.773Z</time></trkpt><trkpt lat="43.6296843" lon="12.5247386"><ele>399.5</ele><time>2026-05-03T09:08:17.773Z</time></trkpt><trkpt lat="43.6296455" lon="12.5248368"><ele>400.0</ele><time>2026-05-03T09:08:18.773Z</time></trkpt><trkpt lat="43.629609" lon="12.5249279"><ele>400.49999999999994</ele><time>2026-05-03T09:08:19.773Z</time></trkpt><trkpt lat="43.6295701" lon="12.5250243"><ele>401.0</ele><time>2026-05-03T09:08:20.774Z</time></trkpt><trkpt lat="43.629523" lon="12.5251344"><ele>400.99999999999994</ele><time>2026-05-03T09:08:21.772Z</time></trkpt><trkpt lat="43.6294792" lon="12.5252253"><ele>401.0</ele><time>2026-05-03T09:08:22.773Z</time></trkpt><trkpt lat="43.6293827" lon="12.5253117"><ele>401.0</ele><time>2026-05-03T09:08:24.773Z</time></trkpt><trkpt lat="43.629311" lon="12.5252656"><ele>401.0</ele><time>2026-05-03T09:08:26.773Z</time></trkpt><trkpt lat="43.6292723" lon="12.5251287"><ele>400.99999999999994</ele><time>2026-05-03T09:08:28.773Z</time></trkpt><trkpt lat="43.6292529" lon="12.5250368"><ele>401.0</ele><time>2026-05-03T09:08:29.773Z</time></trkpt><trkpt lat="43.6292302" lon="12.5249506"><ele>404.75</ele><time>2026-05-03T09:08:30.773Z</time></trkpt><trkpt lat="43.6291671" lon="12.5248243"><ele>408.5</ele><time>2026-05-03T09:08:32.773Z</time></trkpt><trkpt lat="43.629071" lon="12.5247426"><ele>412.25</ele><time>2026-05-03T09:08:34.772Z</time></trkpt><trkpt lat="43.6289334" lon="12.5246767"><ele>416.0</ele><time>2026-05-03T09:08:36.774Z</time></trkpt><trkpt lat="43.628856" lon="12.524634"><ele>416.6</ele><time>2026-05-03T09:08:37.772Z</time></trkpt><trkpt lat="43.6287804" lon="12.524508"><ele>417.20000000000005</ele><time>2026-05-03T09:08:39.773Z</time></trkpt><trkpt lat="43.6287603" lon="12.5244138"><ele>417.79999999999995</ele><time>2026-05-03T09:08:40.773Z</time></trkpt><trkpt lat="43.6287466" lon="12.5242903"><ele>418.4</ele><time>2026-05-03T09:08:41.774Z</time></trkpt><trkpt lat="43.628739" lon="12.5241525"><ele>419.0</ele><time>2026-05-03T09:08:42.773Z</time></trkpt><trkpt lat="43.6287338" lon="12.5240099"><ele>418.99999999999994</ele><time>2026-05-03T09:08:43.773Z</time></trkpt><trkpt lat="43.628724" lon="12.5238806"><ele>419.0</ele><time>2026-05-03T09:08:44.773Z</time></trkpt><trkpt lat="43.6287094" lon="12.5237718"><ele>419.0</ele><time>2026-05-03T09:08:45.773Z</time></trkpt><trkpt lat="43.628681" lon="12.5236751"><ele>419.0</ele><time>2026-05-03T09:08:46.773Z</time></trkpt><trkpt lat="43.6286298" lon="12.5236036"><ele>418.99999999999994</ele><time>2026-05-03T09:08:47.773Z</time></trkpt><trkpt lat="43.6285602" lon="12.5235584"><ele>419.0</ele><time>2026-05-03T09:08:48.773Z</time></trkpt><trkpt lat="43.6284816" lon="12.5235225"><ele>424.75</ele><time>2026-05-03T09:08:49.773Z</time></trkpt><trkpt lat="43.6283945" lon="12.5234947"><ele>430.5</ele><time>2026-05-03T09:08:50.773Z</time></trkpt><trkpt lat="43.6282911" lon="12.5234854"><ele>436.25</ele><time>2026-05-03T09:08:51.773Z</time></trkpt><trkpt lat="43.6281588" lon="12.5234885"><ele>442.0</ele><time>2026-05-03T09:08:52.774Z</time></trkpt><trkpt lat="43.6280342" lon="12.5235053"><ele>442.0</ele><time>2026-05-03T09:08:53.773Z</time></trkpt><trkpt lat="43.6279294" lon="12.523518"><ele>442.00000000000006</ele><time>2026-05-03T09:08:54.772Z</time></trkpt><trkpt lat="43.6278407" lon="12.5235289"><ele>442.00000000000006</ele><time>2026-05-03T09:08:55.772Z</time></trkpt><trkpt lat="43.6277653" lon="12.5235237"><ele>442.0</ele><time>2026-05-03T09:08:56.772Z</time></trkpt><trkpt lat="43.6276474" lon="12.5234855"><ele>442.0</ele><time>2026-05-03T09:08:58.773Z</time></trkpt><trkpt lat="43.627561" lon="12.5234235"><ele>443.8</ele><time>2026-05-03T09:09:00.773Z</time></trkpt><trkpt lat="43.6275026" lon="12.5233881"><ele>445.6</ele><time>2026-05-03T09:09:03.773Z</time></trkpt><trkpt lat="43.6274059" lon="12.5233593"><ele>447.40000000000003</ele><time>2026-05-03T09:10:51.772Z</time></trkpt><trkpt lat="43.6272929" lon="12.5233666"><ele>449.20000000000005</ele><time>2026-05-03T09:10:53.771Z</time></trkpt><trkpt lat="43.6272302" lon="12.5233864"><ele>451.0</ele><time>2026-05-03T09:10:54.772Z</time></trkpt><trkpt lat="43.6271163" lon="12.5234315"><ele>451.0</ele><time>2026-05-03T09:10:56.773Z</time></trkpt><trkpt lat="43.6269911" lon="12.5234417"><ele>451.0</ele><time>2026-05-03T09:10:58.772Z</time></trkpt><trkpt lat="43.6269037" lon="12.5234188"><ele>451.0</ele><time>2026-05-03T09:10:59.772Z</time></trkpt><trkpt lat="43.6268107" lon="12.5233774"><ele>451.0</ele><time>2026-05-03T09:11:00.772Z</time></trkpt><trkpt lat="43.6267258" lon="12.5233455"><ele>451.0</ele><time>2026-05-03T09:11:01.772Z</time></trkpt><trkpt lat="43.6266462" lon="12.5233275"><ele>450.33333333333337</ele><time>2026-05-03T09:11:02.772Z</time></trkpt><trkpt lat="43.6265735" lon="12.5233291"><ele>449.6666666666667</ele><time>2026-05-03T09:11:03.771Z</time></trkpt><trkpt lat="43.6265122" lon="12.5233493"><ele>449.0</ele><time>2026-05-03T09:11:04.772Z</time></trkpt><trkpt lat="43.6264379" lon="12.5234486"><ele>448.33333333333337</ele><time>2026-05-03T09:11:06.772Z</time></trkpt><trkpt lat="43.626449" lon="12.5235343"><ele>447.6666666666667</ele><time>2026-05-03T09:11:07.773Z</time></trkpt><trkpt lat="43.6264944" lon="12.5236041"><ele>447.0</ele><time>2026-05-03T09:11:08.772Z</time></trkpt><trkpt lat="43.6265611" lon="12.5236742"><ele>442.20000000000005</ele><time>2026-05-03T09:11:09.772Z</time></trkpt><trkpt lat="43.6266536" lon="12.5237649"><ele>437.40000000000003</ele><time>2026-05-03T09:11:10.771Z</time></trkpt><trkpt lat="43.6267551" lon="12.5238526"><ele>432.6</ele><time>2026-05-03T09:11:11.771Z</time></trkpt><trkpt lat="43.6268513" lon="12.5239093"><ele>427.79999999999995</ele><time>2026-05-03T09:11:12.771Z</time></trkpt><trkpt lat="43.6269424" lon="12.5239368"><ele>423.0</ele><time>2026-05-03T09:11:13.771Z</time></trkpt><trkpt lat="43.6270324" lon="12.5239431"><ele>422.4</ele><time>2026-05-03T09:11:14.772Z</time></trkpt><trkpt lat="43.6271215" lon="12.5239392"><ele>421.79999999999995</ele><time>2026-05-03T09:11:15.772Z</time></trkpt><trkpt lat="43.6272106" lon="12.5239374"><ele>421.2</ele><time>2026-05-03T09:11:16.773Z</time></trkpt><trkpt lat="43.6272977" lon="12.5239537"><ele>420.6</ele><time>2026-05-03T09:11:17.772Z</time></trkpt><trkpt lat="43.6273874" lon="12.5239818"><ele>420.0</ele><time>2026-05-03T09:11:18.773Z</time></trkpt><trkpt lat="43.6274773" lon="12.5240258"><ele>420.0</ele><time>2026-05-03T09:11:19.772Z</time></trkpt><trkpt lat="43.6275628" lon="12.5240877"><ele>420.0</ele><time>2026-05-03T09:11:20.772Z</time></trkpt><trkpt lat="43.6276405" lon="12.5241557"><ele>420.0</ele><time>2026-05-03T09:11:21.771Z</time></trkpt><trkpt lat="43.6277163" lon="12.524226"><ele>420.0</ele><time>2026-05-03T09:11:22.773Z</time></trkpt><trkpt lat="43.627792" lon="12.5242979"><ele>420.0</ele><time>2026-05-03T09:11:23.772Z</time></trkpt><trkpt lat="43.6278628" lon="12.5243772"><ele>420.4</ele><time>2026-05-03T09:11:24.773Z</time></trkpt><trkpt lat="43.6279264" lon="12.5244705"><ele>420.8</ele><time>2026-05-03T09:11:25.772Z</time></trkpt><trkpt lat="43.6279753" lon="12.5245794"><ele>421.20000000000005</ele><time>2026-05-03T09:11:26.773Z</time></trkpt><trkpt lat="43.6280086" lon="12.5247013"><ele>421.6</ele><time>2026-05-03T09:11:27.773Z</time></trkpt><trkpt lat="43.6280279" lon="12.5248373"><ele>422.0</ele><time>2026-05-03T09:11:28.771Z</time></trkpt><trkpt lat="43.6280384" lon="12.5249745"><ele>420.49999999999994</ele><time>2026-05-03T09:11:29.773Z</time></trkpt><trkpt lat="43.6280488" lon="12.5251048"><ele>419.0</ele><time>2026-05-03T09:11:30.773Z</time></trkpt><trkpt lat="43.6280636" lon="12.5252186"><ele>417.5</ele><time>2026-05-03T09:11:31.772Z</time></trkpt><trkpt lat="43.6280958" lon="12.5253151"><ele>416.0</ele><time>2026-05-03T09:11:32.772Z</time></trkpt><trkpt lat="43.6281497" lon="12.5253923"><ele>414.49999999999994</ele><time>2026-05-03T09:11:33.771Z</time></trkpt><trkpt lat="43.6282153" lon="12.5254493"><ele>413.0</ele><time>2026-05-03T09:11:34.771Z</time></trkpt><trkpt lat="43.628295" lon="12.5254934"><ele>410.66666666666663</ele><time>2026-05-03T09:11:35.772Z</time></trkpt><trkpt lat="43.6283927" lon="12.5255291"><ele>408.3333333333333</ele><time>2026-05-03T09:11:36.773Z</time></trkpt><trkpt lat="43.6284757" lon="12.5255682"><ele>406.0</ele><time>2026-05-03T09:11:37.772Z</time></trkpt><trkpt lat="43.6285451" lon="12.5256344"><ele>403.66666666666663</ele><time>2026-05-03T09:11:38.771Z</time></trkpt><trkpt lat="43.628597" lon="12.5257251"><ele>401.3333333333333</ele><time>2026-05-03T09:11:39.772Z</time></trkpt><trkpt lat="43.6286027" lon="12.5258414"><ele>399.0</ele><time>2026-05-03T09:11:40.773Z</time></trkpt><trkpt lat="43.628584" lon="12.5259418"><ele>399.0</ele><time>2026-05-03T09:11:41.772Z</time></trkpt><trkpt lat="43.6285407" lon="12.526025"><ele>399.0</ele><time>2026-05-03T09:11:42.772Z</time></trkpt><trkpt lat="43.6284747" lon="12.5260845"><ele>399.0</ele><time>2026-05-03T09:11:43.772Z</time></trkpt><trkpt lat="43.6283934" lon="12.5261249"><ele>399.0</ele><time>2026-05-03T09:11:44.772Z</time></trkpt><trkpt lat="43.6283055" lon="12.526164"><ele>399.0</ele><time>2026-05-03T09:11:45.771Z</time></trkpt><trkpt lat="43.6282086" lon="12.5261998"><ele>399.0</ele><time>2026-05-03T09:11:46.772Z</time></trkpt><trkpt lat="43.6281242" lon="12.5262324"><ele>397.4</ele><time>2026-05-03T09:11:47.771Z</time></trkpt><trkpt lat="43.628046" lon="12.5262685"><ele>395.79999999999995</ele><time>2026-05-03T09:11:48.772Z</time></trkpt><trkpt lat="43.6279733" lon="12.5263164"><ele>394.20000000000005</ele><time>2026-05-03T09:11:49.772Z</time></trkpt><trkpt lat="43.6279164" lon="12.5263978"><ele>392.6</ele><time>2026-05-03T09:11:50.772Z</time></trkpt><trkpt lat="43.6278784" lon="12.5265312"><ele>391.0</ele><time>2026-05-03T09:11:51.773Z</time></trkpt><trkpt lat="43.6278513" lon="12.5267087"><ele>391.0</ele><time>2026-05-03T09:11:52.773Z</time></trkpt><trkpt lat="43.6278326" lon="12.5269325"><ele>391.0</ele><time>2026-05-03T09:11:53.772Z</time></trkpt><trkpt lat="43.6278096" lon="12.5271295"><ele>391.0</ele><time>2026-05-03T09:11:54.772Z</time></trkpt><trkpt lat="43.6277899" lon="12.5273183"><ele>391.0</ele><time>2026-05-03T09:11:55.773Z</time></trkpt><trkpt lat="43.6277741" lon="12.5274878"><ele>389.33333333333337</ele><time>2026-05-03T09:11:56.772Z</time></trkpt><trkpt lat="43.6277619" lon="12.5276361"><ele>387.6666666666667</ele><time>2026-05-03T09:11:57.772Z</time></trkpt><trkpt lat="43.6277603" lon="12.5277646"><ele>386.0</ele><time>2026-05-03T09:11:58.772Z</time></trkpt><trkpt lat="43.6277734" lon="12.5278768"><ele>384.33333333333337</ele><time>2026-05-03T09:11:59.772Z</time></trkpt><trkpt lat="43.6277997" lon="12.5279818"><ele>382.6666666666667</ele><time>2026-05-03T09:12:00.772Z</time></trkpt><trkpt lat="43.6278427" lon="12.5280594"><ele>381.0</ele><time>2026-05-03T09:12:01.771Z</time></trkpt><trkpt lat="43.6278976" lon="12.5281146"><ele>380.8333333333333</ele><time>2026-05-03T09:12:02.772Z</time></trkpt><trkpt lat="43.6279649" lon="12.5281619"><ele>380.6666666666667</ele><time>2026-05-03T09:12:03.773Z</time></trkpt><trkpt lat="43.6280413" lon="12.528206"><ele>380.5</ele><time>2026-05-03T09:12:04.772Z</time></trkpt><trkpt lat="43.6281261" lon="12.5282462"><ele>380.33333333333337</ele><time>2026-05-03T09:12:05.772Z</time></trkpt><trkpt lat="43.6282084" lon="12.5282966"><ele>380.1666666666667</ele><time>2026-05-03T09:12:06.771Z</time></trkpt><trkpt lat="43.6282934" lon="12.5283557"><ele>380.0</ele><time>2026-05-03T09:12:07.772Z</time></trkpt><trkpt lat="43.6283674" lon="12.5284341"><ele>380.0</ele><time>2026-05-03T09:12:08.772Z</time></trkpt><trkpt lat="43.6284228" lon="12.5285309"><ele>380.0</ele><time>2026-05-03T09:12:09.771Z</time></trkpt><trkpt lat="43.6284584" lon="12.5286524"><ele>380.0</ele><time>2026-05-03T09:12:10.773Z</time></trkpt><trkpt lat="43.6284627" lon="12.5287875"><ele>380.0</ele><time>2026-05-03T09:12:11.771Z</time></trkpt><trkpt lat="43.6284449" lon="12.5289439"><ele>380.0</ele><time>2026-05-03T09:12:12.771Z</time></trkpt><trkpt lat="43.6284271" lon="12.529092"><ele>379.6</ele><time>2026-05-03T09:12:13.773Z</time></trkpt><trkpt lat="43.6284175" lon="12.529225"><ele>379.2</ele><time>2026-05-03T09:12:14.772Z</time></trkpt><trkpt lat="43.6284054" lon="12.5293522"><ele>378.79999999999995</ele><time>2026-05-03T09:12:15.772Z</time></trkpt><trkpt lat="43.6283951" lon="12.529471"><ele>378.4</ele><time>2026-05-03T09:12:16.773Z</time></trkpt><trkpt lat="43.6284018" lon="12.5295864"><ele>378.0</ele><time>2026-05-03T09:12:17.771Z</time></trkpt><trkpt lat="43.6284272" lon="12.5297121"><ele>378.0</ele><time>2026-05-03T09:12:18.771Z</time></trkpt><trkpt lat="43.6284685" lon="12.529844"><ele>378.0</ele><time>2026-05-03T09:12:19.772Z</time></trkpt><trkpt lat="43.6285116" lon="12.5299874"><ele>378.0</ele><time>2026-05-03T09:12:20.771Z</time></trkpt><trkpt lat="43.6285596" lon="12.530139"><ele>378.0</ele><time>2026-05-03T09:12:21.773Z</time></trkpt><trkpt lat="43.6286098" lon="12.5303031"><ele>374.75</ele><time>2026-05-03T09:12:22.772Z</time></trkpt><trkpt lat="43.6286626" lon="12.5304765"><ele>371.5</ele><time>2026-05-03T09:12:23.772Z</time></trkpt><trkpt lat="43.6287105" lon="12.5306623"><ele>368.25</ele><time>2026-05-03T09:12:24.772Z</time></trkpt><trkpt lat="43.6287593" lon="12.5308524"><ele>365.0</ele><time>2026-05-03T09:12:25.771Z</time></trkpt><trkpt lat="43.6288072" lon="12.5310348"><ele>365.0</ele><time>2026-05-03T09:12:26.772Z</time></trkpt><trkpt lat="43.6288483" lon="12.5311987"><ele>365.0</ele><time>2026-05-03T09:12:27.773Z</time></trkpt><trkpt lat="43.6288889" lon="12.5313569"><ele>365.0</ele><time>2026-05-03T09:12:28.772Z</time></trkpt><trkpt lat="43.6289395" lon="12.5314925"><ele>365.0</ele><time>2026-05-03T09:12:29.773Z</time></trkpt><trkpt lat="43.6290059" lon="12.5316114"><ele>368.2</ele><time>2026-05-03T09:12:30.772Z</time></trkpt><trkpt lat="43.6290798" lon="12.5317236"><ele>371.4</ele><time>2026-05-03T09:12:31.772Z</time></trkpt><trkpt lat="43.6291643" lon="12.5318094"><ele>374.6</ele><time>2026-05-03T09:12:32.771Z</time></trkpt><trkpt lat="43.6292585" lon="12.5318989"><ele>377.8</ele><time>2026-05-03T09:12:33.772Z</time></trkpt><trkpt lat="43.6293377" lon="12.531962"><ele>381.0</ele><time>2026-05-03T09:12:34.772Z</time></trkpt><trkpt lat="43.6294138" lon="12.5320504"><ele>381.6</ele><time>2026-05-03T09:12:35.772Z</time></trkpt><trkpt lat="43.6294721" lon="12.5321653"><ele>382.20000000000005</ele><time>2026-05-03T09:12:36.772Z</time></trkpt><trkpt lat="43.6295159" lon="12.5322935"><ele>382.79999999999995</ele><time>2026-05-03T09:12:37.771Z</time></trkpt><trkpt lat="43.6295452" lon="12.5324134"><ele>383.4</ele><time>2026-05-03T09:12:38.772Z</time></trkpt><trkpt lat="43.6295589" lon="12.5325247"><ele>384.0</ele><time>2026-05-03T09:12:39.771Z</time></trkpt><trkpt lat="43.6295585" lon="12.5326313"><ele>384.0</ele><time>2026-05-03T09:12:40.771Z</time></trkpt><trkpt lat="43.6295501" lon="12.5327181"><ele>384.0</ele><time>2026-05-03T09:12:41.771Z</time></trkpt><trkpt lat="43.6295136" lon="12.5328454"><ele>384.0</ele><time>2026-05-03T09:12:43.773Z</time></trkpt><trkpt lat="43.6294583" lon="12.5329498"><ele>384.0</ele><time>2026-05-03T09:12:45.773Z</time></trkpt><trkpt lat="43.6294074" lon="12.533001"><ele>384.0</ele><time>2026-05-03T09:12:47.771Z</time></trkpt><trkpt lat="43.6293348" lon="12.5330436"><ele>384.0</ele><time>2026-05-03T09:13:15.771Z</time></trkpt><trkpt lat="43.6292592" lon="12.5330848"><ele>385.4</ele><time>2026-05-03T09:13:16.771Z</time></trkpt><trkpt lat="43.6291713" lon="12.533126"><ele>386.79999999999995</ele><time>2026-05-03T09:13:17.772Z</time></trkpt><trkpt lat="43.6290634" lon="12.5331697"><ele>388.20000000000005</ele><time>2026-05-03T09:13:18.772Z</time></trkpt><trkpt lat="43.6289507" lon="12.5332186"><ele>389.6</ele><time>2026-05-03T09:13:19.773Z</time></trkpt><trkpt lat="43.6288467" lon="12.5332711"><ele>391.0</ele><time>2026-05-03T09:13:20.772Z</time></trkpt><trkpt lat="43.6287462" lon="12.5333222"><ele>391.0</ele><time>2026-05-03T09:13:21.771Z</time></trkpt><trkpt lat="43.6286474" lon="12.533384"><ele>391.0</ele><time>2026-05-03T09:13:22.772Z</time></trkpt><trkpt lat="43.628556" lon="12.5334578"><ele>391.0</ele><time>2026-05-03T09:13:23.772Z</time></trkpt><trkpt lat="43.628474" lon="12.5335464"><ele>391.0</ele><time>2026-05-03T09:13:24.773Z</time></trkpt><trkpt lat="43.6284119" lon="12.5336511"><ele>391.0</ele><time>2026-05-03T09:13:25.771Z</time></trkpt><trkpt lat="43.6283711" lon="12.5337577"><ele>387.50000000000006</ele><time>2026-05-03T09:13:26.772Z</time></trkpt><trkpt lat="43.628333" lon="12.5338675"><ele>384.0</ele><time>2026-05-03T09:13:27.771Z</time></trkpt><trkpt lat="43.6282859" lon="12.5339717"><ele>380.5</ele><time>2026-05-03T09:13:28.771Z</time></trkpt><trkpt lat="43.6282191" lon="12.5340744"><ele>377.0</ele><time>2026-05-03T09:13:29.771Z</time></trkpt><trkpt lat="43.628152" lon="12.5341499"><ele>373.5</ele><time>2026-05-03T09:13:30.771Z</time></trkpt><trkpt lat="43.6280907" lon="12.5342099"><ele>370.0</ele><time>2026-05-03T09:13:31.772Z</time></trkpt><trkpt lat="43.6279873" lon="12.5342864"><ele>370.0</ele><time>2026-05-03T09:13:33.77Z</time></trkpt><trkpt lat="43.6279308" lon="12.5344265"><ele>370.0</ele><time>2026-05-03T09:13:35.771Z</time></trkpt><trkpt lat="43.6279433" lon="12.5345181"><ele>370.0</ele><time>2026-05-03T09:13:36.771Z</time></trkpt><trkpt lat="43.6279852" lon="12.5346231"><ele>370.0</ele><time>2026-05-03T09:13:37.77Z</time></trkpt><trkpt lat="43.6280465" lon="12.534733"><ele>370.0</ele><time>2026-05-03T09:13:38.77Z</time></trkpt><trkpt lat="43.6281263" lon="12.5348622"><ele>367.75</ele><time>2026-05-03T09:13:39.771Z</time></trkpt><trkpt lat="43.6282272" lon="12.5350031"><ele>365.5</ele><time>2026-05-03T09:13:40.771Z</time></trkpt><trkpt lat="43.628339" lon="12.5351401"><ele>363.25</ele><time>2026-05-03T09:13:41.771Z</time></trkpt><trkpt lat="43.6284443" lon="12.5352594"><ele>361.0</ele><time>2026-05-03T09:13:42.771Z</time></trkpt><trkpt lat="43.6285445" lon="12.535366"><ele>361.3333333333333</ele><time>2026-05-03T09:13:43.771Z</time></trkpt><trkpt lat="43.6286282" lon="12.5354647"><ele>361.66666666666663</ele><time>2026-05-03T09:13:44.772Z</time></trkpt><trkpt lat="43.6287024" lon="12.535545"><ele>362.0</ele><time>2026-05-03T09:13:45.77Z</time></trkpt><trkpt lat="43.628765" lon="12.5356115"><ele>362.3333333333333</ele><time>2026-05-03T09:13:46.772Z</time></trkpt><trkpt lat="43.6288139" lon="12.535672"><ele>362.6666666666667</ele><time>2026-05-03T09:13:47.771Z</time></trkpt><trkpt lat="43.6288676" lon="12.5357655"><ele>363.0</ele><time>2026-05-03T09:13:49.77Z</time></trkpt><trkpt lat="43.6288087" lon="12.5356649"><ele>363.0</ele><time>2026-05-03T09:14:10.77Z</time></trkpt><trkpt lat="43.6287336" lon="12.5355884"><ele>363.0</ele><time>2026-05-03T09:14:12.77Z</time></trkpt><trkpt lat="43.6286627" lon="12.5355613"><ele>363.0</ele><time>2026-05-03T09:14:14.771Z</time></trkpt><trkpt lat="43.6285964" lon="12.5355875"><ele>363.0</ele><time>2026-05-03T09:14:26.771Z</time></trkpt><trkpt lat="43.6285329" lon="12.5356292"><ele>363.0</ele><time>2026-05-03T09:14:27.772Z</time></trkpt><trkpt lat="43.6284586" lon="12.5356879"><ele>363.0</ele><time>2026-05-03T09:14:28.771Z</time></trkpt><trkpt lat="43.6283814" lon="12.5357609"><ele>363.0</ele><time>2026-05-03T09:14:29.77Z</time></trkpt><trkpt lat="43.628298" lon="12.5358561"><ele>363.0</ele><time>2026-05-03T09:14:30.77Z</time></trkpt><trkpt lat="43.6282055" lon="12.535969"><ele>363.0</ele><time>2026-05-03T09:14:31.77Z</time></trkpt><trkpt lat="43.6281137" lon="12.5361001"><ele>363.0</ele><time>2026-05-03T09:14:32.77Z</time></trkpt><trkpt lat="43.6280135" lon="12.5362506"><ele>366.0</ele><time>2026-05-03T09:14:33.771Z</time></trkpt><trkpt lat="43.6279261" lon="12.5363724"><ele>369.0</ele><time>2026-05-03T09:14:34.77Z</time></trkpt><trkpt lat="43.6278526" lon="12.5365132"><ele>372.0</ele><time>2026-05-03T09:14:35.77Z</time></trkpt><trkpt lat="43.6277747" lon="12.5366781"><ele>375.0</ele><time>2026-05-03T09:14:36.77Z</time></trkpt><trkpt lat="43.6276715" lon="12.5368744"><ele>378.0</ele><time>2026-05-03T09:14:37.771Z</time></trkpt><trkpt lat="43.6275671" lon="12.5370747"><ele>381.0</ele><time>2026-05-03T09:14:38.771Z</time></trkpt><trkpt lat="43.6274814" lon="12.5372417"><ele>384.0</ele><time>2026-05-03T09:14:39.771Z</time></trkpt><trkpt lat="43.6274007" lon="12.5373992"><ele>384.0</ele><time>2026-05-03T09:14:40.771Z</time></trkpt><trkpt lat="43.6273319" lon="12.537538"><ele>384.0</ele><time>2026-05-03T09:14:41.771Z</time></trkpt><trkpt lat="43.6272723" lon="12.5376728"><ele>384.0</ele><time>2026-05-03T09:14:42.77Z</time></trkpt><trkpt lat="43.6272146" lon="12.5378244"><ele>384.0</ele><time>2026-05-03T09:14:43.772Z</time></trkpt><trkpt lat="43.6271574" lon="12.5380048"><ele>383.75</ele><time>2026-05-03T09:14:44.772Z</time></trkpt><trkpt lat="43.6270908" lon="12.5382051"><ele>383.5</ele><time>2026-05-03T09:14:45.77Z</time></trkpt><trkpt lat="43.6270337" lon="12.5383809"><ele>383.25</ele><time>2026-05-03T09:14:46.771Z</time></trkpt><trkpt lat="43.6269888" lon="12.5385244"><ele>383.0</ele><time>2026-05-03T09:14:47.77Z</time></trkpt><trkpt lat="43.6269504" lon="12.5386512"><ele>386.0</ele><time>2026-05-03T09:14:48.771Z</time></trkpt><trkpt lat="43.6269001" lon="12.5387736"><ele>389.0</ele><time>2026-05-03T09:14:49.771Z</time></trkpt><trkpt lat="43.6268346" lon="12.5388798"><ele>392.0</ele><time>2026-05-03T09:14:50.77Z</time></trkpt><trkpt lat="43.6267378" lon="12.5389687"><ele>395.0</ele><time>2026-05-03T09:14:51.771Z</time></trkpt><trkpt lat="43.6266181" lon="12.5390698"><ele>395.0</ele><time>2026-05-03T09:14:52.771Z</time></trkpt><trkpt lat="43.626497" lon="12.5391701"><ele>395.0</ele><time>2026-05-03T09:14:53.77Z</time></trkpt><trkpt lat="43.626386" lon="12.5392796"><ele>395.0</ele><time>2026-05-03T09:14:54.771Z</time></trkpt><trkpt lat="43.6262662" lon="12.5394296"><ele>395.0</ele><time>2026-05-03T09:14:55.771Z</time></trkpt><trkpt lat="43.626136" lon="12.5396018"><ele>399.0</ele><time>2026-05-03T09:14:56.771Z</time></trkpt><trkpt lat="43.6259907" lon="12.539778"><ele>403.0</ele><time>2026-05-03T09:14:57.77Z</time></trkpt><trkpt lat="43.6258414" lon="12.5399553"><ele>407.0</ele><time>2026-05-03T09:14:58.772Z</time></trkpt><trkpt lat="43.6257229" lon="12.540093"><ele>407.0</ele><time>2026-05-03T09:14:59.77Z</time></trkpt><trkpt lat="43.6256159" lon="12.5402008"><ele>407.0</ele><time>2026-05-03T09:15:00.77Z</time></trkpt><trkpt lat="43.6255043" lon="12.5402831"><ele>407.0</ele><time>2026-05-03T09:15:01.77Z</time></trkpt><trkpt lat="43.6254224" lon="12.5403353"><ele>407.0</ele><time>2026-05-03T09:15:02.77Z</time></trkpt><trkpt lat="43.6253478" lon="12.5404016"><ele>407.0</ele><time>2026-05-03T09:15:03.772Z</time></trkpt><trkpt lat="43.6252865" lon="12.540485"><ele>412.75</ele><time>2026-05-03T09:15:04.773Z</time></trkpt><trkpt lat="43.625245" lon="12.5405942"><ele>418.5</ele><time>2026-05-03T09:15:05.77Z</time></trkpt><trkpt lat="43.6252" lon="12.5407292"><ele>424.25</ele><time>2026-05-03T09:15:06.771Z</time></trkpt><trkpt lat="43.6251458" lon="12.5408872"><ele>430.0</ele><time>2026-05-03T09:15:07.77Z</time></trkpt><trkpt lat="43.6250748" lon="12.5410506"><ele>434.0</ele><time>2026-05-03T09:15:08.77Z</time></trkpt><trkpt lat="43.625004" lon="12.5412297"><ele>438.0</ele><time>2026-05-03T09:15:09.77Z</time></trkpt><trkpt lat="43.6248856" lon="12.5414412"><ele>442.0</ele><time>2026-05-03T09:15:10.771Z</time></trkpt><trkpt lat="43.624771" lon="12.541632"><ele>442.0</ele><time>2026-05-03T09:15:11.771Z</time></trkpt><trkpt lat="43.6246503" lon="12.5418269"><ele>442.0</ele><time>2026-05-03T09:15:12.772Z</time></trkpt><trkpt lat="43.6245348" lon="12.5419616"><ele>442.0</ele><time>2026-05-03T09:15:13.772Z</time></trkpt><trkpt lat="43.6244403" lon="12.5420838"><ele>445.5</ele><time>2026-05-03T09:15:14.771Z</time></trkpt><trkpt lat="43.6243522" lon="12.542201"><ele>449.0</ele><time>2026-05-03T09:15:15.772Z</time></trkpt><trkpt lat="43.6242619" lon="12.5423051"><ele>452.5</ele><time>2026-05-03T09:15:16.77Z</time></trkpt><trkpt lat="43.6241647" lon="12.5423993"><ele>456.0</ele><time>2026-05-03T09:15:17.771Z</time></trkpt><trkpt lat="43.6240612" lon="12.5424641"><ele>456.0</ele><time>2026-05-03T09:15:18.772Z</time></trkpt><trkpt lat="43.6239662" lon="12.5425007"><ele>456.0</ele><time>2026-05-03T09:15:19.771Z</time></trkpt><trkpt lat="43.6238759" lon="12.5425098"><ele>456.0</ele><time>2026-05-03T09:15:20.772Z</time></trkpt><trkpt lat="43.6237934" lon="12.5425127"><ele>456.0</ele><time>2026-05-03T09:15:21.771Z</time></trkpt><trkpt lat="43.62372" lon="12.5425197"><ele>456.0</ele><time>2026-05-03T09:15:22.771Z</time></trkpt><trkpt lat="43.6236168" lon="12.5425902"><ele>456.4</ele><time>2026-05-03T09:15:24.772Z</time></trkpt><trkpt lat="43.6235807" lon="12.5426732"><ele>456.8</ele><time>2026-05-03T09:15:25.77Z</time></trkpt><trkpt lat="43.6235423" lon="12.542786"><ele>457.19999999999993</ele><time>2026-05-03T09:15:26.772Z</time></trkpt><trkpt lat="43.6235014" lon="12.5429178"><ele>457.59999999999997</ele><time>2026-05-03T09:15:27.77Z</time></trkpt><trkpt lat="43.6234505" lon="12.5430539"><ele>458.0</ele><time>2026-05-03T09:15:28.771Z</time></trkpt><trkpt lat="43.6233936" lon="12.5431958"><ele>458.0</ele><time>2026-05-03T09:15:29.772Z</time></trkpt><trkpt lat="43.623328" lon="12.5433324"><ele>458.0</ele><time>2026-05-03T09:15:30.771Z</time></trkpt><trkpt lat="43.6232593" lon="12.5434907"><ele>458.0</ele><time>2026-05-03T09:15:31.772Z</time></trkpt><trkpt lat="43.6231793" lon="12.5436824"><ele>458.0</ele><time>2026-05-03T09:15:32.771Z</time></trkpt><trkpt lat="43.6230808" lon="12.5439089"><ele>456.66666666666663</ele><time>2026-05-03T09:15:33.771Z</time></trkpt><trkpt lat="43.6229716" lon="12.5441496"><ele>455.33333333333337</ele><time>2026-05-03T09:15:34.77Z</time></trkpt><trkpt lat="43.6228769" lon="12.5443622"><ele>454.0</ele><time>2026-05-03T09:15:35.771Z</time></trkpt><trkpt lat="43.6227869" lon="12.5445662"><ele>450.75</ele><time>2026-05-03T09:15:36.771Z</time></trkpt><trkpt lat="43.6227014" lon="12.5447506"><ele>447.5</ele><time>2026-05-03T09:15:37.771Z</time></trkpt><trkpt lat="43.6226265" lon="12.5449184"><ele>444.25</ele><time>2026-05-03T09:15:38.771Z</time></trkpt><trkpt lat="43.62256" lon="12.5450691"><ele>441.0</ele><time>2026-05-03T09:15:39.77Z</time></trkpt><trkpt lat="43.6225014" lon="12.5452039"><ele>441.0</ele><time>2026-05-03T09:15:40.772Z</time></trkpt><trkpt lat="43.6224416" lon="12.5453298"><ele>441.0</ele><time>2026-05-03T09:15:41.771Z</time></trkpt><trkpt lat="43.6223759" lon="12.5454416"><ele>441.0</ele><time>2026-05-03T09:15:42.772Z</time></trkpt><trkpt lat="43.6222935" lon="12.5455344"><ele>441.0</ele><time>2026-05-03T09:15:43.77Z</time></trkpt><trkpt lat="43.6221936" lon="12.5456199"><ele>441.0</ele><time>2026-05-03T09:15:44.77Z</time></trkpt><trkpt lat="43.6220814" lon="12.5456936"><ele>435.75</ele><time>2026-05-03T09:15:45.771Z</time></trkpt><trkpt lat="43.6219702" lon="12.545747"><ele>430.5</ele><time>2026-05-03T09:15:46.772Z</time></trkpt><trkpt lat="43.621865" lon="12.5457981"><ele>425.25</ele><time>2026-05-03T09:15:47.771Z</time></trkpt><trkpt lat="43.6217699" lon="12.5458632"><ele>420.0</ele><time>2026-05-03T09:15:48.771Z</time></trkpt><trkpt lat="43.6216718" lon="12.5459561"><ele>420.0</ele><time>2026-05-03T09:15:49.77Z</time></trkpt><trkpt lat="43.6215677" lon="12.5460801"><ele>420.0</ele><time>2026-05-03T09:15:50.771Z</time></trkpt><trkpt lat="43.6214728" lon="12.5461936"><ele>420.0</ele><time>2026-05-03T09:15:51.771Z</time></trkpt><trkpt lat="43.621386" lon="12.5462949"><ele>420.0</ele><time>2026-05-03T09:15:52.771Z</time></trkpt><trkpt lat="43.6213077" lon="12.5463757"><ele>419.4</ele><time>2026-05-03T09:15:53.772Z</time></trkpt><trkpt lat="43.621232" lon="12.5464198"><ele>418.8</ele><time>2026-05-03T09:15:54.771Z</time></trkpt><trkpt lat="43.6211452" lon="12.5464202"><ele>418.20000000000005</ele><time>2026-05-03T09:15:55.772Z</time></trkpt><trkpt lat="43.6210419" lon="12.5463726"><ele>417.6</ele><time>2026-05-03T09:15:56.77Z</time></trkpt><trkpt lat="43.6209296" lon="12.5462743"><ele>417.0</ele><time>2026-05-03T09:15:57.77Z</time></trkpt><trkpt lat="43.6207965" lon="12.5461312"><ele>415.0</ele><time>2026-05-03T09:15:58.77Z</time></trkpt><trkpt lat="43.6206415" lon="12.5459729"><ele>413.0</ele><time>2026-05-03T09:15:59.772Z</time></trkpt><trkpt lat="43.6205069" lon="12.5458295"><ele>411.0</ele><time>2026-05-03T09:16:00.77Z</time></trkpt><trkpt lat="43.6203873" lon="12.5457003"><ele>410.6</ele><time>2026-05-03T09:16:01.771Z</time></trkpt><trkpt lat="43.6202814" lon="12.5455912"><ele>410.20000000000005</ele><time>2026-05-03T09:16:02.772Z</time></trkpt><trkpt lat="43.6201954" lon="12.5455081"><ele>409.79999999999995</ele><time>2026-05-03T09:16:03.771Z</time></trkpt><trkpt lat="43.6201227" lon="12.5454474"><ele>409.4</ele><time>2026-05-03T09:16:04.77Z</time></trkpt><trkpt lat="43.6200487" lon="12.5454141"><ele>409.0</ele><time>2026-05-03T09:16:05.771Z</time></trkpt><trkpt lat="43.6199713" lon="12.545407"><ele>409.0</ele><time>2026-05-03T09:16:06.771Z</time></trkpt><trkpt lat="43.619891" lon="12.5454231"><ele>409.0</ele><time>2026-05-03T09:16:07.771Z</time></trkpt><trkpt lat="43.619798" lon="12.545441"><ele>409.0</ele><time>2026-05-03T09:16:08.771Z</time></trkpt><trkpt lat="43.6196927" lon="12.5454733"><ele>409.0</ele><time>2026-05-03T09:16:09.772Z</time></trkpt><trkpt lat="43.6195792" lon="12.5455137"><ele>409.0</ele><time>2026-05-03T09:16:10.772Z</time></trkpt><trkpt lat="43.619462" lon="12.545585"><ele>411.0</ele><time>2026-05-03T09:16:11.771Z</time></trkpt><trkpt lat="43.6193289" lon="12.5456834"><ele>413.0</ele><time>2026-05-03T09:16:12.771Z</time></trkpt><trkpt lat="43.6191851" lon="12.5457956"><ele>415.0</ele><time>2026-05-03T09:16:13.772Z</time></trkpt><trkpt lat="43.6190596" lon="12.5458978"><ele>415.0</ele><time>2026-05-03T09:16:14.771Z</time></trkpt><trkpt lat="43.6189433" lon="12.5459987"><ele>415.0</ele><time>2026-05-03T09:16:15.771Z</time></trkpt><trkpt lat="43.6188389" lon="12.5460897"><ele>415.0</ele><time>2026-05-03T09:16:16.771Z</time></trkpt><trkpt lat="43.6187428" lon="12.5461909"><ele>415.0</ele><time>2026-05-03T09:16:17.771Z</time></trkpt><trkpt lat="43.6186387" lon="12.5463053"><ele>412.5</ele><time>2026-05-03T09:16:18.771Z</time></trkpt><trkpt lat="43.6185346" lon="12.546438"><ele>410.0</ele><time>2026-05-03T09:16:19.771Z</time></trkpt><trkpt lat="43.618432" lon="12.5465679"><ele>407.5</ele><time>2026-05-03T09:16:20.77Z</time></trkpt><trkpt lat="43.6183335" lon="12.5466933"><ele>405.0</ele><time>2026-05-03T09:16:21.772Z</time></trkpt><trkpt lat="43.6182426" lon="12.5468175"><ele>405.0</ele><time>2026-05-03T09:16:22.77Z</time></trkpt><trkpt lat="43.6181641" lon="12.5469409"><ele>405.0</ele><time>2026-05-03T09:16:23.772Z</time></trkpt><trkpt lat="43.6181007" lon="12.5470589"><ele>405.0</ele><time>2026-05-03T09:16:24.771Z</time></trkpt><trkpt lat="43.6180375" lon="12.5471725"><ele>405.0</ele><time>2026-05-03T09:16:25.772Z</time></trkpt><trkpt lat="43.6180155" lon="12.547304"><ele>405.0</ele><time>2026-05-03T09:16:26.771Z</time></trkpt><trkpt lat="43.6179868" lon="12.5474199"><ele>403.5</ele><time>2026-05-03T09:16:27.772Z</time></trkpt><trkpt lat="43.6179645" lon="12.5475263"><ele>402.0</ele><time>2026-05-03T09:16:28.771Z</time></trkpt><trkpt lat="43.6179372" lon="12.5476201"><ele>400.5</ele><time>2026-05-03T09:16:29.772Z</time></trkpt><trkpt lat="43.6178981" lon="12.5476983"><ele>399.0</ele><time>2026-05-03T09:16:30.772Z</time></trkpt><trkpt lat="43.6178144" lon="12.5477836"><ele>397.5</ele><time>2026-05-03T09:16:32.771Z</time></trkpt><trkpt lat="43.6177569" lon="12.5478222"><ele>396.0</ele><time>2026-05-03T09:16:34.771Z</time></trkpt><trkpt lat="43.6176979" lon="12.5477739"><ele>396.0</ele><time>2026-05-03T09:16:37.772Z</time></trkpt><trkpt lat="43.6176455" lon="12.5477084"><ele>396.0</ele><time>2026-05-03T09:16:40.772Z</time></trkpt><trkpt lat="43.6175814" lon="12.5476891"><ele>396.0</ele><time>2026-05-03T09:16:44.772Z</time></trkpt><trkpt lat="43.6175179" lon="12.5476834"><ele>396.0</ele><time>2026-05-03T09:17:22.771Z</time></trkpt><trkpt lat="43.6174538" lon="12.5476847"><ele>396.0</ele><time>2026-05-03T09:17:23.769Z</time></trkpt><trkpt lat="43.6173812" lon="12.5476756"><ele>396.0</ele><time>2026-05-03T09:17:24.77Z</time></trkpt><trkpt lat="43.6173097" lon="12.5476477"><ele>396.0</ele><time>2026-05-03T09:17:25.77Z</time></trkpt><trkpt lat="43.6172374" lon="12.5476003"><ele>396.0</ele><time>2026-05-03T09:17:26.769Z</time></trkpt><trkpt lat="43.6171723" lon="12.5475521"><ele>396.0</ele><time>2026-05-03T09:17:27.77Z</time></trkpt><trkpt lat="43.6170744" lon="12.5474732"><ele>396.0</ele><time>2026-05-03T09:17:29.77Z</time></trkpt><trkpt lat="43.6169989" lon="12.5474319"><ele>396.0</ele><time>2026-05-03T09:17:31.77Z</time></trkpt><trkpt lat="43.6169542" lon="12.5475354"><ele>396.0</ele><time>2026-05-03T09:17:33.77Z</time></trkpt><trkpt lat="43.6169931" lon="12.5477278"><ele>393.0</ele><time>2026-05-03T09:17:35.77Z</time></trkpt><trkpt lat="43.6170252" lon="12.547881"><ele>390.0</ele><time>2026-05-03T09:17:36.769Z</time></trkpt><trkpt lat="43.6170564" lon="12.5480505"><ele>387.0</ele><time>2026-05-03T09:17:37.769Z</time></trkpt><trkpt lat="43.6170794" lon="12.5482288"><ele>384.0</ele><time>2026-05-03T09:17:38.77Z</time></trkpt><trkpt lat="43.617096" lon="12.5484086"><ele>384.0</ele><time>2026-05-03T09:17:39.77Z</time></trkpt><trkpt lat="43.6171034" lon="12.5486158"><ele>384.0</ele><time>2026-05-03T09:17:40.77Z</time></trkpt><trkpt lat="43.6170969" lon="12.5488415"><ele>384.0</ele><time>2026-05-03T09:17:41.77Z</time></trkpt><trkpt lat="43.6170843" lon="12.5490606"><ele>381.75</ele><time>2026-05-03T09:17:42.769Z</time></trkpt><trkpt lat="43.6170734" lon="12.5492724"><ele>379.5</ele><time>2026-05-03T09:17:43.77Z</time></trkpt><trkpt lat="43.6170652" lon="12.549468"><ele>377.25</ele><time>2026-05-03T09:17:44.771Z</time></trkpt><trkpt lat="43.6170592" lon="12.5496498"><ele>375.0</ele><time>2026-05-03T09:17:45.77Z</time></trkpt><trkpt lat="43.617053" lon="12.5498133"><ele>373.4</ele><time>2026-05-03T09:17:46.769Z</time></trkpt><trkpt lat="43.6170451" lon="12.5499677"><ele>371.8</ele><time>2026-05-03T09:17:47.77Z</time></trkpt><trkpt lat="43.6170392" lon="12.5501034"><ele>370.20000000000005</ele><time>2026-05-03T09:17:48.77Z</time></trkpt><trkpt lat="43.6170367" lon="12.5502372"><ele>368.6</ele><time>2026-05-03T09:17:49.771Z</time></trkpt><trkpt lat="43.6170391" lon="12.5503669"><ele>367.0</ele><time>2026-05-03T09:17:50.766Z</time></trkpt><trkpt lat="43.6170518" lon="12.5504974"><ele>363.5</ele><time>2026-05-03T09:17:51.77Z</time></trkpt><trkpt lat="43.6170773" lon="12.550651"><ele>360.0</ele><time>2026-05-03T09:17:52.77Z</time></trkpt><trkpt lat="43.6171187" lon="12.5508235"><ele>356.5</ele><time>2026-05-03T09:17:53.77Z</time></trkpt><trkpt lat="43.6171587" lon="12.550987"><ele>353.0</ele><time>2026-05-03T09:17:54.77Z</time></trkpt><trkpt lat="43.6171978" lon="12.5511429"><ele>351.75</ele><time>2026-05-03T09:17:55.769Z</time></trkpt><trkpt lat="43.6172419" lon="12.551289"><ele>350.5</ele><time>2026-05-03T09:17:56.769Z</time></trkpt><trkpt lat="43.617288" lon="12.551441"><ele>349.25</ele><time>2026-05-03T09:17:57.77Z</time></trkpt><trkpt lat="43.6173108" lon="12.5516232"><ele>348.0</ele><time>2026-05-03T09:17:58.769Z</time></trkpt><trkpt lat="43.6173321" lon="12.5518431"><ele>348.6666666666667</ele><time>2026-05-03T09:17:59.769Z</time></trkpt><trkpt lat="43.6173553" lon="12.5520784"><ele>349.33333333333337</ele><time>2026-05-03T09:18:00.77Z</time></trkpt><trkpt lat="43.6173774" lon="12.552287"><ele>350.0</ele><time>2026-05-03T09:18:01.77Z</time></trkpt><trkpt lat="43.6173943" lon="12.5524672"><ele>350.0</ele><time>2026-05-03T09:18:02.771Z</time></trkpt><trkpt lat="43.6174051" lon="12.5526156"><ele>350.0</ele><time>2026-05-03T09:18:03.769Z</time></trkpt><trkpt lat="43.6174175" lon="12.5527291"><ele>350.0</ele><time>2026-05-03T09:18:04.77Z</time></trkpt><trkpt lat="43.6174394" lon="12.5528175"><ele>350.0</ele><time>2026-05-03T09:18:05.771Z</time></trkpt><trkpt lat="43.6174775" lon="12.552888"><ele>350.0</ele><time>2026-05-03T09:18:06.769Z</time></trkpt><trkpt lat="43.6175976" lon="12.552957"><ele>351.0</ele><time>2026-05-03T09:18:08.77Z</time></trkpt><trkpt lat="43.6176744" lon="12.5529716"><ele>352.0</ele><time>2026-05-03T09:18:09.77Z</time></trkpt><trkpt lat="43.6177626" lon="12.5529773"><ele>353.0</ele><time>2026-05-03T09:18:10.77Z</time></trkpt><trkpt lat="43.6178797" lon="12.5529861"><ele>354.0</ele><time>2026-05-03T09:18:11.77Z</time></trkpt><trkpt lat="43.617995" lon="12.5530122"><ele>355.0</ele><time>2026-05-03T09:18:12.77Z</time></trkpt><trkpt lat="43.6181183" lon="12.5530523"><ele>355.75</ele><time>2026-05-03T09:18:13.77Z</time></trkpt><trkpt lat="43.6182399" lon="12.5531083"><ele>356.5</ele><time>2026-05-03T09:18:14.771Z</time></trkpt><trkpt lat="43.6183507" lon="12.5531812"><ele>357.25</ele><time>2026-05-03T09:18:15.771Z</time></trkpt><trkpt lat="43.6184481" lon="12.55326"><ele>358.0</ele><time>2026-05-03T09:18:16.77Z</time></trkpt><trkpt lat="43.6185427" lon="12.5533204"><ele>358.0</ele><time>2026-05-03T09:18:17.77Z</time></trkpt><trkpt lat="43.6186422" lon="12.5533678"><ele>358.0</ele><time>2026-05-03T09:18:18.77Z</time></trkpt><trkpt lat="43.6187431" lon="12.5534244"><ele>358.0</ele><time>2026-05-03T09:18:19.77Z</time></trkpt><trkpt lat="43.6188468" lon="12.5535145"><ele>358.0</ele><time>2026-05-03T09:18:20.771Z</time></trkpt><trkpt lat="43.6189458" lon="12.5536227"><ele>359.79999999999995</ele><time>2026-05-03T09:18:21.769Z</time></trkpt><trkpt lat="43.619022" lon="12.5537314"><ele>361.6</ele><time>2026-05-03T09:18:22.769Z</time></trkpt><trkpt lat="43.6190757" lon="12.5538421"><ele>363.4</ele><time>2026-05-03T09:18:23.77Z</time></trkpt><trkpt lat="43.6190958" lon="12.5539593"><ele>365.20000000000005</ele><time>2026-05-03T09:18:24.77Z</time></trkpt><trkpt lat="43.6191127" lon="12.5540908"><ele>367.0</ele><time>2026-05-03T09:18:25.771Z</time></trkpt><trkpt lat="43.6191387" lon="12.5542078"><ele>367.0</ele><time>2026-05-03T09:18:26.771Z</time></trkpt><trkpt lat="43.6191706" lon="12.5543181"><ele>367.0</ele><time>2026-05-03T09:18:27.77Z</time></trkpt><trkpt lat="43.6191915" lon="12.5544303"><ele>367.0</ele><time>2026-05-03T09:18:28.77Z</time></trkpt><trkpt lat="43.6191908" lon="12.5545343"><ele>367.0</ele><time>2026-05-03T09:18:29.77Z</time></trkpt><trkpt lat="43.6191656" lon="12.5546338"><ele>367.0</ele><time>2026-05-03T09:18:30.77Z</time></trkpt><trkpt lat="43.6191115" lon="12.5547312"><ele>367.0</ele><time>2026-05-03T09:18:31.769Z</time></trkpt><trkpt lat="43.6190248" lon="12.5548393"><ele>366.5</ele><time>2026-05-03T09:18:32.77Z</time></trkpt><trkpt lat="43.6189139" lon="12.5549558"><ele>366.0</ele><time>2026-05-03T09:18:33.771Z</time></trkpt><trkpt lat="43.6187919" lon="12.5550713"><ele>365.5</ele><time>2026-05-03T09:18:34.77Z</time></trkpt><trkpt lat="43.6186802" lon="12.5551975"><ele>365.0</ele><time>2026-05-03T09:18:35.769Z</time></trkpt><trkpt lat="43.6185682" lon="12.5553691"><ele>365.6666666666667</ele><time>2026-05-03T09:18:36.769Z</time></trkpt><trkpt lat="43.6184483" lon="12.5555742"><ele>366.3333333333333</ele><time>2026-05-03T09:18:37.77Z</time></trkpt><trkpt lat="43.6183211" lon="12.5557885"><ele>367.0</ele><time>2026-05-03T09:18:38.771Z</time></trkpt><trkpt lat="43.6182118" lon="12.5560001"><ele>367.0</ele><time>2026-05-03T09:18:39.77Z</time></trkpt><trkpt lat="43.6181344" lon="12.5561931"><ele>367.0</ele><time>2026-05-03T09:18:40.769Z</time></trkpt><trkpt lat="43.6180793" lon="12.5563547"><ele>367.0</ele><time>2026-05-03T09:18:41.77Z</time></trkpt><trkpt lat="43.6180364" lon="12.5564804"><ele>367.0</ele><time>2026-05-03T09:18:42.771Z</time></trkpt><trkpt lat="43.6179907" lon="12.5565824"><ele>367.66666666666663</ele><time>2026-05-03T09:18:43.769Z</time></trkpt><trkpt lat="43.6179231" lon="12.5566867"><ele>368.3333333333333</ele><time>2026-05-03T09:18:44.769Z</time></trkpt><trkpt lat="43.6178442" lon="12.5567919"><ele>369.0</ele><time>2026-05-03T09:18:45.769Z</time></trkpt><trkpt lat="43.6177766" lon="12.5568757"><ele>369.6666666666667</ele><time>2026-05-03T09:18:46.77Z</time></trkpt><trkpt lat="43.6177145" lon="12.5569337"><ele>370.33333333333337</ele><time>2026-05-03T09:18:47.771Z</time></trkpt><trkpt lat="43.6176436" lon="12.5569529"><ele>371.0</ele><time>2026-05-03T09:18:48.769Z</time></trkpt><trkpt lat="43.6175563" lon="12.5569289"><ele>371.0</ele><time>2026-05-03T09:18:49.771Z</time></trkpt><trkpt lat="43.6174461" lon="12.5568784"><ele>371.0</ele><time>2026-05-03T09:18:50.77Z</time></trkpt><trkpt lat="43.6173167" lon="12.5568348"><ele>371.0</ele><time>2026-05-03T09:18:51.77Z</time></trkpt><trkpt lat="43.617187" lon="12.5568185"><ele>371.0</ele><time>2026-05-03T09:18:52.769Z</time></trkpt><trkpt lat="43.6170649" lon="12.5568194"><ele>372.25</ele><time>2026-05-03T09:18:53.769Z</time></trkpt><trkpt lat="43.6169491" lon="12.5568446"><ele>373.5</ele><time>2026-05-03T09:18:54.771Z</time></trkpt><trkpt lat="43.616841" lon="12.5569116"><ele>374.75</ele><time>2026-05-03T09:18:55.771Z</time></trkpt><trkpt lat="43.6167374" lon="12.5570221"><ele>376.0</ele><time>2026-05-03T09:18:56.771Z</time></trkpt><trkpt lat="43.6166289" lon="12.5571659"><ele>371.3333333333333</ele><time>2026-05-03T09:18:57.77Z</time></trkpt><trkpt lat="43.6165077" lon="12.5573393"><ele>366.6666666666667</ele><time>2026-05-03T09:18:58.77Z</time></trkpt><trkpt lat="43.6163912" lon="12.5575346"><ele>362.0</ele><time>2026-05-03T09:18:59.77Z</time></trkpt><trkpt lat="43.6162917" lon="12.5577206"><ele>359.5</ele><time>2026-05-03T09:19:00.77Z</time></trkpt><trkpt lat="43.6162066" lon="12.5578822"><ele>357.0</ele><time>2026-05-03T09:19:01.77Z</time></trkpt><trkpt lat="43.6161291" lon="12.5580091"><ele>354.5</ele><time>2026-05-03T09:19:02.769Z</time></trkpt><trkpt lat="43.6160553" lon="12.5581006"><ele>352.0</ele><time>2026-05-03T09:19:03.77Z</time></trkpt><trkpt lat="43.6159815" lon="12.5581727"><ele>352.0</ele><time>2026-05-03T09:19:04.771Z</time></trkpt><trkpt lat="43.6159184" lon="12.5582449"><ele>352.0</ele><time>2026-05-03T09:19:05.771Z</time></trkpt><trkpt lat="43.6158732" lon="12.5583431"><ele>352.0</ele><time>2026-05-03T09:19:06.77Z</time></trkpt><trkpt lat="43.6158367" lon="12.5584765"><ele>352.0</ele><time>2026-05-03T09:19:07.77Z</time></trkpt><trkpt lat="43.6158027" lon="12.5586486"><ele>352.0</ele><time>2026-05-03T09:19:08.769Z</time></trkpt><trkpt lat="43.6157614" lon="12.5588522"><ele>352.5</ele><time>2026-05-03T09:19:09.77Z</time></trkpt><trkpt lat="43.6157126" lon="12.5590633"><ele>353.0</ele><time>2026-05-03T09:19:10.77Z</time></trkpt><trkpt lat="43.615664" lon="12.5592587"><ele>353.5</ele><time>2026-05-03T09:19:11.769Z</time></trkpt><trkpt lat="43.615619" lon="12.5594405"><ele>354.0</ele><time>2026-05-03T09:19:12.771Z</time></trkpt><trkpt lat="43.6155776" lon="12.5596065"><ele>352.6</ele><time>2026-05-03T09:19:13.769Z</time></trkpt><trkpt lat="43.6155377" lon="12.5597595"><ele>351.2</ele><time>2026-05-03T09:19:14.769Z</time></trkpt><trkpt lat="43.615497" lon="12.5599032"><ele>349.8</ele><time>2026-05-03T09:19:15.77Z</time></trkpt><trkpt lat="43.6154517" lon="12.5600356"><ele>348.40000000000003</ele><time>2026-05-03T09:19:16.77Z</time></trkpt><trkpt lat="43.615397" lon="12.5601551"><ele>347.0</ele><time>2026-05-03T09:19:17.77Z</time></trkpt><trkpt lat="43.6153316" lon="12.5602663"><ele>343.5</ele><time>2026-05-03T09:19:18.77Z</time></trkpt><trkpt lat="43.6152533" lon="12.5603675"><ele>340.0</ele><time>2026-05-03T09:19:19.77Z</time></trkpt><trkpt lat="43.6151529" lon="12.5604559"><ele>336.5</ele><time>2026-05-03T09:19:20.77Z</time></trkpt><trkpt lat="43.6150241" lon="12.5605266"><ele>333.0</ele><time>2026-05-03T09:19:21.771Z</time></trkpt><trkpt lat="43.6148689" lon="12.5605796"><ele>333.0</ele><time>2026-05-03T09:19:22.77Z</time></trkpt><trkpt lat="43.6147208" lon="12.5606159"><ele>333.0</ele><time>2026-05-03T09:19:23.77Z</time></trkpt><trkpt lat="43.6145904" lon="12.5606493"><ele>333.0</ele><time>2026-05-03T09:19:24.769Z</time></trkpt><trkpt lat="43.614465" lon="12.5606842"><ele>333.0</ele><time>2026-05-03T09:19:25.77Z</time></trkpt><trkpt lat="43.6143424" lon="12.5607189"><ele>330.75</ele><time>2026-05-03T09:19:26.769Z</time></trkpt><trkpt lat="43.6142234" lon="12.5607501"><ele>328.5</ele><time>2026-05-03T09:19:27.769Z</time></trkpt><trkpt lat="43.6141069" lon="12.5607809"><ele>326.25</ele><time>2026-05-03T09:19:28.769Z</time></trkpt><trkpt lat="43.6139913" lon="12.5608182"><ele>324.0</ele><time>2026-05-03T09:19:29.77Z</time></trkpt><trkpt lat="43.6138756" lon="12.5608682"><ele>324.0</ele><time>2026-05-03T09:19:30.77Z</time></trkpt><trkpt lat="43.6137528" lon="12.5609308"><ele>324.0</ele><time>2026-05-03T09:19:31.77Z</time></trkpt><trkpt lat="43.6136269" lon="12.5609942"><ele>324.0</ele><time>2026-05-03T09:19:32.77Z</time></trkpt><trkpt lat="43.6135097" lon="12.5610554"><ele>324.0</ele><time>2026-05-03T09:19:33.77Z</time></trkpt><trkpt lat="43.6134072" lon="12.5611134"><ele>323.5</ele><time>2026-05-03T09:19:34.77Z</time></trkpt><trkpt lat="43.6133146" lon="12.5611678"><ele>323.0</ele><time>2026-05-03T09:19:35.77Z</time></trkpt><trkpt lat="43.6132275" lon="12.5612194"><ele>322.5</ele><time>2026-05-03T09:19:36.77Z</time></trkpt><trkpt lat="43.6131449" lon="12.5612639"><ele>322.0</ele><time>2026-05-03T09:19:37.77Z</time></trkpt><trkpt lat="43.6130652" lon="12.5612947"><ele>321.5</ele><time>2026-05-03T09:19:38.77Z</time></trkpt><trkpt lat="43.612991" lon="12.561307"><ele>321.0</ele><time>2026-05-03T09:19:39.77Z</time></trkpt><trkpt lat="43.6129238" lon="12.561289"><ele>320.99999999999994</ele><time>2026-05-03T09:19:40.771Z</time></trkpt><trkpt lat="43.6128633" lon="12.5612497"><ele>321.0</ele><time>2026-05-03T09:19:41.77Z</time></trkpt><trkpt lat="43.6128199" lon="12.5611843"><ele>321.0</ele><time>2026-05-03T09:19:42.771Z</time></trkpt><trkpt lat="43.6127972" lon="12.5610992"><ele>321.0</ele><time>2026-05-03T09:19:43.77Z</time></trkpt><trkpt lat="43.6127844" lon="12.5609979"><ele>321.0</ele><time>2026-05-03T09:19:44.769Z</time></trkpt><trkpt lat="43.6127606" lon="12.5609093"><ele>320.99999999999994</ele><time>2026-05-03T09:19:45.771Z</time></trkpt><trkpt lat="43.6127226" lon="12.5608365"><ele>321.0</ele><time>2026-05-03T09:19:46.77Z</time></trkpt><trkpt lat="43.6126655" lon="12.5607905"><ele>317.0</ele><time>2026-05-03T09:19:47.771Z</time></trkpt><trkpt lat="43.6125932" lon="12.5607843"><ele>313.0</ele><time>2026-05-03T09:19:48.769Z</time></trkpt><trkpt lat="43.6125115" lon="12.5608134"><ele>309.0</ele><time>2026-05-03T09:19:49.77Z</time></trkpt><trkpt lat="43.6124089" lon="12.5608557"><ele>305.0</ele><time>2026-05-03T09:19:50.77Z</time></trkpt><trkpt lat="43.6122848" lon="12.5608928"><ele>301.0</ele><time>2026-05-03T09:19:51.77Z</time></trkpt><trkpt lat="43.6121647" lon="12.5609247"><ele>301.0</ele><time>2026-05-03T09:19:52.771Z</time></trkpt><trkpt lat="43.6120493" lon="12.5609456"><ele>301.0</ele><time>2026-05-03T09:19:53.771Z</time></trkpt><trkpt lat="43.6119387" lon="12.5609507"><ele>301.0</ele><time>2026-05-03T09:19:54.77Z</time></trkpt><trkpt lat="43.6118343" lon="12.560948"><ele>301.0</ele><time>2026-05-03T09:19:55.77Z</time></trkpt><trkpt lat="43.6117356" lon="12.5609478"><ele>301.0</ele><time>2026-05-03T09:19:56.769Z</time></trkpt><trkpt lat="43.6116518" lon="12.5609504"><ele>301.0</ele><time>2026-05-03T09:19:57.769Z</time></trkpt><trkpt lat="43.6115808" lon="12.5609602"><ele>301.0</ele><time>2026-05-03T09:19:58.77Z</time></trkpt><trkpt lat="43.6115151" lon="12.5609789"><ele>301.0</ele><time>2026-05-03T09:19:59.769Z</time></trkpt><trkpt lat="43.6114361" lon="12.561008"><ele>301.0</ele><time>2026-05-03T09:20:00.77Z</time></trkpt><trkpt lat="43.6113367" lon="12.5610745"><ele>301.0</ele><time>2026-05-03T09:20:01.77Z</time></trkpt><trkpt lat="43.6112106" lon="12.5611695"><ele>296.5</ele><time>2026-05-03T09:20:02.77Z</time></trkpt><trkpt lat="43.6110791" lon="12.5612755"><ele>292.0</ele><time>2026-05-03T09:20:03.771Z</time></trkpt><trkpt lat="43.6109687" lon="12.561367"><ele>287.5</ele><time>2026-05-03T09:20:04.77Z</time></trkpt><trkpt lat="43.6108769" lon="12.5614421"><ele>283.0</ele><time>2026-05-03T09:20:05.771Z</time></trkpt><trkpt lat="43.6108098" lon="12.5615076"><ele>283.0</ele><time>2026-05-03T09:20:06.77Z</time></trkpt><trkpt lat="43.610756" lon="12.5615545"><ele>283.0</ele><time>2026-05-03T09:20:07.769Z</time></trkpt><trkpt lat="43.6106914" lon="12.5616084"><ele>283.0</ele><time>2026-05-03T09:20:09.77Z</time></trkpt><trkpt lat="43.610618" lon="12.5615704"><ele>283.0</ele><time>2026-05-03T09:21:08.769Z</time></trkpt><trkpt lat="43.6106015" lon="12.561394"><ele>283.0</ele><time>2026-05-03T09:21:10.769Z</time></trkpt><trkpt lat="43.6106004" lon="12.5612553"><ele>283.0</ele><time>2026-05-03T09:21:11.769Z</time></trkpt><trkpt lat="43.6105974" lon="12.5610863"><ele>283.5</ele><time>2026-05-03T09:21:12.769Z</time></trkpt><trkpt lat="43.6105953" lon="12.5609014"><ele>284.0</ele><time>2026-05-03T09:21:13.77Z</time></trkpt><trkpt lat="43.610591" lon="12.5606952"><ele>284.5</ele><time>2026-05-03T09:21:14.769Z</time></trkpt><trkpt lat="43.6105856" lon="12.5604865"><ele>285.0</ele><time>2026-05-03T09:21:15.769Z</time></trkpt><trkpt lat="43.6105821" lon="12.5603126"><ele>287.0</ele><time>2026-05-03T09:21:16.769Z</time></trkpt><trkpt lat="43.6105832" lon="12.5601581"><ele>289.0</ele><time>2026-05-03T09:21:17.769Z</time></trkpt><trkpt lat="43.6105895" lon="12.560014"><ele>291.0</ele><time>2026-05-03T09:21:18.769Z</time></trkpt><trkpt lat="43.6106256" lon="12.5598676"><ele>293.0</ele><time>2026-05-03T09:21:19.77Z</time></trkpt><trkpt lat="43.6106859" lon="12.559684"><ele>292.5</ele><time>2026-05-03T09:21:20.768Z</time></trkpt><trkpt lat="43.6107354" lon="12.5595074"><ele>292.0</ele><time>2026-05-03T09:21:21.769Z</time></trkpt><trkpt lat="43.6107825" lon="12.5593549"><ele>291.5</ele><time>2026-05-03T09:21:22.77Z</time></trkpt><trkpt lat="43.6108237" lon="12.5592202"><ele>291.0</ele><time>2026-05-03T09:21:23.77Z</time></trkpt><trkpt lat="43.6108497" lon="12.5591002"><ele>291.0</ele><time>2026-05-03T09:21:24.769Z</time></trkpt><trkpt lat="43.6108546" lon="12.5590005"><ele>291.0</ele><time>2026-05-03T09:21:25.77Z</time></trkpt><trkpt lat="43.610791" lon="12.5588613"><ele>291.0</ele><time>2026-05-03T09:21:27.768Z</time></trkpt><trkpt lat="43.6106941" lon="12.5589576"><ele>291.0</ele><time>2026-05-03T09:21:28.769Z</time></trkpt><trkpt lat="43.6106274" lon="12.5590617"><ele>291.0</ele><time>2026-05-03T09:21:29.768Z</time></trkpt><trkpt lat="43.6105474" lon="12.5592248"><ele>291.0</ele><time>2026-05-03T09:21:30.77Z</time></trkpt><trkpt lat="43.6104563" lon="12.5593836"><ele>291.0</ele><time>2026-05-03T09:21:31.769Z</time></trkpt><trkpt lat="43.610366" lon="12.5595153"><ele>291.0</ele><time>2026-05-03T09:21:32.769Z</time></trkpt><trkpt lat="43.6102749" lon="12.5596229"><ele>291.0</ele><time>2026-05-03T09:21:33.769Z</time></trkpt><trkpt lat="43.6101869" lon="12.5597167"><ele>289.75</ele><time>2026-05-03T09:21:34.769Z</time></trkpt><trkpt lat="43.6100798" lon="12.5596672"><ele>288.5</ele><time>2026-05-03T09:21:35.769Z</time></trkpt><trkpt lat="43.6099771" lon="12.5596199"><ele>287.25</ele><time>2026-05-03T09:21:36.769Z</time></trkpt><trkpt lat="43.6098883" lon="12.559522"><ele>286.0</ele><time>2026-05-03T09:21:37.769Z</time></trkpt><trkpt lat="43.6097967" lon="12.5593878"><ele>286.0</ele><time>2026-05-03T09:21:38.769Z</time></trkpt><trkpt lat="43.6096927" lon="12.5592501"><ele>286.0</ele><time>2026-05-03T09:21:39.769Z</time></trkpt><trkpt lat="43.6095682" lon="12.5591144"><ele>286.0</ele><time>2026-05-03T09:21:40.77Z</time></trkpt><trkpt lat="43.6094404" lon="12.5589838"><ele>286.0</ele><time>2026-05-03T09:21:41.768Z</time></trkpt><trkpt lat="43.6093331" lon="12.5588747"><ele>286.0</ele><time>2026-05-03T09:21:42.77Z</time></trkpt><trkpt lat="43.6092096" lon="12.558786"><ele>286.0</ele><time>2026-05-03T09:21:43.769Z</time></trkpt><trkpt lat="43.6090755" lon="12.5587134"><ele>286.0</ele><time>2026-05-03T09:21:44.768Z</time></trkpt><trkpt lat="43.6089298" lon="12.5586496"><ele>286.0</ele><time>2026-05-03T09:21:45.769Z</time></trkpt><trkpt lat="43.6087936" lon="12.5585933"><ele>286.0</ele><time>2026-05-03T09:21:46.77Z</time></trkpt><trkpt lat="43.6086746" lon="12.558544"><ele>286.0</ele><time>2026-05-03T09:21:47.77Z</time></trkpt><trkpt lat="43.6085528" lon="12.5585038"><ele>286.0</ele><time>2026-05-03T09:21:48.769Z</time></trkpt><trkpt lat="43.6084256" lon="12.5584546"><ele>285.25</ele><time>2026-05-03T09:21:49.769Z</time></trkpt><trkpt lat="43.6082871" lon="12.5584086"><ele>284.5</ele><time>2026-05-03T09:21:50.768Z</time></trkpt><trkpt lat="43.6081392" lon="12.5583576"><ele>283.75</ele><time>2026-05-03T09:21:51.768Z</time></trkpt><trkpt lat="43.6079906" lon="12.5583168"><ele>283.0</ele><time>2026-05-03T09:21:52.769Z</time></trkpt><trkpt lat="43.6078346" lon="12.5582736"><ele>282.66666666666663</ele><time>2026-05-03T09:21:53.769Z</time></trkpt><trkpt lat="43.6076723" lon="12.5582241"><ele>282.3333333333333</ele><time>2026-05-03T09:21:54.77Z</time></trkpt><trkpt lat="43.6074994" lon="12.5581676"><ele>282.0</ele><time>2026-05-03T09:21:55.769Z</time></trkpt><trkpt lat="43.6073485" lon="12.5581114"><ele>282.0</ele><time>2026-05-03T09:21:56.768Z</time></trkpt><trkpt lat="43.6072063" lon="12.5580583"><ele>282.0</ele><time>2026-05-03T09:21:57.768Z</time></trkpt><trkpt lat="43.6070623" lon="12.558011"><ele>282.0</ele><time>2026-05-03T09:21:58.769Z</time></trkpt><trkpt lat="43.6069103" lon="12.5579717"><ele>281.6666666666667</ele><time>2026-05-03T09:21:59.768Z</time></trkpt><trkpt lat="43.6067492" lon="12.557951"><ele>281.33333333333337</ele><time>2026-05-03T09:22:00.769Z</time></trkpt><trkpt lat="43.6065828" lon="12.5579416"><ele>281.0</ele><time>2026-05-03T09:22:01.77Z</time></trkpt><trkpt lat="43.6064292" lon="12.5579297"><ele>281.0</ele><time>2026-05-03T09:22:02.769Z</time></trkpt><trkpt lat="43.606292" lon="12.557917"><ele>281.0</ele><time>2026-05-03T09:22:03.768Z</time></trkpt><trkpt lat="43.6061636" lon="12.5579109"><ele>281.0</ele><time>2026-05-03T09:22:04.769Z</time></trkpt><trkpt lat="43.6060482" lon="12.5578906"><ele>281.0</ele><time>2026-05-03T09:22:05.77Z</time></trkpt><trkpt lat="43.6059374" lon="12.5578522"><ele>281.0</ele><time>2026-05-03T09:22:06.77Z</time></trkpt><trkpt lat="43.6058386" lon="12.5578259"><ele>281.0</ele><time>2026-05-03T09:22:07.769Z</time></trkpt><trkpt lat="43.6057397" lon="12.5578314"><ele>281.0</ele><time>2026-05-03T09:22:08.769Z</time></trkpt><trkpt lat="43.6056381" lon="12.5578797"><ele>281.0</ele><time>2026-05-03T09:22:09.768Z</time></trkpt><trkpt lat="43.6055275" lon="12.5579538"><ele>281.0</ele><time>2026-05-03T09:22:10.769Z</time></trkpt><trkpt lat="43.6054117" lon="12.557997"><ele>280.6</ele><time>2026-05-03T09:22:11.769Z</time></trkpt><trkpt lat="43.6053018" lon="12.5580106"><ele>280.20000000000005</ele><time>2026-05-03T09:22:12.769Z</time></trkpt><trkpt lat="43.6052007" lon="12.5580021"><ele>279.79999999999995</ele><time>2026-05-03T09:22:13.77Z</time></trkpt><trkpt lat="43.6051195" lon="12.5579767"><ele>279.4</ele><time>2026-05-03T09:22:14.77Z</time></trkpt><trkpt lat="43.6050184" lon="12.5579498"><ele>279.0</ele><time>2026-05-03T09:22:16.769Z</time></trkpt><trkpt lat="43.6049217" lon="12.5578722"><ele>281.1666666666667</ele><time>2026-05-03T09:22:33.769Z</time></trkpt><trkpt lat="43.6048643" lon="12.5578066"><ele>283.3333333333333</ele><time>2026-05-03T09:22:34.768Z</time></trkpt><trkpt lat="43.6048039" lon="12.5577337"><ele>285.5</ele><time>2026-05-03T09:22:35.768Z</time></trkpt><trkpt lat="43.6047465" lon="12.557673"><ele>287.66666666666663</ele><time>2026-05-03T09:22:36.77Z</time></trkpt><trkpt lat="43.6046916" lon="12.5576232"><ele>289.8333333333333</ele><time>2026-05-03T09:22:37.769Z</time></trkpt><trkpt lat="43.6046335" lon="12.5575716"><ele>292.0</ele><time>2026-05-03T09:22:38.769Z</time></trkpt><trkpt lat="43.6045566" lon="12.5575019"><ele>291.0</ele><time>2026-05-03T09:22:39.769Z</time></trkpt><trkpt lat="43.6044517" lon="12.5574279"><ele>290.0</ele><time>2026-05-03T09:22:40.77Z</time></trkpt><trkpt lat="43.6043182" lon="12.5573549"><ele>289.0</ele><time>2026-05-03T09:22:41.769Z</time></trkpt><trkpt lat="43.6041641" lon="12.5572691"><ele>288.0</ele><time>2026-05-03T09:22:42.77Z</time></trkpt><trkpt lat="43.6040063" lon="12.5571874"><ele>288.0</ele><time>2026-05-03T09:22:43.768Z</time></trkpt><trkpt lat="43.6038278" lon="12.5570988"><ele>288.0</ele><time>2026-05-03T09:22:44.768Z</time></trkpt><trkpt lat="43.603635" lon="12.5569869"><ele>288.0</ele><time>2026-05-03T09:22:45.769Z</time></trkpt><trkpt lat="43.6034309" lon="12.5568366"><ele>289.0</ele><time>2026-05-03T09:22:46.769Z</time></trkpt><trkpt lat="43.6032283" lon="12.5566494"><ele>290.0</ele><time>2026-05-03T09:22:47.77Z</time></trkpt><trkpt lat="43.6030211" lon="12.556429"><ele>289.5</ele><time>2026-05-03T09:22:48.769Z</time></trkpt><trkpt lat="43.6027993" lon="12.5561889"><ele>289.0</ele><time>2026-05-03T09:22:49.769Z</time></trkpt><trkpt lat="43.6025651" lon="12.5559359"><ele>289.0</ele><time>2026-05-03T09:22:50.77Z</time></trkpt><trkpt lat="43.6023289" lon="12.5556714"><ele>289.0</ele><time>2026-05-03T09:22:51.769Z</time></trkpt><trkpt lat="43.6020828" lon="12.5554033"><ele>288.0</ele><time>2026-05-03T09:22:52.77Z</time></trkpt><trkpt lat="43.6018416" lon="12.5551468"><ele>287.0</ele><time>2026-05-03T09:22:53.768Z</time></trkpt><trkpt lat="43.6016166" lon="12.5549146"><ele>287.0</ele><time>2026-05-03T09:22:54.769Z</time></trkpt><trkpt lat="43.6014002" lon="12.5547012"><ele>287.0</ele><time>2026-05-03T09:22:55.768Z</time></trkpt><trkpt lat="43.6011961" lon="12.5545066"><ele>288.5</ele><time>2026-05-03T09:22:56.768Z</time></trkpt><trkpt lat="43.6010021" lon="12.5543254"><ele>290.0</ele><time>2026-05-03T09:22:57.769Z</time></trkpt><trkpt lat="43.6008209" lon="12.5541534"><ele>290.0</ele><time>2026-05-03T09:22:58.769Z</time></trkpt><trkpt lat="43.6006539" lon="12.5539883"><ele>290.0</ele><time>2026-05-03T09:22:59.768Z</time></trkpt><trkpt lat="43.6004988" lon="12.5538312"><ele>290.0</ele><time>2026-05-03T09:23:00.769Z</time></trkpt><trkpt lat="43.6003523" lon="12.5536858"><ele>293.33333333333337</ele><time>2026-05-03T09:23:01.769Z</time></trkpt><trkpt lat="43.6002044" lon="12.553539"><ele>296.6666666666667</ele><time>2026-05-03T09:23:02.77Z</time></trkpt><trkpt lat="43.600054" lon="12.5533722"><ele>300.0</ele><time>2026-05-03T09:23:03.77Z</time></trkpt><trkpt lat="43.5999094" lon="12.5531639"><ele>300.0</ele><time>2026-05-03T09:23:04.77Z</time></trkpt><trkpt lat="43.5997703" lon="12.552917"><ele>300.0</ele><time>2026-05-03T09:23:05.769Z</time></trkpt><trkpt lat="43.5996377" lon="12.5526426"><ele>305.5</ele><time>2026-05-03T09:23:06.768Z</time></trkpt><trkpt lat="43.5995088" lon="12.5523442"><ele>311.0</ele><time>2026-05-03T09:23:07.768Z</time></trkpt><trkpt lat="43.5993842" lon="12.5520391"><ele>311.0</ele><time>2026-05-03T09:23:08.769Z</time></trkpt><trkpt lat="43.5992635" lon="12.5517629"><ele>311.0</ele><time>2026-05-03T09:23:09.768Z</time></trkpt><trkpt lat="43.5991534" lon="12.5515023"><ele>311.0</ele><time>2026-05-03T09:23:10.769Z</time></trkpt><trkpt lat="43.5990501" lon="12.5512586"><ele>311.0</ele><time>2026-05-03T09:23:11.768Z</time></trkpt><trkpt lat="43.5989423" lon="12.5510377"><ele>311.0</ele><time>2026-05-03T09:23:12.77Z</time></trkpt><trkpt lat="43.5988098" lon="12.550841"><ele>307.33333333333337</ele><time>2026-05-03T09:23:13.768Z</time></trkpt><trkpt lat="43.5986447" lon="12.5506623"><ele>303.6666666666667</ele><time>2026-05-03T09:23:14.769Z</time></trkpt><trkpt lat="43.5984722" lon="12.550532"><ele>300.0</ele><time>2026-05-03T09:23:15.769Z</time></trkpt><trkpt lat="43.5982923" lon="12.55044"><ele>305.6666666666667</ele><time>2026-05-03T09:23:16.769Z</time></trkpt><trkpt lat="43.5981011" lon="12.5503612"><ele>311.33333333333337</ele><time>2026-05-03T09:23:17.769Z</time></trkpt><trkpt lat="43.5979067" lon="12.5502963"><ele>317.0</ele><time>2026-05-03T09:23:18.768Z</time></trkpt><trkpt lat="43.5977105" lon="12.5502544"><ele>317.0</ele><time>2026-05-03T09:23:19.769Z</time></trkpt><trkpt lat="43.5975263" lon="12.5502469"><ele>317.0</ele><time>2026-05-03T09:23:20.77Z</time></trkpt><trkpt lat="43.5973514" lon="12.5502629"><ele>317.0</ele><time>2026-05-03T09:23:21.769Z</time></trkpt><trkpt lat="43.5971828" lon="12.5502826"><ele>317.0</ele><time>2026-05-03T09:23:22.768Z</time></trkpt><trkpt lat="43.5970292" lon="12.5502843"><ele>317.0</ele><time>2026-05-03T09:23:23.768Z</time></trkpt><trkpt lat="43.5968848" lon="12.5502701"><ele>317.0</ele><time>2026-05-03T09:23:24.769Z</time></trkpt><trkpt lat="43.5967504" lon="12.5502329"><ele>317.0</ele><time>2026-05-03T09:23:25.769Z</time></trkpt><trkpt lat="43.5966183" lon="12.5501632"><ele>315.0</ele><time>2026-05-03T09:23:26.77Z</time></trkpt><trkpt lat="43.5964921" lon="12.5500625"><ele>313.0</ele><time>2026-05-03T09:23:27.769Z</time></trkpt><trkpt lat="43.5963685" lon="12.5499427"><ele>311.0</ele><time>2026-05-03T09:23:28.769Z</time></trkpt><trkpt lat="43.5962465" lon="12.5497989"><ele>307.6666666666667</ele><time>2026-05-03T09:23:29.769Z</time></trkpt><trkpt lat="43.5961174" lon="12.5496575"><ele>304.3333333333333</ele><time>2026-05-03T09:23:30.768Z</time></trkpt><trkpt lat="43.5959878" lon="12.5495031"><ele>301.0</ele><time>2026-05-03T09:23:31.769Z</time></trkpt><trkpt lat="43.5958568" lon="12.5493111"><ele>308.3333333333333</ele><time>2026-05-03T09:23:32.769Z</time></trkpt><trkpt lat="43.5957292" lon="12.5490888"><ele>315.6666666666667</ele><time>2026-05-03T09:23:33.768Z</time></trkpt><trkpt lat="43.5955981" lon="12.5488463"><ele>323.0</ele><time>2026-05-03T09:23:34.769Z</time></trkpt><trkpt lat="43.5954662" lon="12.5486032"><ele>315.5</ele><time>2026-05-03T09:23:35.768Z</time></trkpt><trkpt lat="43.5953422" lon="12.5483475"><ele>308.0</ele><time>2026-05-03T09:23:36.77Z</time></trkpt><trkpt lat="43.5952306" lon="12.5480727"><ele>313.5</ele><time>2026-05-03T09:23:37.769Z</time></trkpt><trkpt lat="43.5951296" lon="12.5477694"><ele>319.0</ele><time>2026-05-03T09:23:38.768Z</time></trkpt><trkpt lat="43.5950437" lon="12.5474796"><ele>319.0</ele><time>2026-05-03T09:23:39.769Z</time></trkpt><trkpt lat="43.59496" lon="12.5472098"><ele>319.0</ele><time>2026-05-03T09:23:40.768Z</time></trkpt><trkpt lat="43.5948762" lon="12.5469452"><ele>319.0</ele><time>2026-05-03T09:23:41.77Z</time></trkpt><trkpt lat="43.5947821" lon="12.5466844"><ele>324.0</ele><time>2026-05-03T09:23:42.769Z</time></trkpt><trkpt lat="43.5946569" lon="12.5464303"><ele>329.0</ele><time>2026-05-03T09:23:43.768Z</time></trkpt><trkpt lat="43.5945079" lon="12.5461736"><ele>319.5</ele><time>2026-05-03T09:23:44.77Z</time></trkpt><trkpt lat="43.5943441" lon="12.5459086"><ele>310.0</ele><time>2026-05-03T09:23:45.769Z</time></trkpt><trkpt lat="43.5941709" lon="12.5456393"><ele>308.5</ele><time>2026-05-03T09:23:46.77Z</time></trkpt><trkpt lat="43.5940009" lon="12.5453763"><ele>307.0</ele><time>2026-05-03T09:23:47.77Z</time></trkpt><trkpt lat="43.5938422" lon="12.5451311"><ele>307.0</ele><time>2026-05-03T09:23:48.769Z</time></trkpt><trkpt lat="43.5936917" lon="12.5448975"><ele>307.0</ele><time>2026-05-03T09:23:49.77Z</time></trkpt><trkpt lat="43.5935414" lon="12.544661"><ele>308.0</ele><time>2026-05-03T09:23:50.769Z</time></trkpt><trkpt lat="43.593389" lon="12.5444253"><ele>309.0</ele><time>2026-05-03T09:23:51.768Z</time></trkpt><trkpt lat="43.5932334" lon="12.5441902"><ele>309.0</ele><time>2026-05-03T09:23:52.769Z</time></trkpt><trkpt lat="43.5930822" lon="12.5439585"><ele>309.0</ele><time>2026-05-03T09:23:53.77Z</time></trkpt><trkpt lat="43.5929445" lon="12.5437387"><ele>309.0</ele><time>2026-05-03T09:23:54.768Z</time></trkpt><trkpt lat="43.5928122" lon="12.5435275"><ele>309.0</ele><time>2026-05-03T09:23:55.769Z</time></trkpt><trkpt lat="43.5926852" lon="12.5433131"><ele>309.0</ele><time>2026-05-03T09:23:56.77Z</time></trkpt><trkpt lat="43.5925706" lon="12.5430725"><ele>309.0</ele><time>2026-05-03T09:23:57.769Z</time></trkpt><trkpt lat="43.5924722" lon="12.5428012"><ele>309.3333333333333</ele><time>2026-05-03T09:23:58.77Z</time></trkpt><trkpt lat="43.5923996" lon="12.5425241"><ele>309.66666666666663</ele><time>2026-05-03T09:23:59.769Z</time></trkpt><trkpt lat="43.5923512" lon="12.5422541"><ele>310.0</ele><time>2026-05-03T09:24:00.768Z</time></trkpt><trkpt lat="43.5923205" lon="12.5419731"><ele>310.0</ele><time>2026-05-03T09:24:01.769Z</time></trkpt><trkpt lat="43.59231" lon="12.5416838"><ele>310.0</ele><time>2026-05-03T09:24:02.769Z</time></trkpt><trkpt lat="43.592319" lon="12.5413943"><ele>310.0</ele><time>2026-05-03T09:24:03.768Z</time></trkpt><trkpt lat="43.5923287" lon="12.5411013"><ele>312.0</ele><time>2026-05-03T09:24:04.769Z</time></trkpt><trkpt lat="43.5923395" lon="12.5408041"><ele>314.0</ele><time>2026-05-03T09:24:05.769Z</time></trkpt><trkpt lat="43.5923526" lon="12.5404989"><ele>316.0</ele><time>2026-05-03T09:24:06.768Z</time></trkpt><trkpt lat="43.5923631" lon="12.5401848"><ele>318.0</ele><time>2026-05-03T09:24:07.768Z</time></trkpt><trkpt lat="43.5923783" lon="12.5398508"><ele>320.0</ele><time>2026-05-03T09:24:08.769Z</time></trkpt><trkpt lat="43.5923963" lon="12.5395063"><ele>315.5</ele><time>2026-05-03T09:24:09.769Z</time></trkpt><trkpt lat="43.592411" lon="12.5391721"><ele>311.0</ele><time>2026-05-03T09:24:10.769Z</time></trkpt><trkpt lat="43.5924199" lon="12.5388838"><ele>311.6666666666667</ele><time>2026-05-03T09:24:11.769Z</time></trkpt><trkpt lat="43.5924281" lon="12.5386182"><ele>312.3333333333333</ele><time>2026-05-03T09:24:12.768Z</time></trkpt><trkpt lat="43.5924407" lon="12.5383525"><ele>313.0</ele><time>2026-05-03T09:24:13.77Z</time></trkpt><trkpt lat="43.5924467" lon="12.5380825"><ele>315.3333333333333</ele><time>2026-05-03T09:24:14.77Z</time></trkpt><trkpt lat="43.5924408" lon="12.5378013"><ele>317.6666666666667</ele><time>2026-05-03T09:24:15.768Z</time></trkpt><trkpt lat="43.592427" lon="12.5375093"><ele>320.0</ele><time>2026-05-03T09:24:16.77Z</time></trkpt><trkpt lat="43.5924124" lon="12.5372079"><ele>321.33333333333337</ele><time>2026-05-03T09:24:17.768Z</time></trkpt><trkpt lat="43.5923982" lon="12.5369199"><ele>322.6666666666667</ele><time>2026-05-03T09:24:18.769Z</time></trkpt><trkpt lat="43.5923833" lon="12.5366498"><ele>324.0</ele><time>2026-05-03T09:24:19.77Z</time></trkpt><trkpt lat="43.5923681" lon="12.5363953"><ele>322.6666666666667</ele><time>2026-05-03T09:24:20.769Z</time></trkpt><trkpt lat="43.5923508" lon="12.536154"><ele>321.33333333333337</ele><time>2026-05-03T09:24:21.768Z</time></trkpt><trkpt lat="43.5923286" lon="12.535907"><ele>320.0</ele><time>2026-05-03T09:24:22.769Z</time></trkpt><trkpt lat="43.5922752" lon="12.5356605"><ele>320.0</ele><time>2026-05-03T09:24:23.769Z</time></trkpt><trkpt lat="43.5922005" lon="12.5354299"><ele>320.0</ele><time>2026-05-03T09:24:24.77Z</time></trkpt><trkpt lat="43.5921004" lon="12.5352121"><ele>320.0</ele><time>2026-05-03T09:24:25.769Z</time></trkpt><trkpt lat="43.591975" lon="12.5350127"><ele>320.6666666666667</ele><time>2026-05-03T09:24:26.77Z</time></trkpt><trkpt lat="43.5918357" lon="12.534831"><ele>321.3333333333333</ele><time>2026-05-03T09:24:27.77Z</time></trkpt><trkpt lat="43.591682" lon="12.5346742"><ele>322.0</ele><time>2026-05-03T09:24:28.77Z</time></trkpt><trkpt lat="43.5915133" lon="12.5345474"><ele>322.0</ele><time>2026-05-03T09:24:29.769Z</time></trkpt><trkpt lat="43.5913382" lon="12.5344539"><ele>322.0</ele><time>2026-05-03T09:24:30.769Z</time></trkpt><trkpt lat="43.5911606" lon="12.5343831"><ele>322.0</ele><time>2026-05-03T09:24:31.768Z</time></trkpt><trkpt lat="43.5909819" lon="12.5343103"><ele>323.66666666666663</ele><time>2026-05-03T09:24:32.768Z</time></trkpt><trkpt lat="43.5908194" lon="12.5342178"><ele>325.3333333333333</ele><time>2026-05-03T09:24:33.769Z</time></trkpt><trkpt lat="43.5906736" lon="12.5340985"><ele>327.0</ele><time>2026-05-03T09:24:34.768Z</time></trkpt><trkpt lat="43.5905362" lon="12.5339468"><ele>327.0</ele><time>2026-05-03T09:24:35.769Z</time></trkpt><trkpt lat="43.5904159" lon="12.5337631"><ele>327.0</ele><time>2026-05-03T09:24:36.769Z</time></trkpt><trkpt lat="43.5903128" lon="12.5335469"><ele>327.0</ele><time>2026-05-03T09:24:37.768Z</time></trkpt><trkpt lat="43.5902288" lon="12.5333187"><ele>329.0</ele><time>2026-05-03T09:24:38.77Z</time></trkpt><trkpt lat="43.5901488" lon="12.5331025"><ele>331.0</ele><time>2026-05-03T09:24:39.769Z</time></trkpt><trkpt lat="43.5900717" lon="12.5328956"><ele>333.0</ele><time>2026-05-03T09:24:40.769Z</time></trkpt><trkpt lat="43.5899844" lon="12.5326887"><ele>328.6666666666667</ele><time>2026-05-03T09:24:41.768Z</time></trkpt><trkpt lat="43.5898766" lon="12.5325026"><ele>324.33333333333337</ele><time>2026-05-03T09:24:42.769Z</time></trkpt><trkpt lat="43.5897487" lon="12.5323347"><ele>320.0</ele><time>2026-05-03T09:24:43.769Z</time></trkpt><trkpt lat="43.5896014" lon="12.5321881"><ele>325.33333333333337</ele><time>2026-05-03T09:24:44.769Z</time></trkpt><trkpt lat="43.5894314" lon="12.5320702"><ele>330.6666666666667</ele><time>2026-05-03T09:24:45.769Z</time></trkpt><trkpt lat="43.5892445" lon="12.5319807"><ele>336.0</ele><time>2026-05-03T09:24:46.768Z</time></trkpt><trkpt lat="43.5890519" lon="12.5319061"><ele>336.0</ele><time>2026-05-03T09:24:47.769Z</time></trkpt><trkpt lat="43.5888803" lon="12.5318436"><ele>336.0</ele><time>2026-05-03T09:24:48.769Z</time></trkpt><trkpt lat="43.5887249" lon="12.5317838"><ele>336.0</ele><time>2026-05-03T09:24:49.77Z</time></trkpt><trkpt lat="43.5885751" lon="12.5317179"><ele>335.3333333333333</ele><time>2026-05-03T09:24:50.768Z</time></trkpt><trkpt lat="43.5884341" lon="12.5316329"><ele>334.66666666666663</ele><time>2026-05-03T09:24:51.769Z</time></trkpt><trkpt lat="43.5883011" lon="12.5315203"><ele>334.0</ele><time>2026-05-03T09:24:52.768Z</time></trkpt><trkpt lat="43.5881698" lon="12.5313685"><ele>332.3333333333333</ele><time>2026-05-03T09:24:53.768Z</time></trkpt><trkpt lat="43.5880437" lon="12.5311831"><ele>330.6666666666667</ele><time>2026-05-03T09:24:54.767Z</time></trkpt><trkpt lat="43.5879199" lon="12.5309876"><ele>329.0</ele><time>2026-05-03T09:24:55.767Z</time></trkpt><trkpt lat="43.5877986" lon="12.5307971"><ele>330.33333333333337</ele><time>2026-05-03T09:24:56.768Z</time></trkpt><trkpt lat="43.5876638" lon="12.530622"><ele>331.6666666666667</ele><time>2026-05-03T09:24:57.768Z</time></trkpt><trkpt lat="43.5875136" lon="12.5304654"><ele>333.0</ele><time>2026-05-03T09:24:58.769Z</time></trkpt><trkpt lat="43.5873425" lon="12.5303242"><ele>333.0</ele><time>2026-05-03T09:24:59.768Z</time></trkpt><trkpt lat="43.5871539" lon="12.530196"><ele>333.0</ele><time>2026-05-03T09:25:00.767Z</time></trkpt><trkpt lat="43.5869567" lon="12.5300662"><ele>333.0</ele><time>2026-05-03T09:25:01.767Z</time></trkpt><trkpt lat="43.5867619" lon="12.5299374"><ele>330.6666666666667</ele><time>2026-05-03T09:25:02.769Z</time></trkpt><trkpt lat="43.5865818" lon="12.5298172"><ele>328.33333333333337</ele><time>2026-05-03T09:25:03.768Z</time></trkpt><trkpt lat="43.5864161" lon="12.5296922"><ele>326.0</ele><time>2026-05-03T09:25:04.768Z</time></trkpt><trkpt lat="43.5862599" lon="12.5295431"><ele>326.0</ele><time>2026-05-03T09:25:05.768Z</time></trkpt><trkpt lat="43.5861138" lon="12.5293577"><ele>326.0</ele><time>2026-05-03T09:25:06.768Z</time></trkpt><trkpt lat="43.5859881" lon="12.5291518"><ele>326.0</ele><time>2026-05-03T09:25:07.768Z</time></trkpt><trkpt lat="43.5858911" lon="12.52894"><ele>326.33333333333337</ele><time>2026-05-03T09:25:08.768Z</time></trkpt><trkpt lat="43.5858119" lon="12.5287037"><ele>326.6666666666667</ele><time>2026-05-03T09:25:09.769Z</time></trkpt><trkpt lat="43.5857512" lon="12.5284409"><ele>327.0</ele><time>2026-05-03T09:25:10.769Z</time></trkpt><trkpt lat="43.5857095" lon="12.5281539"><ele>328.0</ele><time>2026-05-03T09:25:11.768Z</time></trkpt><trkpt lat="43.5856767" lon="12.5278405"><ele>329.0</ele><time>2026-05-03T09:25:12.769Z</time></trkpt><trkpt lat="43.5856448" lon="12.5275054"><ele>329.0</ele><time>2026-05-03T09:25:13.768Z</time></trkpt><trkpt lat="43.5856135" lon="12.5271625"><ele>329.0</ele><time>2026-05-03T09:25:14.768Z</time></trkpt><trkpt lat="43.585588" lon="12.5268135"><ele>329.33333333333337</ele><time>2026-05-03T09:25:15.768Z</time></trkpt><trkpt lat="43.585557" lon="12.5265448"><ele>329.6666666666667</ele><time>2026-05-03T09:25:16.769Z</time></trkpt><trkpt lat="43.5855308" lon="12.5262671"><ele>330.0</ele><time>2026-05-03T09:25:17.767Z</time></trkpt><trkpt lat="43.585501" lon="12.5260086"><ele>329.3333333333333</ele><time>2026-05-03T09:25:18.769Z</time></trkpt><trkpt lat="43.5854591" lon="12.5257532"><ele>328.66666666666663</ele><time>2026-05-03T09:25:19.768Z</time></trkpt><trkpt lat="43.585403" lon="12.5255137"><ele>328.0</ele><time>2026-05-03T09:25:20.769Z</time></trkpt><trkpt lat="43.5853311" lon="12.525295"><ele>333.3333333333333</ele><time>2026-05-03T09:25:21.768Z</time></trkpt><trkpt lat="43.5852357" lon="12.5250887"><ele>338.6666666666667</ele><time>2026-05-03T09:25:22.768Z</time></trkpt><trkpt lat="43.5851155" lon="12.5249005"><ele>344.0</ele><time>2026-05-03T09:25:23.767Z</time></trkpt><trkpt lat="43.5849857" lon="12.5247209"><ele>340.33333333333337</ele><time>2026-05-03T09:25:24.768Z</time></trkpt><trkpt lat="43.5848512" lon="12.5245389"><ele>336.6666666666667</ele><time>2026-05-03T09:25:25.768Z</time></trkpt><trkpt lat="43.5847182" lon="12.5243576"><ele>333.0</ele><time>2026-05-03T09:25:26.769Z</time></trkpt><trkpt lat="43.5846015" lon="12.5241773"><ele>339.0</ele><time>2026-05-03T09:25:27.768Z</time></trkpt><trkpt lat="43.5845015" lon="12.5239928"><ele>345.0</ele><time>2026-05-03T09:25:28.768Z</time></trkpt><trkpt lat="43.5844245" lon="12.5237905"><ele>351.0</ele><time>2026-05-03T09:25:29.769Z</time></trkpt><trkpt lat="43.5843607" lon="12.5235683"><ele>351.0</ele><time>2026-05-03T09:25:30.768Z</time></trkpt><trkpt lat="43.5842978" lon="12.5233365"><ele>351.0</ele><time>2026-05-03T09:25:31.768Z</time></trkpt><trkpt lat="43.5842326" lon="12.5230948"><ele>351.0</ele><time>2026-05-03T09:25:32.768Z</time></trkpt><trkpt lat="43.5841706" lon="12.5228551"><ele>348.6666666666667</ele><time>2026-05-03T09:25:33.767Z</time></trkpt><trkpt lat="43.5841094" lon="12.5226195"><ele>346.33333333333337</ele><time>2026-05-03T09:25:34.769Z</time></trkpt><trkpt lat="43.5840501" lon="12.5223914"><ele>344.0</ele><time>2026-05-03T09:25:35.769Z</time></trkpt><trkpt lat="43.5839969" lon="12.5221763"><ele>343.33333333333337</ele><time>2026-05-03T09:25:36.767Z</time></trkpt><trkpt lat="43.5839613" lon="12.5219732"><ele>342.6666666666667</ele><time>2026-05-03T09:25:37.768Z</time></trkpt><trkpt lat="43.5839505" lon="12.5217601"><ele>342.0</ele><time>2026-05-03T09:25:38.767Z</time></trkpt><trkpt lat="43.5839545" lon="12.5215578"><ele>342.0</ele><time>2026-05-03T09:25:39.767Z</time></trkpt><trkpt lat="43.5839626" lon="12.5213574"><ele>342.0</ele><time>2026-05-03T09:25:40.768Z</time></trkpt><trkpt lat="43.5839711" lon="12.521153"><ele>342.0</ele><time>2026-05-03T09:25:41.769Z</time></trkpt><trkpt lat="43.5839822" lon="12.5209442"><ele>342.0</ele><time>2026-05-03T09:25:42.768Z</time></trkpt><trkpt lat="43.5839957" lon="12.5207379"><ele>342.25</ele><time>2026-05-03T09:25:43.767Z</time></trkpt><trkpt lat="43.5840066" lon="12.5205424"><ele>342.5</ele><time>2026-05-03T09:25:44.769Z</time></trkpt><trkpt lat="43.5840242" lon="12.5203556"><ele>342.75</ele><time>2026-05-03T09:25:45.769Z</time></trkpt><trkpt lat="43.5840578" lon="12.5201765"><ele>343.0</ele><time>2026-05-03T09:25:46.767Z</time></trkpt><trkpt lat="43.5841052" lon="12.5200012"><ele>343.5</ele><time>2026-05-03T09:25:47.768Z</time></trkpt><trkpt lat="43.5841557" lon="12.5198326"><ele>344.0</ele><time>2026-05-03T09:25:48.768Z</time></trkpt><trkpt lat="43.5842013" lon="12.5196717"><ele>344.5</ele><time>2026-05-03T09:25:49.768Z</time></trkpt><trkpt lat="43.5842497" lon="12.5195086"><ele>345.0</ele><time>2026-05-03T09:25:50.767Z</time></trkpt><trkpt lat="43.5843065" lon="12.5193268"><ele>342.6666666666667</ele><time>2026-05-03T09:25:51.769Z</time></trkpt><trkpt lat="43.584375" lon="12.5191161"><ele>340.33333333333337</ele><time>2026-05-03T09:25:52.768Z</time></trkpt><trkpt lat="43.5844508" lon="12.5188848"><ele>338.0</ele><time>2026-05-03T09:25:53.768Z</time></trkpt><trkpt lat="43.5845309" lon="12.5186252"><ele>338.0</ele><time>2026-05-03T09:25:54.767Z</time></trkpt><trkpt lat="43.5846277" lon="12.5183373"><ele>338.0</ele><time>2026-05-03T09:25:55.767Z</time></trkpt><trkpt lat="43.5847349" lon="12.5180735"><ele>338.0</ele><time>2026-05-03T09:25:56.769Z</time></trkpt><trkpt lat="43.5848305" lon="12.5178499"><ele>341.0</ele><time>2026-05-03T09:25:57.769Z</time></trkpt><trkpt lat="43.5849068" lon="12.5176304"><ele>344.0</ele><time>2026-05-03T09:25:58.768Z</time></trkpt><trkpt lat="43.5849612" lon="12.5173926"><ele>347.0</ele><time>2026-05-03T09:25:59.767Z</time></trkpt><trkpt lat="43.5849877" lon="12.517127"><ele>346.33333333333337</ele><time>2026-05-03T09:26:00.768Z</time></trkpt><trkpt lat="43.5849977" lon="12.5168335"><ele>345.6666666666667</ele><time>2026-05-03T09:26:01.768Z</time></trkpt><trkpt lat="43.5849993" lon="12.5165604"><ele>345.0</ele><time>2026-05-03T09:26:02.768Z</time></trkpt><trkpt lat="43.5849991" lon="12.5162997"><ele>343.6666666666667</ele><time>2026-05-03T09:26:03.769Z</time></trkpt><trkpt lat="43.5850009" lon="12.5160332"><ele>342.33333333333337</ele><time>2026-05-03T09:26:04.767Z</time></trkpt><trkpt lat="43.585004" lon="12.515772"><ele>341.0</ele><time>2026-05-03T09:26:05.768Z</time></trkpt><trkpt lat="43.5850204" lon="12.5155277"><ele>343.6666666666667</ele><time>2026-05-03T09:26:06.769Z</time></trkpt><trkpt lat="43.5850565" lon="12.5152832"><ele>346.3333333333333</ele><time>2026-05-03T09:26:07.767Z</time></trkpt><trkpt lat="43.5851146" lon="12.5150323"><ele>349.0</ele><time>2026-05-03T09:26:08.768Z</time></trkpt><trkpt lat="43.5851971" lon="12.5147863"><ele>347.66666666666663</ele><time>2026-05-03T09:26:09.768Z</time></trkpt><trkpt lat="43.5852999" lon="12.5145586"><ele>346.3333333333333</ele><time>2026-05-03T09:26:10.768Z</time></trkpt><trkpt lat="43.5854045" lon="12.514372"><ele>345.0</ele><time>2026-05-03T09:26:11.768Z</time></trkpt><trkpt lat="43.5855043" lon="12.514224"><ele>345.0</ele><time>2026-05-03T09:26:12.768Z</time></trkpt><trkpt lat="43.5856076" lon="12.5141009"><ele>345.0</ele><time>2026-05-03T09:26:13.767Z</time></trkpt><trkpt lat="43.5857139" lon="12.51399"><ele>345.0</ele><time>2026-05-03T09:26:14.768Z</time></trkpt><trkpt lat="43.5858254" lon="12.5138727"><ele>345.0</ele><time>2026-05-03T09:26:15.768Z</time></trkpt><trkpt lat="43.5859458" lon="12.5137502"><ele>343.6666666666667</ele><time>2026-05-03T09:26:16.768Z</time></trkpt><trkpt lat="43.5860736" lon="12.5136198"><ele>342.33333333333337</ele><time>2026-05-03T09:26:17.769Z</time></trkpt><trkpt lat="43.5862093" lon="12.513483"><ele>341.0</ele><time>2026-05-03T09:26:18.768Z</time></trkpt><trkpt lat="43.5863506" lon="12.5133377"><ele>341.0</ele><time>2026-05-03T09:26:19.769Z</time></trkpt><trkpt lat="43.5864977" lon="12.513187"><ele>341.0</ele><time>2026-05-03T09:26:20.768Z</time></trkpt><trkpt lat="43.5866513" lon="12.5130348"><ele>341.0</ele><time>2026-05-03T09:26:21.769Z</time></trkpt><trkpt lat="43.5867964" lon="12.5128898"><ele>341.6666666666667</ele><time>2026-05-03T09:26:22.768Z</time></trkpt><trkpt lat="43.5869261" lon="12.5127581"><ele>342.3333333333333</ele><time>2026-05-03T09:26:23.768Z</time></trkpt><trkpt lat="43.58706" lon="12.5126199"><ele>343.0</ele><time>2026-05-03T09:26:24.767Z</time></trkpt><trkpt lat="43.5871874" lon="12.5124886"><ele>343.0</ele><time>2026-05-03T09:26:25.768Z</time></trkpt><trkpt lat="43.5873111" lon="12.5123663"><ele>343.0</ele><time>2026-05-03T09:26:26.769Z</time></trkpt><trkpt lat="43.5874399" lon="12.5122434"><ele>343.0</ele><time>2026-05-03T09:26:27.768Z</time></trkpt><trkpt lat="43.5875693" lon="12.5121165"><ele>342.75</ele><time>2026-05-03T09:26:28.769Z</time></trkpt><trkpt lat="43.5876925" lon="12.5119921"><ele>342.5</ele><time>2026-05-03T09:26:29.768Z</time></trkpt><trkpt lat="43.5877999" lon="12.51188"><ele>342.25</ele><time>2026-05-03T09:26:30.769Z</time></trkpt><trkpt lat="43.5879052" lon="12.5117727"><ele>342.0</ele><time>2026-05-03T09:26:31.769Z</time></trkpt><trkpt lat="43.5880114" lon="12.5116704"><ele>341.75</ele><time>2026-05-03T09:26:32.767Z</time></trkpt><trkpt lat="43.5881264" lon="12.5115596"><ele>341.5</ele><time>2026-05-03T09:26:33.767Z</time></trkpt><trkpt lat="43.5882381" lon="12.5114439"><ele>341.25</ele><time>2026-05-03T09:26:34.768Z</time></trkpt><trkpt lat="43.5883419" lon="12.5113399"><ele>341.0</ele><time>2026-05-03T09:26:35.767Z</time></trkpt><trkpt lat="43.58844" lon="12.5112474"><ele>340.6</ele><time>2026-05-03T09:26:36.768Z</time></trkpt><trkpt lat="43.5885382" lon="12.5111536"><ele>340.20000000000005</ele><time>2026-05-03T09:26:37.767Z</time></trkpt><trkpt lat="43.5886312" lon="12.5110558"><ele>339.79999999999995</ele><time>2026-05-03T09:26:38.768Z</time></trkpt><trkpt lat="43.5887052" lon="12.5109719"><ele>339.4</ele><time>2026-05-03T09:26:39.768Z</time></trkpt><trkpt lat="43.5887701" lon="12.5108982"><ele>339.0</ele><time>2026-05-03T09:26:40.768Z</time></trkpt><trkpt lat="43.5888255" lon="12.5108304"><ele>338.5</ele><time>2026-05-03T09:26:41.768Z</time></trkpt><trkpt lat="43.5888724" lon="12.5107688"><ele>338.0</ele><time>2026-05-03T09:26:42.768Z</time></trkpt><trkpt lat="43.5889527" lon="12.5106273"><ele>337.5</ele><time>2026-05-03T09:26:44.768Z</time></trkpt><trkpt lat="43.5889999" lon="12.5105351"><ele>337.0</ele><time>2026-05-03T09:26:45.768Z</time></trkpt><trkpt lat="43.5890384" lon="12.5104555"><ele>336.5</ele><time>2026-05-03T09:26:46.768Z</time></trkpt><trkpt lat="43.5890844" lon="12.5103612"><ele>336.0</ele><time>2026-05-03T09:26:47.769Z</time></trkpt><trkpt lat="43.5891326" lon="12.5102514"><ele>335.8333333333333</ele><time>2026-05-03T09:26:48.769Z</time></trkpt><trkpt lat="43.5891754" lon="12.5101514"><ele>335.6666666666667</ele><time>2026-05-03T09:26:49.768Z</time></trkpt><trkpt lat="43.5892221" lon="12.510053"><ele>335.5</ele><time>2026-05-03T09:26:50.768Z</time></trkpt><trkpt lat="43.5892709" lon="12.5099513"><ele>335.33333333333337</ele><time>2026-05-03T09:26:51.768Z</time></trkpt><trkpt lat="43.5893091" lon="12.5098605"><ele>335.1666666666667</ele><time>2026-05-03T09:26:52.767Z</time></trkpt><trkpt lat="43.58934" lon="12.5097817"><ele>335.0</ele><time>2026-05-03T09:26:53.768Z</time></trkpt><trkpt lat="43.5894155" lon="12.5096603"><ele>335.0</ele><time>2026-05-03T09:26:55.767Z</time></trkpt><trkpt lat="43.58948" lon="12.5096398"><ele>335.0</ele><time>2026-05-03T09:26:56.768Z</time></trkpt><trkpt lat="43.5895435" lon="12.5096548"><ele>335.0</ele><time>2026-05-03T09:26:57.769Z</time></trkpt><trkpt lat="43.5896649" lon="12.5097289"><ele>335.0</ele><time>2026-05-03T09:26:59.768Z</time></trkpt><trkpt lat="43.5897358" lon="12.5097698"><ele>335.0</ele><time>2026-05-03T09:27:00.767Z</time></trkpt><trkpt lat="43.5898154" lon="12.5098141"><ele>335.0</ele><time>2026-05-03T09:27:01.768Z</time></trkpt><trkpt lat="43.5898891" lon="12.5098568"><ele>335.1666666666667</ele><time>2026-05-03T09:27:02.768Z</time></trkpt><trkpt lat="43.5899554" lon="12.5099024"><ele>335.33333333333337</ele><time>2026-05-03T09:27:03.769Z</time></trkpt><trkpt lat="43.5900183" lon="12.5099397"><ele>335.5</ele><time>2026-05-03T09:27:04.769Z</time></trkpt><trkpt lat="43.5901156" lon="12.5100036"><ele>335.6666666666667</ele><time>2026-05-03T09:27:06.768Z</time></trkpt><trkpt lat="43.5901779" lon="12.5099902"><ele>335.8333333333333</ele><time>2026-05-03T09:27:08.768Z</time></trkpt><trkpt lat="43.5901511" lon="12.5099077"><ele>336.0</ele><time>2026-05-03T09:27:10.768Z</time></trkpt><trkpt lat="43.5900639" lon="12.5098469"><ele>336.0</ele><time>2026-05-03T09:27:12.767Z</time></trkpt><trkpt lat="43.5899993" lon="12.5098119"><ele>336.0</ele><time>2026-05-03T09:27:14.767Z</time></trkpt><trkpt lat="43.589932" lon="12.509817"><ele>336.0</ele><time>2026-05-03T09:28:03.768Z</time></trkpt><trkpt lat="43.5898723" lon="12.5097852"><ele>336.0</ele><time>2026-05-03T09:28:10.767Z</time></trkpt><trkpt lat="43.5898114" lon="12.5097489"><ele>336.0</ele><time>2026-05-03T09:28:17.769Z</time></trkpt><trkpt lat="43.5897486" lon="12.5097237"><ele>336.0</ele><time>2026-05-03T09:28:32.768Z</time></trkpt><trkpt lat="43.5897918" lon="12.5096571"><ele>336.0</ele><time>2026-05-03T09:28:52.768Z</time></trkpt><trkpt lat="43.5898525" lon="12.5096974"><ele>336.0</ele><time>2026-05-03T09:31:26.768Z</time></trkpt><trkpt lat="43.5897933" lon="12.5096652"><ele>336.0</ele><time>2026-05-03T09:39:35.767Z</time></trkpt><trkpt lat="43.5898512" lon="12.5097004"><ele>336.0</ele><time>2026-05-03T09:42:42.766Z</time></trkpt><trkpt lat="43.5897918" lon="12.5096678"><ele>336.0</ele><time>2026-05-03T09:47:39.765Z</time></trkpt><trkpt lat="43.5898533" lon="12.5097006"><ele>336.0</ele><time>2026-05-03T09:52:15.765Z</time></trkpt><trkpt lat="43.5899183" lon="12.5096971"><ele>336.0</ele><time>2026-05-03T09:58:33.765Z</time></trkpt><trkpt lat="43.5899243" lon="12.5098053"><ele>336.0</ele><time>2026-05-03T09:58:38.763Z</time></trkpt><trkpt lat="43.5898524" lon="12.5097987"><ele>336.0</ele><time>2026-05-03T10:01:23.763Z</time></trkpt><trkpt lat="43.5897787" lon="12.5097538"><ele>336.0</ele><time>2026-05-03T10:01:24.763Z</time></trkpt><trkpt lat="43.5897046" lon="12.5097072"><ele>336.0</ele><time>2026-05-03T10:01:25.763Z</time></trkpt><trkpt lat="43.5896357" lon="12.5096626"><ele>336.0</ele><time>2026-05-03T10:01:26.763Z</time></trkpt><trkpt lat="43.5895817" lon="12.5096077"><ele>336.0</ele><time>2026-05-03T10:01:27.762Z</time></trkpt><trkpt lat="43.5894997" lon="12.509547"><ele>336.0</ele><time>2026-05-03T10:01:29.762Z</time></trkpt><trkpt lat="43.5894254" lon="12.5095031"><ele>335.8</ele><time>2026-05-03T10:01:32.764Z</time></trkpt><trkpt lat="43.5893471" lon="12.5096075"><ele>335.6</ele><time>2026-05-03T10:01:35.763Z</time></trkpt><trkpt lat="43.5893186" lon="12.5097466"><ele>335.4</ele><time>2026-05-03T10:01:37.764Z</time></trkpt><trkpt lat="43.5892929" lon="12.509826"><ele>335.2</ele><time>2026-05-03T10:01:38.763Z</time></trkpt><trkpt lat="43.5892432" lon="12.5099653"><ele>335.0</ele><time>2026-05-03T10:01:40.764Z</time></trkpt><trkpt lat="43.5891756" lon="12.5100886"><ele>335.0</ele><time>2026-05-03T10:01:42.763Z</time></trkpt><trkpt lat="43.5891242" lon="12.5102063"><ele>335.0</ele><time>2026-05-03T10:01:44.762Z</time></trkpt><trkpt lat="43.5890536" lon="12.5103702"><ele>335.0</ele><time>2026-05-03T10:01:46.762Z</time></trkpt><trkpt lat="43.5889969" lon="12.5104769"><ele>335.0</ele><time>2026-05-03T10:01:47.763Z</time></trkpt><trkpt lat="43.5889302" lon="12.5106"><ele>335.0</ele><time>2026-05-03T10:01:48.763Z</time></trkpt><trkpt lat="43.5888457" lon="12.5107495"><ele>335.33333333333337</ele><time>2026-05-03T10:01:49.763Z</time></trkpt><trkpt lat="43.5887301" lon="12.5109092"><ele>335.6666666666667</ele><time>2026-05-03T10:01:50.762Z</time></trkpt><trkpt lat="43.5885922" lon="12.5110568"><ele>336.0</ele><time>2026-05-03T10:01:51.762Z</time></trkpt><trkpt lat="43.5884455" lon="12.5112019"><ele>338.5</ele><time>2026-05-03T10:01:52.764Z</time></trkpt><trkpt lat="43.588163" lon="12.5114806"><ele>341.0</ele><time>2026-05-03T10:01:54.762Z</time></trkpt><trkpt lat="43.588027" lon="12.511612"><ele>341.0</ele><time>2026-05-03T10:01:55.763Z</time></trkpt><trkpt lat="43.5878946" lon="12.511738"><ele>341.0</ele><time>2026-05-03T10:01:56.763Z</time></trkpt><trkpt lat="43.5877606" lon="12.5118693"><ele>341.0</ele><time>2026-05-03T10:01:57.764Z</time></trkpt><trkpt lat="43.5876246" lon="12.5120122"><ele>341.6666666666667</ele><time>2026-05-03T10:01:58.762Z</time></trkpt><trkpt lat="43.5874667" lon="12.5121732"><ele>342.3333333333333</ele><time>2026-05-03T10:01:59.763Z</time></trkpt><trkpt lat="43.5872947" lon="12.5123399"><ele>343.0</ele><time>2026-05-03T10:02:00.763Z</time></trkpt><trkpt lat="43.5871231" lon="12.5125083"><ele>343.3333333333333</ele><time>2026-05-03T10:02:01.763Z</time></trkpt><trkpt lat="43.5869472" lon="12.5126825"><ele>343.6666666666667</ele><time>2026-05-03T10:02:02.763Z</time></trkpt><trkpt lat="43.586769" lon="12.5128617"><ele>344.0</ele><time>2026-05-03T10:02:03.763Z</time></trkpt><trkpt lat="43.5865941" lon="12.5130374"><ele>343.0</ele><time>2026-05-03T10:02:04.763Z</time></trkpt><trkpt lat="43.5864323" lon="12.5131992"><ele>342.0</ele><time>2026-05-03T10:02:05.763Z</time></trkpt><trkpt lat="43.5862812" lon="12.5133485"><ele>341.0</ele><time>2026-05-03T10:02:06.764Z</time></trkpt><trkpt lat="43.5861392" lon="12.5134848"><ele>342.33333333333337</ele><time>2026-05-03T10:02:07.764Z</time></trkpt><trkpt lat="43.5860092" lon="12.5136145"><ele>343.6666666666667</ele><time>2026-05-03T10:02:08.763Z</time></trkpt><trkpt lat="43.5858917" lon="12.5137417"><ele>345.0</ele><time>2026-05-03T10:02:09.763Z</time></trkpt><trkpt lat="43.5857792" lon="12.5138587"><ele>345.0</ele><time>2026-05-03T10:02:10.763Z</time></trkpt><trkpt lat="43.585668" lon="12.5139728"><ele>345.0</ele><time>2026-05-03T10:02:11.763Z</time></trkpt><trkpt lat="43.5855462" lon="12.5141002"><ele>345.0</ele><time>2026-05-03T10:02:12.762Z</time></trkpt><trkpt lat="43.5854228" lon="12.5142685"><ele>346.3333333333333</ele><time>2026-05-03T10:02:13.763Z</time></trkpt><trkpt lat="43.5853006" lon="12.5144794"><ele>347.66666666666663</ele><time>2026-05-03T10:02:14.762Z</time></trkpt><trkpt lat="43.5851844" lon="12.5147228"><ele>349.0</ele><time>2026-05-03T10:02:15.764Z</time></trkpt><trkpt lat="43.5850943" lon="12.5149863"><ele>349.0</ele><time>2026-05-03T10:02:16.763Z</time></trkpt><trkpt lat="43.585024" lon="12.5152921"><ele>349.0</ele><time>2026-05-03T10:02:17.763Z</time></trkpt><trkpt lat="43.5849785" lon="12.5156111"><ele>347.66666666666663</ele><time>2026-05-03T10:02:18.763Z</time></trkpt><trkpt lat="43.5849654" lon="12.5159053"><ele>346.3333333333333</ele><time>2026-05-03T10:02:19.764Z</time></trkpt><trkpt lat="43.5849623" lon="12.5161827"><ele>345.0</ele><time>2026-05-03T10:02:20.764Z</time></trkpt><trkpt lat="43.584967" lon="12.5164435"><ele>345.0</ele><time>2026-05-03T10:02:21.763Z</time></trkpt><trkpt lat="43.5849721" lon="12.5166877"><ele>345.0</ele><time>2026-05-03T10:02:22.763Z</time></trkpt><trkpt lat="43.5849773" lon="12.5169162"><ele>345.0</ele><time>2026-05-03T10:02:23.763Z</time></trkpt><trkpt lat="43.5849839" lon="12.517147"><ele>345.6666666666667</ele><time>2026-05-03T10:02:24.763Z</time></trkpt><trkpt lat="43.5849417" lon="12.5173886"><ele>346.33333333333337</ele><time>2026-05-03T10:02:25.762Z</time></trkpt><trkpt lat="43.5848778" lon="12.5176261"><ele>347.0</ele><time>2026-05-03T10:02:26.763Z</time></trkpt><trkpt lat="43.5847877" lon="12.5178734"><ele>344.0</ele><time>2026-05-03T10:02:27.764Z</time></trkpt><trkpt lat="43.5846885" lon="12.518137"><ele>341.0</ele><time>2026-05-03T10:02:28.763Z</time></trkpt><trkpt lat="43.5845953" lon="12.5183994"><ele>338.0</ele><time>2026-05-03T10:02:29.762Z</time></trkpt><trkpt lat="43.5845026" lon="12.5186551"><ele>344.33333333333337</ele><time>2026-05-03T10:02:30.762Z</time></trkpt><trkpt lat="43.5844385" lon="12.5188843"><ele>350.6666666666667</ele><time>2026-05-03T10:02:31.762Z</time></trkpt><trkpt lat="43.5843705" lon="12.5191064"><ele>357.0</ele><time>2026-05-03T10:02:32.763Z</time></trkpt><trkpt lat="43.5842931" lon="12.519336"><ele>353.0</ele><time>2026-05-03T10:02:33.763Z</time></trkpt><trkpt lat="43.5842128" lon="12.5195689"><ele>349.0</ele><time>2026-05-03T10:02:34.763Z</time></trkpt><trkpt lat="43.5841296" lon="12.5198312"><ele>345.0</ele><time>2026-05-03T10:02:35.762Z</time></trkpt><trkpt lat="43.5840548" lon="12.5200997"><ele>344.3333333333333</ele><time>2026-05-03T10:02:36.762Z</time></trkpt><trkpt lat="43.5840162" lon="12.5204058"><ele>343.66666666666663</ele><time>2026-05-03T10:02:37.762Z</time></trkpt><trkpt lat="43.5839901" lon="12.5206891"><ele>343.0</ele><time>2026-05-03T10:02:38.764Z</time></trkpt><trkpt lat="43.5839612" lon="12.5209524"><ele>343.0</ele><time>2026-05-03T10:02:39.763Z</time></trkpt><trkpt lat="43.583948" lon="12.5211987"><ele>343.0</ele><time>2026-05-03T10:02:40.762Z</time></trkpt><trkpt lat="43.5839345" lon="12.5214306"><ele>343.0</ele><time>2026-05-03T10:02:41.762Z</time></trkpt><trkpt lat="43.5839249" lon="12.5216626"><ele>342.66666666666663</ele><time>2026-05-03T10:02:42.762Z</time></trkpt><trkpt lat="43.5839352" lon="12.5219059"><ele>342.3333333333333</ele><time>2026-05-03T10:02:43.762Z</time></trkpt><trkpt lat="43.5839698" lon="12.5221616"><ele>342.0</ele><time>2026-05-03T10:02:44.763Z</time></trkpt><trkpt lat="43.5840237" lon="12.5224259"><ele>342.6666666666667</ele><time>2026-05-03T10:02:45.764Z</time></trkpt><trkpt lat="43.5840877" lon="12.5226899"><ele>343.33333333333337</ele><time>2026-05-03T10:02:46.763Z</time></trkpt><trkpt lat="43.5841576" lon="12.5229482"><ele>344.0</ele><time>2026-05-03T10:02:47.762Z</time></trkpt><trkpt lat="43.5842266" lon="12.523209"><ele>346.33333333333337</ele><time>2026-05-03T10:02:48.762Z</time></trkpt><trkpt lat="43.5842862" lon="12.5234506"><ele>348.6666666666667</ele><time>2026-05-03T10:02:49.761Z</time></trkpt><trkpt lat="43.5843484" lon="12.5236778"><ele>351.0</ele><time>2026-05-03T10:02:50.762Z</time></trkpt><trkpt lat="43.5844103" lon="12.5238997"><ele>345.0</ele><time>2026-05-03T10:02:51.762Z</time></trkpt><trkpt lat="43.5845203" lon="12.5241249"><ele>339.0</ele><time>2026-05-03T10:02:52.763Z</time></trkpt><trkpt lat="43.5846453" lon="12.5243166"><ele>333.0</ele><time>2026-05-03T10:02:53.761Z</time></trkpt><trkpt lat="43.5847713" lon="12.5244919"><ele>336.6666666666667</ele><time>2026-05-03T10:02:54.763Z</time></trkpt><trkpt lat="43.5848996" lon="12.5246531"><ele>340.33333333333337</ele><time>2026-05-03T10:02:55.763Z</time></trkpt><trkpt lat="43.5850244" lon="12.5248272"><ele>344.0</ele><time>2026-05-03T10:02:56.763Z</time></trkpt><trkpt lat="43.5851471" lon="12.5250218"><ele>344.0</ele><time>2026-05-03T10:02:57.762Z</time></trkpt><trkpt lat="43.585253" lon="12.5252546"><ele>344.0</ele><time>2026-05-03T10:02:58.763Z</time></trkpt><trkpt lat="43.5853522" lon="12.5254959"><ele>344.0</ele><time>2026-05-03T10:02:59.764Z</time></trkpt><trkpt lat="43.5854053" lon="12.5257427"><ele>339.33333333333337</ele><time>2026-05-03T10:03:00.763Z</time></trkpt><trkpt lat="43.5854661" lon="12.526001"><ele>334.6666666666667</ele><time>2026-05-03T10:03:01.761Z</time></trkpt><trkpt lat="43.5854854" lon="12.526286"><ele>330.0</ele><time>2026-05-03T10:03:02.762Z</time></trkpt><trkpt lat="43.585526" lon="12.5265648"><ele>330.0</ele><time>2026-05-03T10:03:03.763Z</time></trkpt><trkpt lat="43.5855483" lon="12.5268611"><ele>330.0</ele><time>2026-05-03T10:03:04.761Z</time></trkpt><trkpt lat="43.5855782" lon="12.5271482"><ele>330.0</ele><time>2026-05-03T10:03:05.762Z</time></trkpt><trkpt lat="43.5856187" lon="12.5274226"><ele>329.6666666666667</ele><time>2026-05-03T10:03:06.763Z</time></trkpt><trkpt lat="43.5856444" lon="12.5276779"><ele>329.33333333333337</ele><time>2026-05-03T10:03:07.764Z</time></trkpt><trkpt lat="43.5856585" lon="12.527927"><ele>329.0</ele><time>2026-05-03T10:03:08.763Z</time></trkpt><trkpt lat="43.5856779" lon="12.5281745"><ele>328.33333333333337</ele><time>2026-05-03T10:03:09.762Z</time></trkpt><trkpt lat="43.5857202" lon="12.5284221"><ele>327.6666666666667</ele><time>2026-05-03T10:03:10.763Z</time></trkpt><trkpt lat="43.5857765" lon="12.5286714"><ele>327.0</ele><time>2026-05-03T10:03:11.763Z</time></trkpt><trkpt lat="43.585854" lon="12.528908"><ele>326.6666666666667</ele><time>2026-05-03T10:03:12.762Z</time></trkpt><trkpt lat="43.585958" lon="12.5291382"><ele>326.33333333333337</ele><time>2026-05-03T10:03:13.762Z</time></trkpt><trkpt lat="43.5860746" lon="12.5293452"><ele>326.0</ele><time>2026-05-03T10:03:14.763Z</time></trkpt><trkpt lat="43.5862237" lon="12.5295346"><ele>325.33333333333337</ele><time>2026-05-03T10:03:15.762Z</time></trkpt><trkpt lat="43.5863927" lon="12.5296967"><ele>324.6666666666667</ele><time>2026-05-03T10:03:16.763Z</time></trkpt><trkpt lat="43.5865748" lon="12.5298417"><ele>324.0</ele><time>2026-05-03T10:03:17.763Z</time></trkpt><trkpt lat="43.5867531" lon="12.5299673"><ele>324.0</ele><time>2026-05-03T10:03:18.762Z</time></trkpt><trkpt lat="43.5869347" lon="12.5300806"><ele>324.0</ele><time>2026-05-03T10:03:19.762Z</time></trkpt><trkpt lat="43.5871155" lon="12.5302043"><ele>324.0</ele><time>2026-05-03T10:03:20.764Z</time></trkpt><trkpt lat="43.5872797" lon="12.5303187"><ele>323.3333333333333</ele><time>2026-05-03T10:03:21.764Z</time></trkpt><trkpt lat="43.5874332" lon="12.5304313"><ele>322.66666666666663</ele><time>2026-05-03T10:03:22.764Z</time></trkpt><trkpt lat="43.5875802" lon="12.5305688"><ele>322.0</ele><time>2026-05-03T10:03:23.762Z</time></trkpt><trkpt lat="43.5877223" lon="12.5307523"><ele>324.3333333333333</ele><time>2026-05-03T10:03:24.761Z</time></trkpt><trkpt lat="43.5878457" lon="12.5309474"><ele>326.6666666666667</ele><time>2026-05-03T10:03:25.761Z</time></trkpt><trkpt lat="43.5879661" lon="12.5311394"><ele>329.0</ele><time>2026-05-03T10:03:26.762Z</time></trkpt><trkpt lat="43.5880823" lon="12.5313169"><ele>330.6666666666667</ele><time>2026-05-03T10:03:27.763Z</time></trkpt><trkpt lat="43.5882044" lon="12.5314782"><ele>332.3333333333333</ele><time>2026-05-03T10:03:28.761Z</time></trkpt><trkpt lat="43.5883486" lon="12.5316143"><ele>334.0</ele><time>2026-05-03T10:03:29.763Z</time></trkpt><trkpt lat="43.5885183" lon="12.531728"><ele>334.66666666666663</ele><time>2026-05-03T10:03:30.761Z</time></trkpt><trkpt lat="43.5887033" lon="12.5318177"><ele>335.3333333333333</ele><time>2026-05-03T10:03:31.763Z</time></trkpt><trkpt lat="43.5888908" lon="12.5318853"><ele>336.0</ele><time>2026-05-03T10:03:32.761Z</time></trkpt><trkpt lat="43.5890721" lon="12.5319478"><ele>336.0</ele><time>2026-05-03T10:03:33.763Z</time></trkpt><trkpt lat="43.5892343" lon="12.5320142"><ele>336.0</ele><time>2026-05-03T10:03:34.762Z</time></trkpt><trkpt lat="43.5893863" lon="12.5320825"><ele>336.0</ele><time>2026-05-03T10:03:35.764Z</time></trkpt><trkpt lat="43.5895284" lon="12.5321884"><ele>330.6666666666667</ele><time>2026-05-03T10:03:36.763Z</time></trkpt><trkpt lat="43.5896661" lon="12.5323252"><ele>325.33333333333337</ele><time>2026-05-03T10:03:37.761Z</time></trkpt><trkpt lat="43.5897989" lon="12.5324868"><ele>320.0</ele><time>2026-05-03T10:03:38.762Z</time></trkpt><trkpt lat="43.5899107" lon="12.5326665"><ele>320.0</ele><time>2026-05-03T10:03:39.761Z</time></trkpt><trkpt lat="43.5900077" lon="12.532873"><ele>320.0</ele><time>2026-05-03T10:03:40.763Z</time></trkpt><trkpt lat="43.5900972" lon="12.5330881"><ele>320.0</ele><time>2026-05-03T10:03:41.762Z</time></trkpt><trkpt lat="43.5901781" lon="12.5333067"><ele>322.33333333333337</ele><time>2026-05-03T10:03:42.763Z</time></trkpt><trkpt lat="43.5902553" lon="12.5335207"><ele>324.6666666666667</ele><time>2026-05-03T10:03:43.762Z</time></trkpt><trkpt lat="43.5903396" lon="12.533708"><ele>327.0</ele><time>2026-05-03T10:03:44.762Z</time></trkpt><trkpt lat="43.590439" lon="12.5338798"><ele>327.0</ele><time>2026-05-03T10:03:45.762Z</time></trkpt><trkpt lat="43.59055" lon="12.53403"><ele>327.0</ele><time>2026-05-03T10:03:46.762Z</time></trkpt><trkpt lat="43.5906819" lon="12.5341633"><ele>327.0</ele><time>2026-05-03T10:03:47.761Z</time></trkpt><trkpt lat="43.5908387" lon="12.5342733"><ele>327.0</ele><time>2026-05-03T10:03:48.763Z</time></trkpt><trkpt lat="43.5910122" lon="12.5343592"><ele>327.0</ele><time>2026-05-03T10:03:49.763Z</time></trkpt><trkpt lat="43.591182" lon="12.5344356"><ele>327.0</ele><time>2026-05-03T10:03:50.763Z</time></trkpt><trkpt lat="43.5913537" lon="12.5345063"><ele>328.0</ele><time>2026-05-03T10:03:51.764Z</time></trkpt><trkpt lat="43.5915187" lon="12.5346079"><ele>329.0</ele><time>2026-05-03T10:03:52.763Z</time></trkpt><trkpt lat="43.5916756" lon="12.534735"><ele>330.0</ele><time>2026-05-03T10:03:53.762Z</time></trkpt><trkpt lat="43.5918213" lon="12.5348794"><ele>330.0</ele><time>2026-05-03T10:03:54.763Z</time></trkpt><trkpt lat="43.59195" lon="12.5350427"><ele>330.0</ele><time>2026-05-03T10:03:55.763Z</time></trkpt><trkpt lat="43.5920588" lon="12.5352234"><ele>330.0</ele><time>2026-05-03T10:03:56.763Z</time></trkpt><trkpt lat="43.592154" lon="12.5354264"><ele>326.6666666666667</ele><time>2026-05-03T10:03:57.764Z</time></trkpt><trkpt lat="43.5922228" lon="12.5356477"><ele>323.33333333333337</ele><time>2026-05-03T10:03:58.762Z</time></trkpt><trkpt lat="43.5922753" lon="12.5358805"><ele>320.0</ele><time>2026-05-03T10:03:59.762Z</time></trkpt><trkpt lat="43.5923093" lon="12.5361402"><ele>321.33333333333337</ele><time>2026-05-03T10:04:00.763Z</time></trkpt><trkpt lat="43.5923282" lon="12.5364294"><ele>322.6666666666667</ele><time>2026-05-03T10:04:01.764Z</time></trkpt><trkpt lat="43.5923475" lon="12.5367347"><ele>324.0</ele><time>2026-05-03T10:04:02.762Z</time></trkpt><trkpt lat="43.592365" lon="12.5370428"><ele>322.0</ele><time>2026-05-03T10:04:03.763Z</time></trkpt><trkpt lat="43.5923859" lon="12.5373678"><ele>320.0</ele><time>2026-05-03T10:04:04.762Z</time></trkpt><trkpt lat="43.5923961" lon="12.5376679"><ele>317.6666666666667</ele><time>2026-05-03T10:04:05.762Z</time></trkpt><trkpt lat="43.5924029" lon="12.5379519"><ele>315.3333333333333</ele><time>2026-05-03T10:04:06.763Z</time></trkpt><trkpt lat="43.592402" lon="12.5382313"><ele>313.0</ele><time>2026-05-03T10:04:07.762Z</time></trkpt><trkpt lat="43.5923945" lon="12.5385259"><ele>312.0</ele><time>2026-05-03T10:04:08.763Z</time></trkpt><trkpt lat="43.5923815" lon="12.5388378"><ele>311.0</ele><time>2026-05-03T10:04:09.763Z</time></trkpt><trkpt lat="43.5923721" lon="12.5391651"><ele>311.0</ele><time>2026-05-03T10:04:10.762Z</time></trkpt><trkpt lat="43.5923614" lon="12.5394975"><ele>311.0</ele><time>2026-05-03T10:04:11.762Z</time></trkpt><trkpt lat="43.5923467" lon="12.5398216"><ele>312.6666666666667</ele><time>2026-05-03T10:04:12.762Z</time></trkpt><trkpt lat="43.5923428" lon="12.5401125"><ele>314.3333333333333</ele><time>2026-05-03T10:04:13.764Z</time></trkpt><trkpt lat="43.5923317" lon="12.5403958"><ele>316.0</ele><time>2026-05-03T10:04:14.761Z</time></trkpt><trkpt lat="43.5923244" lon="12.5406726"><ele>316.0</ele><time>2026-05-03T10:04:15.762Z</time></trkpt><trkpt lat="43.5923059" lon="12.5409578"><ele>316.0</ele><time>2026-05-03T10:04:16.763Z</time></trkpt><trkpt lat="43.5922878" lon="12.5412274"><ele>316.0</ele><time>2026-05-03T10:04:17.763Z</time></trkpt><trkpt lat="43.5922743" lon="12.5414861"><ele>314.0</ele><time>2026-05-03T10:04:18.763Z</time></trkpt><trkpt lat="43.5922725" lon="12.5417417"><ele>312.0</ele><time>2026-05-03T10:04:19.761Z</time></trkpt><trkpt lat="43.5922878" lon="12.5420132"><ele>310.0</ele><time>2026-05-03T10:04:20.764Z</time></trkpt><trkpt lat="43.5923197" lon="12.5422888"><ele>309.66666666666663</ele><time>2026-05-03T10:04:21.764Z</time></trkpt><trkpt lat="43.5923665" lon="12.5425559"><ele>309.3333333333333</ele><time>2026-05-03T10:04:22.763Z</time></trkpt><trkpt lat="43.5924382" lon="12.5428189"><ele>309.0</ele><time>2026-05-03T10:04:23.764Z</time></trkpt><trkpt lat="43.5925345" lon="12.54307"><ele>309.0</ele><time>2026-05-03T10:04:24.763Z</time></trkpt><trkpt lat="43.5926514" lon="12.5433177"><ele>309.0</ele><time>2026-05-03T10:04:25.762Z</time></trkpt><trkpt lat="43.5927893" lon="12.5435556"><ele>309.0</ele><time>2026-05-03T10:04:26.763Z</time></trkpt><trkpt lat="43.5929476" lon="12.5437977"><ele>309.0</ele><time>2026-05-03T10:04:27.762Z</time></trkpt><trkpt lat="43.5931135" lon="12.544051"><ele>309.0</ele><time>2026-05-03T10:04:28.763Z</time></trkpt><trkpt lat="43.5932751" lon="12.5443046"><ele>318.5</ele><time>2026-05-03T10:04:29.764Z</time></trkpt><trkpt lat="43.5934271" lon="12.5445472"><ele>328.0</ele><time>2026-05-03T10:04:30.762Z</time></trkpt><trkpt lat="43.5935702" lon="12.5447823"><ele>317.5</ele><time>2026-05-03T10:04:31.763Z</time></trkpt><trkpt lat="43.5937205" lon="12.545025"><ele>307.0</ele><time>2026-05-03T10:04:32.763Z</time></trkpt><trkpt lat="43.5938576" lon="12.5452673"><ele>308.5</ele><time>2026-05-03T10:04:33.762Z</time></trkpt><trkpt lat="43.5940008" lon="12.5455157"><ele>310.0</ele><time>2026-05-03T10:04:34.762Z</time></trkpt><trkpt lat="43.594172" lon="12.5457162"><ele>310.0</ele><time>2026-05-03T10:04:35.762Z</time></trkpt><trkpt lat="43.5943154" lon="12.5459175"><ele>310.0</ele><time>2026-05-03T10:04:36.763Z</time></trkpt><trkpt lat="43.5944476" lon="12.5461254"><ele>310.0</ele><time>2026-05-03T10:04:37.762Z</time></trkpt><trkpt lat="43.5945724" lon="12.5463427"><ele>314.5</ele><time>2026-05-03T10:04:38.762Z</time></trkpt><trkpt lat="43.5947911" lon="12.5468685"><ele>319.0</ele><time>2026-05-03T10:04:40.761Z</time></trkpt><trkpt lat="43.5948933" lon="12.5471726"><ele>319.0</ele><time>2026-05-03T10:04:41.764Z</time></trkpt><trkpt lat="43.5949837" lon="12.5474602"><ele>319.0</ele><time>2026-05-03T10:04:42.764Z</time></trkpt><trkpt lat="43.595067" lon="12.54773"><ele>319.0</ele><time>2026-05-03T10:04:43.764Z</time></trkpt><trkpt lat="43.595163" lon="12.5480044"><ele>313.5</ele><time>2026-05-03T10:04:44.761Z</time></trkpt><trkpt lat="43.5952779" lon="12.5482797"><ele>308.0</ele><time>2026-05-03T10:04:45.763Z</time></trkpt><trkpt lat="43.5954034" lon="12.5485546"><ele>313.0</ele><time>2026-05-03T10:04:46.762Z</time></trkpt><trkpt lat="43.5955387" lon="12.5488156"><ele>318.0</ele><time>2026-05-03T10:04:47.761Z</time></trkpt><trkpt lat="43.5956656" lon="12.5490544"><ele>323.0</ele><time>2026-05-03T10:04:48.764Z</time></trkpt><trkpt lat="43.5957973" lon="12.5492818"><ele>323.0</ele><time>2026-05-03T10:04:49.762Z</time></trkpt><trkpt lat="43.5959479" lon="12.549507"><ele>323.0</ele><time>2026-05-03T10:04:50.761Z</time></trkpt><trkpt lat="43.5960988" lon="12.5497027"><ele>323.0</ele><time>2026-05-03T10:04:51.763Z</time></trkpt><trkpt lat="43.5962442" lon="12.5498761"><ele>319.0</ele><time>2026-05-03T10:04:52.762Z</time></trkpt><trkpt lat="43.5963776" lon="12.5500278"><ele>315.0</ele><time>2026-05-03T10:04:53.764Z</time></trkpt><trkpt lat="43.5965139" lon="12.550153"><ele>311.0</ele><time>2026-05-03T10:04:54.762Z</time></trkpt><trkpt lat="43.5966685" lon="12.5502491"><ele>311.0</ele><time>2026-05-03T10:04:55.764Z</time></trkpt><trkpt lat="43.5968342" lon="12.5503063"><ele>311.0</ele><time>2026-05-03T10:04:56.764Z</time></trkpt><trkpt lat="43.5970096" lon="12.5503268"><ele>311.0</ele><time>2026-05-03T10:04:57.763Z</time></trkpt><trkpt lat="43.5971885" lon="12.5503341"><ele>313.0</ele><time>2026-05-03T10:04:58.763Z</time></trkpt><trkpt lat="43.5973728" lon="12.5502974"><ele>315.0</ele><time>2026-05-03T10:04:59.761Z</time></trkpt><trkpt lat="43.5975556" lon="12.5502991"><ele>317.0</ele><time>2026-05-03T10:05:00.764Z</time></trkpt><trkpt lat="43.597744" lon="12.5502965"><ele>320.6666666666667</ele><time>2026-05-03T10:05:01.762Z</time></trkpt><trkpt lat="43.5979323" lon="12.5503468"><ele>324.3333333333333</ele><time>2026-05-03T10:05:02.762Z</time></trkpt><trkpt lat="43.5981251" lon="12.550396"><ele>328.0</ele><time>2026-05-03T10:05:03.762Z</time></trkpt><trkpt lat="43.5983073" lon="12.5504647"><ele>327.3333333333333</ele><time>2026-05-03T10:05:04.762Z</time></trkpt><trkpt lat="43.598476" lon="12.5505608"><ele>326.6666666666667</ele><time>2026-05-03T10:05:05.762Z</time></trkpt><trkpt lat="43.5986378" lon="12.5506942"><ele>326.0</ele><time>2026-05-03T10:05:06.762Z</time></trkpt><trkpt lat="43.5987961" lon="12.5508457"><ele>326.0</ele><time>2026-05-03T10:05:07.762Z</time></trkpt><trkpt lat="43.5989316" lon="12.5510747"><ele>326.0</ele><time>2026-05-03T10:05:08.763Z</time></trkpt><trkpt lat="43.5990458" lon="12.5513157"><ele>326.0</ele><time>2026-05-03T10:05:09.762Z</time></trkpt><trkpt lat="43.5991462" lon="12.5515542"><ele>321.0</ele><time>2026-05-03T10:05:10.763Z</time></trkpt><trkpt lat="43.5992418" lon="12.5517996"><ele>316.0</ele><time>2026-05-03T10:05:11.763Z</time></trkpt><trkpt lat="43.5993389" lon="12.5520413"><ele>311.0</ele><time>2026-05-03T10:05:12.763Z</time></trkpt><trkpt lat="43.5994365" lon="12.552292"><ele>314.6666666666667</ele><time>2026-05-03T10:05:13.762Z</time></trkpt><trkpt lat="43.5995399" lon="12.5525435"><ele>318.3333333333333</ele><time>2026-05-03T10:05:14.763Z</time></trkpt><trkpt lat="43.5996463" lon="12.5527959"><ele>322.0</ele><time>2026-05-03T10:05:15.763Z</time></trkpt><trkpt lat="43.5997724" lon="12.5530515"><ele>311.0</ele><time>2026-05-03T10:05:16.763Z</time></trkpt><trkpt lat="43.5999547" lon="12.5532942"><ele>300.0</ele><time>2026-05-03T10:05:17.762Z</time></trkpt><trkpt lat="43.6001592" lon="12.5535309"><ele>295.0</ele><time>2026-05-03T10:05:18.763Z</time></trkpt><trkpt lat="43.6003792" lon="12.5537445"><ele>290.0</ele><time>2026-05-03T10:05:19.764Z</time></trkpt><trkpt lat="43.6005847" lon="12.553945"><ele>290.0</ele><time>2026-05-03T10:05:20.762Z</time></trkpt><trkpt lat="43.6007827" lon="12.5541379"><ele>290.0</ele><time>2026-05-03T10:05:21.763Z</time></trkpt><trkpt lat="43.6009765" lon="12.5543249"><ele>288.5</ele><time>2026-05-03T10:05:22.764Z</time></trkpt><trkpt lat="43.6011752" lon="12.554509"><ele>287.0</ele><time>2026-05-03T10:05:23.763Z</time></trkpt><trkpt lat="43.6013784" lon="12.554707"><ele>287.0</ele><time>2026-05-03T10:05:24.761Z</time></trkpt><trkpt lat="43.6015852" lon="12.5549207"><ele>287.0</ele><time>2026-05-03T10:05:25.762Z</time></trkpt><trkpt lat="43.6018024" lon="12.5551544"><ele>288.0</ele><time>2026-05-03T10:05:26.762Z</time></trkpt><trkpt lat="43.6020228" lon="12.5553922"><ele>289.0</ele><time>2026-05-03T10:05:27.764Z</time></trkpt><trkpt lat="43.6022334" lon="12.5556248"><ele>289.0</ele><time>2026-05-03T10:05:28.763Z</time></trkpt><trkpt lat="43.6024351" lon="12.5558418"><ele>289.0</ele><time>2026-05-03T10:05:29.763Z</time></trkpt><trkpt lat="43.6026214" lon="12.5560556"><ele>289.5</ele><time>2026-05-03T10:05:30.761Z</time></trkpt><trkpt lat="43.6028001" lon="12.5562562"><ele>290.0</ele><time>2026-05-03T10:05:31.761Z</time></trkpt><trkpt lat="43.6029793" lon="12.5564592"><ele>290.0</ele><time>2026-05-03T10:05:32.762Z</time></trkpt><trkpt lat="43.6031695" lon="12.5566541"><ele>290.0</ele><time>2026-05-03T10:05:33.762Z</time></trkpt><trkpt lat="43.6033752" lon="12.5568331"><ele>290.0</ele><time>2026-05-03T10:05:34.762Z</time></trkpt><trkpt lat="43.6036022" lon="12.5569894"><ele>290.0</ele><time>2026-05-03T10:05:35.763Z</time></trkpt><trkpt lat="43.6038228" lon="12.5571185"><ele>289.33333333333337</ele><time>2026-05-03T10:05:36.763Z</time></trkpt><trkpt lat="43.604033" lon="12.5572292"><ele>288.6666666666667</ele><time>2026-05-03T10:05:37.762Z</time></trkpt><trkpt lat="43.604234" lon="12.5573355"><ele>288.0</ele><time>2026-05-03T10:05:38.761Z</time></trkpt><trkpt lat="43.604423" lon="12.5574472"><ele>289.3333333333333</ele><time>2026-05-03T10:05:39.764Z</time></trkpt><trkpt lat="43.6046038" lon="12.5575849"><ele>290.66666666666663</ele><time>2026-05-03T10:05:40.762Z</time></trkpt><trkpt lat="43.6047704" lon="12.5577543"><ele>292.0</ele><time>2026-05-03T10:05:41.762Z</time></trkpt><trkpt lat="43.6049199" lon="12.5579557"><ele>287.66666666666663</ele><time>2026-05-03T10:05:42.761Z</time></trkpt><trkpt lat="43.6050524" lon="12.5581902"><ele>283.3333333333333</ele><time>2026-05-03T10:05:43.763Z</time></trkpt><trkpt lat="43.6051728" lon="12.5584366"><ele>279.0</ele><time>2026-05-03T10:05:44.762Z</time></trkpt><trkpt lat="43.6052985" lon="12.5586754"><ele>282.0</ele><time>2026-05-03T10:05:45.762Z</time></trkpt><trkpt lat="43.6054254" lon="12.5589199"><ele>285.0</ele><time>2026-05-03T10:05:46.762Z</time></trkpt><trkpt lat="43.6055553" lon="12.5591719"><ele>288.0</ele><time>2026-05-03T10:05:47.761Z</time></trkpt><trkpt lat="43.6056857" lon="12.559426"><ele>289.0</ele><time>2026-05-03T10:05:48.762Z</time></trkpt><trkpt lat="43.6058182" lon="12.5596757"><ele>290.0</ele><time>2026-05-03T10:05:49.762Z</time></trkpt><trkpt lat="43.6059408" lon="12.559926"><ele>291.0</ele><time>2026-05-03T10:05:50.764Z</time></trkpt><trkpt lat="43.6060644" lon="12.5601981"><ele>289.5</ele><time>2026-05-03T10:05:51.762Z</time></trkpt><trkpt lat="43.606173" lon="12.5604928"><ele>288.0</ele><time>2026-05-03T10:05:52.763Z</time></trkpt><trkpt lat="43.6062801" lon="12.5607911"><ele>288.0</ele><time>2026-05-03T10:05:53.761Z</time></trkpt><trkpt lat="43.6063645" lon="12.5610902"><ele>288.0</ele><time>2026-05-03T10:05:54.762Z</time></trkpt><trkpt lat="43.6064554" lon="12.561393"><ele>289.0</ele><time>2026-05-03T10:05:55.762Z</time></trkpt><trkpt lat="43.6065479" lon="12.5616851"><ele>290.0</ele><time>2026-05-03T10:05:56.764Z</time></trkpt><trkpt lat="43.6066388" lon="12.561983"><ele>291.5</ele><time>2026-05-03T10:05:57.762Z</time></trkpt><trkpt lat="43.6067293" lon="12.5622879"><ele>293.0</ele><time>2026-05-03T10:05:58.763Z</time></trkpt><trkpt lat="43.6068247" lon="12.5625977"><ele>295.0</ele><time>2026-05-03T10:05:59.762Z</time></trkpt><trkpt lat="43.6069315" lon="12.5629163"><ele>297.0</ele><time>2026-05-03T10:06:00.764Z</time></trkpt><trkpt lat="43.6070379" lon="12.5632489"><ele>293.0</ele><time>2026-05-03T10:06:01.762Z</time></trkpt><trkpt lat="43.6071505" lon="12.5636026"><ele>289.0</ele><time>2026-05-03T10:06:02.763Z</time></trkpt><trkpt lat="43.6072556" lon="12.5639324"><ele>289.0</ele><time>2026-05-03T10:06:03.763Z</time></trkpt><trkpt lat="43.6073507" lon="12.5642432"><ele>289.0</ele><time>2026-05-03T10:06:04.763Z</time></trkpt><trkpt lat="43.6074393" lon="12.5645365"><ele>290.3333333333333</ele><time>2026-05-03T10:06:05.762Z</time></trkpt><trkpt lat="43.6075208" lon="12.5648215"><ele>291.6666666666667</ele><time>2026-05-03T10:06:06.762Z</time></trkpt><trkpt lat="43.6075973" lon="12.565102"><ele>293.0</ele><time>2026-05-03T10:06:07.762Z</time></trkpt><trkpt lat="43.60768" lon="12.5653618"><ele>293.6666666666667</ele><time>2026-05-03T10:06:08.763Z</time></trkpt><trkpt lat="43.6077708" lon="12.5656138"><ele>294.3333333333333</ele><time>2026-05-03T10:06:09.761Z</time></trkpt><trkpt lat="43.607854" lon="12.5658686"><ele>295.0</ele><time>2026-05-03T10:06:10.763Z</time></trkpt><trkpt lat="43.607952" lon="12.5661226"><ele>293.0</ele><time>2026-05-03T10:06:11.763Z</time></trkpt><trkpt lat="43.6080726" lon="12.5663766"><ele>291.0</ele><time>2026-05-03T10:06:12.761Z</time></trkpt><trkpt lat="43.6082041" lon="12.5666326"><ele>289.0</ele><time>2026-05-03T10:06:13.764Z</time></trkpt><trkpt lat="43.6083478" lon="12.5668888"><ele>290.5</ele><time>2026-05-03T10:06:14.763Z</time></trkpt><trkpt lat="43.6084927" lon="12.5671502"><ele>292.0</ele><time>2026-05-03T10:06:15.762Z</time></trkpt><trkpt lat="43.6086316" lon="12.567401"><ele>290.0</ele><time>2026-05-03T10:06:16.762Z</time></trkpt><trkpt lat="43.608771" lon="12.5676408"><ele>288.0</ele><time>2026-05-03T10:06:17.762Z</time></trkpt><trkpt lat="43.6089114" lon="12.5678762"><ele>286.0</ele><time>2026-05-03T10:06:18.761Z</time></trkpt><trkpt lat="43.6090479" lon="12.5681168"><ele>286.0</ele><time>2026-05-03T10:06:19.762Z</time></trkpt><trkpt lat="43.6091805" lon="12.5683547"><ele>286.0</ele><time>2026-05-03T10:06:20.764Z</time></trkpt><trkpt lat="43.6093073" lon="12.5685817"><ele>286.0</ele><time>2026-05-03T10:06:21.762Z</time></trkpt><trkpt lat="43.6094289" lon="12.5687953"><ele>284.3333333333333</ele><time>2026-05-03T10:06:22.763Z</time></trkpt><trkpt lat="43.6095415" lon="12.5689968"><ele>282.6666666666667</ele><time>2026-05-03T10:06:23.763Z</time></trkpt><trkpt lat="43.6096477" lon="12.5691875"><ele>281.0</ele><time>2026-05-03T10:06:24.762Z</time></trkpt><trkpt lat="43.6097423" lon="12.5693705"><ele>281.33333333333337</ele><time>2026-05-03T10:06:25.762Z</time></trkpt><trkpt lat="43.6097941" lon="12.5695736"><ele>281.6666666666667</ele><time>2026-05-03T10:06:26.763Z</time></trkpt><trkpt lat="43.6098356" lon="12.5697966"><ele>282.0</ele><time>2026-05-03T10:06:27.762Z</time></trkpt><trkpt lat="43.6098666" lon="12.57006"><ele>282.0</ele><time>2026-05-03T10:06:28.762Z</time></trkpt><trkpt lat="43.6098916" lon="12.5703295"><ele>282.0</ele><time>2026-05-03T10:06:29.763Z</time></trkpt><trkpt lat="43.6099049" lon="12.5706427"><ele>282.0</ele><time>2026-05-03T10:06:30.763Z</time></trkpt><trkpt lat="43.6099304" lon="12.5709707"><ele>283.0</ele><time>2026-05-03T10:06:31.762Z</time></trkpt><trkpt lat="43.60996" lon="12.5713223"><ele>284.0</ele><time>2026-05-03T10:06:32.763Z</time></trkpt><trkpt lat="43.6099837" lon="12.5716845"><ele>282.0</ele><time>2026-05-03T10:06:33.763Z</time></trkpt><trkpt lat="43.610006" lon="12.5720312"><ele>280.0</ele><time>2026-05-03T10:06:34.762Z</time></trkpt><trkpt lat="43.6100262" lon="12.5723614"><ele>280.0</ele><time>2026-05-03T10:06:35.762Z</time></trkpt><trkpt lat="43.6100445" lon="12.5726739"><ele>280.0</ele><time>2026-05-03T10:06:36.763Z</time></trkpt><trkpt lat="43.6100679" lon="12.5729708"><ele>280.0</ele><time>2026-05-03T10:06:37.764Z</time></trkpt><trkpt lat="43.6100856" lon="12.5732691"><ele>280.3333333333333</ele><time>2026-05-03T10:06:38.763Z</time></trkpt><trkpt lat="43.6101066" lon="12.5735613"><ele>280.6666666666667</ele><time>2026-05-03T10:06:39.763Z</time></trkpt><trkpt lat="43.6101301" lon="12.5738461"><ele>281.0</ele><time>2026-05-03T10:06:40.762Z</time></trkpt><trkpt lat="43.6101526" lon="12.5741283"><ele>282.33333333333337</ele><time>2026-05-03T10:06:41.761Z</time></trkpt><trkpt lat="43.6101743" lon="12.5744118"><ele>283.6666666666667</ele><time>2026-05-03T10:06:42.762Z</time></trkpt><trkpt lat="43.6101929" lon="12.5746805"><ele>285.0</ele><time>2026-05-03T10:06:43.763Z</time></trkpt><trkpt lat="43.6102084" lon="12.5749344"><ele>285.0</ele><time>2026-05-03T10:06:44.762Z</time></trkpt><trkpt lat="43.6102218" lon="12.5751823"><ele>285.0</ele><time>2026-05-03T10:06:45.762Z</time></trkpt><trkpt lat="43.610232" lon="12.5754364"><ele>285.0</ele><time>2026-05-03T10:06:46.761Z</time></trkpt><trkpt lat="43.6102229" lon="12.5756889"><ele>283.0</ele><time>2026-05-03T10:06:47.763Z</time></trkpt><trkpt lat="43.6101966" lon="12.5759483"><ele>281.0</ele><time>2026-05-03T10:06:48.762Z</time></trkpt><trkpt lat="43.6101548" lon="12.5762103"><ele>279.0</ele><time>2026-05-03T10:06:49.761Z</time></trkpt><trkpt lat="43.6100882" lon="12.5764651"><ele>278.3333333333333</ele><time>2026-05-03T10:06:50.763Z</time></trkpt><trkpt lat="43.6100064" lon="12.5767268"><ele>277.66666666666663</ele><time>2026-05-03T10:06:51.761Z</time></trkpt><trkpt lat="43.6099287" lon="12.5769747"><ele>277.0</ele><time>2026-05-03T10:06:52.762Z</time></trkpt><trkpt lat="43.6098534" lon="12.577202"><ele>276.0</ele><time>2026-05-03T10:06:53.761Z</time></trkpt><trkpt lat="43.6097808" lon="12.5774137"><ele>275.0</ele><time>2026-05-03T10:06:54.762Z</time></trkpt><trkpt lat="43.6097081" lon="12.5776138"><ele>274.0</ele><time>2026-05-03T10:06:55.762Z</time></trkpt><trkpt lat="43.6096355" lon="12.5778142"><ele>274.3333333333333</ele><time>2026-05-03T10:06:56.761Z</time></trkpt><trkpt lat="43.6095619" lon="12.5780118"><ele>274.6666666666667</ele><time>2026-05-03T10:06:57.762Z</time></trkpt><trkpt lat="43.6094695" lon="12.5782257"><ele>275.0</ele><time>2026-05-03T10:06:58.763Z</time></trkpt><trkpt lat="43.6093504" lon="12.5784318"><ele>276.6666666666667</ele><time>2026-05-03T10:06:59.762Z</time></trkpt><trkpt lat="43.6092314" lon="12.5786182"><ele>278.3333333333333</ele><time>2026-05-03T10:07:00.761Z</time></trkpt><trkpt lat="43.6090985" lon="12.5787584"><ele>280.0</ele><time>2026-05-03T10:07:01.762Z</time></trkpt><trkpt lat="43.6089442" lon="12.578897"><ele>280.0</ele><time>2026-05-03T10:07:02.762Z</time></trkpt><trkpt lat="43.6087601" lon="12.5790098"><ele>280.0</ele><time>2026-05-03T10:07:03.761Z</time></trkpt><trkpt lat="43.6085561" lon="12.5791008"><ele>280.0</ele><time>2026-05-03T10:07:04.761Z</time></trkpt><trkpt lat="43.6083412" lon="12.5791608"><ele>278.3333333333333</ele><time>2026-05-03T10:07:05.763Z</time></trkpt><trkpt lat="43.6081235" lon="12.5792003"><ele>276.6666666666667</ele><time>2026-05-03T10:07:06.762Z</time></trkpt><trkpt lat="43.6079017" lon="12.5792245"><ele>275.0</ele><time>2026-05-03T10:07:07.761Z</time></trkpt><trkpt lat="43.6076769" lon="12.5792499"><ele>274.33333333333337</ele><time>2026-05-03T10:07:08.764Z</time></trkpt><trkpt lat="43.6074558" lon="12.5792731"><ele>273.6666666666667</ele><time>2026-05-03T10:07:09.763Z</time></trkpt><trkpt lat="43.6072598" lon="12.5792928"><ele>273.0</ele><time>2026-05-03T10:07:10.761Z</time></trkpt><trkpt lat="43.6070659" lon="12.5793127"><ele>274.3333333333333</ele><time>2026-05-03T10:07:11.763Z</time></trkpt><trkpt lat="43.6068676" lon="12.5793274"><ele>275.66666666666663</ele><time>2026-05-03T10:07:12.764Z</time></trkpt><trkpt lat="43.6066646" lon="12.5793469"><ele>277.0</ele><time>2026-05-03T10:07:13.763Z</time></trkpt><trkpt lat="43.6064542" lon="12.5793692"><ele>277.0</ele><time>2026-05-03T10:07:14.762Z</time></trkpt><trkpt lat="43.606244" lon="12.5793918"><ele>277.0</ele><time>2026-05-03T10:07:15.761Z</time></trkpt><trkpt lat="43.6060426" lon="12.5794115"><ele>277.0</ele><time>2026-05-03T10:07:16.762Z</time></trkpt><trkpt lat="43.6058511" lon="12.5794363"><ele>276.66666666666663</ele><time>2026-05-03T10:07:17.761Z</time></trkpt><trkpt lat="43.6056656" lon="12.5794498"><ele>276.3333333333333</ele><time>2026-05-03T10:07:18.763Z</time></trkpt><trkpt lat="43.6054847" lon="12.5794663"><ele>276.0</ele><time>2026-05-03T10:07:19.761Z</time></trkpt><trkpt lat="43.6052989" lon="12.5794843"><ele>271.6666666666667</ele><time>2026-05-03T10:07:20.763Z</time></trkpt><trkpt lat="43.6051119" lon="12.5795282"><ele>267.33333333333337</ele><time>2026-05-03T10:07:21.762Z</time></trkpt><trkpt lat="43.6049382" lon="12.5795892"><ele>263.0</ele><time>2026-05-03T10:07:22.761Z</time></trkpt><trkpt lat="43.6047615" lon="12.579683"><ele>263.0</ele><time>2026-05-03T10:07:23.761Z</time></trkpt><trkpt lat="43.6046029" lon="12.5797973"><ele>263.0</ele><time>2026-05-03T10:07:24.762Z</time></trkpt><trkpt lat="43.6044491" lon="12.5799349"><ele>263.0</ele><time>2026-05-03T10:07:25.762Z</time></trkpt><trkpt lat="43.6042992" lon="12.5800955"><ele>264.0</ele><time>2026-05-03T10:07:26.763Z</time></trkpt><trkpt lat="43.6041546" lon="12.5802824"><ele>265.0</ele><time>2026-05-03T10:07:27.762Z</time></trkpt><trkpt lat="43.6040167" lon="12.5804878"><ele>266.0</ele><time>2026-05-03T10:07:28.761Z</time></trkpt><trkpt lat="43.6038904" lon="12.5806849"><ele>266.0</ele><time>2026-05-03T10:07:29.763Z</time></trkpt><trkpt lat="43.603774" lon="12.5808742"><ele>266.0</ele><time>2026-05-03T10:07:30.762Z</time></trkpt><trkpt lat="43.6036582" lon="12.5810636"><ele>266.0</ele><time>2026-05-03T10:07:31.763Z</time></trkpt><trkpt lat="43.6035385" lon="12.5812501"><ele>266.6666666666667</ele><time>2026-05-03T10:07:32.761Z</time></trkpt><trkpt lat="43.603421" lon="12.5814322"><ele>267.3333333333333</ele><time>2026-05-03T10:07:33.763Z</time></trkpt><trkpt lat="43.6033101" lon="12.5816082"><ele>268.0</ele><time>2026-05-03T10:07:34.761Z</time></trkpt><trkpt lat="43.6031978" lon="12.5817857"><ele>268.0</ele><time>2026-05-03T10:07:35.761Z</time></trkpt><trkpt lat="43.6030865" lon="12.581972"><ele>268.0</ele><time>2026-05-03T10:07:36.762Z</time></trkpt><trkpt lat="43.6029923" lon="12.5821688"><ele>268.0</ele><time>2026-05-03T10:07:37.764Z</time></trkpt><trkpt lat="43.6028941" lon="12.5823905"><ele>264.0</ele><time>2026-05-03T10:07:38.762Z</time></trkpt><trkpt lat="43.6027829" lon="12.5826499"><ele>260.0</ele><time>2026-05-03T10:07:39.761Z</time></trkpt><trkpt lat="43.6026643" lon="12.5829424"><ele>260.0</ele><time>2026-05-03T10:07:40.763Z</time></trkpt><trkpt lat="43.6025452" lon="12.5832482"><ele>260.0</ele><time>2026-05-03T10:07:41.762Z</time></trkpt><trkpt lat="43.6024278" lon="12.5835182"><ele>264.6666666666667</ele><time>2026-05-03T10:07:42.762Z</time></trkpt><trkpt lat="43.6023069" lon="12.5837689"><ele>269.3333333333333</ele><time>2026-05-03T10:07:43.763Z</time></trkpt><trkpt lat="43.6022009" lon="12.5839982"><ele>274.0</ele><time>2026-05-03T10:07:44.761Z</time></trkpt><trkpt lat="43.6021111" lon="12.584203"><ele>274.0</ele><time>2026-05-03T10:07:45.762Z</time></trkpt><trkpt lat="43.6020225" lon="12.5843981"><ele>274.0</ele><time>2026-05-03T10:07:46.761Z</time></trkpt><trkpt lat="43.6019356" lon="12.5845869"><ele>274.0</ele><time>2026-05-03T10:07:47.761Z</time></trkpt><trkpt lat="43.6018533" lon="12.5847633"><ele>270.25</ele><time>2026-05-03T10:07:48.763Z</time></trkpt><trkpt lat="43.6017756" lon="12.5849329"><ele>266.5</ele><time>2026-05-03T10:07:49.762Z</time></trkpt><trkpt lat="43.6017039" lon="12.5850985"><ele>262.75</ele><time>2026-05-03T10:07:50.762Z</time></trkpt><trkpt lat="43.6016416" lon="12.5852521"><ele>259.0</ele><time>2026-05-03T10:07:51.762Z</time></trkpt><trkpt lat="43.6015272" lon="12.5855256"><ele>259.0</ele><time>2026-05-03T10:07:53.763Z</time></trkpt><trkpt lat="43.6014738" lon="12.5856517"><ele>259.0</ele><time>2026-05-03T10:07:54.762Z</time></trkpt><trkpt lat="43.6014307" lon="12.5857808"><ele>259.0</ele><time>2026-05-03T10:07:55.762Z</time></trkpt><trkpt lat="43.6014174" lon="12.5859202"><ele>259.0</ele><time>2026-05-03T10:07:56.762Z</time></trkpt><trkpt lat="43.601415" lon="12.5860396"><ele>259.0</ele><time>2026-05-03T10:07:57.762Z</time></trkpt><trkpt lat="43.6014564" lon="12.5861633"><ele>260.0</ele><time>2026-05-03T10:07:58.761Z</time></trkpt><trkpt lat="43.6015166" lon="12.5862793"><ele>261.0</ele><time>2026-05-03T10:07:59.761Z</time></trkpt><trkpt lat="43.6015825" lon="12.5863833"><ele>262.0</ele><time>2026-05-03T10:08:00.762Z</time></trkpt><trkpt lat="43.6016433" lon="12.5864839"><ele>263.0</ele><time>2026-05-03T10:08:01.764Z</time></trkpt><trkpt lat="43.6017027" lon="12.5865959"><ele>264.0</ele><time>2026-05-03T10:08:02.763Z</time></trkpt><trkpt lat="43.6017643" lon="12.5867185"><ele>264.0</ele><time>2026-05-03T10:08:03.762Z</time></trkpt><trkpt lat="43.6018213" lon="12.5868686"><ele>264.0</ele><time>2026-05-03T10:08:04.762Z</time></trkpt><trkpt lat="43.6018647" lon="12.5870308"><ele>264.0</ele><time>2026-05-03T10:08:05.764Z</time></trkpt><trkpt lat="43.601895" lon="12.5871953"><ele>264.0</ele><time>2026-05-03T10:08:06.762Z</time></trkpt><trkpt lat="43.6019216" lon="12.5873696"><ele>266.0</ele><time>2026-05-03T10:08:07.762Z</time></trkpt><trkpt lat="43.6019238" lon="12.5875498"><ele>268.0</ele><time>2026-05-03T10:08:08.763Z</time></trkpt><trkpt lat="43.6019383" lon="12.5877328"><ele>270.0</ele><time>2026-05-03T10:08:09.762Z</time></trkpt><trkpt lat="43.6019469" lon="12.587913"><ele>272.0</ele><time>2026-05-03T10:08:10.763Z</time></trkpt><trkpt lat="43.6019561" lon="12.5880922"><ele>265.6666666666667</ele><time>2026-05-03T10:08:11.763Z</time></trkpt><trkpt lat="43.6020422" lon="12.5883204"><ele>259.3333333333333</ele><time>2026-05-03T10:08:12.761Z</time></trkpt><trkpt lat="43.602115" lon="12.5885163"><ele>253.0</ele><time>2026-05-03T10:08:13.763Z</time></trkpt><trkpt lat="43.6022154" lon="12.5887478"><ele>253.0</ele><time>2026-05-03T10:08:14.762Z</time></trkpt><trkpt lat="43.60233" lon="12.5890176"><ele>253.0</ele><time>2026-05-03T10:08:15.762Z</time></trkpt><trkpt lat="43.6024534" lon="12.5893304"><ele>260.0</ele><time>2026-05-03T10:08:16.762Z</time></trkpt><trkpt lat="43.6025898" lon="12.5896603"><ele>267.0</ele><time>2026-05-03T10:08:17.761Z</time></trkpt><trkpt lat="43.602723" lon="12.5900023"><ele>263.0</ele><time>2026-05-03T10:08:18.762Z</time></trkpt><trkpt lat="43.6028498" lon="12.5903619"><ele>259.0</ele><time>2026-05-03T10:08:19.761Z</time></trkpt><trkpt lat="43.6029861" lon="12.5907165"><ele>259.0</ele><time>2026-05-03T10:08:20.762Z</time></trkpt><trkpt lat="43.603107" lon="12.5910332"><ele>259.0</ele><time>2026-05-03T10:08:21.762Z</time></trkpt><trkpt lat="43.6032284" lon="12.59134"><ele>263.0</ele><time>2026-05-03T10:08:22.763Z</time></trkpt><trkpt lat="43.6033522" lon="12.5916535"><ele>267.0</ele><time>2026-05-03T10:08:23.761Z</time></trkpt><trkpt lat="43.6034858" lon="12.5919726"><ele>266.0</ele><time>2026-05-03T10:08:24.764Z</time></trkpt><trkpt lat="43.6036188" lon="12.5923027"><ele>265.0</ele><time>2026-05-03T10:08:25.762Z</time></trkpt><trkpt lat="43.6037566" lon="12.5926474"><ele>265.0</ele><time>2026-05-03T10:08:26.762Z</time></trkpt><trkpt lat="43.6038996" lon="12.5930044"><ele>265.0</ele><time>2026-05-03T10:08:27.762Z</time></trkpt><trkpt lat="43.6040439" lon="12.5933678"><ele>263.5</ele><time>2026-05-03T10:08:28.761Z</time></trkpt><trkpt lat="43.6041932" lon="12.5937393"><ele>262.0</ele><time>2026-05-03T10:08:29.761Z</time></trkpt><trkpt lat="43.6043458" lon="12.5941207"><ele>260.5</ele><time>2026-05-03T10:08:30.762Z</time></trkpt><trkpt lat="43.6045019" lon="12.594519"><ele>259.0</ele><time>2026-05-03T10:08:31.763Z</time></trkpt><trkpt lat="43.604659" lon="12.5949182"><ele>259.0</ele><time>2026-05-03T10:08:32.762Z</time></trkpt><trkpt lat="43.6048184" lon="12.5953066"><ele>259.0</ele><time>2026-05-03T10:08:33.763Z</time></trkpt><trkpt lat="43.6049737" lon="12.5956909"><ele>259.5</ele><time>2026-05-03T10:08:34.762Z</time></trkpt><trkpt lat="43.6051237" lon="12.5960745"><ele>260.0</ele><time>2026-05-03T10:08:35.761Z</time></trkpt><trkpt lat="43.605272" lon="12.5964546"><ele>260.0</ele><time>2026-05-03T10:08:36.761Z</time></trkpt><trkpt lat="43.6054211" lon="12.5968303"><ele>260.0</ele><time>2026-05-03T10:08:37.762Z</time></trkpt><trkpt lat="43.6055694" lon="12.5971954"><ele>260.0</ele><time>2026-05-03T10:08:38.762Z</time></trkpt><trkpt lat="43.6057155" lon="12.5975559"><ele>260.0</ele><time>2026-05-03T10:08:39.763Z</time></trkpt><trkpt lat="43.6058584" lon="12.5979114"><ele>259.5</ele><time>2026-05-03T10:08:40.761Z</time></trkpt><trkpt lat="43.6060008" lon="12.5982632"><ele>259.0</ele><time>2026-05-03T10:08:41.761Z</time></trkpt><trkpt lat="43.6061411" lon="12.5986163"><ele>257.5</ele><time>2026-05-03T10:08:42.761Z</time></trkpt><trkpt lat="43.6062769" lon="12.5989531"><ele>256.0</ele><time>2026-05-03T10:08:43.762Z</time></trkpt><trkpt lat="43.6063992" lon="12.5992779"><ele>256.5</ele><time>2026-05-03T10:08:44.762Z</time></trkpt><trkpt lat="43.6065217" lon="12.5995863"><ele>257.0</ele><time>2026-05-03T10:08:45.763Z</time></trkpt><trkpt lat="43.6066421" lon="12.5998939"><ele>257.0</ele><time>2026-05-03T10:08:46.762Z</time></trkpt><trkpt lat="43.6067673" lon="12.6001995"><ele>257.0</ele><time>2026-05-03T10:08:47.761Z</time></trkpt><trkpt lat="43.6068845" lon="12.6004921"><ele>252.5</ele><time>2026-05-03T10:08:48.761Z</time></trkpt><trkpt lat="43.606997" lon="12.6008002"><ele>248.0</ele><time>2026-05-03T10:08:49.762Z</time></trkpt><trkpt lat="43.6071103" lon="12.6011363"><ele>246.5</ele><time>2026-05-03T10:08:50.761Z</time></trkpt><trkpt lat="43.60723" lon="12.6014989"><ele>245.0</ele><time>2026-05-03T10:08:51.761Z</time></trkpt><trkpt lat="43.6073528" lon="12.6018795"><ele>246.0</ele><time>2026-05-03T10:08:52.762Z</time></trkpt><trkpt lat="43.6074875" lon="12.6022793"><ele>247.0</ele><time>2026-05-03T10:08:53.763Z</time></trkpt><trkpt lat="43.6076246" lon="12.6026859"><ele>247.5</ele><time>2026-05-03T10:08:54.763Z</time></trkpt><trkpt lat="43.607757" lon="12.6030761"><ele>248.0</ele><time>2026-05-03T10:08:55.762Z</time></trkpt><trkpt lat="43.6078816" lon="12.6034535"><ele>240.5</ele><time>2026-05-03T10:08:56.761Z</time></trkpt><trkpt lat="43.6079998" lon="12.6038194"><ele>233.0</ele><time>2026-05-03T10:08:57.762Z</time></trkpt><trkpt lat="43.6081118" lon="12.6041782"><ele>232.5</ele><time>2026-05-03T10:08:58.762Z</time></trkpt><trkpt lat="43.6082269" lon="12.6045309"><ele>232.0</ele><time>2026-05-03T10:08:59.762Z</time></trkpt><trkpt lat="43.6083365" lon="12.6048663"><ele>232.0</ele><time>2026-05-03T10:09:00.762Z</time></trkpt><trkpt lat="43.6084455" lon="12.6051975"><ele>232.0</ele><time>2026-05-03T10:09:01.762Z</time></trkpt><trkpt lat="43.6085536" lon="12.6055362"><ele>230.5</ele><time>2026-05-03T10:09:02.762Z</time></trkpt><trkpt lat="43.6086737" lon="12.605887"><ele>229.0</ele><time>2026-05-03T10:09:03.762Z</time></trkpt><trkpt lat="43.6087965" lon="12.6062544"><ele>228.5</ele><time>2026-05-03T10:09:04.762Z</time></trkpt><trkpt lat="43.608921" lon="12.60664"><ele>228.0</ele><time>2026-05-03T10:09:05.763Z</time></trkpt><trkpt lat="43.6090518" lon="12.6070343"><ele>232.0</ele><time>2026-05-03T10:09:06.761Z</time></trkpt><trkpt lat="43.6091765" lon="12.6074131"><ele>236.0</ele><time>2026-05-03T10:09:07.762Z</time></trkpt><trkpt lat="43.6092992" lon="12.6077758"><ele>238.0</ele><time>2026-05-03T10:09:08.762Z</time></trkpt><trkpt lat="43.6094138" lon="12.6081236"><ele>240.0</ele><time>2026-05-03T10:09:09.762Z</time></trkpt><trkpt lat="43.6095227" lon="12.6084533"><ele>237.5</ele><time>2026-05-03T10:09:10.762Z</time></trkpt><trkpt lat="43.6096283" lon="12.6087786"><ele>235.0</ele><time>2026-05-03T10:09:11.762Z</time></trkpt><trkpt lat="43.6097384" lon="12.6091085"><ele>235.0</ele><time>2026-05-03T10:09:12.762Z</time></trkpt><trkpt lat="43.6098472" lon="12.6094341"><ele>235.0</ele><time>2026-05-03T10:09:13.763Z</time></trkpt><trkpt lat="43.6099488" lon="12.6097474"><ele>235.0</ele><time>2026-05-03T10:09:14.761Z</time></trkpt><trkpt lat="43.6100472" lon="12.6100425"><ele>235.0</ele><time>2026-05-03T10:09:15.763Z</time></trkpt><trkpt lat="43.6101423" lon="12.610322"><ele>231.5</ele><time>2026-05-03T10:09:16.761Z</time></trkpt><trkpt lat="43.6102265" lon="12.6106075"><ele>228.0</ele><time>2026-05-03T10:09:17.761Z</time></trkpt><trkpt lat="43.6102893" lon="12.610917"><ele>226.0</ele><time>2026-05-03T10:09:18.761Z</time></trkpt><trkpt lat="43.6103434" lon="12.6112554"><ele>224.0</ele><time>2026-05-03T10:09:19.761Z</time></trkpt><trkpt lat="43.610389" lon="12.6116083"><ele>224.0</ele><time>2026-05-03T10:09:20.762Z</time></trkpt><trkpt lat="43.6104373" lon="12.6119516"><ele>224.0</ele><time>2026-05-03T10:09:21.761Z</time></trkpt><trkpt lat="43.6104717" lon="12.6122518"><ele>223.66666666666669</ele><time>2026-05-03T10:09:22.762Z</time></trkpt><trkpt lat="43.6105048" lon="12.6125314"><ele>223.33333333333331</ele><time>2026-05-03T10:09:23.762Z</time></trkpt><trkpt lat="43.6105376" lon="12.6127894"><ele>223.0</ele><time>2026-05-03T10:09:24.762Z</time></trkpt><trkpt lat="43.6105632" lon="12.6130294"><ele>224.66666666666666</ele><time>2026-05-03T10:09:25.762Z</time></trkpt><trkpt lat="43.6105568" lon="12.6132691"><ele>226.33333333333331</ele><time>2026-05-03T10:09:26.762Z</time></trkpt><trkpt lat="43.6105148" lon="12.613519"><ele>228.0</ele><time>2026-05-03T10:09:27.762Z</time></trkpt><trkpt lat="43.6104369" lon="12.6137552"><ele>228.0</ele><time>2026-05-03T10:09:28.763Z</time></trkpt><trkpt lat="43.6103519" lon="12.6139833"><ele>228.0</ele><time>2026-05-03T10:09:29.761Z</time></trkpt><trkpt lat="43.6102545" lon="12.6142181"><ele>228.0</ele><time>2026-05-03T10:09:30.762Z</time></trkpt><trkpt lat="43.61016" lon="12.6144443"><ele>229.33333333333331</ele><time>2026-05-03T10:09:31.763Z</time></trkpt><trkpt lat="43.6100662" lon="12.6146566"><ele>230.66666666666666</ele><time>2026-05-03T10:09:32.763Z</time></trkpt><trkpt lat="43.6099745" lon="12.6148605"><ele>232.0</ele><time>2026-05-03T10:09:33.763Z</time></trkpt><trkpt lat="43.6098927" lon="12.6150567"><ele>232.0</ele><time>2026-05-03T10:09:34.761Z</time></trkpt><trkpt lat="43.6098214" lon="12.6152413"><ele>232.0</ele><time>2026-05-03T10:09:35.762Z</time></trkpt><trkpt lat="43.6097802" lon="12.6154225"><ele>232.0</ele><time>2026-05-03T10:09:36.762Z</time></trkpt><trkpt lat="43.6097702" lon="12.6155904"><ele>232.0</ele><time>2026-05-03T10:09:37.763Z</time></trkpt><trkpt lat="43.6097886" lon="12.6157463"><ele>231.5</ele><time>2026-05-03T10:09:38.762Z</time></trkpt><trkpt lat="43.6098588" lon="12.6158832"><ele>231.0</ele><time>2026-05-03T10:09:39.763Z</time></trkpt><trkpt lat="43.6099789" lon="12.6159851"><ele>230.5</ele><time>2026-05-03T10:09:40.762Z</time></trkpt><trkpt lat="43.6101109" lon="12.6161019"><ele>230.0</ele><time>2026-05-03T10:09:41.762Z</time></trkpt><trkpt lat="43.6102506" lon="12.6162239"><ele>230.33333333333334</ele><time>2026-05-03T10:09:42.762Z</time></trkpt><trkpt lat="43.6104123" lon="12.6163609"><ele>230.66666666666669</ele><time>2026-05-03T10:09:43.762Z</time></trkpt><trkpt lat="43.6105799" lon="12.6165134"><ele>231.0</ele><time>2026-05-03T10:09:44.762Z</time></trkpt><trkpt lat="43.6107356" lon="12.6166655"><ele>231.0</ele><time>2026-05-03T10:09:45.762Z</time></trkpt><trkpt lat="43.610881" lon="12.6168388"><ele>231.0</ele><time>2026-05-03T10:09:46.763Z</time></trkpt><trkpt lat="43.6110224" lon="12.6170471"><ele>231.0</ele><time>2026-05-03T10:09:47.761Z</time></trkpt><trkpt lat="43.6111643" lon="12.6172799"><ele>231.0</ele><time>2026-05-03T10:09:48.762Z</time></trkpt><trkpt lat="43.611304" lon="12.6175231"><ele>231.0</ele><time>2026-05-03T10:09:49.761Z</time></trkpt><trkpt lat="43.611433" lon="12.6177514"><ele>231.0</ele><time>2026-05-03T10:09:50.763Z</time></trkpt><trkpt lat="43.6115519" lon="12.6179728"><ele>230.33333333333331</ele><time>2026-05-03T10:09:51.762Z</time></trkpt><trkpt lat="43.6116619" lon="12.6181906"><ele>229.66666666666666</ele><time>2026-05-03T10:09:52.761Z</time></trkpt><trkpt lat="43.6117473" lon="12.6184171"><ele>229.0</ele><time>2026-05-03T10:09:53.762Z</time></trkpt><trkpt lat="43.6118256" lon="12.6186655"><ele>228.0</ele><time>2026-05-03T10:09:54.762Z</time></trkpt><trkpt lat="43.6119012" lon="12.6189308"><ele>227.0</ele><time>2026-05-03T10:09:55.761Z</time></trkpt><trkpt lat="43.6119727" lon="12.6192033"><ele>226.0</ele><time>2026-05-03T10:09:56.762Z</time></trkpt><trkpt lat="43.612044" lon="12.6194799"><ele>229.33333333333331</ele><time>2026-05-03T10:09:57.762Z</time></trkpt><trkpt lat="43.6121106" lon="12.6197465"><ele>232.66666666666669</ele><time>2026-05-03T10:09:58.763Z</time></trkpt><trkpt lat="43.6121755" lon="12.6200119"><ele>236.0</ele><time>2026-05-03T10:09:59.762Z</time></trkpt><trkpt lat="43.6122331" lon="12.6202561"><ele>236.33333333333334</ele><time>2026-05-03T10:10:00.762Z</time></trkpt><trkpt lat="43.6122808" lon="12.6205041"><ele>236.66666666666669</ele><time>2026-05-03T10:10:01.762Z</time></trkpt><trkpt lat="43.6122917" lon="12.6207802"><ele>237.0</ele><time>2026-05-03T10:10:02.761Z</time></trkpt><trkpt lat="43.6122951" lon="12.6210816"><ele>237.33333333333331</ele><time>2026-05-03T10:10:03.762Z</time></trkpt><trkpt lat="43.6122774" lon="12.621394"><ele>237.66666666666666</ele><time>2026-05-03T10:10:04.762Z</time></trkpt><trkpt lat="43.6122533" lon="12.6216874"><ele>238.0</ele><time>2026-05-03T10:10:05.761Z</time></trkpt><trkpt lat="43.612235" lon="12.621969"><ele>237.33333333333331</ele><time>2026-05-03T10:10:06.763Z</time></trkpt><trkpt lat="43.6122224" lon="12.6222501"><ele>236.66666666666669</ele><time>2026-05-03T10:10:07.763Z</time></trkpt><trkpt lat="43.6122018" lon="12.6225221"><ele>236.0</ele><time>2026-05-03T10:10:08.762Z</time></trkpt><trkpt lat="43.6121814" lon="12.6227836"><ele>235.66666666666669</ele><time>2026-05-03T10:10:09.762Z</time></trkpt><trkpt lat="43.6121632" lon="12.6230279"><ele>235.33333333333331</ele><time>2026-05-03T10:10:10.761Z</time></trkpt><trkpt lat="43.612148" lon="12.6232608"><ele>235.0</ele><time>2026-05-03T10:10:11.762Z</time></trkpt><trkpt lat="43.6121368" lon="12.6234852"><ele>235.0</ele><time>2026-05-03T10:10:12.761Z</time></trkpt><trkpt lat="43.6121581" lon="12.6237097"><ele>235.0</ele><time>2026-05-03T10:10:13.761Z</time></trkpt><trkpt lat="43.612193" lon="12.6239112"><ele>235.0</ele><time>2026-05-03T10:10:14.763Z</time></trkpt><trkpt lat="43.6122287" lon="12.6240939"><ele>235.0</ele><time>2026-05-03T10:10:15.762Z</time></trkpt><trkpt lat="43.6122861" lon="12.6242487"><ele>235.0</ele><time>2026-05-03T10:10:16.761Z</time></trkpt><trkpt lat="43.6123438" lon="12.6243841"><ele>235.0</ele><time>2026-05-03T10:10:17.762Z</time></trkpt><trkpt lat="43.61241" lon="12.6245168"><ele>235.0</ele><time>2026-05-03T10:10:18.763Z</time></trkpt><trkpt lat="43.6124819" lon="12.6246425"><ele>233.5</ele><time>2026-05-03T10:10:19.762Z</time></trkpt><trkpt lat="43.6125671" lon="12.6247658"><ele>232.0</ele><time>2026-05-03T10:10:20.761Z</time></trkpt><trkpt lat="43.6126651" lon="12.6248862"><ele>230.5</ele><time>2026-05-03T10:10:21.762Z</time></trkpt><trkpt lat="43.6127577" lon="12.6249946"><ele>229.0</ele><time>2026-05-03T10:10:22.761Z</time></trkpt><trkpt lat="43.612846" lon="12.625102"><ele>228.99999999999997</ele><time>2026-05-03T10:10:23.762Z</time></trkpt><trkpt lat="43.6129349" lon="12.6251969"><ele>229.0</ele><time>2026-05-03T10:10:24.763Z</time></trkpt><trkpt lat="43.6130005" lon="12.6252737"><ele>229.0</ele><time>2026-05-03T10:10:25.762Z</time></trkpt><trkpt lat="43.6130694" lon="12.6253387"><ele>229.0</ele><time>2026-05-03T10:10:26.763Z</time></trkpt><trkpt lat="43.6131198" lon="12.6253952"><ele>228.99999999999997</ele><time>2026-05-03T10:10:27.763Z</time></trkpt><trkpt lat="43.6131693" lon="12.6254564"><ele>229.0</ele><time>2026-05-03T10:10:28.763Z</time></trkpt><trkpt lat="43.6132494" lon="12.6255432"><ele>228.66666666666666</ele><time>2026-05-03T10:10:30.762Z</time></trkpt><trkpt lat="43.6133059" lon="12.6256023"><ele>228.33333333333331</ele><time>2026-05-03T10:10:32.762Z</time></trkpt><trkpt lat="43.6133772" lon="12.6256818"><ele>228.0</ele><time>2026-05-03T10:10:35.763Z</time></trkpt><trkpt lat="43.6134315" lon="12.6257375"><ele>227.66666666666669</ele><time>2026-05-03T10:10:37.761Z</time></trkpt><trkpt lat="43.613496" lon="12.6258269"><ele>227.33333333333334</ele><time>2026-05-03T10:10:39.762Z</time></trkpt><trkpt lat="43.6135796" lon="12.6259128"><ele>227.0</ele><time>2026-05-03T10:10:41.762Z</time></trkpt><trkpt lat="43.6137044" lon="12.6259034"><ele>227.0</ele><time>2026-05-03T10:10:43.762Z</time></trkpt><trkpt lat="43.6137697" lon="12.6258547"><ele>227.0</ele><time>2026-05-03T10:10:44.762Z</time></trkpt><trkpt lat="43.6138191" lon="12.6257753"><ele>227.0</ele><time>2026-05-03T10:10:45.761Z</time></trkpt><trkpt lat="43.6138583" lon="12.6256426"><ele>227.0</ele><time>2026-05-03T10:10:46.762Z</time></trkpt><trkpt lat="43.6138978" lon="12.6254875"><ele>227.0</ele><time>2026-05-03T10:10:47.761Z</time></trkpt><trkpt lat="43.6139507" lon="12.6252879"><ele>227.66666666666669</ele><time>2026-05-03T10:10:48.762Z</time></trkpt><trkpt lat="43.6140114" lon="12.6250412"><ele>228.33333333333331</ele><time>2026-05-03T10:10:49.761Z</time></trkpt><trkpt lat="43.6140696" lon="12.6247823"><ele>229.0</ele><time>2026-05-03T10:10:50.761Z</time></trkpt><trkpt lat="43.6141283" lon="12.6245132"><ele>230.0</ele><time>2026-05-03T10:10:51.761Z</time></trkpt><trkpt lat="43.6141892" lon="12.6242487"><ele>231.0</ele><time>2026-05-03T10:10:52.762Z</time></trkpt><trkpt lat="43.6142478" lon="12.6239843"><ele>232.0</ele><time>2026-05-03T10:10:53.762Z</time></trkpt><trkpt lat="43.6143048" lon="12.6237382"><ele>233.0</ele><time>2026-05-03T10:10:54.762Z</time></trkpt><trkpt lat="43.6143504" lon="12.6235123"><ele>234.0</ele><time>2026-05-03T10:10:55.763Z</time></trkpt><trkpt lat="43.6144057" lon="12.6232828"><ele>235.0</ele><time>2026-05-03T10:10:56.763Z</time></trkpt><trkpt lat="43.6144598" lon="12.6230453"><ele>237.0</ele><time>2026-05-03T10:10:57.762Z</time></trkpt><trkpt lat="43.614507" lon="12.6227833"><ele>239.0</ele><time>2026-05-03T10:10:58.762Z</time></trkpt><trkpt lat="43.6145354" lon="12.6225183"><ele>241.0</ele><time>2026-05-03T10:10:59.761Z</time></trkpt><trkpt lat="43.6145532" lon="12.6222675"><ele>241.0</ele><time>2026-05-03T10:11:00.761Z</time></trkpt><trkpt lat="43.6145677" lon="12.6220362"><ele>241.0</ele><time>2026-05-03T10:11:01.762Z</time></trkpt><trkpt lat="43.614569" lon="12.6218197"><ele>241.0</ele><time>2026-05-03T10:11:02.762Z</time></trkpt><trkpt lat="43.6145745" lon="12.6216252"><ele>241.0</ele><time>2026-05-03T10:11:03.762Z</time></trkpt><trkpt lat="43.6145878" lon="12.6214372"><ele>241.0</ele><time>2026-05-03T10:11:04.762Z</time></trkpt><trkpt lat="43.6146346" lon="12.6212488"><ele>241.0</ele><time>2026-05-03T10:11:05.763Z</time></trkpt><trkpt lat="43.6147261" lon="12.6210633"><ele>241.0</ele><time>2026-05-03T10:11:06.763Z</time></trkpt><trkpt lat="43.6148397" lon="12.6209218"><ele>241.66666666666666</ele><time>2026-05-03T10:11:07.761Z</time></trkpt><trkpt lat="43.6150053" lon="12.6208494"><ele>242.33333333333331</ele><time>2026-05-03T10:11:08.762Z</time></trkpt><trkpt lat="43.6151803" lon="12.6207906"><ele>243.0</ele><time>2026-05-03T10:11:09.763Z</time></trkpt><trkpt lat="43.6154113" lon="12.6207704"><ele>244.5</ele><time>2026-05-03T10:11:10.763Z</time></trkpt><trkpt lat="43.6156588" lon="12.6207675"><ele>246.0</ele><time>2026-05-03T10:11:11.761Z</time></trkpt><trkpt lat="43.6159404" lon="12.620747"><ele>246.0</ele><time>2026-05-03T10:11:12.762Z</time></trkpt><trkpt lat="43.6162407" lon="12.6207226"><ele>246.0</ele><time>2026-05-03T10:11:13.761Z</time></trkpt><trkpt lat="43.616559" lon="12.6206884"><ele>246.0</ele><time>2026-05-03T10:11:14.762Z</time></trkpt><trkpt lat="43.6168841" lon="12.6206664"><ele>246.0</ele><time>2026-05-03T10:11:15.762Z</time></trkpt><trkpt lat="43.6171859" lon="12.6206452"><ele>247.0</ele><time>2026-05-03T10:11:16.762Z</time></trkpt><trkpt lat="43.6174658" lon="12.6206208"><ele>248.0</ele><time>2026-05-03T10:11:17.763Z</time></trkpt><trkpt lat="43.6177199" lon="12.6206016"><ele>250.33333333333334</ele><time>2026-05-03T10:11:18.762Z</time></trkpt><trkpt lat="43.6179336" lon="12.6205848"><ele>252.66666666666669</ele><time>2026-05-03T10:11:19.762Z</time></trkpt><trkpt lat="43.618112" lon="12.6205677"><ele>255.0</ele><time>2026-05-03T10:11:20.762Z</time></trkpt><trkpt lat="43.6182679" lon="12.6205427"><ele>255.0</ele><time>2026-05-03T10:11:21.762Z</time></trkpt><trkpt lat="43.6183995" lon="12.620477"><ele>255.0</ele><time>2026-05-03T10:11:22.762Z</time></trkpt><trkpt lat="43.6185103" lon="12.6203561"><ele>255.0</ele><time>2026-05-03T10:11:23.762Z</time></trkpt><trkpt lat="43.61859" lon="12.620192"><ele>255.0</ele><time>2026-05-03T10:11:24.761Z</time></trkpt><trkpt lat="43.6186248" lon="12.6199914"><ele>255.0</ele><time>2026-05-03T10:11:25.762Z</time></trkpt><trkpt lat="43.6186327" lon="12.6197784"><ele>255.0</ele><time>2026-05-03T10:11:26.761Z</time></trkpt><trkpt lat="43.6186012" lon="12.6195241"><ele>255.0</ele><time>2026-05-03T10:11:27.762Z</time></trkpt><trkpt lat="43.6185577" lon="12.6192352"><ele>255.0</ele><time>2026-05-03T10:11:28.761Z</time></trkpt><trkpt lat="43.6185136" lon="12.6189053"><ele>255.0</ele><time>2026-05-03T10:11:29.761Z</time></trkpt><trkpt lat="43.6184645" lon="12.6185467"><ele>256.5</ele><time>2026-05-03T10:11:30.763Z</time></trkpt><trkpt lat="43.6184106" lon="12.6181813"><ele>258.0</ele><time>2026-05-03T10:11:31.762Z</time></trkpt><trkpt lat="43.6183476" lon="12.6178437"><ele>259.6666666666667</ele><time>2026-05-03T10:11:32.763Z</time></trkpt><trkpt lat="43.6182888" lon="12.6175312"><ele>261.33333333333337</ele><time>2026-05-03T10:11:33.762Z</time></trkpt><trkpt lat="43.6182492" lon="12.6172434"><ele>263.0</ele><time>2026-05-03T10:11:34.763Z</time></trkpt><trkpt lat="43.6182202" lon="12.6169494"><ele>265.0</ele><time>2026-05-03T10:11:35.762Z</time></trkpt><trkpt lat="43.6182087" lon="12.6166594"><ele>267.0</ele><time>2026-05-03T10:11:36.762Z</time></trkpt><trkpt lat="43.6182132" lon="12.6164097"><ele>269.0</ele><time>2026-05-03T10:11:37.761Z</time></trkpt><trkpt lat="43.6182388" lon="12.6162013"><ele>269.25</ele><time>2026-05-03T10:11:38.762Z</time></trkpt><trkpt lat="43.6182936" lon="12.6160375"><ele>269.5</ele><time>2026-05-03T10:11:39.763Z</time></trkpt><trkpt lat="43.6183813" lon="12.6159137"><ele>269.75</ele><time>2026-05-03T10:11:40.762Z</time></trkpt><trkpt lat="43.6185203" lon="12.61586"><ele>270.0</ele><time>2026-05-03T10:11:41.762Z</time></trkpt><trkpt lat="43.6186645" lon="12.6158397"><ele>271.6666666666667</ele><time>2026-05-03T10:11:42.762Z</time></trkpt><trkpt lat="43.6188537" lon="12.615883"><ele>273.33333333333337</ele><time>2026-05-03T10:11:43.762Z</time></trkpt><trkpt lat="43.6190526" lon="12.6159277"><ele>275.0</ele><time>2026-05-03T10:11:44.761Z</time></trkpt><trkpt lat="43.6192814" lon="12.6159866"><ele>277.0</ele><time>2026-05-03T10:11:45.761Z</time></trkpt><trkpt lat="43.6195155" lon="12.6160465"><ele>279.0</ele><time>2026-05-03T10:11:46.763Z</time></trkpt><trkpt lat="43.6197527" lon="12.6161226"><ele>283.5</ele><time>2026-05-03T10:11:47.761Z</time></trkpt><trkpt lat="43.6199848" lon="12.6162282"><ele>288.0</ele><time>2026-05-03T10:11:48.762Z</time></trkpt><trkpt lat="43.6202192" lon="12.6164016"><ele>287.5</ele><time>2026-05-03T10:11:49.762Z</time></trkpt><trkpt lat="43.6204397" lon="12.6166151"><ele>287.0</ele><time>2026-05-03T10:11:50.761Z</time></trkpt><trkpt lat="43.6206444" lon="12.6168112"><ele>287.0</ele><time>2026-05-03T10:11:51.762Z</time></trkpt><trkpt lat="43.6208247" lon="12.6169846"><ele>287.0</ele><time>2026-05-03T10:11:52.762Z</time></trkpt><trkpt lat="43.6209766" lon="12.6171316"><ele>287.0</ele><time>2026-05-03T10:11:53.762Z</time></trkpt><trkpt lat="43.6211073" lon="12.617247"><ele>288.75</ele><time>2026-05-03T10:11:54.761Z</time></trkpt><trkpt lat="43.6212315" lon="12.6173115"><ele>290.5</ele><time>2026-05-03T10:11:55.761Z</time></trkpt><trkpt lat="43.6213599" lon="12.6173139"><ele>292.25</ele><time>2026-05-03T10:11:56.763Z</time></trkpt><trkpt lat="43.6214868" lon="12.6172615"><ele>294.0</ele><time>2026-05-03T10:11:57.762Z</time></trkpt><trkpt lat="43.621588" lon="12.617146"><ele>294.3333333333333</ele><time>2026-05-03T10:11:58.763Z</time></trkpt><trkpt lat="43.6216574" lon="12.6169817"><ele>294.66666666666663</ele><time>2026-05-03T10:11:59.763Z</time></trkpt><trkpt lat="43.6216887" lon="12.6167735"><ele>295.0</ele><time>2026-05-03T10:12:00.761Z</time></trkpt><trkpt lat="43.6216993" lon="12.6165213"><ele>295.0</ele><time>2026-05-03T10:12:01.763Z</time></trkpt><trkpt lat="43.6217043" lon="12.616234"><ele>295.0</ele><time>2026-05-03T10:12:02.762Z</time></trkpt><trkpt lat="43.6217045" lon="12.6159215"><ele>295.0</ele><time>2026-05-03T10:12:03.762Z</time></trkpt><trkpt lat="43.6217014" lon="12.6155772"><ele>299.5</ele><time>2026-05-03T10:12:04.761Z</time></trkpt><trkpt lat="43.6216816" lon="12.6152138"><ele>304.0</ele><time>2026-05-03T10:12:05.761Z</time></trkpt><trkpt lat="43.6216422" lon="12.6148348"><ele>305.5</ele><time>2026-05-03T10:12:06.763Z</time></trkpt><trkpt lat="43.6216" lon="12.6144368"><ele>307.0</ele><time>2026-05-03T10:12:07.763Z</time></trkpt><trkpt lat="43.6215626" lon="12.6140761"><ele>307.0</ele><time>2026-05-03T10:12:08.762Z</time></trkpt><trkpt lat="43.6215253" lon="12.6137464"><ele>307.0</ele><time>2026-05-03T10:12:09.762Z</time></trkpt><trkpt lat="43.6214951" lon="12.6134453"><ele>309.66666666666663</ele><time>2026-05-03T10:12:10.762Z</time></trkpt><trkpt lat="43.6214704" lon="12.6131729"><ele>312.3333333333333</ele><time>2026-05-03T10:12:11.762Z</time></trkpt><trkpt lat="43.6214629" lon="12.6129275"><ele>315.0</ele><time>2026-05-03T10:12:12.763Z</time></trkpt><trkpt lat="43.621462" lon="12.6126901"><ele>315.75</ele><time>2026-05-03T10:12:13.763Z</time></trkpt><trkpt lat="43.6214864" lon="12.6124848"><ele>316.5</ele><time>2026-05-03T10:12:14.761Z</time></trkpt><trkpt lat="43.6214834" lon="12.6122787"><ele>317.25</ele><time>2026-05-03T10:12:15.762Z</time></trkpt><trkpt lat="43.6214649" lon="12.6120741"><ele>318.0</ele><time>2026-05-03T10:12:16.763Z</time></trkpt><trkpt lat="43.6214006" lon="12.6118799"><ele>317.0</ele><time>2026-05-03T10:12:17.761Z</time></trkpt><trkpt lat="43.621296" lon="12.6117112"><ele>316.0</ele><time>2026-05-03T10:12:18.761Z</time></trkpt><trkpt lat="43.6211859" lon="12.6115628"><ele>315.0</ele><time>2026-05-03T10:12:19.762Z</time></trkpt><trkpt lat="43.6210717" lon="12.611425"><ele>315.0</ele><time>2026-05-03T10:12:20.761Z</time></trkpt><trkpt lat="43.6209759" lon="12.6112882"><ele>315.0</ele><time>2026-05-03T10:12:21.761Z</time></trkpt><trkpt lat="43.6208991" lon="12.6111489"><ele>315.0</ele><time>2026-05-03T10:12:22.76Z</time></trkpt><trkpt lat="43.6208482" lon="12.6110014"><ele>315.0</ele><time>2026-05-03T10:12:23.76Z</time></trkpt><trkpt lat="43.6208311" lon="12.6108383"><ele>316.4</ele><time>2026-05-03T10:12:24.76Z</time></trkpt><trkpt lat="43.620851" lon="12.6106707"><ele>317.8</ele><time>2026-05-03T10:12:25.761Z</time></trkpt><trkpt lat="43.6209021" lon="12.6105377"><ele>319.20000000000005</ele><time>2026-05-03T10:12:26.761Z</time></trkpt><trkpt lat="43.6209733" lon="12.6104227"><ele>320.6</ele><time>2026-05-03T10:12:27.762Z</time></trkpt><trkpt lat="43.6210614" lon="12.6103377"><ele>322.0</ele><time>2026-05-03T10:12:28.762Z</time></trkpt><trkpt lat="43.6211796" lon="12.610303"><ele>322.5</ele><time>2026-05-03T10:12:29.762Z</time></trkpt><trkpt lat="43.6213006" lon="12.6102864"><ele>323.0</ele><time>2026-05-03T10:12:30.762Z</time></trkpt><trkpt lat="43.6214242" lon="12.6102948"><ele>323.5</ele><time>2026-05-03T10:12:31.762Z</time></trkpt><trkpt lat="43.6215538" lon="12.6103024"><ele>324.0</ele><time>2026-05-03T10:12:32.762Z</time></trkpt><trkpt lat="43.6216869" lon="12.6103208"><ele>325.75</ele><time>2026-05-03T10:12:33.76Z</time></trkpt><trkpt lat="43.621826" lon="12.6103383"><ele>327.5</ele><time>2026-05-03T10:12:34.762Z</time></trkpt><trkpt lat="43.621969" lon="12.6103626"><ele>329.25</ele><time>2026-05-03T10:12:35.763Z</time></trkpt><trkpt lat="43.6221095" lon="12.6103983"><ele>331.0</ele><time>2026-05-03T10:12:36.761Z</time></trkpt><trkpt lat="43.6222531" lon="12.6104485"><ele>332.25</ele><time>2026-05-03T10:12:37.762Z</time></trkpt><trkpt lat="43.6223901" lon="12.6104986"><ele>333.5</ele><time>2026-05-03T10:12:38.762Z</time></trkpt><trkpt lat="43.6225272" lon="12.6105521"><ele>334.75</ele><time>2026-05-03T10:12:39.76Z</time></trkpt><trkpt lat="43.6226673" lon="12.6106053"><ele>336.0</ele><time>2026-05-03T10:12:40.762Z</time></trkpt><trkpt lat="43.6228064" lon="12.6106568"><ele>336.25</ele><time>2026-05-03T10:12:41.763Z</time></trkpt><trkpt lat="43.622946" lon="12.6107102"><ele>336.5</ele><time>2026-05-03T10:12:42.761Z</time></trkpt><trkpt lat="43.6230847" lon="12.6107527"><ele>336.75</ele><time>2026-05-03T10:12:43.761Z</time></trkpt><trkpt lat="43.6232227" lon="12.6107723"><ele>337.0</ele><time>2026-05-03T10:12:44.76Z</time></trkpt><trkpt lat="43.6233622" lon="12.6107473"><ele>337.0</ele><time>2026-05-03T10:12:45.762Z</time></trkpt><trkpt lat="43.6234957" lon="12.6106759"><ele>337.0</ele><time>2026-05-03T10:12:46.762Z</time></trkpt><trkpt lat="43.6236146" lon="12.6105913"><ele>337.0</ele><time>2026-05-03T10:12:47.763Z</time></trkpt><trkpt lat="43.6237063" lon="12.6104852"><ele>337.0</ele><time>2026-05-03T10:12:48.762Z</time></trkpt><trkpt lat="43.6237911" lon="12.6103757"><ele>337.16666666666663</ele><time>2026-05-03T10:12:49.763Z</time></trkpt><trkpt lat="43.6238572" lon="12.6102821"><ele>337.3333333333333</ele><time>2026-05-03T10:12:50.763Z</time></trkpt><trkpt lat="43.6239157" lon="12.6102039"><ele>337.5</ele><time>2026-05-03T10:12:51.762Z</time></trkpt><trkpt lat="43.6239674" lon="12.6101326"><ele>337.6666666666667</ele><time>2026-05-03T10:12:52.763Z</time></trkpt><trkpt lat="43.6240261" lon="12.610044"><ele>337.83333333333337</ele><time>2026-05-03T10:12:53.761Z</time></trkpt><trkpt lat="43.6241089" lon="12.6099546"><ele>338.0</ele><time>2026-05-03T10:12:54.761Z</time></trkpt><trkpt lat="43.6242026" lon="12.6098383"><ele>338.0</ele><time>2026-05-03T10:12:55.763Z</time></trkpt><trkpt lat="43.6243161" lon="12.6096839"><ele>338.0</ele><time>2026-05-03T10:12:56.76Z</time></trkpt><trkpt lat="43.6244333" lon="12.6095288"><ele>338.0</ele><time>2026-05-03T10:12:57.763Z</time></trkpt><trkpt lat="43.624558" lon="12.6093643"><ele>338.0</ele><time>2026-05-03T10:12:58.761Z</time></trkpt><trkpt lat="43.6246992" lon="12.6092074"><ele>338.0</ele><time>2026-05-03T10:12:59.761Z</time></trkpt><trkpt lat="43.6248548" lon="12.6090735"><ele>338.0</ele><time>2026-05-03T10:13:00.762Z</time></trkpt><trkpt lat="43.625015" lon="12.6089617"><ele>338.0</ele><time>2026-05-03T10:13:01.762Z</time></trkpt><trkpt lat="43.6252124" lon="12.6089083"><ele>338.0</ele><time>2026-05-03T10:13:02.762Z</time></trkpt><trkpt lat="43.6254105" lon="12.6088562"><ele>338.0</ele><time>2026-05-03T10:13:03.76Z</time></trkpt><trkpt lat="43.6256315" lon="12.6088144"><ele>338.5</ele><time>2026-05-03T10:13:04.762Z</time></trkpt><trkpt lat="43.6258833" lon="12.6087822"><ele>339.0</ele><time>2026-05-03T10:13:05.762Z</time></trkpt><trkpt lat="43.6261077" lon="12.6087431"><ele>339.0</ele><time>2026-05-03T10:13:06.762Z</time></trkpt><trkpt lat="43.6263262" lon="12.6087105"><ele>339.0</ele><time>2026-05-03T10:13:07.762Z</time></trkpt><trkpt lat="43.6265158" lon="12.608668"><ele>339.0</ele><time>2026-05-03T10:13:08.763Z</time></trkpt><trkpt lat="43.6267129" lon="12.6086046"><ele>335.3333333333333</ele><time>2026-05-03T10:13:09.763Z</time></trkpt><trkpt lat="43.626905" lon="12.6085064"><ele>331.66666666666663</ele><time>2026-05-03T10:13:10.76Z</time></trkpt><trkpt lat="43.6271081" lon="12.6083772"><ele>328.0</ele><time>2026-05-03T10:13:11.762Z</time></trkpt><trkpt lat="43.6272998" lon="12.6082574"><ele>328.0</ele><time>2026-05-03T10:13:12.763Z</time></trkpt><trkpt lat="43.62748" lon="12.6081379"><ele>328.0</ele><time>2026-05-03T10:13:13.761Z</time></trkpt><trkpt lat="43.6276526" lon="12.6080248"><ele>328.0</ele><time>2026-05-03T10:13:14.762Z</time></trkpt><trkpt lat="43.6278088" lon="12.6079157"><ele>326.3333333333333</ele><time>2026-05-03T10:13:15.761Z</time></trkpt><trkpt lat="43.6279535" lon="12.6077997"><ele>324.6666666666667</ele><time>2026-05-03T10:13:16.762Z</time></trkpt><trkpt lat="43.6280807" lon="12.6076368"><ele>323.0</ele><time>2026-05-03T10:13:17.762Z</time></trkpt><trkpt lat="43.6282069" lon="12.6074545"><ele>323.0</ele><time>2026-05-03T10:13:18.761Z</time></trkpt><trkpt lat="43.6283227" lon="12.6072462"><ele>323.0</ele><time>2026-05-03T10:13:19.76Z</time></trkpt><trkpt lat="43.6284408" lon="12.6070275"><ele>323.0</ele><time>2026-05-03T10:13:20.761Z</time></trkpt><trkpt lat="43.6285629" lon="12.6068025"><ele>324.6666666666667</ele><time>2026-05-03T10:13:21.761Z</time></trkpt><trkpt lat="43.6286833" lon="12.6065848"><ele>326.3333333333333</ele><time>2026-05-03T10:13:22.76Z</time></trkpt><trkpt lat="43.6287933" lon="12.6063653"><ele>328.0</ele><time>2026-05-03T10:13:23.761Z</time></trkpt><trkpt lat="43.6288843" lon="12.6061607"><ele>328.0</ele><time>2026-05-03T10:13:24.762Z</time></trkpt><trkpt lat="43.6289675" lon="12.6059682"><ele>328.0</ele><time>2026-05-03T10:13:25.762Z</time></trkpt><trkpt lat="43.6290525" lon="12.6057746"><ele>328.0</ele><time>2026-05-03T10:13:26.762Z</time></trkpt><trkpt lat="43.6291391" lon="12.6055772"><ele>328.0</ele><time>2026-05-03T10:13:27.761Z</time></trkpt><trkpt lat="43.629224" lon="12.6053705"><ele>328.0</ele><time>2026-05-03T10:13:28.761Z</time></trkpt><trkpt lat="43.6293114" lon="12.6051568"><ele>328.0</ele><time>2026-05-03T10:13:29.761Z</time></trkpt><trkpt lat="43.6294025" lon="12.6049404"><ele>324.3333333333333</ele><time>2026-05-03T10:13:30.762Z</time></trkpt><trkpt lat="43.6294843" lon="12.6047149"><ele>320.6666666666667</ele><time>2026-05-03T10:13:31.761Z</time></trkpt><trkpt lat="43.6295471" lon="12.6044714"><ele>317.0</ele><time>2026-05-03T10:13:32.762Z</time></trkpt><trkpt lat="43.6295799" lon="12.6041932"><ele>316.6666666666667</ele><time>2026-05-03T10:13:33.763Z</time></trkpt><trkpt lat="43.629583" lon="12.6038851"><ele>316.3333333333333</ele><time>2026-05-03T10:13:34.762Z</time></trkpt><trkpt lat="43.6295577" lon="12.603598"><ele>316.0</ele><time>2026-05-03T10:13:35.762Z</time></trkpt><trkpt lat="43.6295184" lon="12.6033277"><ele>316.0</ele><time>2026-05-03T10:13:36.761Z</time></trkpt><trkpt lat="43.6294849" lon="12.6030735"><ele>316.0</ele><time>2026-05-03T10:13:37.76Z</time></trkpt><trkpt lat="43.6294544" lon="12.6028321"><ele>316.0</ele><time>2026-05-03T10:13:38.76Z</time></trkpt><trkpt lat="43.6294268" lon="12.6026038"><ele>313.0</ele><time>2026-05-03T10:13:39.762Z</time></trkpt><trkpt lat="43.6294122" lon="12.6023639"><ele>310.0</ele><time>2026-05-03T10:13:40.762Z</time></trkpt><trkpt lat="43.629405" lon="12.6021209"><ele>307.0</ele><time>2026-05-03T10:13:41.762Z</time></trkpt><trkpt lat="43.6294081" lon="12.6018649"><ele>305.3333333333333</ele><time>2026-05-03T10:13:42.761Z</time></trkpt><trkpt lat="43.6294071" lon="12.6016126"><ele>303.6666666666667</ele><time>2026-05-03T10:13:43.761Z</time></trkpt><trkpt lat="43.6294119" lon="12.6013612"><ele>302.0</ele><time>2026-05-03T10:13:44.762Z</time></trkpt><trkpt lat="43.6294095" lon="12.6011013"><ele>302.0</ele><time>2026-05-03T10:13:45.761Z</time></trkpt><trkpt lat="43.6294086" lon="12.6008424"><ele>302.0</ele><time>2026-05-03T10:13:46.763Z</time></trkpt><trkpt lat="43.6294054" lon="12.6005861"><ele>302.0</ele><time>2026-05-03T10:13:47.761Z</time></trkpt><trkpt lat="43.6294076" lon="12.600338"><ele>302.0</ele><time>2026-05-03T10:13:48.762Z</time></trkpt><trkpt lat="43.6294124" lon="12.60009"><ele>302.0</ele><time>2026-05-03T10:13:49.762Z</time></trkpt><trkpt lat="43.6294114" lon="12.5998359"><ele>302.0</ele><time>2026-05-03T10:13:50.761Z</time></trkpt><trkpt lat="43.6294187" lon="12.5995828"><ele>303.0</ele><time>2026-05-03T10:13:51.76Z</time></trkpt><trkpt lat="43.62943" lon="12.5993207"><ele>304.0</ele><time>2026-05-03T10:13:52.763Z</time></trkpt><trkpt lat="43.6294502" lon="12.5990592"><ele>305.0</ele><time>2026-05-03T10:13:53.763Z</time></trkpt><trkpt lat="43.6294771" lon="12.5987951"><ele>302.0</ele><time>2026-05-03T10:13:54.761Z</time></trkpt><trkpt lat="43.6295035" lon="12.5985217"><ele>299.0</ele><time>2026-05-03T10:13:55.762Z</time></trkpt><trkpt lat="43.6295225" lon="12.59824"><ele>296.0</ele><time>2026-05-03T10:13:56.76Z</time></trkpt><trkpt lat="43.6295444" lon="12.5979593"><ele>296.6666666666667</ele><time>2026-05-03T10:13:57.762Z</time></trkpt><trkpt lat="43.6295618" lon="12.5976852"><ele>297.3333333333333</ele><time>2026-05-03T10:13:58.762Z</time></trkpt><trkpt lat="43.6295775" lon="12.5974225"><ele>298.0</ele><time>2026-05-03T10:13:59.762Z</time></trkpt><trkpt lat="43.6295907" lon="12.5971831"><ele>299.0</ele><time>2026-05-03T10:14:00.762Z</time></trkpt><trkpt lat="43.6295918" lon="12.5969542"><ele>300.0</ele><time>2026-05-03T10:14:01.763Z</time></trkpt><trkpt lat="43.6295923" lon="12.5967286"><ele>301.0</ele><time>2026-05-03T10:14:02.763Z</time></trkpt><trkpt lat="43.629582" lon="12.5965179"><ele>301.0</ele><time>2026-05-03T10:14:03.761Z</time></trkpt><trkpt lat="43.6295842" lon="12.5963049"><ele>301.0</ele><time>2026-05-03T10:14:04.762Z</time></trkpt><trkpt lat="43.6295953" lon="12.5960782"><ele>301.0</ele><time>2026-05-03T10:14:05.761Z</time></trkpt><trkpt lat="43.6296215" lon="12.5958485"><ele>299.66666666666663</ele><time>2026-05-03T10:14:06.761Z</time></trkpt><trkpt lat="43.6296567" lon="12.5956171"><ele>298.3333333333333</ele><time>2026-05-03T10:14:07.762Z</time></trkpt><trkpt lat="43.6296943" lon="12.5953883"><ele>297.0</ele><time>2026-05-03T10:14:08.761Z</time></trkpt><trkpt lat="43.6297476" lon="12.5951561"><ele>296.3333333333333</ele><time>2026-05-03T10:14:09.763Z</time></trkpt><trkpt lat="43.6298003" lon="12.59492"><ele>295.66666666666663</ele><time>2026-05-03T10:14:10.761Z</time></trkpt><trkpt lat="43.629862" lon="12.5946794"><ele>295.0</ele><time>2026-05-03T10:14:11.762Z</time></trkpt><trkpt lat="43.6299206" lon="12.5944307"><ele>292.3333333333333</ele><time>2026-05-03T10:14:12.762Z</time></trkpt><trkpt lat="43.6299814" lon="12.5941788"><ele>289.6666666666667</ele><time>2026-05-03T10:14:13.763Z</time></trkpt><trkpt lat="43.630045" lon="12.5939245"><ele>287.0</ele><time>2026-05-03T10:14:14.762Z</time></trkpt><trkpt lat="43.6301081" lon="12.5936655"><ele>284.6666666666667</ele><time>2026-05-03T10:14:15.761Z</time></trkpt><trkpt lat="43.6301708" lon="12.5934149"><ele>282.3333333333333</ele><time>2026-05-03T10:14:16.762Z</time></trkpt><trkpt lat="43.630232" lon="12.5931639"><ele>280.0</ele><time>2026-05-03T10:14:17.762Z</time></trkpt><trkpt lat="43.6302893" lon="12.5929102"><ele>281.3333333333333</ele><time>2026-05-03T10:14:18.762Z</time></trkpt><trkpt lat="43.6303498" lon="12.5926638"><ele>282.6666666666667</ele><time>2026-05-03T10:14:19.762Z</time></trkpt><trkpt lat="43.6304112" lon="12.5924146"><ele>284.0</ele><time>2026-05-03T10:14:20.761Z</time></trkpt><trkpt lat="43.6304753" lon="12.5921677"><ele>283.0</ele><time>2026-05-03T10:14:21.76Z</time></trkpt><trkpt lat="43.6305356" lon="12.5919365"><ele>282.0</ele><time>2026-05-03T10:14:22.76Z</time></trkpt><trkpt lat="43.6305939" lon="12.5917023"><ele>281.0</ele><time>2026-05-03T10:14:23.762Z</time></trkpt><trkpt lat="43.6306263" lon="12.5914507"><ele>281.0</ele><time>2026-05-03T10:14:24.761Z</time></trkpt><trkpt lat="43.6306447" lon="12.5911789"><ele>281.0</ele><time>2026-05-03T10:14:25.761Z</time></trkpt><trkpt lat="43.6306352" lon="12.5909131"><ele>281.0</ele><time>2026-05-03T10:14:26.762Z</time></trkpt><trkpt lat="43.6306256" lon="12.5906644"><ele>280.33333333333337</ele><time>2026-05-03T10:14:27.762Z</time></trkpt><trkpt lat="43.6306243" lon="12.5904321"><ele>279.6666666666667</ele><time>2026-05-03T10:14:28.761Z</time></trkpt><trkpt lat="43.630648" lon="12.5902165"><ele>279.0</ele><time>2026-05-03T10:14:29.763Z</time></trkpt><trkpt lat="43.6307002" lon="12.590006"><ele>278.3333333333333</ele><time>2026-05-03T10:14:30.762Z</time></trkpt><trkpt lat="43.6307897" lon="12.5897973"><ele>277.66666666666663</ele><time>2026-05-03T10:14:31.762Z</time></trkpt><trkpt lat="43.6308973" lon="12.5896012"><ele>277.0</ele><time>2026-05-03T10:14:32.762Z</time></trkpt><trkpt lat="43.6310055" lon="12.5894228"><ele>277.0</ele><time>2026-05-03T10:14:33.761Z</time></trkpt><trkpt lat="43.6311109" lon="12.5892455"><ele>277.0</ele><time>2026-05-03T10:14:34.762Z</time></trkpt><trkpt lat="43.6312163" lon="12.5890666"><ele>277.0</ele><time>2026-05-03T10:14:35.762Z</time></trkpt><trkpt lat="43.63132" lon="12.5888814"><ele>277.0</ele><time>2026-05-03T10:14:36.762Z</time></trkpt><trkpt lat="43.6314235" lon="12.5887081"><ele>277.0</ele><time>2026-05-03T10:14:37.76Z</time></trkpt><trkpt lat="43.6315254" lon="12.5885341"><ele>277.0</ele><time>2026-05-03T10:14:38.762Z</time></trkpt><trkpt lat="43.6316262" lon="12.5883644"><ele>275.0</ele><time>2026-05-03T10:14:39.763Z</time></trkpt><trkpt lat="43.631718" lon="12.5881904"><ele>273.0</ele><time>2026-05-03T10:14:40.762Z</time></trkpt><trkpt lat="43.6317829" lon="12.5879847"><ele>271.0</ele><time>2026-05-03T10:14:41.761Z</time></trkpt><trkpt lat="43.6318252" lon="12.5877487"><ele>269.66666666666663</ele><time>2026-05-03T10:14:42.761Z</time></trkpt><trkpt lat="43.6318034" lon="12.5875182"><ele>268.3333333333333</ele><time>2026-05-03T10:14:43.763Z</time></trkpt><trkpt lat="43.631777" lon="12.5873031"><ele>267.0</ele><time>2026-05-03T10:14:44.762Z</time></trkpt><trkpt lat="43.6317517" lon="12.5871019"><ele>267.0</ele><time>2026-05-03T10:14:45.762Z</time></trkpt><trkpt lat="43.6317242" lon="12.5869084"><ele>267.0</ele><time>2026-05-03T10:14:46.761Z</time></trkpt><trkpt lat="43.6316872" lon="12.5867194"><ele>267.0</ele><time>2026-05-03T10:14:47.761Z</time></trkpt><trkpt lat="43.6316518" lon="12.5865326"><ele>267.0</ele><time>2026-05-03T10:14:48.761Z</time></trkpt><trkpt lat="43.6316287" lon="12.5863375"><ele>265.75</ele><time>2026-05-03T10:14:49.761Z</time></trkpt><trkpt lat="43.6316234" lon="12.5861427"><ele>264.5</ele><time>2026-05-03T10:14:50.762Z</time></trkpt><trkpt lat="43.6316451" lon="12.5859366"><ele>263.25</ele><time>2026-05-03T10:14:51.762Z</time></trkpt><trkpt lat="43.6316838" lon="12.5857265"><ele>262.0</ele><time>2026-05-03T10:14:52.761Z</time></trkpt><trkpt lat="43.6317579" lon="12.5855283"><ele>262.0</ele><time>2026-05-03T10:14:53.762Z</time></trkpt><trkpt lat="43.6318649" lon="12.5853523"><ele>262.0</ele><time>2026-05-03T10:14:54.762Z</time></trkpt><trkpt lat="43.6319986" lon="12.5852045"><ele>262.0</ele><time>2026-05-03T10:14:55.761Z</time></trkpt><trkpt lat="43.6321362" lon="12.5850756"><ele>261.66666666666663</ele><time>2026-05-03T10:14:56.761Z</time></trkpt><trkpt lat="43.6322815" lon="12.5849456"><ele>261.3333333333333</ele><time>2026-05-03T10:14:57.761Z</time></trkpt><trkpt lat="43.6324323" lon="12.5848125"><ele>261.0</ele><time>2026-05-03T10:14:58.762Z</time></trkpt><trkpt lat="43.6325822" lon="12.5846833"><ele>261.0</ele><time>2026-05-03T10:14:59.761Z</time></trkpt><trkpt lat="43.6327331" lon="12.5845621"><ele>261.0</ele><time>2026-05-03T10:15:00.762Z</time></trkpt><trkpt lat="43.6328831" lon="12.5844325"><ele>261.0</ele><time>2026-05-03T10:15:01.761Z</time></trkpt><trkpt lat="43.6330344" lon="12.5842962"><ele>259.6666666666667</ele><time>2026-05-03T10:15:02.762Z</time></trkpt><trkpt lat="43.6331851" lon="12.5841612"><ele>258.33333333333337</ele><time>2026-05-03T10:15:03.761Z</time></trkpt><trkpt lat="43.6333416" lon="12.5840212"><ele>257.0</ele><time>2026-05-03T10:15:04.761Z</time></trkpt><trkpt lat="43.6335044" lon="12.5838879"><ele>257.0</ele><time>2026-05-03T10:15:05.761Z</time></trkpt><trkpt lat="43.6336663" lon="12.5837551"><ele>257.0</ele><time>2026-05-03T10:15:06.762Z</time></trkpt><trkpt lat="43.6338253" lon="12.5836365"><ele>257.0</ele><time>2026-05-03T10:15:07.76Z</time></trkpt><trkpt lat="43.6339877" lon="12.5835292"><ele>257.0</ele><time>2026-05-03T10:15:08.761Z</time></trkpt><trkpt lat="43.6341449" lon="12.5834304"><ele>257.0</ele><time>2026-05-03T10:15:09.761Z</time></trkpt><trkpt lat="43.6343017" lon="12.5833464"><ele>257.0</ele><time>2026-05-03T10:15:10.762Z</time></trkpt><trkpt lat="43.6344587" lon="12.5832662"><ele>255.33333333333334</ele><time>2026-05-03T10:15:11.761Z</time></trkpt><trkpt lat="43.6346176" lon="12.5831875"><ele>253.66666666666669</ele><time>2026-05-03T10:15:12.762Z</time></trkpt><trkpt lat="43.6347791" lon="12.5831104"><ele>252.0</ele><time>2026-05-03T10:15:13.76Z</time></trkpt><trkpt lat="43.6349389" lon="12.5830307"><ele>252.0</ele><time>2026-05-03T10:15:14.762Z</time></trkpt><trkpt lat="43.6351005" lon="12.5829562"><ele>252.0</ele><time>2026-05-03T10:15:15.76Z</time></trkpt><trkpt lat="43.6352586" lon="12.5828806"><ele>252.0</ele><time>2026-05-03T10:15:16.763Z</time></trkpt><trkpt lat="43.635417" lon="12.5827956"><ele>254.66666666666669</ele><time>2026-05-03T10:15:17.761Z</time></trkpt><trkpt lat="43.6355789" lon="12.582708"><ele>257.33333333333337</ele><time>2026-05-03T10:15:18.761Z</time></trkpt><trkpt lat="43.635735" lon="12.582604"><ele>260.0</ele><time>2026-05-03T10:15:19.761Z</time></trkpt><trkpt lat="43.6358927" lon="12.582488"><ele>260.0</ele><time>2026-05-03T10:15:20.761Z</time></trkpt><trkpt lat="43.6360406" lon="12.5823695"><ele>260.0</ele><time>2026-05-03T10:15:21.76Z</time></trkpt><trkpt lat="43.6361852" lon="12.5822664"><ele>260.0</ele><time>2026-05-03T10:15:22.761Z</time></trkpt><trkpt lat="43.6363156" lon="12.5821672"><ele>260.0</ele><time>2026-05-03T10:15:23.762Z</time></trkpt><trkpt lat="43.6364364" lon="12.5820778"><ele>260.0</ele><time>2026-05-03T10:15:24.763Z</time></trkpt><trkpt lat="43.636539" lon="12.5819978"><ele>260.0</ele><time>2026-05-03T10:15:25.762Z</time></trkpt><trkpt lat="43.6366266" lon="12.5819408"><ele>260.0</ele><time>2026-05-03T10:15:26.762Z</time></trkpt><trkpt lat="43.6367048" lon="12.5819187"><ele>260.0</ele><time>2026-05-03T10:15:27.761Z</time></trkpt><trkpt lat="43.6367869" lon="12.581967"><ele>258.5</ele><time>2026-05-03T10:15:28.763Z</time></trkpt><trkpt lat="43.6368754" lon="12.5820559"><ele>257.0</ele><time>2026-05-03T10:15:29.761Z</time></trkpt><trkpt lat="43.6369867" lon="12.5821905"><ele>255.5</ele><time>2026-05-03T10:15:30.761Z</time></trkpt><trkpt lat="43.637124" lon="12.5823718"><ele>254.0</ele><time>2026-05-03T10:15:31.762Z</time></trkpt><trkpt lat="43.6372631" lon="12.5825591"><ele>253.0</ele><time>2026-05-03T10:15:32.761Z</time></trkpt><trkpt lat="43.6374123" lon="12.5827618"><ele>252.0</ele><time>2026-05-03T10:15:33.762Z</time></trkpt><trkpt lat="43.6375487" lon="12.5829525"><ele>251.0</ele><time>2026-05-03T10:15:34.762Z</time></trkpt><trkpt lat="43.6376779" lon="12.583139"><ele>250.66666666666669</ele><time>2026-05-03T10:15:35.762Z</time></trkpt><trkpt lat="43.637802" lon="12.5833137"><ele>250.33333333333331</ele><time>2026-05-03T10:15:36.761Z</time></trkpt><trkpt lat="43.6379243" lon="12.5834736"><ele>250.0</ele><time>2026-05-03T10:15:37.761Z</time></trkpt><trkpt lat="43.6380486" lon="12.5835963"><ele>248.33333333333331</ele><time>2026-05-03T10:15:38.761Z</time></trkpt><trkpt lat="43.6381933" lon="12.5836988"><ele>246.66666666666669</ele><time>2026-05-03T10:15:39.761Z</time></trkpt><trkpt lat="43.6383641" lon="12.5837683"><ele>245.0</ele><time>2026-05-03T10:15:40.762Z</time></trkpt><trkpt lat="43.638545" lon="12.5838331"><ele>245.0</ele><time>2026-05-03T10:15:41.761Z</time></trkpt><trkpt lat="43.6389712" lon="12.5839599"><ele>245.0</ele><time>2026-05-03T10:15:43.761Z</time></trkpt><trkpt lat="43.6391829" lon="12.5840261"><ele>245.0</ele><time>2026-05-03T10:15:44.762Z</time></trkpt><trkpt lat="43.6393892" lon="12.5840893"><ele>245.0</ele><time>2026-05-03T10:15:45.762Z</time></trkpt><trkpt lat="43.6395987" lon="12.5841553"><ele>245.0</ele><time>2026-05-03T10:15:46.762Z</time></trkpt><trkpt lat="43.6398104" lon="12.5842196"><ele>245.33333333333334</ele><time>2026-05-03T10:15:47.761Z</time></trkpt><trkpt lat="43.640024" lon="12.5842848"><ele>245.66666666666669</ele><time>2026-05-03T10:15:48.761Z</time></trkpt><trkpt lat="43.640241" lon="12.5843486"><ele>246.0</ele><time>2026-05-03T10:15:49.763Z</time></trkpt><trkpt lat="43.6404572" lon="12.5844181"><ele>246.0</ele><time>2026-05-03T10:15:50.76Z</time></trkpt><trkpt lat="43.6406775" lon="12.5844882"><ele>246.0</ele><time>2026-05-03T10:15:51.762Z</time></trkpt><trkpt lat="43.6408859" lon="12.5845587"><ele>246.0</ele><time>2026-05-03T10:15:52.761Z</time></trkpt><trkpt lat="43.6410919" lon="12.5846228"><ele>245.0</ele><time>2026-05-03T10:15:53.762Z</time></trkpt><trkpt lat="43.6412988" lon="12.5846899"><ele>244.0</ele><time>2026-05-03T10:15:54.761Z</time></trkpt><trkpt lat="43.6414954" lon="12.5847453"><ele>243.0</ele><time>2026-05-03T10:15:55.762Z</time></trkpt><trkpt lat="43.6416906" lon="12.5848069"><ele>243.0</ele><time>2026-05-03T10:15:56.761Z</time></trkpt><trkpt lat="43.6418886" lon="12.584877"><ele>243.0</ele><time>2026-05-03T10:15:57.761Z</time></trkpt><trkpt lat="43.6420896" lon="12.5849736"><ele>243.0</ele><time>2026-05-03T10:15:58.763Z</time></trkpt><trkpt lat="43.642299" lon="12.5851069"><ele>242.0</ele><time>2026-05-03T10:15:59.761Z</time></trkpt><trkpt lat="43.6425208" lon="12.5852773"><ele>241.0</ele><time>2026-05-03T10:16:00.761Z</time></trkpt><trkpt lat="43.6427446" lon="12.5854442"><ele>238.5</ele><time>2026-05-03T10:16:01.76Z</time></trkpt><trkpt lat="43.6429553" lon="12.5855857"><ele>236.0</ele><time>2026-05-03T10:16:02.761Z</time></trkpt><trkpt lat="43.6431602" lon="12.5857123"><ele>236.0</ele><time>2026-05-03T10:16:03.761Z</time></trkpt><trkpt lat="43.6433527" lon="12.5858113"><ele>236.0</ele><time>2026-05-03T10:16:04.76Z</time></trkpt><trkpt lat="43.6435508" lon="12.5858983"><ele>236.0</ele><time>2026-05-03T10:16:05.762Z</time></trkpt><trkpt lat="43.6437433" lon="12.5859762"><ele>236.0</ele><time>2026-05-03T10:16:06.761Z</time></trkpt><trkpt lat="43.6439343" lon="12.5860551"><ele>236.0</ele><time>2026-05-03T10:16:07.761Z</time></trkpt><trkpt lat="43.644122" lon="12.5861373"><ele>236.0</ele><time>2026-05-03T10:16:08.761Z</time></trkpt><trkpt lat="43.6443058" lon="12.5862143"><ele>235.0</ele><time>2026-05-03T10:16:09.762Z</time></trkpt><trkpt lat="43.6444882" lon="12.5862938"><ele>234.0</ele><time>2026-05-03T10:16:10.762Z</time></trkpt><trkpt lat="43.6446621" lon="12.5863758"><ele>233.0</ele><time>2026-05-03T10:16:11.761Z</time></trkpt><trkpt lat="43.6448336" lon="12.5864373"><ele>233.0</ele><time>2026-05-03T10:16:12.76Z</time></trkpt><trkpt lat="43.6450152" lon="12.5864597"><ele>233.0</ele><time>2026-05-03T10:16:13.761Z</time></trkpt><trkpt lat="43.6452185" lon="12.5864335"><ele>233.0</ele><time>2026-05-03T10:16:14.761Z</time></trkpt><trkpt lat="43.6454408" lon="12.5863608"><ele>233.33333333333334</ele><time>2026-05-03T10:16:15.761Z</time></trkpt><trkpt lat="43.6456637" lon="12.586279"><ele>233.66666666666669</ele><time>2026-05-03T10:16:16.761Z</time></trkpt><trkpt lat="43.6458771" lon="12.5862135"><ele>234.0</ele><time>2026-05-03T10:16:17.761Z</time></trkpt><trkpt lat="43.6460681" lon="12.5861981"><ele>233.66666666666669</ele><time>2026-05-03T10:16:18.761Z</time></trkpt><trkpt lat="43.6462579" lon="12.5861894"><ele>233.33333333333334</ele><time>2026-05-03T10:16:19.762Z</time></trkpt><trkpt lat="43.6464395" lon="12.5861719"><ele>233.0</ele><time>2026-05-03T10:16:20.763Z</time></trkpt><trkpt lat="43.6466224" lon="12.5861127"><ele>233.0</ele><time>2026-05-03T10:16:21.762Z</time></trkpt><trkpt lat="43.6468208" lon="12.5860232"><ele>233.0</ele><time>2026-05-03T10:16:22.761Z</time></trkpt><trkpt lat="43.6470275" lon="12.585916"><ele>233.0</ele><time>2026-05-03T10:16:23.762Z</time></trkpt><trkpt lat="43.647215" lon="12.5858106"><ele>231.0</ele><time>2026-05-03T10:16:24.761Z</time></trkpt><trkpt lat="43.647403" lon="12.5857168"><ele>229.0</ele><time>2026-05-03T10:16:25.762Z</time></trkpt><trkpt lat="43.6475753" lon="12.5856235"><ele>227.0</ele><time>2026-05-03T10:16:26.761Z</time></trkpt><trkpt lat="43.6477325" lon="12.5855288"><ele>228.25</ele><time>2026-05-03T10:16:27.763Z</time></trkpt><trkpt lat="43.6478687" lon="12.585458"><ele>229.5</ele><time>2026-05-03T10:16:28.762Z</time></trkpt><trkpt lat="43.6479916" lon="12.5853909"><ele>230.75</ele><time>2026-05-03T10:16:29.762Z</time></trkpt><trkpt lat="43.6480818" lon="12.5853551"><ele>232.0</ele><time>2026-05-03T10:16:30.762Z</time></trkpt><trkpt lat="43.6481646" lon="12.5853415"><ele>232.0</ele><time>2026-05-03T10:16:31.762Z</time></trkpt><trkpt lat="43.6482885" lon="12.585393"><ele>232.0</ele><time>2026-05-03T10:16:33.763Z</time></trkpt><trkpt lat="43.6483297" lon="12.5854889"><ele>232.0</ele><time>2026-05-03T10:16:34.762Z</time></trkpt><trkpt lat="43.6483803" lon="12.5856306"><ele>232.0</ele><time>2026-05-03T10:16:35.761Z</time></trkpt><trkpt lat="43.6484347" lon="12.5858113"><ele>232.0</ele><time>2026-05-03T10:16:36.762Z</time></trkpt><trkpt lat="43.6484987" lon="12.5860246"><ele>232.0</ele><time>2026-05-03T10:16:37.763Z</time></trkpt><trkpt lat="43.6485669" lon="12.5862551"><ele>232.0</ele><time>2026-05-03T10:16:38.76Z</time></trkpt><trkpt lat="43.6486441" lon="12.5865037"><ele>234.66666666666666</ele><time>2026-05-03T10:16:39.762Z</time></trkpt><trkpt lat="43.6487183" lon="12.5867553"><ele>237.33333333333331</ele><time>2026-05-03T10:16:40.76Z</time></trkpt><trkpt lat="43.6488009" lon="12.58704"><ele>240.0</ele><time>2026-05-03T10:16:41.762Z</time></trkpt><trkpt lat="43.6488956" lon="12.5873285"><ele>240.0</ele><time>2026-05-03T10:16:42.763Z</time></trkpt><trkpt lat="43.6489884" lon="12.5876215"><ele>240.0</ele><time>2026-05-03T10:16:43.763Z</time></trkpt><trkpt lat="43.6491081" lon="12.5879335"><ele>240.0</ele><time>2026-05-03T10:16:44.761Z</time></trkpt><trkpt lat="43.6492221" lon="12.588237"><ele>240.0</ele><time>2026-05-03T10:16:45.761Z</time></trkpt><trkpt lat="43.6493441" lon="12.5885292"><ele>239.5</ele><time>2026-05-03T10:16:46.76Z</time></trkpt><trkpt lat="43.6494622" lon="12.5888151"><ele>239.0</ele><time>2026-05-03T10:16:47.762Z</time></trkpt><trkpt lat="43.6495817" lon="12.589099"><ele>239.0</ele><time>2026-05-03T10:16:48.76Z</time></trkpt><trkpt lat="43.6497052" lon="12.5893874"><ele>239.0</ele><time>2026-05-03T10:16:49.761Z</time></trkpt><trkpt lat="43.6498292" lon="12.5896666"><ele>239.5</ele><time>2026-05-03T10:16:50.761Z</time></trkpt><trkpt lat="43.6499566" lon="12.5899514"><ele>240.0</ele><time>2026-05-03T10:16:51.762Z</time></trkpt><trkpt lat="43.6500792" lon="12.5902325"><ele>240.0</ele><time>2026-05-03T10:16:52.761Z</time></trkpt><trkpt lat="43.6502014" lon="12.5905145"><ele>240.0</ele><time>2026-05-03T10:16:53.761Z</time></trkpt><trkpt lat="43.6503238" lon="12.5907969"><ele>239.5</ele><time>2026-05-03T10:16:54.762Z</time></trkpt><trkpt lat="43.6504473" lon="12.5910696"><ele>239.0</ele><time>2026-05-03T10:16:55.763Z</time></trkpt><trkpt lat="43.6505639" lon="12.5913297"><ele>238.0</ele><time>2026-05-03T10:16:56.761Z</time></trkpt><trkpt lat="43.6506711" lon="12.5915672"><ele>237.0</ele><time>2026-05-03T10:16:57.761Z</time></trkpt><trkpt lat="43.6507735" lon="12.5918041"><ele>236.0</ele><time>2026-05-03T10:16:58.761Z</time></trkpt><trkpt lat="43.6508665" lon="12.5920415"><ele>235.33333333333334</ele><time>2026-05-03T10:16:59.761Z</time></trkpt><trkpt lat="43.6509643" lon="12.5922831"><ele>234.66666666666669</ele><time>2026-05-03T10:17:00.76Z</time></trkpt><trkpt lat="43.6510705" lon="12.5925238"><ele>234.0</ele><time>2026-05-03T10:17:01.761Z</time></trkpt><trkpt lat="43.6511745" lon="12.5927627"><ele>235.0</ele><time>2026-05-03T10:17:02.761Z</time></trkpt><trkpt lat="43.6512782" lon="12.5930097"><ele>236.0</ele><time>2026-05-03T10:17:03.763Z</time></trkpt><trkpt lat="43.6513847" lon="12.5932665"><ele>237.0</ele><time>2026-05-03T10:17:04.762Z</time></trkpt><trkpt lat="43.6514899" lon="12.5935211"><ele>236.66666666666669</ele><time>2026-05-03T10:17:05.761Z</time></trkpt><trkpt lat="43.6515972" lon="12.5937717"><ele>236.33333333333334</ele><time>2026-05-03T10:17:06.761Z</time></trkpt><trkpt lat="43.6517115" lon="12.5940169"><ele>236.0</ele><time>2026-05-03T10:17:07.763Z</time></trkpt><trkpt lat="43.6518222" lon="12.5942677"><ele>236.0</ele><time>2026-05-03T10:17:08.761Z</time></trkpt><trkpt lat="43.6519306" lon="12.5945178"><ele>236.0</ele><time>2026-05-03T10:17:09.762Z</time></trkpt><trkpt lat="43.6520366" lon="12.5947645"><ele>236.0</ele><time>2026-05-03T10:17:10.76Z</time></trkpt><trkpt lat="43.6521436" lon="12.5950114"><ele>236.66666666666669</ele><time>2026-05-03T10:17:11.762Z</time></trkpt><trkpt lat="43.6522508" lon="12.5952595"><ele>237.33333333333331</ele><time>2026-05-03T10:17:12.762Z</time></trkpt><trkpt lat="43.6523584" lon="12.5955103"><ele>238.0</ele><time>2026-05-03T10:17:13.762Z</time></trkpt><trkpt lat="43.6524665" lon="12.5957614"><ele>238.0</ele><time>2026-05-03T10:17:14.762Z</time></trkpt><trkpt lat="43.6525752" lon="12.5960114"><ele>238.0</ele><time>2026-05-03T10:17:15.761Z</time></trkpt><trkpt lat="43.6526808" lon="12.5962625"><ele>238.0</ele><time>2026-05-03T10:17:16.762Z</time></trkpt><trkpt lat="43.6527916" lon="12.5965098"><ele>237.66666666666666</ele><time>2026-05-03T10:17:17.762Z</time></trkpt><trkpt lat="43.652903" lon="12.5967627"><ele>237.33333333333331</ele><time>2026-05-03T10:17:18.762Z</time></trkpt><trkpt lat="43.6530105" lon="12.5970087"><ele>237.0</ele><time>2026-05-03T10:17:19.761Z</time></trkpt><trkpt lat="43.6531166" lon="12.597258"><ele>236.66666666666669</ele><time>2026-05-03T10:17:20.761Z</time></trkpt><trkpt lat="43.6532236" lon="12.5975102"><ele>236.33333333333334</ele><time>2026-05-03T10:17:21.761Z</time></trkpt><trkpt lat="43.6533362" lon="12.5977701"><ele>236.0</ele><time>2026-05-03T10:17:22.76Z</time></trkpt><trkpt lat="43.6534452" lon="12.5980309"><ele>235.66666666666669</ele><time>2026-05-03T10:17:23.761Z</time></trkpt><trkpt lat="43.6535541" lon="12.5982913"><ele>235.33333333333331</ele><time>2026-05-03T10:17:24.761Z</time></trkpt><trkpt lat="43.6536759" lon="12.5985587"><ele>235.0</ele><time>2026-05-03T10:17:25.763Z</time></trkpt><trkpt lat="43.6537993" lon="12.5988247"><ele>234.5</ele><time>2026-05-03T10:17:26.762Z</time></trkpt><trkpt lat="43.6539225" lon="12.5991013"><ele>234.0</ele><time>2026-05-03T10:17:27.762Z</time></trkpt><trkpt lat="43.6540453" lon="12.5993896"><ele>234.5</ele><time>2026-05-03T10:17:28.761Z</time></trkpt><trkpt lat="43.6541674" lon="12.5996791"><ele>235.0</ele><time>2026-05-03T10:17:29.762Z</time></trkpt><trkpt lat="43.6542922" lon="12.599979"><ele>235.0</ele><time>2026-05-03T10:17:30.76Z</time></trkpt><trkpt lat="43.6544214" lon="12.60028"><ele>235.0</ele><time>2026-05-03T10:17:31.762Z</time></trkpt><trkpt lat="43.6545524" lon="12.600585"><ele>234.5</ele><time>2026-05-03T10:17:32.761Z</time></trkpt><trkpt lat="43.6546834" lon="12.6008888"><ele>234.0</ele><time>2026-05-03T10:17:33.762Z</time></trkpt><trkpt lat="43.6548134" lon="12.6011964"><ele>233.0</ele><time>2026-05-03T10:17:34.762Z</time></trkpt><trkpt lat="43.6549518" lon="12.6015169"><ele>232.0</ele><time>2026-05-03T10:17:35.761Z</time></trkpt><trkpt lat="43.6550955" lon="12.6018494"><ele>231.5</ele><time>2026-05-03T10:17:36.761Z</time></trkpt><trkpt lat="43.6552449" lon="12.6022013"><ele>231.0</ele><time>2026-05-03T10:17:37.761Z</time></trkpt><trkpt lat="43.6554019" lon="12.6025571"><ele>231.0</ele><time>2026-05-03T10:17:38.76Z</time></trkpt><trkpt lat="43.6555427" lon="12.6028874"><ele>231.0</ele><time>2026-05-03T10:17:39.761Z</time></trkpt><trkpt lat="43.6556768" lon="12.6032016"><ele>231.0</ele><time>2026-05-03T10:17:40.761Z</time></trkpt><trkpt lat="43.6558082" lon="12.6035049"><ele>231.0</ele><time>2026-05-03T10:17:41.761Z</time></trkpt><trkpt lat="43.6559314" lon="12.6037987"><ele>230.0</ele><time>2026-05-03T10:17:42.762Z</time></trkpt><trkpt lat="43.6560589" lon="12.604088"><ele>229.0</ele><time>2026-05-03T10:17:43.762Z</time></trkpt><trkpt lat="43.6561861" lon="12.6043771"><ele>229.5</ele><time>2026-05-03T10:17:44.762Z</time></trkpt><trkpt lat="43.6563133" lon="12.604671"><ele>230.0</ele><time>2026-05-03T10:17:45.762Z</time></trkpt><trkpt lat="43.6564399" lon="12.604966"><ele>230.0</ele><time>2026-05-03T10:17:46.76Z</time></trkpt><trkpt lat="43.6565644" lon="12.6052605"><ele>230.0</ele><time>2026-05-03T10:17:47.761Z</time></trkpt><trkpt lat="43.656708" lon="12.605549"><ele>230.0</ele><time>2026-05-03T10:17:48.761Z</time></trkpt><trkpt lat="43.6568744" lon="12.6058194"><ele>230.0</ele><time>2026-05-03T10:17:49.761Z</time></trkpt><trkpt lat="43.6570662" lon="12.6060485"><ele>228.0</ele><time>2026-05-03T10:17:50.76Z</time></trkpt><trkpt lat="43.6573001" lon="12.6062612"><ele>226.0</ele><time>2026-05-03T10:17:51.76Z</time></trkpt><trkpt lat="43.6575577" lon="12.60646"><ele>226.5</ele><time>2026-05-03T10:17:52.762Z</time></trkpt><trkpt lat="43.6578331" lon="12.6066737"><ele>227.0</ele><time>2026-05-03T10:17:53.762Z</time></trkpt><trkpt lat="43.6581285" lon="12.6068907"><ele>226.5</ele><time>2026-05-03T10:17:54.763Z</time></trkpt><trkpt lat="43.6584392" lon="12.6071135"><ele>226.0</ele><time>2026-05-03T10:17:55.762Z</time></trkpt><trkpt lat="43.6587294" lon="12.6073336"><ele>226.0</ele><time>2026-05-03T10:17:56.761Z</time></trkpt><trkpt lat="43.6590077" lon="12.6075401"><ele>226.0</ele><time>2026-05-03T10:17:57.762Z</time></trkpt><trkpt lat="43.6592786" lon="12.607739"><ele>223.0</ele><time>2026-05-03T10:17:58.761Z</time></trkpt><trkpt lat="43.6595208" lon="12.6079096"><ele>220.0</ele><time>2026-05-03T10:17:59.76Z</time></trkpt><trkpt lat="43.6597514" lon="12.608083"><ele>220.0</ele><time>2026-05-03T10:18:00.761Z</time></trkpt><trkpt lat="43.6599713" lon="12.6082484"><ele>220.0</ele><time>2026-05-03T10:18:01.762Z</time></trkpt><trkpt lat="43.6601787" lon="12.6084057"><ele>218.0</ele><time>2026-05-03T10:18:02.763Z</time></trkpt><trkpt lat="43.66039" lon="12.608564"><ele>216.0</ele><time>2026-05-03T10:18:03.76Z</time></trkpt><trkpt lat="43.6605908" lon="12.6087114"><ele>216.0</ele><time>2026-05-03T10:18:04.761Z</time></trkpt><trkpt lat="43.6607978" lon="12.6088754"><ele>216.0</ele><time>2026-05-03T10:18:05.762Z</time></trkpt><trkpt lat="43.6610026" lon="12.6090364"><ele>218.5</ele><time>2026-05-03T10:18:06.762Z</time></trkpt><trkpt lat="43.6612041" lon="12.6092047"><ele>221.0</ele><time>2026-05-03T10:18:07.761Z</time></trkpt><trkpt lat="43.6614049" lon="12.6093834"><ele>221.5</ele><time>2026-05-03T10:18:08.762Z</time></trkpt><trkpt lat="43.6615979" lon="12.609572"><ele>222.0</ele><time>2026-05-03T10:18:09.762Z</time></trkpt><trkpt lat="43.6617732" lon="12.6097696"><ele>222.0</ele><time>2026-05-03T10:18:10.761Z</time></trkpt><trkpt lat="43.661935" lon="12.6099859"><ele>222.0</ele><time>2026-05-03T10:18:11.761Z</time></trkpt><trkpt lat="43.6620522" lon="12.6102607"><ele>224.0</ele><time>2026-05-03T10:18:12.763Z</time></trkpt><trkpt lat="43.6621721" lon="12.6105644"><ele>226.0</ele><time>2026-05-03T10:18:13.76Z</time></trkpt><trkpt lat="43.6622816" lon="12.610869"><ele>226.0</ele><time>2026-05-03T10:18:14.761Z</time></trkpt><trkpt lat="43.6623841" lon="12.6111586"><ele>226.0</ele><time>2026-05-03T10:18:15.76Z</time></trkpt><trkpt lat="43.6624792" lon="12.6114306"><ele>226.0</ele><time>2026-05-03T10:18:16.762Z</time></trkpt><trkpt lat="43.6625722" lon="12.6116855"><ele>226.0</ele><time>2026-05-03T10:18:17.76Z</time></trkpt><trkpt lat="43.6626539" lon="12.6119227"><ele>226.0</ele><time>2026-05-03T10:18:18.761Z</time></trkpt><trkpt lat="43.6627309" lon="12.6121448"><ele>227.33333333333331</ele><time>2026-05-03T10:18:19.761Z</time></trkpt><trkpt lat="43.6628022" lon="12.6123521"><ele>228.66666666666669</ele><time>2026-05-03T10:18:20.762Z</time></trkpt><trkpt lat="43.6628762" lon="12.6125651"><ele>230.0</ele><time>2026-05-03T10:18:21.762Z</time></trkpt><trkpt lat="43.6629523" lon="12.6127766"><ele>229.33333333333334</ele><time>2026-05-03T10:18:22.763Z</time></trkpt><trkpt lat="43.6630284" lon="12.6129938"><ele>228.66666666666669</ele><time>2026-05-03T10:18:23.761Z</time></trkpt><trkpt lat="43.6631085" lon="12.6132209"><ele>228.0</ele><time>2026-05-03T10:18:24.761Z</time></trkpt><trkpt lat="43.6631925" lon="12.613455"><ele>227.66666666666669</ele><time>2026-05-03T10:18:25.761Z</time></trkpt><trkpt lat="43.6632742" lon="12.6136996"><ele>227.33333333333334</ele><time>2026-05-03T10:18:26.761Z</time></trkpt><trkpt lat="43.6633564" lon="12.6139427"><ele>227.0</ele><time>2026-05-03T10:18:27.761Z</time></trkpt><trkpt lat="43.6634481" lon="12.6141899"><ele>227.0</ele><time>2026-05-03T10:18:28.761Z</time></trkpt><trkpt lat="43.6635369" lon="12.6144393"><ele>227.0</ele><time>2026-05-03T10:18:29.762Z</time></trkpt><trkpt lat="43.6636192" lon="12.614672"><ele>227.0</ele><time>2026-05-03T10:18:30.762Z</time></trkpt><trkpt lat="43.6636978" lon="12.6149006"><ele>227.0</ele><time>2026-05-03T10:18:31.762Z</time></trkpt><trkpt lat="43.6637824" lon="12.615143"><ele>227.0</ele><time>2026-05-03T10:18:32.76Z</time></trkpt><trkpt lat="43.6638801" lon="12.6153978"><ele>227.0</ele><time>2026-05-03T10:18:33.762Z</time></trkpt><trkpt lat="43.6639737" lon="12.6156685"><ele>226.66666666666669</ele><time>2026-05-03T10:18:34.761Z</time></trkpt><trkpt lat="43.6640653" lon="12.6159211"><ele>226.33333333333331</ele><time>2026-05-03T10:18:35.761Z</time></trkpt><trkpt lat="43.6641415" lon="12.6161463"><ele>226.0</ele><time>2026-05-03T10:18:36.761Z</time></trkpt><trkpt lat="43.6642114" lon="12.6163549"><ele>225.66666666666666</ele><time>2026-05-03T10:18:37.761Z</time></trkpt><trkpt lat="43.6642915" lon="12.6165641"><ele>225.33333333333331</ele><time>2026-05-03T10:18:38.762Z</time></trkpt><trkpt lat="43.6643655" lon="12.6167762"><ele>225.0</ele><time>2026-05-03T10:18:39.762Z</time></trkpt><trkpt lat="43.66444" lon="12.6169875"><ele>225.33333333333331</ele><time>2026-05-03T10:18:40.762Z</time></trkpt><trkpt lat="43.664522" lon="12.6172085"><ele>225.66666666666666</ele><time>2026-05-03T10:18:41.762Z</time></trkpt><trkpt lat="43.6646243" lon="12.617454"><ele>226.0</ele><time>2026-05-03T10:18:42.761Z</time></trkpt><trkpt lat="43.6647196" lon="12.6177286"><ele>224.5</ele><time>2026-05-03T10:18:43.761Z</time></trkpt><trkpt lat="43.6648182" lon="12.6180392"><ele>223.0</ele><time>2026-05-03T10:18:44.761Z</time></trkpt><trkpt lat="43.6649206" lon="12.6183679"><ele>223.0</ele><time>2026-05-03T10:18:45.762Z</time></trkpt><trkpt lat="43.6650344" lon="12.6187003"><ele>223.0</ele><time>2026-05-03T10:18:46.762Z</time></trkpt><trkpt lat="43.66515" lon="12.6190402"><ele>223.0</ele><time>2026-05-03T10:18:47.761Z</time></trkpt><trkpt lat="43.6652715" lon="12.6193893"><ele>223.0</ele><time>2026-05-03T10:18:48.761Z</time></trkpt><trkpt lat="43.6653936" lon="12.6197352"><ele>220.5</ele><time>2026-05-03T10:18:49.76Z</time></trkpt><trkpt lat="43.6655162" lon="12.6200886"><ele>218.0</ele><time>2026-05-03T10:18:50.761Z</time></trkpt><trkpt lat="43.6656429" lon="12.6204506"><ele>217.5</ele><time>2026-05-03T10:18:51.761Z</time></trkpt><trkpt lat="43.6657649" lon="12.6208185"><ele>217.0</ele><time>2026-05-03T10:18:52.761Z</time></trkpt><trkpt lat="43.665897" lon="12.6211912"><ele>216.5</ele><time>2026-05-03T10:18:53.762Z</time></trkpt><trkpt lat="43.6660357" lon="12.6215826"><ele>216.0</ele><time>2026-05-03T10:18:54.762Z</time></trkpt><trkpt lat="43.6661656" lon="12.6219509"><ele>216.0</ele><time>2026-05-03T10:18:55.763Z</time></trkpt><trkpt lat="43.6662892" lon="12.6223057"><ele>216.0</ele><time>2026-05-03T10:18:56.762Z</time></trkpt><trkpt lat="43.6663979" lon="12.6226373"><ele>216.0</ele><time>2026-05-03T10:18:57.762Z</time></trkpt><trkpt lat="43.6665072" lon="12.6229504"><ele>216.0</ele><time>2026-05-03T10:18:58.76Z</time></trkpt><trkpt lat="43.6666153" lon="12.623257"><ele>216.0</ele><time>2026-05-03T10:18:59.76Z</time></trkpt><trkpt lat="43.6667211" lon="12.6235586"><ele>216.0</ele><time>2026-05-03T10:19:00.761Z</time></trkpt><trkpt lat="43.666827" lon="12.6238496"><ele>216.5</ele><time>2026-05-03T10:19:01.76Z</time></trkpt><trkpt lat="43.6669247" lon="12.6241363"><ele>217.0</ele><time>2026-05-03T10:19:02.761Z</time></trkpt><trkpt lat="43.6670247" lon="12.6244232"><ele>214.5</ele><time>2026-05-03T10:19:03.761Z</time></trkpt><trkpt lat="43.6671219" lon="12.624709"><ele>212.0</ele><time>2026-05-03T10:19:04.762Z</time></trkpt><trkpt lat="43.667225" lon="12.6249957"><ele>212.0</ele><time>2026-05-03T10:19:05.761Z</time></trkpt><trkpt lat="43.6673289" lon="12.6252878"><ele>212.0</ele><time>2026-05-03T10:19:06.76Z</time></trkpt><trkpt lat="43.6674305" lon="12.6255805"><ele>211.5</ele><time>2026-05-03T10:19:07.762Z</time></trkpt><trkpt lat="43.6675309" lon="12.6258749"><ele>211.0</ele><time>2026-05-03T10:19:08.761Z</time></trkpt><trkpt lat="43.6676256" lon="12.6261576"><ele>210.0</ele><time>2026-05-03T10:19:09.761Z</time></trkpt><trkpt lat="43.6677241" lon="12.626445"><ele>209.0</ele><time>2026-05-03T10:19:10.762Z</time></trkpt><trkpt lat="43.6678177" lon="12.6267339"><ele>211.0</ele><time>2026-05-03T10:19:11.761Z</time></trkpt><trkpt lat="43.667916" lon="12.6270186"><ele>213.0</ele><time>2026-05-03T10:19:12.761Z</time></trkpt><trkpt lat="43.6680135" lon="12.6272986"><ele>213.0</ele><time>2026-05-03T10:19:13.762Z</time></trkpt><trkpt lat="43.6681135" lon="12.6275813"><ele>213.0</ele><time>2026-05-03T10:19:14.76Z</time></trkpt><trkpt lat="43.6682086" lon="12.6278611"><ele>212.0</ele><time>2026-05-03T10:19:15.761Z</time></trkpt><trkpt lat="43.6683042" lon="12.6281364"><ele>211.0</ele><time>2026-05-03T10:19:16.762Z</time></trkpt><trkpt lat="43.6684007" lon="12.628415"><ele>210.0</ele><time>2026-05-03T10:19:17.76Z</time></trkpt><trkpt lat="43.6684954" lon="12.6286955"><ele>210.0</ele><time>2026-05-03T10:19:18.761Z</time></trkpt><trkpt lat="43.6685944" lon="12.6289758"><ele>210.0</ele><time>2026-05-03T10:19:19.761Z</time></trkpt><trkpt lat="43.6686864" lon="12.6292422"><ele>210.0</ele><time>2026-05-03T10:19:20.761Z</time></trkpt><trkpt lat="43.6687725" lon="12.6294971"><ele>209.33333333333331</ele><time>2026-05-03T10:19:21.763Z</time></trkpt><trkpt lat="43.6688596" lon="12.6297483"><ele>208.66666666666666</ele><time>2026-05-03T10:19:22.761Z</time></trkpt><trkpt lat="43.6689473" lon="12.6299992"><ele>208.0</ele><time>2026-05-03T10:19:23.762Z</time></trkpt><trkpt lat="43.6690283" lon="12.6302308"><ele>207.66666666666666</ele><time>2026-05-03T10:19:24.76Z</time></trkpt><trkpt lat="43.669107" lon="12.630454"><ele>207.33333333333331</ele><time>2026-05-03T10:19:25.76Z</time></trkpt><trkpt lat="43.6691747" lon="12.630676"><ele>207.0</ele><time>2026-05-03T10:19:26.762Z</time></trkpt><trkpt lat="43.6692506" lon="12.630888"><ele>207.0</ele><time>2026-05-03T10:19:27.76Z</time></trkpt><trkpt lat="43.669322" lon="12.6310983"><ele>207.0</ele><time>2026-05-03T10:19:28.76Z</time></trkpt><trkpt lat="43.6693921" lon="12.6313141"><ele>207.0</ele><time>2026-05-03T10:19:29.762Z</time></trkpt><trkpt lat="43.6694651" lon="12.6315348"><ele>207.0</ele><time>2026-05-03T10:19:30.761Z</time></trkpt><trkpt lat="43.6695418" lon="12.631757"><ele>207.0</ele><time>2026-05-03T10:19:31.762Z</time></trkpt><trkpt lat="43.6696208" lon="12.6319911"><ele>207.0</ele><time>2026-05-03T10:19:32.761Z</time></trkpt><trkpt lat="43.6697012" lon="12.6322289"><ele>207.0</ele><time>2026-05-03T10:19:33.761Z</time></trkpt><trkpt lat="43.6697811" lon="12.6324664"><ele>207.0</ele><time>2026-05-03T10:19:34.76Z</time></trkpt><trkpt lat="43.6698644" lon="12.6327022"><ele>207.0</ele><time>2026-05-03T10:19:35.761Z</time></trkpt><trkpt lat="43.6699447" lon="12.6329308"><ele>206.33333333333331</ele><time>2026-05-03T10:19:36.762Z</time></trkpt><trkpt lat="43.6700248" lon="12.6331509"><ele>205.66666666666666</ele><time>2026-05-03T10:19:37.762Z</time></trkpt><trkpt lat="43.6701004" lon="12.633362"><ele>205.0</ele><time>2026-05-03T10:19:38.763Z</time></trkpt><trkpt lat="43.6701738" lon="12.6335635"><ele>204.66666666666666</ele><time>2026-05-03T10:19:39.761Z</time></trkpt><trkpt lat="43.6702457" lon="12.6337643"><ele>204.33333333333331</ele><time>2026-05-03T10:19:40.761Z</time></trkpt><trkpt lat="43.6703087" lon="12.6339592"><ele>204.0</ele><time>2026-05-03T10:19:41.762Z</time></trkpt><trkpt lat="43.6703742" lon="12.6341387"><ele>204.0</ele><time>2026-05-03T10:19:42.76Z</time></trkpt><trkpt lat="43.6704361" lon="12.6343205"><ele>204.0</ele><time>2026-05-03T10:19:43.761Z</time></trkpt><trkpt lat="43.6704954" lon="12.6345004"><ele>204.0</ele><time>2026-05-03T10:19:44.76Z</time></trkpt><trkpt lat="43.6705619" lon="12.63469"><ele>204.0</ele><time>2026-05-03T10:19:45.76Z</time></trkpt><trkpt lat="43.6706306" lon="12.6348948"><ele>204.33333333333331</ele><time>2026-05-03T10:19:46.761Z</time></trkpt><trkpt lat="43.6707051" lon="12.6351216"><ele>204.66666666666666</ele><time>2026-05-03T10:19:47.761Z</time></trkpt><trkpt lat="43.6707887" lon="12.6353706"><ele>205.0</ele><time>2026-05-03T10:19:48.76Z</time></trkpt><trkpt lat="43.6708844" lon="12.6356429"><ele>205.33333333333331</ele><time>2026-05-03T10:19:49.762Z</time></trkpt><trkpt lat="43.670981" lon="12.6359295"><ele>205.66666666666669</ele><time>2026-05-03T10:19:50.76Z</time></trkpt><trkpt lat="43.6710728" lon="12.6361992"><ele>206.0</ele><time>2026-05-03T10:19:51.762Z</time></trkpt><trkpt lat="43.6711654" lon="12.636477"><ele>206.0</ele><time>2026-05-03T10:19:52.76Z</time></trkpt><trkpt lat="43.6712616" lon="12.6367669"><ele>206.0</ele><time>2026-05-03T10:19:53.761Z</time></trkpt><trkpt lat="43.6713652" lon="12.6370753"><ele>206.0</ele><time>2026-05-03T10:19:54.76Z</time></trkpt><trkpt lat="43.6714637" lon="12.6373866"><ele>206.0</ele><time>2026-05-03T10:19:55.761Z</time></trkpt><trkpt lat="43.671573" lon="12.6376859"><ele>205.66666666666669</ele><time>2026-05-03T10:19:56.762Z</time></trkpt><trkpt lat="43.6716534" lon="12.6379673"><ele>205.33333333333331</ele><time>2026-05-03T10:19:57.762Z</time></trkpt><trkpt lat="43.6717359" lon="12.6382311"><ele>205.0</ele><time>2026-05-03T10:19:58.762Z</time></trkpt><trkpt lat="43.6718244" lon="12.6384837"><ele>205.0</ele><time>2026-05-03T10:19:59.762Z</time></trkpt><trkpt lat="43.6719087" lon="12.6387249"><ele>205.0</ele><time>2026-05-03T10:20:00.761Z</time></trkpt><trkpt lat="43.6719937" lon="12.6389608"><ele>205.0</ele><time>2026-05-03T10:20:01.761Z</time></trkpt><trkpt lat="43.6720719" lon="12.6392029"><ele>206.33333333333331</ele><time>2026-05-03T10:20:02.761Z</time></trkpt><trkpt lat="43.6721592" lon="12.6394459"><ele>207.66666666666669</ele><time>2026-05-03T10:20:03.762Z</time></trkpt><trkpt lat="43.6722413" lon="12.6396986"><ele>209.0</ele><time>2026-05-03T10:20:04.761Z</time></trkpt><trkpt lat="43.6723242" lon="12.6399505"><ele>209.0</ele><time>2026-05-03T10:20:05.762Z</time></trkpt><trkpt lat="43.672407" lon="12.6402"><ele>209.0</ele><time>2026-05-03T10:20:06.762Z</time></trkpt><trkpt lat="43.6724875" lon="12.6404395"><ele>209.0</ele><time>2026-05-03T10:20:07.761Z</time></trkpt><trkpt lat="43.6725595" lon="12.6406687"><ele>209.0</ele><time>2026-05-03T10:20:08.761Z</time></trkpt><trkpt lat="43.6726406" lon="12.6408876"><ele>209.0</ele><time>2026-05-03T10:20:09.762Z</time></trkpt><trkpt lat="43.6727107" lon="12.6411118"><ele>209.0</ele><time>2026-05-03T10:20:10.76Z</time></trkpt><trkpt lat="43.6727765" lon="12.6413125"><ele>214.33333333333334</ele><time>2026-05-03T10:20:11.761Z</time></trkpt><trkpt lat="43.6728396" lon="12.6415105"><ele>219.66666666666669</ele><time>2026-05-03T10:20:12.761Z</time></trkpt><trkpt lat="43.6729081" lon="12.6417015"><ele>225.0</ele><time>2026-05-03T10:20:13.76Z</time></trkpt><trkpt lat="43.672972" lon="12.6418894"><ele>222.0</ele><time>2026-05-03T10:20:14.76Z</time></trkpt><trkpt lat="43.673037" lon="12.6420551"><ele>219.0</ele><time>2026-05-03T10:20:15.762Z</time></trkpt><trkpt lat="43.6731012" lon="12.642209"><ele>216.0</ele><time>2026-05-03T10:20:16.761Z</time></trkpt><trkpt lat="43.6731556" lon="12.6423361"><ele>213.0</ele><time>2026-05-03T10:20:17.761Z</time></trkpt><trkpt lat="43.6731988" lon="12.6424423"><ele>213.0</ele><time>2026-05-03T10:20:18.761Z</time></trkpt><trkpt lat="43.6732345" lon="12.6425268"><ele>213.0</ele><time>2026-05-03T10:20:19.762Z</time></trkpt><trkpt lat="43.6732881" lon="12.6426525"><ele>213.0</ele><time>2026-05-03T10:20:21.762Z</time></trkpt><trkpt lat="43.6733418" lon="12.6427816"><ele>213.0</ele><time>2026-05-03T10:20:23.762Z</time></trkpt><trkpt lat="43.673374" lon="12.6428686"><ele>213.0</ele><time>2026-05-03T10:20:24.761Z</time></trkpt><trkpt lat="43.6734066" lon="12.6429631"><ele>213.0</ele><time>2026-05-03T10:20:25.76Z</time></trkpt><trkpt lat="43.6734173" lon="12.6430651"><ele>211.0</ele><time>2026-05-03T10:20:26.761Z</time></trkpt><trkpt lat="43.6734222" lon="12.6431786"><ele>209.0</ele><time>2026-05-03T10:20:27.76Z</time></trkpt><trkpt lat="43.6734176" lon="12.6433003"><ele>207.0</ele><time>2026-05-03T10:20:28.762Z</time></trkpt><trkpt lat="43.6734058" lon="12.643422"><ele>205.0</ele><time>2026-05-03T10:20:29.761Z</time></trkpt><trkpt lat="43.6733891" lon="12.6435392"><ele>203.0</ele><time>2026-05-03T10:20:30.761Z</time></trkpt><trkpt lat="43.673374" lon="12.6436611"><ele>201.0</ele><time>2026-05-03T10:20:31.761Z</time></trkpt><trkpt lat="43.6733535" lon="12.6437828"><ele>200.33333333333334</ele><time>2026-05-03T10:20:32.762Z</time></trkpt><trkpt lat="43.6733346" lon="12.6439073"><ele>199.66666666666669</ele><time>2026-05-03T10:20:33.76Z</time></trkpt><trkpt lat="43.6733172" lon="12.6440274"><ele>199.0</ele><time>2026-05-03T10:20:34.761Z</time></trkpt><trkpt lat="43.6733015" lon="12.6441391"><ele>198.33333333333334</ele><time>2026-05-03T10:20:35.761Z</time></trkpt><trkpt lat="43.6732835" lon="12.6442391"><ele>197.66666666666669</ele><time>2026-05-03T10:20:36.761Z</time></trkpt><trkpt lat="43.6732587" lon="12.64439"><ele>197.0</ele><time>2026-05-03T10:20:38.761Z</time></trkpt><trkpt lat="43.6732469" lon="12.6444957"><ele>197.00000000000003</ele><time>2026-05-03T10:20:40.76Z</time></trkpt><trkpt lat="43.6732331" lon="12.644583"><ele>197.0</ele><time>2026-05-03T10:20:44.762Z</time></trkpt><trkpt lat="43.6732333" lon="12.6446705"><ele>197.0</ele><time>2026-05-03T10:20:59.76Z</time></trkpt><trkpt lat="43.673202" lon="12.6448361"><ele>197.0</ele><time>2026-05-03T10:21:01.761Z</time></trkpt><trkpt lat="43.6731881" lon="12.6449329"><ele>197.00000000000003</ele><time>2026-05-03T10:21:02.761Z</time></trkpt><trkpt lat="43.6731687" lon="12.6450349"><ele>197.0</ele><time>2026-05-03T10:21:03.76Z</time></trkpt><trkpt lat="43.67315" lon="12.6451454"><ele>197.0</ele><time>2026-05-03T10:21:04.761Z</time></trkpt><trkpt lat="43.6731366" lon="12.6452618"><ele>197.0</ele><time>2026-05-03T10:21:05.761Z</time></trkpt><trkpt lat="43.6731234" lon="12.6453905"><ele>197.0</ele><time>2026-05-03T10:21:06.762Z</time></trkpt><trkpt lat="43.6731024" lon="12.645519"><ele>197.0</ele><time>2026-05-03T10:21:07.762Z</time></trkpt><trkpt lat="43.6730948" lon="12.6456458"><ele>197.0</ele><time>2026-05-03T10:21:08.761Z</time></trkpt><trkpt lat="43.6730887" lon="12.645773"><ele>197.6</ele><time>2026-05-03T10:21:09.762Z</time></trkpt><trkpt lat="43.6730845" lon="12.6458928"><ele>198.2</ele><time>2026-05-03T10:21:10.762Z</time></trkpt><trkpt lat="43.6730822" lon="12.6460136"><ele>198.8</ele><time>2026-05-03T10:21:11.761Z</time></trkpt><trkpt lat="43.673078" lon="12.6461418"><ele>199.4</ele><time>2026-05-03T10:21:12.76Z</time></trkpt><trkpt lat="43.6730736" lon="12.6462935"><ele>200.0</ele><time>2026-05-03T10:21:13.761Z</time></trkpt><trkpt lat="43.6730684" lon="12.646458"><ele>200.0</ele><time>2026-05-03T10:21:14.76Z</time></trkpt><trkpt lat="43.6730683" lon="12.6466216"><ele>200.0</ele><time>2026-05-03T10:21:15.761Z</time></trkpt><trkpt lat="43.6730637" lon="12.6467787"><ele>200.0</ele><time>2026-05-03T10:21:16.761Z</time></trkpt><trkpt lat="43.6730586" lon="12.6469278"><ele>200.0</ele><time>2026-05-03T10:21:17.762Z</time></trkpt><trkpt lat="43.6730566" lon="12.6470784"><ele>200.0</ele><time>2026-05-03T10:21:18.761Z</time></trkpt><trkpt lat="43.6730545" lon="12.6472294"><ele>200.8</ele><time>2026-05-03T10:21:19.761Z</time></trkpt><trkpt lat="43.6730626" lon="12.6473825"><ele>201.6</ele><time>2026-05-03T10:21:20.761Z</time></trkpt><trkpt lat="43.6730964" lon="12.6475296"><ele>202.39999999999998</ele><time>2026-05-03T10:21:21.762Z</time></trkpt><trkpt lat="43.6731549" lon="12.6476656"><ele>203.2</ele><time>2026-05-03T10:21:22.76Z</time></trkpt><trkpt lat="43.6732269" lon="12.6477615"><ele>204.0</ele><time>2026-05-03T10:21:23.76Z</time></trkpt><trkpt lat="43.6733112" lon="12.6478177"><ele>204.66666666666666</ele><time>2026-05-03T10:21:24.761Z</time></trkpt><trkpt lat="43.6733963" lon="12.6478467"><ele>205.33333333333331</ele><time>2026-05-03T10:21:25.76Z</time></trkpt><trkpt lat="43.6734878" lon="12.6478631"><ele>206.0</ele><time>2026-05-03T10:21:26.762Z</time></trkpt><trkpt lat="43.6735759" lon="12.6478684"><ele>206.66666666666666</ele><time>2026-05-03T10:21:27.762Z</time></trkpt><trkpt lat="43.6736596" lon="12.6478769"><ele>207.33333333333331</ele><time>2026-05-03T10:21:28.761Z</time></trkpt><trkpt lat="43.6737278" lon="12.6479101"><ele>208.0</ele><time>2026-05-03T10:21:29.761Z</time></trkpt><trkpt lat="43.6737873" lon="12.648039"><ele>208.0</ele><time>2026-05-03T10:21:31.761Z</time></trkpt><trkpt lat="43.6737781" lon="12.6481272"><ele>208.0</ele><time>2026-05-03T10:21:32.761Z</time></trkpt><trkpt lat="43.6737365" lon="12.6482221"><ele>208.0</ele><time>2026-05-03T10:21:33.761Z</time></trkpt><trkpt lat="43.6736586" lon="12.6483191"><ele>208.0</ele><time>2026-05-03T10:21:34.762Z</time></trkpt><trkpt lat="43.6735721" lon="12.6484224"><ele>208.0</ele><time>2026-05-03T10:21:35.76Z</time></trkpt><trkpt lat="43.6735131" lon="12.6485301"><ele>210.8</ele><time>2026-05-03T10:21:36.761Z</time></trkpt><trkpt lat="43.6734715" lon="12.6486486"><ele>213.60000000000002</ele><time>2026-05-03T10:21:37.76Z</time></trkpt><trkpt lat="43.6734559" lon="12.6487829"><ele>216.39999999999998</ele><time>2026-05-03T10:21:38.761Z</time></trkpt><trkpt lat="43.6734695" lon="12.648938"><ele>219.2</ele><time>2026-05-03T10:21:39.76Z</time></trkpt><trkpt lat="43.6735092" lon="12.6491221"><ele>222.0</ele><time>2026-05-03T10:21:40.761Z</time></trkpt><trkpt lat="43.6735535" lon="12.6493187"><ele>223.75</ele><time>2026-05-03T10:21:41.761Z</time></trkpt><trkpt lat="43.6735971" lon="12.6495277"><ele>225.5</ele><time>2026-05-03T10:21:42.76Z</time></trkpt><trkpt lat="43.6736208" lon="12.6497179"><ele>227.25</ele><time>2026-05-03T10:21:43.761Z</time></trkpt><trkpt lat="43.6736334" lon="12.6498759"><ele>229.0</ele><time>2026-05-03T10:21:44.761Z</time></trkpt><trkpt lat="43.6736482" lon="12.6500154"><ele>229.6</ele><time>2026-05-03T10:21:45.76Z</time></trkpt><trkpt lat="43.6736724" lon="12.6501319"><ele>230.2</ele><time>2026-05-03T10:21:46.76Z</time></trkpt><trkpt lat="43.6737021" lon="12.6502185"><ele>230.79999999999998</ele><time>2026-05-03T10:21:47.761Z</time></trkpt><trkpt lat="43.6738119" lon="12.6502172"><ele>231.39999999999998</ele><time>2026-05-03T10:21:49.761Z</time></trkpt><trkpt lat="43.6738704" lon="12.6501288"><ele>232.0</ele><time>2026-05-03T10:21:50.761Z</time></trkpt><trkpt lat="43.673922" lon="12.6500117"><ele>232.0</ele><time>2026-05-03T10:21:51.761Z</time></trkpt><trkpt lat="43.6739698" lon="12.64992"><ele>232.0</ele><time>2026-05-03T10:21:52.762Z</time></trkpt><trkpt lat="43.6740699" lon="12.6498938"><ele>232.0</ele><time>2026-05-03T10:21:53.762Z</time></trkpt><trkpt lat="43.6741678" lon="12.649915"><ele>232.0</ele><time>2026-05-03T10:21:54.762Z</time></trkpt><trkpt lat="43.674289" lon="12.6499915"><ele>232.0</ele><time>2026-05-03T10:21:55.76Z</time></trkpt><trkpt lat="43.6744176" lon="12.6500934"><ele>232.0</ele><time>2026-05-03T10:21:56.761Z</time></trkpt><trkpt lat="43.6745463" lon="12.6501909"><ele>232.0</ele><time>2026-05-03T10:21:57.761Z</time></trkpt><trkpt lat="43.6746568" lon="12.6502756"><ele>232.0</ele><time>2026-05-03T10:21:58.762Z</time></trkpt><trkpt lat="43.6747423" lon="12.6503383"><ele>232.0</ele><time>2026-05-03T10:21:59.762Z</time></trkpt><trkpt lat="43.6747921" lon="12.6504062"><ele>232.0</ele><time>2026-05-03T10:22:00.762Z</time></trkpt><trkpt lat="43.6747994" lon="12.6505376"><ele>249.0</ele><time>2026-05-03T10:22:02.761Z</time></trkpt><trkpt lat="43.6747655" lon="12.6506201"><ele>249.0</ele><time>2026-05-03T10:22:04.76Z</time></trkpt><trkpt lat="43.6747715" lon="12.6505114"><ele>249.0</ele><time>2026-05-03T10:24:06.761Z</time></trkpt><trkpt lat="43.6747093" lon="12.6505325"><ele>249.0</ele><time>2026-05-03T10:24:23.761Z</time></trkpt><trkpt lat="43.6747596" lon="12.6505955"><ele>249.0</ele><time>2026-05-03T10:24:36.762Z</time></trkpt></trkseg></trk></gpx>